<?xml version="1.0" encoding="UTF-8"?>
<gpx version="1.1" creator="https://www.youtrack.es" xsi:schemaLocation="http://www.topografix.com/GPX/1/1 http://www.topografix.com/GPX/1/1/gpx.xsd http://www.garmin.com/xmlschemas/GpxExtensions/v3 http://www.garmin.com/xmlschemas/GpxExtensionsv3.xsd http://www.garmin.com/xmlschemas/TrackPointExtension/v1 http://www.garmin.com/xmlschemas/TrackPointExtensionv1.xsd" xmlns:gpxtpx="http://www.garmin.com/xmlschemas/TrackPointExtension/v1" xmlns:gpxx="http://www.garmin.com/xmlschemas/GpxExtensions/v3" xmlns:xsi="http://www.w3.org/2001/XMLSchema-instance">
  <metadata>
    <link href="https://www.youtrack.es">
      <text>YouTrack.es</text>
    </link>
    <time>2026-05-08T00:52:43Z</time>
  </metadata>
  <trk>
    <src>https://www.youtrack.es</src>
    <link href="https://www.youtrack.es/ruta/10472-via-verde-navajas-caudiel">
      <text>YouTrack.es</text>
    </link>
    <trkseg>
      <trkpt lat="39.874882" lon="-0.51039">
        <ele>450.483</ele>
        <time>2020-01-17T08:48:05Z</time>
      </trkpt>
      <trkpt lat="39.874882" lon="-0.51039">
        <ele>451.682</ele>
        <time>2020-01-17T08:48:08Z</time>
      </trkpt>
      <trkpt lat="39.874868" lon="-0.510328">
        <ele>451.715</ele>
        <time>2020-01-17T08:49:25Z</time>
      </trkpt>
      <trkpt lat="39.874857" lon="-0.510294">
        <ele>451.8</ele>
        <time>2020-01-17T08:49:27Z</time>
      </trkpt>
      <trkpt lat="39.874845" lon="-0.510244">
        <ele>451.593</ele>
        <time>2020-01-17T08:49:29Z</time>
      </trkpt>
      <trkpt lat="39.874837" lon="-0.510215">
        <ele>450.731</ele>
        <time>2020-01-17T08:49:30Z</time>
      </trkpt>
      <trkpt lat="39.874811" lon="-0.510155">
        <ele>450.327</ele>
        <time>2020-01-17T08:49:32Z</time>
      </trkpt>
      <trkpt lat="39.874797" lon="-0.51012">
        <ele>450.712</ele>
        <time>2020-01-17T08:49:33Z</time>
      </trkpt>
      <trkpt lat="39.874767" lon="-0.51003">
        <ele>450.479</ele>
        <time>2020-01-17T08:49:37Z</time>
      </trkpt>
      <trkpt lat="39.874742" lon="-0.509973">
        <ele>450.646</ele>
        <time>2020-01-17T08:49:38Z</time>
      </trkpt>
      <trkpt lat="39.874729" lon="-0.509938">
        <ele>449.965</ele>
        <time>2020-01-17T08:49:39Z</time>
      </trkpt>
      <trkpt lat="39.874716" lon="-0.509903">
        <ele>450.922</ele>
        <time>2020-01-17T08:49:40Z</time>
      </trkpt>
      <trkpt lat="39.874703" lon="-0.509868">
        <ele>450.399</ele>
        <time>2020-01-17T08:49:41Z</time>
      </trkpt>
      <trkpt lat="39.874691" lon="-0.509833">
        <ele>450.436</ele>
        <time>2020-01-17T08:49:42Z</time>
      </trkpt>
      <trkpt lat="39.874679" lon="-0.509799">
        <ele>450.746</ele>
        <time>2020-01-17T08:49:43Z</time>
      </trkpt>
      <trkpt lat="39.874666" lon="-0.509766">
        <ele>450.683</ele>
        <time>2020-01-17T08:49:44Z</time>
      </trkpt>
      <trkpt lat="39.874653" lon="-0.509734">
        <ele>451.331</ele>
        <time>2020-01-17T08:49:45Z</time>
      </trkpt>
      <trkpt lat="39.874641" lon="-0.509699">
        <ele>451.831</ele>
        <time>2020-01-17T08:49:46Z</time>
      </trkpt>
      <trkpt lat="39.87463" lon="-0.509662">
        <ele>453.937</ele>
        <time>2020-01-17T08:49:47Z</time>
      </trkpt>
      <trkpt lat="39.874607" lon="-0.509572">
        <ele>454.011</ele>
        <time>2020-01-17T08:49:49Z</time>
      </trkpt>
      <trkpt lat="39.874595" lon="-0.509525">
        <ele>453.676</ele>
        <time>2020-01-17T08:49:50Z</time>
      </trkpt>
      <trkpt lat="39.874584" lon="-0.509476">
        <ele>454.576</ele>
        <time>2020-01-17T08:49:51Z</time>
      </trkpt>
      <trkpt lat="39.874575" lon="-0.509428">
        <ele>454.171</ele>
        <time>2020-01-17T08:49:52Z</time>
      </trkpt>
      <trkpt lat="39.874569" lon="-0.509384">
        <ele>454.097</ele>
        <time>2020-01-17T08:49:53Z</time>
      </trkpt>
      <trkpt lat="39.874564" lon="-0.509342">
        <ele>454.248</ele>
        <time>2020-01-17T08:49:54Z</time>
      </trkpt>
      <trkpt lat="39.874558" lon="-0.509303">
        <ele>453.604</ele>
        <time>2020-01-17T08:49:55Z</time>
      </trkpt>
      <trkpt lat="39.874553" lon="-0.509259">
        <ele>454.295</ele>
        <time>2020-01-17T08:49:56Z</time>
      </trkpt>
      <trkpt lat="39.874546" lon="-0.509213">
        <ele>454.465</ele>
        <time>2020-01-17T08:49:57Z</time>
      </trkpt>
      <trkpt lat="39.874538" lon="-0.509167">
        <ele>454.778</ele>
        <time>2020-01-17T08:49:58Z</time>
      </trkpt>
      <trkpt lat="39.874528" lon="-0.509119">
        <ele>455.615</ele>
        <time>2020-01-17T08:49:59Z</time>
      </trkpt>
      <trkpt lat="39.874517" lon="-0.509069">
        <ele>453.678</ele>
        <time>2020-01-17T08:50:00Z</time>
      </trkpt>
      <trkpt lat="39.874505" lon="-0.509018">
        <ele>453.434</ele>
        <time>2020-01-17T08:50:01Z</time>
      </trkpt>
      <trkpt lat="39.874491" lon="-0.508967">
        <ele>452.52</ele>
        <time>2020-01-17T08:50:02Z</time>
      </trkpt>
      <trkpt lat="39.874478" lon="-0.508919">
        <ele>451.865</ele>
        <time>2020-01-17T08:50:03Z</time>
      </trkpt>
      <trkpt lat="39.874464" lon="-0.508872">
        <ele>451.515</ele>
        <time>2020-01-17T08:50:04Z</time>
      </trkpt>
      <trkpt lat="39.87445" lon="-0.508824">
        <ele>452.257</ele>
        <time>2020-01-17T08:50:05Z</time>
      </trkpt>
      <trkpt lat="39.874434" lon="-0.508781">
        <ele>454.896</ele>
        <time>2020-01-17T08:50:06Z</time>
      </trkpt>
      <trkpt lat="39.874394" lon="-0.508702">
        <ele>454.213</ele>
        <time>2020-01-17T08:50:08Z</time>
      </trkpt>
      <trkpt lat="39.874343" lon="-0.508632">
        <ele>455.529</ele>
        <time>2020-01-17T08:50:10Z</time>
      </trkpt>
      <trkpt lat="39.874317" lon="-0.508601">
        <ele>455.863</ele>
        <time>2020-01-17T08:50:11Z</time>
      </trkpt>
      <trkpt lat="39.87429" lon="-0.50857">
        <ele>456.435</ele>
        <time>2020-01-17T08:50:12Z</time>
      </trkpt>
      <trkpt lat="39.87426" lon="-0.50854">
        <ele>456.662</ele>
        <time>2020-01-17T08:50:13Z</time>
      </trkpt>
      <trkpt lat="39.874229" lon="-0.508513">
        <ele>456.288</ele>
        <time>2020-01-17T08:50:14Z</time>
      </trkpt>
      <trkpt lat="39.874198" lon="-0.508488">
        <ele>456.689</ele>
        <time>2020-01-17T08:50:15Z</time>
      </trkpt>
      <trkpt lat="39.874168" lon="-0.50846">
        <ele>455.774</ele>
        <time>2020-01-17T08:50:16Z</time>
      </trkpt>
      <trkpt lat="39.874139" lon="-0.50843">
        <ele>456.159</ele>
        <time>2020-01-17T08:50:17Z</time>
      </trkpt>
      <trkpt lat="39.874111" lon="-0.508399">
        <ele>456.128</ele>
        <time>2020-01-17T08:50:18Z</time>
      </trkpt>
      <trkpt lat="39.874085" lon="-0.508369">
        <ele>456.225</ele>
        <time>2020-01-17T08:50:19Z</time>
      </trkpt>
      <trkpt lat="39.874058" lon="-0.508339">
        <ele>454.39</ele>
        <time>2020-01-17T08:50:20Z</time>
      </trkpt>
      <trkpt lat="39.874031" lon="-0.508306">
        <ele>454.427</ele>
        <time>2020-01-17T08:50:21Z</time>
      </trkpt>
      <trkpt lat="39.874004" lon="-0.508274">
        <ele>454.682</ele>
        <time>2020-01-17T08:50:22Z</time>
      </trkpt>
      <trkpt lat="39.873977" lon="-0.508243">
        <ele>453.948</ele>
        <time>2020-01-17T08:50:23Z</time>
      </trkpt>
      <trkpt lat="39.873951" lon="-0.508214">
        <ele>454.449</ele>
        <time>2020-01-17T08:50:24Z</time>
      </trkpt>
      <trkpt lat="39.873927" lon="-0.508188">
        <ele>454.568</ele>
        <time>2020-01-17T08:50:25Z</time>
      </trkpt>
      <trkpt lat="39.873903" lon="-0.508163">
        <ele>454.995</ele>
        <time>2020-01-17T08:50:26Z</time>
      </trkpt>
      <trkpt lat="39.87388" lon="-0.508135">
        <ele>455.354</ele>
        <time>2020-01-17T08:50:27Z</time>
      </trkpt>
      <trkpt lat="39.873856" lon="-0.508105">
        <ele>455.226</ele>
        <time>2020-01-17T08:50:28Z</time>
      </trkpt>
      <trkpt lat="39.873831" lon="-0.508074">
        <ele>455.67</ele>
        <time>2020-01-17T08:50:29Z</time>
      </trkpt>
      <trkpt lat="39.873804" lon="-0.508044">
        <ele>455.738</ele>
        <time>2020-01-17T08:50:30Z</time>
      </trkpt>
      <trkpt lat="39.873778" lon="-0.508014">
        <ele>454.669</ele>
        <time>2020-01-17T08:50:31Z</time>
      </trkpt>
      <trkpt lat="39.873749" lon="-0.507984">
        <ele>454.556</ele>
        <time>2020-01-17T08:50:32Z</time>
      </trkpt>
      <trkpt lat="39.873695" lon="-0.507926">
        <ele>454.276</ele>
        <time>2020-01-17T08:50:34Z</time>
      </trkpt>
      <trkpt lat="39.873666" lon="-0.507896">
        <ele>454.193</ele>
        <time>2020-01-17T08:50:35Z</time>
      </trkpt>
      <trkpt lat="39.873636" lon="-0.50787">
        <ele>455.083</ele>
        <time>2020-01-17T08:50:36Z</time>
      </trkpt>
      <trkpt lat="39.873577" lon="-0.507835">
        <ele>454.007</ele>
        <time>2020-01-17T08:50:38Z</time>
      </trkpt>
      <trkpt lat="39.873523" lon="-0.50781">
        <ele>453.949</ele>
        <time>2020-01-17T08:50:40Z</time>
      </trkpt>
      <trkpt lat="39.873496" lon="-0.507797">
        <ele>453.956</ele>
        <time>2020-01-17T08:50:41Z</time>
      </trkpt>
      <trkpt lat="39.873471" lon="-0.507786">
        <ele>453.814</ele>
        <time>2020-01-17T08:50:42Z</time>
      </trkpt>
      <trkpt lat="39.873422" lon="-0.50778">
        <ele>453.814</ele>
        <time>2020-01-17T08:50:45Z</time>
      </trkpt>
      <trkpt lat="39.873422" lon="-0.50778">
        <ele>454.618</ele>
        <time>2020-01-17T08:50:50Z</time>
      </trkpt>
      <trkpt lat="39.873422" lon="-0.50778">
        <ele>456.912</ele>
        <time>2020-01-17T08:50:50Z</time>
      </trkpt>
      <trkpt lat="39.87336" lon="-0.507765">
        <ele>457.803</ele>
        <time>2020-01-17T08:51:12Z</time>
      </trkpt>
      <trkpt lat="39.873314" lon="-0.507765">
        <ele>457.891</ele>
        <time>2020-01-17T08:51:14Z</time>
      </trkpt>
      <trkpt lat="39.873283" lon="-0.507768">
        <ele>458.249</ele>
        <time>2020-01-17T08:51:15Z</time>
      </trkpt>
      <trkpt lat="39.873283" lon="-0.507768">
        <ele>458.137</ele>
        <time>2020-01-17T08:51:15Z</time>
      </trkpt>
      <trkpt lat="39.87326" lon="-0.507769">
        <ele>457.879</ele>
        <time>2020-01-17T08:51:16Z</time>
      </trkpt>
      <trkpt lat="39.873221" lon="-0.50777">
        <ele>458.387</ele>
        <time>2020-01-17T08:51:17Z</time>
      </trkpt>
      <trkpt lat="39.87319" lon="-0.507773">
        <ele>458.718</ele>
        <time>2020-01-17T08:51:18Z</time>
      </trkpt>
      <trkpt lat="39.873165" lon="-0.507774">
        <ele>458.382</ele>
        <time>2020-01-17T08:51:19Z</time>
      </trkpt>
      <trkpt lat="39.873107" lon="-0.507772">
        <ele>458.833</ele>
        <time>2020-01-17T08:51:21Z</time>
      </trkpt>
      <trkpt lat="39.873073" lon="-0.507772">
        <ele>462.182</ele>
        <time>2020-01-17T08:51:22Z</time>
      </trkpt>
      <trkpt lat="39.873042" lon="-0.507774">
        <ele>462.286</ele>
        <time>2020-01-17T08:51:23Z</time>
      </trkpt>
      <trkpt lat="39.873012" lon="-0.507776">
        <ele>462.264</ele>
        <time>2020-01-17T08:51:24Z</time>
      </trkpt>
      <trkpt lat="39.872987" lon="-0.507779">
        <ele>462.429</ele>
        <time>2020-01-17T08:51:25Z</time>
      </trkpt>
      <trkpt lat="39.872962" lon="-0.50778">
        <ele>462.739</ele>
        <time>2020-01-17T08:51:26Z</time>
      </trkpt>
      <trkpt lat="39.87293" lon="-0.507781">
        <ele>462.427</ele>
        <time>2020-01-17T08:51:27Z</time>
      </trkpt>
      <trkpt lat="39.872897" lon="-0.507783">
        <ele>462.229</ele>
        <time>2020-01-17T08:51:28Z</time>
      </trkpt>
      <trkpt lat="39.872866" lon="-0.507786">
        <ele>461.878</ele>
        <time>2020-01-17T08:51:29Z</time>
      </trkpt>
      <trkpt lat="39.872829" lon="-0.507792">
        <ele>462.429</ele>
        <time>2020-01-17T08:51:30Z</time>
      </trkpt>
      <trkpt lat="39.872794" lon="-0.507796">
        <ele>462.76</ele>
        <time>2020-01-17T08:51:31Z</time>
      </trkpt>
      <trkpt lat="39.87276" lon="-0.507801">
        <ele>462.267</ele>
        <time>2020-01-17T08:51:32Z</time>
      </trkpt>
      <trkpt lat="39.872727" lon="-0.507804">
        <ele>463.324</ele>
        <time>2020-01-17T08:51:33Z</time>
      </trkpt>
      <trkpt lat="39.872698" lon="-0.507805">
        <ele>463.271</ele>
        <time>2020-01-17T08:51:34Z</time>
      </trkpt>
      <trkpt lat="39.87267" lon="-0.507808">
        <ele>462.116</ele>
        <time>2020-01-17T08:51:35Z</time>
      </trkpt>
      <trkpt lat="39.87264" lon="-0.507809">
        <ele>461.8</ele>
        <time>2020-01-17T08:51:36Z</time>
      </trkpt>
      <trkpt lat="39.872605" lon="-0.507811">
        <ele>462.077</ele>
        <time>2020-01-17T08:51:37Z</time>
      </trkpt>
      <trkpt lat="39.872567" lon="-0.507815">
        <ele>461.959</ele>
        <time>2020-01-17T08:51:38Z</time>
      </trkpt>
      <trkpt lat="39.872532" lon="-0.507818">
        <ele>461.407</ele>
        <time>2020-01-17T08:51:39Z</time>
      </trkpt>
      <trkpt lat="39.872498" lon="-0.507822">
        <ele>462.149</ele>
        <time>2020-01-17T08:51:40Z</time>
      </trkpt>
      <trkpt lat="39.872465" lon="-0.507825">
        <ele>461.193</ele>
        <time>2020-01-17T08:51:41Z</time>
      </trkpt>
      <trkpt lat="39.87243" lon="-0.507826">
        <ele>460.865</ele>
        <time>2020-01-17T08:51:42Z</time>
      </trkpt>
      <trkpt lat="39.872395" lon="-0.507827">
        <ele>460.728</ele>
        <time>2020-01-17T08:51:43Z</time>
      </trkpt>
      <trkpt lat="39.87236" lon="-0.507828">
        <ele>461.181</ele>
        <time>2020-01-17T08:51:44Z</time>
      </trkpt>
      <trkpt lat="39.872325" lon="-0.50783">
        <ele>460.52</ele>
        <time>2020-01-17T08:51:45Z</time>
      </trkpt>
      <trkpt lat="39.87229" lon="-0.507831">
        <ele>460.668</ele>
        <time>2020-01-17T08:51:46Z</time>
      </trkpt>
      <trkpt lat="39.872256" lon="-0.507835">
        <ele>460.834</ele>
        <time>2020-01-17T08:51:47Z</time>
      </trkpt>
      <trkpt lat="39.872221" lon="-0.507842">
        <ele>460.847</ele>
        <time>2020-01-17T08:51:48Z</time>
      </trkpt>
      <trkpt lat="39.872187" lon="-0.50785">
        <ele>460.621</ele>
        <time>2020-01-17T08:51:49Z</time>
      </trkpt>
      <trkpt lat="39.872153" lon="-0.507858">
        <ele>460.74</ele>
        <time>2020-01-17T08:51:50Z</time>
      </trkpt>
      <trkpt lat="39.872117" lon="-0.507866">
        <ele>460.125</ele>
        <time>2020-01-17T08:51:51Z</time>
      </trkpt>
      <trkpt lat="39.87208" lon="-0.507875">
        <ele>459.995</ele>
        <time>2020-01-17T08:51:52Z</time>
      </trkpt>
      <trkpt lat="39.87204" lon="-0.507885">
        <ele>459.548</ele>
        <time>2020-01-17T08:51:53Z</time>
      </trkpt>
      <trkpt lat="39.871997" lon="-0.507895">
        <ele>459.838</ele>
        <time>2020-01-17T08:51:54Z</time>
      </trkpt>
      <trkpt lat="39.871956" lon="-0.507905">
        <ele>460.014</ele>
        <time>2020-01-17T08:51:55Z</time>
      </trkpt>
      <trkpt lat="39.871917" lon="-0.507916">
        <ele>461.201</ele>
        <time>2020-01-17T08:51:56Z</time>
      </trkpt>
      <trkpt lat="39.871881" lon="-0.507926">
        <ele>461.29</ele>
        <time>2020-01-17T08:51:57Z</time>
      </trkpt>
      <trkpt lat="39.871845" lon="-0.507935">
        <ele>462.096</ele>
        <time>2020-01-17T08:51:58Z</time>
      </trkpt>
      <trkpt lat="39.871812" lon="-0.507942">
        <ele>461.592</ele>
        <time>2020-01-17T08:51:59Z</time>
      </trkpt>
      <trkpt lat="39.871779" lon="-0.507947">
        <ele>461.953</ele>
        <time>2020-01-17T08:52:00Z</time>
      </trkpt>
      <trkpt lat="39.871747" lon="-0.507954">
        <ele>462.08</ele>
        <time>2020-01-17T08:52:01Z</time>
      </trkpt>
      <trkpt lat="39.871715" lon="-0.507962">
        <ele>462.633</ele>
        <time>2020-01-17T08:52:02Z</time>
      </trkpt>
      <trkpt lat="39.871682" lon="-0.507973">
        <ele>462.027</ele>
        <time>2020-01-17T08:52:03Z</time>
      </trkpt>
      <trkpt lat="39.87165" lon="-0.507984">
        <ele>461.826</ele>
        <time>2020-01-17T08:52:04Z</time>
      </trkpt>
      <trkpt lat="39.871618" lon="-0.507992">
        <ele>462.313</ele>
        <time>2020-01-17T08:52:05Z</time>
      </trkpt>
      <trkpt lat="39.871586" lon="-0.508">
        <ele>463.338</ele>
        <time>2020-01-17T08:52:06Z</time>
      </trkpt>
      <trkpt lat="39.871553" lon="-0.508008">
        <ele>462.935</ele>
        <time>2020-01-17T08:52:07Z</time>
      </trkpt>
      <trkpt lat="39.871521" lon="-0.508015">
        <ele>464.139</ele>
        <time>2020-01-17T08:52:08Z</time>
      </trkpt>
      <trkpt lat="39.871492" lon="-0.508022">
        <ele>463.918</ele>
        <time>2020-01-17T08:52:09Z</time>
      </trkpt>
      <trkpt lat="39.871464" lon="-0.50803">
        <ele>463.591</ele>
        <time>2020-01-17T08:52:10Z</time>
      </trkpt>
      <trkpt lat="39.871434" lon="-0.50804">
        <ele>462.463</ele>
        <time>2020-01-17T08:52:11Z</time>
      </trkpt>
      <trkpt lat="39.871403" lon="-0.50805">
        <ele>462.976</ele>
        <time>2020-01-17T08:52:12Z</time>
      </trkpt>
      <trkpt lat="39.871373" lon="-0.508061">
        <ele>461.282</ele>
        <time>2020-01-17T08:52:13Z</time>
      </trkpt>
      <trkpt lat="39.871314" lon="-0.508082">
        <ele>461.924</ele>
        <time>2020-01-17T08:52:15Z</time>
      </trkpt>
      <trkpt lat="39.871284" lon="-0.508091">
        <ele>461.157</ele>
        <time>2020-01-17T08:52:16Z</time>
      </trkpt>
      <trkpt lat="39.871251" lon="-0.508101">
        <ele>461.148</ele>
        <time>2020-01-17T08:52:17Z</time>
      </trkpt>
      <trkpt lat="39.871222" lon="-0.508109">
        <ele>461.612</ele>
        <time>2020-01-17T08:52:18Z</time>
      </trkpt>
      <trkpt lat="39.871193" lon="-0.508116">
        <ele>462.399</ele>
        <time>2020-01-17T08:52:19Z</time>
      </trkpt>
      <trkpt lat="39.871164" lon="-0.508125">
        <ele>462.836</ele>
        <time>2020-01-17T08:52:20Z</time>
      </trkpt>
      <trkpt lat="39.871134" lon="-0.508135">
        <ele>462.64</ele>
        <time>2020-01-17T08:52:21Z</time>
      </trkpt>
      <trkpt lat="39.871104" lon="-0.50815">
        <ele>463.039</ele>
        <time>2020-01-17T08:52:22Z</time>
      </trkpt>
      <trkpt lat="39.871074" lon="-0.508165">
        <ele>463.218</ele>
        <time>2020-01-17T08:52:23Z</time>
      </trkpt>
      <trkpt lat="39.871042" lon="-0.508178">
        <ele>462.581</ele>
        <time>2020-01-17T08:52:24Z</time>
      </trkpt>
      <trkpt lat="39.871012" lon="-0.50819">
        <ele>463.354</ele>
        <time>2020-01-17T08:52:25Z</time>
      </trkpt>
      <trkpt lat="39.870982" lon="-0.508201">
        <ele>463.445</ele>
        <time>2020-01-17T08:52:26Z</time>
      </trkpt>
      <trkpt lat="39.870949" lon="-0.508212">
        <ele>463.94</ele>
        <time>2020-01-17T08:52:27Z</time>
      </trkpt>
      <trkpt lat="39.870916" lon="-0.508223">
        <ele>463.491</ele>
        <time>2020-01-17T08:52:28Z</time>
      </trkpt>
      <trkpt lat="39.870884" lon="-0.508235">
        <ele>463.211</ele>
        <time>2020-01-17T08:52:29Z</time>
      </trkpt>
      <trkpt lat="39.870852" lon="-0.508248">
        <ele>464.391</ele>
        <time>2020-01-17T08:52:30Z</time>
      </trkpt>
      <trkpt lat="39.87082" lon="-0.508262">
        <ele>464.261</ele>
        <time>2020-01-17T08:52:31Z</time>
      </trkpt>
      <trkpt lat="39.870788" lon="-0.508278">
        <ele>464.512</ele>
        <time>2020-01-17T08:52:32Z</time>
      </trkpt>
      <trkpt lat="39.870758" lon="-0.508294">
        <ele>464.803</ele>
        <time>2020-01-17T08:52:33Z</time>
      </trkpt>
      <trkpt lat="39.870727" lon="-0.50831">
        <ele>464.493</ele>
        <time>2020-01-17T08:52:34Z</time>
      </trkpt>
      <trkpt lat="39.870695" lon="-0.508326">
        <ele>464.148</ele>
        <time>2020-01-17T08:52:35Z</time>
      </trkpt>
      <trkpt lat="39.870664" lon="-0.50834">
        <ele>463.181</ele>
        <time>2020-01-17T08:52:36Z</time>
      </trkpt>
      <trkpt lat="39.870634" lon="-0.508354">
        <ele>463.941</ele>
        <time>2020-01-17T08:52:37Z</time>
      </trkpt>
      <trkpt lat="39.870601" lon="-0.508371">
        <ele>462.859</ele>
        <time>2020-01-17T08:52:38Z</time>
      </trkpt>
      <trkpt lat="39.870566" lon="-0.508388">
        <ele>463.086</ele>
        <time>2020-01-17T08:52:39Z</time>
      </trkpt>
      <trkpt lat="39.87053" lon="-0.508404">
        <ele>462.158</ele>
        <time>2020-01-17T08:52:40Z</time>
      </trkpt>
      <trkpt lat="39.870494" lon="-0.508421">
        <ele>462.679</ele>
        <time>2020-01-17T08:52:41Z</time>
      </trkpt>
      <trkpt lat="39.87046" lon="-0.508436">
        <ele>462.675</ele>
        <time>2020-01-17T08:52:42Z</time>
      </trkpt>
      <trkpt lat="39.870426" lon="-0.508449">
        <ele>462.752</ele>
        <time>2020-01-17T08:52:43Z</time>
      </trkpt>
      <trkpt lat="39.870395" lon="-0.508461">
        <ele>462.643</ele>
        <time>2020-01-17T08:52:44Z</time>
      </trkpt>
      <trkpt lat="39.870363" lon="-0.508473">
        <ele>462.627</ele>
        <time>2020-01-17T08:52:45Z</time>
      </trkpt>
      <trkpt lat="39.870334" lon="-0.508485">
        <ele>462.372</ele>
        <time>2020-01-17T08:52:46Z</time>
      </trkpt>
      <trkpt lat="39.870308" lon="-0.508499">
        <ele>462.037</ele>
        <time>2020-01-17T08:52:47Z</time>
      </trkpt>
      <trkpt lat="39.870283" lon="-0.508514">
        <ele>462.221</ele>
        <time>2020-01-17T08:52:48Z</time>
      </trkpt>
      <trkpt lat="39.870257" lon="-0.508531">
        <ele>461.193</ele>
        <time>2020-01-17T08:52:49Z</time>
      </trkpt>
      <trkpt lat="39.870234" lon="-0.508545">
        <ele>461.323</ele>
        <time>2020-01-17T08:52:50Z</time>
      </trkpt>
      <trkpt lat="39.870212" lon="-0.508557">
        <ele>460.915</ele>
        <time>2020-01-17T08:52:51Z</time>
      </trkpt>
      <trkpt lat="39.870156" lon="-0.508577">
        <ele>461.464</ele>
        <time>2020-01-17T08:52:53Z</time>
      </trkpt>
      <trkpt lat="39.870098" lon="-0.508609">
        <ele>462.304</ele>
        <time>2020-01-17T08:52:55Z</time>
      </trkpt>
      <trkpt lat="39.87007" lon="-0.508625">
        <ele>462.037</ele>
        <time>2020-01-17T08:52:56Z</time>
      </trkpt>
      <trkpt lat="39.870043" lon="-0.50864">
        <ele>461.459</ele>
        <time>2020-01-17T08:52:57Z</time>
      </trkpt>
      <trkpt lat="39.870014" lon="-0.508656">
        <ele>461.522</ele>
        <time>2020-01-17T08:52:58Z</time>
      </trkpt>
      <trkpt lat="39.869987" lon="-0.508672">
        <ele>461.948</ele>
        <time>2020-01-17T08:52:59Z</time>
      </trkpt>
      <trkpt lat="39.86996" lon="-0.508687">
        <ele>461.806</ele>
        <time>2020-01-17T08:53:00Z</time>
      </trkpt>
      <trkpt lat="39.869934" lon="-0.508702">
        <ele>461.747</ele>
        <time>2020-01-17T08:53:01Z</time>
      </trkpt>
      <trkpt lat="39.869908" lon="-0.508717">
        <ele>461.729</ele>
        <time>2020-01-17T08:53:02Z</time>
      </trkpt>
      <trkpt lat="39.869877" lon="-0.508734">
        <ele>461.827</ele>
        <time>2020-01-17T08:53:03Z</time>
      </trkpt>
      <trkpt lat="39.869845" lon="-0.508751">
        <ele>461.6</ele>
        <time>2020-01-17T08:53:04Z</time>
      </trkpt>
      <trkpt lat="39.869813" lon="-0.508767">
        <ele>462.214</ele>
        <time>2020-01-17T08:53:05Z</time>
      </trkpt>
      <trkpt lat="39.869784" lon="-0.508783">
        <ele>461.71</ele>
        <time>2020-01-17T08:53:06Z</time>
      </trkpt>
      <trkpt lat="39.869757" lon="-0.508797">
        <ele>461.942</ele>
        <time>2020-01-17T08:53:07Z</time>
      </trkpt>
      <trkpt lat="39.86973" lon="-0.508811">
        <ele>462.868</ele>
        <time>2020-01-17T08:53:08Z</time>
      </trkpt>
      <trkpt lat="39.869702" lon="-0.508826">
        <ele>462.281</ele>
        <time>2020-01-17T08:53:09Z</time>
      </trkpt>
      <trkpt lat="39.869674" lon="-0.50884">
        <ele>462.591</ele>
        <time>2020-01-17T08:53:10Z</time>
      </trkpt>
      <trkpt lat="39.869646" lon="-0.508855">
        <ele>461.198</ele>
        <time>2020-01-17T08:53:11Z</time>
      </trkpt>
      <trkpt lat="39.869618" lon="-0.50887">
        <ele>461.295</ele>
        <time>2020-01-17T08:53:12Z</time>
      </trkpt>
      <trkpt lat="39.86959" lon="-0.508886">
        <ele>460.965</ele>
        <time>2020-01-17T08:53:13Z</time>
      </trkpt>
      <trkpt lat="39.869557" lon="-0.508903">
        <ele>460.0</ele>
        <time>2020-01-17T08:53:14Z</time>
      </trkpt>
      <trkpt lat="39.869524" lon="-0.508921">
        <ele>459.983</ele>
        <time>2020-01-17T08:53:15Z</time>
      </trkpt>
      <trkpt lat="39.869489" lon="-0.508938">
        <ele>459.855</ele>
        <time>2020-01-17T08:53:16Z</time>
      </trkpt>
      <trkpt lat="39.869454" lon="-0.508955">
        <ele>459.745</ele>
        <time>2020-01-17T08:53:17Z</time>
      </trkpt>
      <trkpt lat="39.86942" lon="-0.508972">
        <ele>460.078</ele>
        <time>2020-01-17T08:53:18Z</time>
      </trkpt>
      <trkpt lat="39.869354" lon="-0.509005">
        <ele>459.939</ele>
        <time>2020-01-17T08:53:20Z</time>
      </trkpt>
      <trkpt lat="39.869323" lon="-0.509021">
        <ele>459.489</ele>
        <time>2020-01-17T08:53:21Z</time>
      </trkpt>
      <trkpt lat="39.869292" lon="-0.509036">
        <ele>459.614</ele>
        <time>2020-01-17T08:53:22Z</time>
      </trkpt>
      <trkpt lat="39.86926" lon="-0.509052">
        <ele>459.56</ele>
        <time>2020-01-17T08:53:23Z</time>
      </trkpt>
      <trkpt lat="39.869228" lon="-0.509068">
        <ele>459.549</ele>
        <time>2020-01-17T08:53:24Z</time>
      </trkpt>
      <trkpt lat="39.869197" lon="-0.509083">
        <ele>459.687</ele>
        <time>2020-01-17T08:53:25Z</time>
      </trkpt>
      <trkpt lat="39.869166" lon="-0.509098">
        <ele>458.56</ele>
        <time>2020-01-17T08:53:26Z</time>
      </trkpt>
      <trkpt lat="39.869135" lon="-0.509112">
        <ele>458.664</ele>
        <time>2020-01-17T08:53:27Z</time>
      </trkpt>
      <trkpt lat="39.869075" lon="-0.509139">
        <ele>457.816</ele>
        <time>2020-01-17T08:53:29Z</time>
      </trkpt>
      <trkpt lat="39.869042" lon="-0.509153">
        <ele>458.241</ele>
        <time>2020-01-17T08:53:30Z</time>
      </trkpt>
      <trkpt lat="39.869011" lon="-0.509168">
        <ele>457.695</ele>
        <time>2020-01-17T08:53:31Z</time>
      </trkpt>
      <trkpt lat="39.868978" lon="-0.509183">
        <ele>458.202</ele>
        <time>2020-01-17T08:53:32Z</time>
      </trkpt>
      <trkpt lat="39.868946" lon="-0.509199">
        <ele>458.55</ele>
        <time>2020-01-17T08:53:33Z</time>
      </trkpt>
      <trkpt lat="39.868912" lon="-0.509215">
        <ele>458.337</ele>
        <time>2020-01-17T08:53:34Z</time>
      </trkpt>
      <trkpt lat="39.868878" lon="-0.509233">
        <ele>457.876</ele>
        <time>2020-01-17T08:53:35Z</time>
      </trkpt>
      <trkpt lat="39.868847" lon="-0.509251">
        <ele>457.866</ele>
        <time>2020-01-17T08:53:36Z</time>
      </trkpt>
      <trkpt lat="39.868817" lon="-0.509268">
        <ele>457.602</ele>
        <time>2020-01-17T08:53:37Z</time>
      </trkpt>
      <trkpt lat="39.868785" lon="-0.509283">
        <ele>457.267</ele>
        <time>2020-01-17T08:53:38Z</time>
      </trkpt>
      <trkpt lat="39.868754" lon="-0.509298">
        <ele>456.546</ele>
        <time>2020-01-17T08:53:39Z</time>
      </trkpt>
      <trkpt lat="39.868725" lon="-0.509313">
        <ele>457.16</ele>
        <time>2020-01-17T08:53:40Z</time>
      </trkpt>
      <trkpt lat="39.868693" lon="-0.50933">
        <ele>457.694</ele>
        <time>2020-01-17T08:53:41Z</time>
      </trkpt>
      <trkpt lat="39.868659" lon="-0.509346">
        <ele>457.705</ele>
        <time>2020-01-17T08:53:42Z</time>
      </trkpt>
      <trkpt lat="39.868629" lon="-0.509363">
        <ele>456.912</ele>
        <time>2020-01-17T08:53:43Z</time>
      </trkpt>
      <trkpt lat="39.868601" lon="-0.509378">
        <ele>457.279</ele>
        <time>2020-01-17T08:53:44Z</time>
      </trkpt>
      <trkpt lat="39.868573" lon="-0.509393">
        <ele>457.341</ele>
        <time>2020-01-17T08:53:45Z</time>
      </trkpt>
      <trkpt lat="39.868545" lon="-0.509411">
        <ele>456.942</ele>
        <time>2020-01-17T08:53:46Z</time>
      </trkpt>
      <trkpt lat="39.868515" lon="-0.50943">
        <ele>457.029</ele>
        <time>2020-01-17T08:53:47Z</time>
      </trkpt>
      <trkpt lat="39.868452" lon="-0.509466">
        <ele>458.19</ele>
        <time>2020-01-17T08:53:49Z</time>
      </trkpt>
      <trkpt lat="39.868419" lon="-0.509482">
        <ele>458.107</ele>
        <time>2020-01-17T08:53:50Z</time>
      </trkpt>
      <trkpt lat="39.868387" lon="-0.509499">
        <ele>457.802</ele>
        <time>2020-01-17T08:53:51Z</time>
      </trkpt>
      <trkpt lat="39.868359" lon="-0.509513">
        <ele>456.941</ele>
        <time>2020-01-17T08:53:52Z</time>
      </trkpt>
      <trkpt lat="39.86833" lon="-0.509526">
        <ele>456.801</ele>
        <time>2020-01-17T08:53:53Z</time>
      </trkpt>
      <trkpt lat="39.868302" lon="-0.509538">
        <ele>456.55</ele>
        <time>2020-01-17T08:53:54Z</time>
      </trkpt>
      <trkpt lat="39.868271" lon="-0.509551">
        <ele>454.013</ele>
        <time>2020-01-17T08:53:55Z</time>
      </trkpt>
      <trkpt lat="39.868239" lon="-0.509566">
        <ele>454.654</ele>
        <time>2020-01-17T08:53:56Z</time>
      </trkpt>
      <trkpt lat="39.868207" lon="-0.509582">
        <ele>455.358</ele>
        <time>2020-01-17T08:53:57Z</time>
      </trkpt>
      <trkpt lat="39.868144" lon="-0.509611">
        <ele>454.381</ele>
        <time>2020-01-17T08:53:59Z</time>
      </trkpt>
      <trkpt lat="39.868082" lon="-0.509641">
        <ele>455.746</ele>
        <time>2020-01-17T08:54:01Z</time>
      </trkpt>
      <trkpt lat="39.868054" lon="-0.509655">
        <ele>456.442</ele>
        <time>2020-01-17T08:54:02Z</time>
      </trkpt>
      <trkpt lat="39.868021" lon="-0.509668">
        <ele>456.399</ele>
        <time>2020-01-17T08:54:03Z</time>
      </trkpt>
      <trkpt lat="39.867991" lon="-0.509682">
        <ele>457.262</ele>
        <time>2020-01-17T08:54:04Z</time>
      </trkpt>
      <trkpt lat="39.867941" lon="-0.509716">
        <ele>458.096</ele>
        <time>2020-01-17T08:54:06Z</time>
      </trkpt>
      <trkpt lat="39.867911" lon="-0.509735">
        <ele>458.906</ele>
        <time>2020-01-17T08:54:07Z</time>
      </trkpt>
      <trkpt lat="39.867852" lon="-0.509771">
        <ele>459.403</ele>
        <time>2020-01-17T08:54:09Z</time>
      </trkpt>
      <trkpt lat="39.867825" lon="-0.509787">
        <ele>461.149</ele>
        <time>2020-01-17T08:54:10Z</time>
      </trkpt>
      <trkpt lat="39.8678" lon="-0.509802">
        <ele>461.854</ele>
        <time>2020-01-17T08:54:11Z</time>
      </trkpt>
      <trkpt lat="39.867776" lon="-0.509819">
        <ele>464.928</ele>
        <time>2020-01-17T08:54:12Z</time>
      </trkpt>
      <trkpt lat="39.867733" lon="-0.50986">
        <ele>464.662</ele>
        <time>2020-01-17T08:54:14Z</time>
      </trkpt>
      <trkpt lat="39.867681" lon="-0.509951">
        <ele>464.388</ele>
        <time>2020-01-17T08:54:17Z</time>
      </trkpt>
      <trkpt lat="39.86768" lon="-0.510022">
        <ele>463.189</ele>
        <time>2020-01-17T08:54:20Z</time>
      </trkpt>
      <trkpt lat="39.867688" lon="-0.510084">
        <ele>463.376</ele>
        <time>2020-01-17T08:54:22Z</time>
      </trkpt>
      <trkpt lat="39.867691" lon="-0.510134">
        <ele>462.048</ele>
        <time>2020-01-17T08:54:23Z</time>
      </trkpt>
      <trkpt lat="39.867696" lon="-0.510243">
        <ele>463.236</ele>
        <time>2020-01-17T08:54:24Z</time>
      </trkpt>
      <trkpt lat="39.867695" lon="-0.510293">
        <ele>463.114</ele>
        <time>2020-01-17T08:54:25Z</time>
      </trkpt>
      <trkpt lat="39.86766" lon="-0.510368">
        <ele>463.766</ele>
        <time>2020-01-17T08:54:27Z</time>
      </trkpt>
      <trkpt lat="39.867609" lon="-0.510442">
        <ele>465.619</ele>
        <time>2020-01-17T08:54:29Z</time>
      </trkpt>
      <trkpt lat="39.867567" lon="-0.510509">
        <ele>466.945</ele>
        <time>2020-01-17T08:54:31Z</time>
      </trkpt>
      <trkpt lat="39.867532" lon="-0.510573">
        <ele>466.756</ele>
        <time>2020-01-17T08:54:33Z</time>
      </trkpt>
      <trkpt lat="39.867518" lon="-0.510641">
        <ele>468.409</ele>
        <time>2020-01-17T08:54:35Z</time>
      </trkpt>
      <trkpt lat="39.867458" lon="-0.510712">
        <ele>469.34</ele>
        <time>2020-01-17T08:54:38Z</time>
      </trkpt>
      <trkpt lat="39.86741" lon="-0.510749">
        <ele>468.975</ele>
        <time>2020-01-17T08:54:40Z</time>
      </trkpt>
      <trkpt lat="39.867383" lon="-0.510767">
        <ele>468.164</ele>
        <time>2020-01-17T08:54:42Z</time>
      </trkpt>
      <trkpt lat="39.867383" lon="-0.510767">
        <ele>468.681</ele>
        <time>2020-01-17T08:54:48Z</time>
      </trkpt>
      <trkpt lat="39.867383" lon="-0.510767">
        <ele>468.661</ele>
        <time>2020-01-17T08:54:52Z</time>
      </trkpt>
      <trkpt lat="39.867238" lon="-0.510811">
        <ele>468.961</ele>
        <time>2020-01-17T08:54:54Z</time>
      </trkpt>
      <trkpt lat="39.867186" lon="-0.510846">
        <ele>468.859</ele>
        <time>2020-01-17T08:54:56Z</time>
      </trkpt>
      <trkpt lat="39.867158" lon="-0.510864">
        <ele>468.721</ele>
        <time>2020-01-17T08:54:57Z</time>
      </trkpt>
      <trkpt lat="39.867132" lon="-0.510881">
        <ele>468.225</ele>
        <time>2020-01-17T08:54:58Z</time>
      </trkpt>
      <trkpt lat="39.867107" lon="-0.510899">
        <ele>466.955</ele>
        <time>2020-01-17T08:54:59Z</time>
      </trkpt>
      <trkpt lat="39.867083" lon="-0.510919">
        <ele>469.095</ele>
        <time>2020-01-17T08:55:00Z</time>
      </trkpt>
      <trkpt lat="39.867058" lon="-0.510942">
        <ele>471.699</ele>
        <time>2020-01-17T08:55:01Z</time>
      </trkpt>
      <trkpt lat="39.867034" lon="-0.510966">
        <ele>469.074</ele>
        <time>2020-01-17T08:55:02Z</time>
      </trkpt>
      <trkpt lat="39.867008" lon="-0.510989">
        <ele>468.772</ele>
        <time>2020-01-17T08:55:03Z</time>
      </trkpt>
      <trkpt lat="39.866988" lon="-0.511005">
        <ele>469.1</ele>
        <time>2020-01-17T08:55:04Z</time>
      </trkpt>
      <trkpt lat="39.866962" lon="-0.511026">
        <ele>469.136</ele>
        <time>2020-01-17T08:55:06Z</time>
      </trkpt>
      <trkpt lat="39.866922" lon="-0.511072">
        <ele>469.337</ele>
        <time>2020-01-17T08:55:09Z</time>
      </trkpt>
      <trkpt lat="39.866859" lon="-0.511131">
        <ele>470.68</ele>
        <time>2020-01-17T08:55:12Z</time>
      </trkpt>
      <trkpt lat="39.866833" lon="-0.511154">
        <ele>470.355</ele>
        <time>2020-01-17T08:55:13Z</time>
      </trkpt>
      <trkpt lat="39.866806" lon="-0.511181">
        <ele>469.457</ele>
        <time>2020-01-17T08:55:14Z</time>
      </trkpt>
      <trkpt lat="39.866751" lon="-0.511237">
        <ele>470.113</ele>
        <time>2020-01-17T08:55:16Z</time>
      </trkpt>
      <trkpt lat="39.866721" lon="-0.511267">
        <ele>472.414</ele>
        <time>2020-01-17T08:55:17Z</time>
      </trkpt>
      <trkpt lat="39.866693" lon="-0.511296">
        <ele>472.901</ele>
        <time>2020-01-17T08:55:18Z</time>
      </trkpt>
      <trkpt lat="39.866664" lon="-0.511327">
        <ele>472.813</ele>
        <time>2020-01-17T08:55:19Z</time>
      </trkpt>
      <trkpt lat="39.866635" lon="-0.511357">
        <ele>472.826</ele>
        <time>2020-01-17T08:55:20Z</time>
      </trkpt>
      <trkpt lat="39.866583" lon="-0.511421">
        <ele>473.138</ele>
        <time>2020-01-17T08:55:22Z</time>
      </trkpt>
      <trkpt lat="39.866558" lon="-0.511449">
        <ele>473.725</ele>
        <time>2020-01-17T08:55:23Z</time>
      </trkpt>
      <trkpt lat="39.86653" lon="-0.511479">
        <ele>473.642</ele>
        <time>2020-01-17T08:55:24Z</time>
      </trkpt>
      <trkpt lat="39.866502" lon="-0.511505">
        <ele>474.002</ele>
        <time>2020-01-17T08:55:25Z</time>
      </trkpt>
      <trkpt lat="39.866474" lon="-0.511531">
        <ele>475.898</ele>
        <time>2020-01-17T08:55:26Z</time>
      </trkpt>
      <trkpt lat="39.866448" lon="-0.511558">
        <ele>476.953</ele>
        <time>2020-01-17T08:55:27Z</time>
      </trkpt>
      <trkpt lat="39.866421" lon="-0.511588">
        <ele>478.454</ele>
        <time>2020-01-17T08:55:28Z</time>
      </trkpt>
      <trkpt lat="39.866394" lon="-0.511618">
        <ele>478.806</ele>
        <time>2020-01-17T08:55:29Z</time>
      </trkpt>
      <trkpt lat="39.866369" lon="-0.511643">
        <ele>475.809</ele>
        <time>2020-01-17T08:55:30Z</time>
      </trkpt>
      <trkpt lat="39.866321" lon="-0.511694">
        <ele>475.78</ele>
        <time>2020-01-17T08:55:32Z</time>
      </trkpt>
      <trkpt lat="39.866296" lon="-0.511724">
        <ele>475.855</ele>
        <time>2020-01-17T08:55:33Z</time>
      </trkpt>
      <trkpt lat="39.866255" lon="-0.511762">
        <ele>475.87</ele>
        <time>2020-01-17T08:55:34Z</time>
      </trkpt>
      <trkpt lat="39.866214" lon="-0.511787">
        <ele>475.041</ele>
        <time>2020-01-17T08:55:36Z</time>
      </trkpt>
      <trkpt lat="39.866214" lon="-0.511787">
        <ele>475.235</ele>
        <time>2020-01-17T08:55:43Z</time>
      </trkpt>
      <trkpt lat="39.866214" lon="-0.511787">
        <ele>475.169</ele>
        <time>2020-01-17T09:00:44Z</time>
      </trkpt>
      <trkpt lat="39.865978" lon="-0.511917">
        <ele>475.048</ele>
        <time>2020-01-17T09:00:44Z</time>
      </trkpt>
      <trkpt lat="39.865951" lon="-0.511943">
        <ele>474.577</ele>
        <time>2020-01-17T09:00:45Z</time>
      </trkpt>
      <trkpt lat="39.865903" lon="-0.512016">
        <ele>473.534</ele>
        <time>2020-01-17T09:00:47Z</time>
      </trkpt>
      <trkpt lat="39.865884" lon="-0.512045">
        <ele>473.013</ele>
        <time>2020-01-17T09:00:48Z</time>
      </trkpt>
      <trkpt lat="39.865859" lon="-0.512108">
        <ele>473.222</ele>
        <time>2020-01-17T09:00:50Z</time>
      </trkpt>
      <trkpt lat="39.865841" lon="-0.512166">
        <ele>472.475</ele>
        <time>2020-01-17T09:00:52Z</time>
      </trkpt>
      <trkpt lat="39.865828" lon="-0.512213">
        <ele>472.944</ele>
        <time>2020-01-17T09:00:54Z</time>
      </trkpt>
      <trkpt lat="39.865808" lon="-0.512267">
        <ele>472.875</ele>
        <time>2020-01-17T09:00:57Z</time>
      </trkpt>
      <trkpt lat="39.865799" lon="-0.512298">
        <ele>473.044</ele>
        <time>2020-01-17T09:00:59Z</time>
      </trkpt>
      <trkpt lat="39.865799" lon="-0.512298">
        <ele>473.17</ele>
        <time>2020-01-17T09:01:05Z</time>
      </trkpt>
      <trkpt lat="39.865799" lon="-0.512298">
        <ele>473.546</ele>
        <time>2020-01-17T09:01:39Z</time>
      </trkpt>
      <trkpt lat="39.865932" lon="-0.512348">
        <ele>472.533</ele>
        <time>2020-01-17T09:01:39Z</time>
      </trkpt>
      <trkpt lat="39.866027" lon="-0.51235">
        <ele>472.731</ele>
        <time>2020-01-17T09:01:42Z</time>
      </trkpt>
      <trkpt lat="39.866079" lon="-0.512361">
        <ele>472.756</ele>
        <time>2020-01-17T09:01:44Z</time>
      </trkpt>
      <trkpt lat="39.866115" lon="-0.512365">
        <ele>473.807</ele>
        <time>2020-01-17T09:01:46Z</time>
      </trkpt>
      <trkpt lat="39.866162" lon="-0.512364">
        <ele>473.233</ele>
        <time>2020-01-17T09:01:48Z</time>
      </trkpt>
      <trkpt lat="39.866188" lon="-0.512361">
        <ele>474.311</ele>
        <time>2020-01-17T09:01:50Z</time>
      </trkpt>
      <trkpt lat="39.866215" lon="-0.512359">
        <ele>475.867</ele>
        <time>2020-01-17T09:01:51Z</time>
      </trkpt>
      <trkpt lat="39.866239" lon="-0.512358">
        <ele>476.115</ele>
        <time>2020-01-17T09:01:52Z</time>
      </trkpt>
      <trkpt lat="39.866263" lon="-0.512354">
        <ele>477.767</ele>
        <time>2020-01-17T09:01:53Z</time>
      </trkpt>
      <trkpt lat="39.866286" lon="-0.51235">
        <ele>477.964</ele>
        <time>2020-01-17T09:01:54Z</time>
      </trkpt>
      <trkpt lat="39.866332" lon="-0.512337">
        <ele>478.777</ele>
        <time>2020-01-17T09:01:56Z</time>
      </trkpt>
      <trkpt lat="39.866359" lon="-0.51233">
        <ele>479.878</ele>
        <time>2020-01-17T09:01:57Z</time>
      </trkpt>
      <trkpt lat="39.866417" lon="-0.512325">
        <ele>480.633</ele>
        <time>2020-01-17T09:01:59Z</time>
      </trkpt>
      <trkpt lat="39.866477" lon="-0.512324">
        <ele>481.865</ele>
        <time>2020-01-17T09:02:01Z</time>
      </trkpt>
      <trkpt lat="39.866509" lon="-0.512323">
        <ele>483.112</ele>
        <time>2020-01-17T09:02:02Z</time>
      </trkpt>
      <trkpt lat="39.866546" lon="-0.512322">
        <ele>483.428</ele>
        <time>2020-01-17T09:02:03Z</time>
      </trkpt>
      <trkpt lat="39.866586" lon="-0.512323">
        <ele>484.63</ele>
        <time>2020-01-17T09:02:04Z</time>
      </trkpt>
      <trkpt lat="39.866625" lon="-0.512323">
        <ele>481.637</ele>
        <time>2020-01-17T09:02:05Z</time>
      </trkpt>
      <trkpt lat="39.86666" lon="-0.512325">
        <ele>481.202</ele>
        <time>2020-01-17T09:02:06Z</time>
      </trkpt>
      <trkpt lat="39.866696" lon="-0.512327">
        <ele>478.912</ele>
        <time>2020-01-17T09:02:07Z</time>
      </trkpt>
      <trkpt lat="39.866733" lon="-0.512332">
        <ele>477.653</ele>
        <time>2020-01-17T09:02:08Z</time>
      </trkpt>
      <trkpt lat="39.866769" lon="-0.512334">
        <ele>477.475</ele>
        <time>2020-01-17T09:02:09Z</time>
      </trkpt>
      <trkpt lat="39.866806" lon="-0.512336">
        <ele>476.372</ele>
        <time>2020-01-17T09:02:10Z</time>
      </trkpt>
      <trkpt lat="39.866871" lon="-0.512342">
        <ele>476.846</ele>
        <time>2020-01-17T09:02:12Z</time>
      </trkpt>
      <trkpt lat="39.866925" lon="-0.512347">
        <ele>472.609</ele>
        <time>2020-01-17T09:02:14Z</time>
      </trkpt>
      <trkpt lat="39.866988" lon="-0.512347">
        <ele>474.911</ele>
        <time>2020-01-17T09:02:16Z</time>
      </trkpt>
      <trkpt lat="39.867095" lon="-0.512341">
        <ele>475.381</ele>
        <time>2020-01-17T09:02:19Z</time>
      </trkpt>
      <trkpt lat="39.867143" lon="-0.512337">
        <ele>473.072</ele>
        <time>2020-01-17T09:02:20Z</time>
      </trkpt>
      <trkpt lat="39.867193" lon="-0.512334">
        <ele>473.961</ele>
        <time>2020-01-17T09:02:21Z</time>
      </trkpt>
      <trkpt lat="39.867237" lon="-0.51233">
        <ele>473.836</ele>
        <time>2020-01-17T09:02:22Z</time>
      </trkpt>
      <trkpt lat="39.867285" lon="-0.512328">
        <ele>473.824</ele>
        <time>2020-01-17T09:02:25Z</time>
      </trkpt>
      <trkpt lat="39.867518" lon="-0.512309">
        <ele>475.807</ele>
        <time>2020-01-17T09:02:29Z</time>
      </trkpt>
      <trkpt lat="39.867579" lon="-0.512303">
        <ele>476.113</ele>
        <time>2020-01-17T09:02:31Z</time>
      </trkpt>
      <trkpt lat="39.867736" lon="-0.512291">
        <ele>476.146</ele>
        <time>2020-01-17T09:02:35Z</time>
      </trkpt>
      <trkpt lat="39.867802" lon="-0.512282">
        <ele>476.867</ele>
        <time>2020-01-17T09:02:37Z</time>
      </trkpt>
      <trkpt lat="39.86783" lon="-0.51228">
        <ele>477.636</ele>
        <time>2020-01-17T09:02:38Z</time>
      </trkpt>
      <trkpt lat="39.867891" lon="-0.512278">
        <ele>477.666</ele>
        <time>2020-01-17T09:02:40Z</time>
      </trkpt>
      <trkpt lat="39.867923" lon="-0.512278">
        <ele>476.911</ele>
        <time>2020-01-17T09:02:41Z</time>
      </trkpt>
      <trkpt lat="39.867956" lon="-0.51228">
        <ele>477.621</ele>
        <time>2020-01-17T09:02:42Z</time>
      </trkpt>
      <trkpt lat="39.867984" lon="-0.512282">
        <ele>476.491</ele>
        <time>2020-01-17T09:02:43Z</time>
      </trkpt>
      <trkpt lat="39.868013" lon="-0.512285">
        <ele>476.73</ele>
        <time>2020-01-17T09:02:44Z</time>
      </trkpt>
      <trkpt lat="39.868043" lon="-0.512288">
        <ele>476.76</ele>
        <time>2020-01-17T09:02:45Z</time>
      </trkpt>
      <trkpt lat="39.868076" lon="-0.51229">
        <ele>476.835</ele>
        <time>2020-01-17T09:02:46Z</time>
      </trkpt>
      <trkpt lat="39.868139" lon="-0.512279">
        <ele>474.652</ele>
        <time>2020-01-17T09:02:48Z</time>
      </trkpt>
      <trkpt lat="39.868168" lon="-0.512271">
        <ele>475.608</ele>
        <time>2020-01-17T09:02:49Z</time>
      </trkpt>
      <trkpt lat="39.868235" lon="-0.512258">
        <ele>476.008</ele>
        <time>2020-01-17T09:02:52Z</time>
      </trkpt>
      <trkpt lat="39.868262" lon="-0.512255">
        <ele>474.725</ele>
        <time>2020-01-17T09:02:53Z</time>
      </trkpt>
      <trkpt lat="39.868318" lon="-0.512254">
        <ele>477.063</ele>
        <time>2020-01-17T09:02:55Z</time>
      </trkpt>
      <trkpt lat="39.868405" lon="-0.512258">
        <ele>478.263</ele>
        <time>2020-01-17T09:02:58Z</time>
      </trkpt>
      <trkpt lat="39.868439" lon="-0.512261">
        <ele>477.254</ele>
        <time>2020-01-17T09:02:59Z</time>
      </trkpt>
      <trkpt lat="39.868475" lon="-0.512263">
        <ele>477.851</ele>
        <time>2020-01-17T09:03:00Z</time>
      </trkpt>
      <trkpt lat="39.868584" lon="-0.512255">
        <ele>478.786</ele>
        <time>2020-01-17T09:03:03Z</time>
      </trkpt>
      <trkpt lat="39.868638" lon="-0.512232">
        <ele>478.356</ele>
        <time>2020-01-17T09:03:07Z</time>
      </trkpt>
      <trkpt lat="39.868701" lon="-0.512229">
        <ele>479.501</ele>
        <time>2020-01-17T09:03:09Z</time>
      </trkpt>
      <trkpt lat="39.86875" lon="-0.512232">
        <ele>479.587</ele>
        <time>2020-01-17T09:03:11Z</time>
      </trkpt>
      <trkpt lat="39.868789" lon="-0.512201">
        <ele>481.039</ele>
        <time>2020-01-17T09:03:13Z</time>
      </trkpt>
      <trkpt lat="39.868789" lon="-0.512201">
        <ele>477.96</ele>
        <time>2020-01-17T09:03:18Z</time>
      </trkpt>
      <trkpt lat="39.868789" lon="-0.512201">
        <ele>478.2</ele>
        <time>2020-01-17T09:03:22Z</time>
      </trkpt>
      <trkpt lat="39.868856" lon="-0.512202">
        <ele>477.289</ele>
        <time>2020-01-17T09:03:22Z</time>
      </trkpt>
      <trkpt lat="39.868924" lon="-0.51218">
        <ele>477.641</ele>
        <time>2020-01-17T09:03:25Z</time>
      </trkpt>
      <trkpt lat="39.868954" lon="-0.512172">
        <ele>472.791</ele>
        <time>2020-01-17T09:03:27Z</time>
      </trkpt>
      <trkpt lat="39.869005" lon="-0.512151">
        <ele>471.503</ele>
        <time>2020-01-17T09:03:29Z</time>
      </trkpt>
      <trkpt lat="39.869027" lon="-0.512142">
        <ele>472.391</ele>
        <time>2020-01-17T09:03:30Z</time>
      </trkpt>
      <trkpt lat="39.869092" lon="-0.512131">
        <ele>472.966</ele>
        <time>2020-01-17T09:03:33Z</time>
      </trkpt>
      <trkpt lat="39.869134" lon="-0.512125">
        <ele>475.806</ele>
        <time>2020-01-17T09:03:34Z</time>
      </trkpt>
      <trkpt lat="39.869286" lon="-0.512057">
        <ele>476.666</ele>
        <time>2020-01-17T09:03:37Z</time>
      </trkpt>
      <trkpt lat="39.869358" lon="-0.512053">
        <ele>477.827</ele>
        <time>2020-01-17T09:03:39Z</time>
      </trkpt>
      <trkpt lat="39.869436" lon="-0.511995">
        <ele>478.907</ele>
        <time>2020-01-17T09:03:41Z</time>
      </trkpt>
      <trkpt lat="39.869519" lon="-0.51196">
        <ele>479.46</ele>
        <time>2020-01-17T09:03:44Z</time>
      </trkpt>
      <trkpt lat="39.869578" lon="-0.511923">
        <ele>480.505</ele>
        <time>2020-01-17T09:03:46Z</time>
      </trkpt>
      <trkpt lat="39.869638" lon="-0.511907">
        <ele>480.22</ele>
        <time>2020-01-17T09:03:50Z</time>
      </trkpt>
      <trkpt lat="39.86969" lon="-0.511867">
        <ele>478.291</ele>
        <time>2020-01-17T09:03:53Z</time>
      </trkpt>
      <trkpt lat="39.869747" lon="-0.511825">
        <ele>476.642</ele>
        <time>2020-01-17T09:03:56Z</time>
      </trkpt>
      <trkpt lat="39.869774" lon="-0.511802">
        <ele>477.909</ele>
        <time>2020-01-17T09:03:58Z</time>
      </trkpt>
      <trkpt lat="39.869819" lon="-0.511779">
        <ele>478.944</ele>
        <time>2020-01-17T09:04:04Z</time>
      </trkpt>
      <trkpt lat="39.869877" lon="-0.511743">
        <ele>480.365</ele>
        <time>2020-01-17T09:04:07Z</time>
      </trkpt>
      <trkpt lat="39.869922" lon="-0.511715">
        <ele>480.087</ele>
        <time>2020-01-17T09:04:09Z</time>
      </trkpt>
      <trkpt lat="39.869948" lon="-0.511699">
        <ele>479.824</ele>
        <time>2020-01-17T09:04:10Z</time>
      </trkpt>
      <trkpt lat="39.869976" lon="-0.511679">
        <ele>479.894</ele>
        <time>2020-01-17T09:04:11Z</time>
      </trkpt>
      <trkpt lat="39.870003" lon="-0.511659">
        <ele>481.051</ele>
        <time>2020-01-17T09:04:12Z</time>
      </trkpt>
      <trkpt lat="39.870029" lon="-0.51164">
        <ele>482.638</ele>
        <time>2020-01-17T09:04:13Z</time>
      </trkpt>
      <trkpt lat="39.870081" lon="-0.511605">
        <ele>480.481</ele>
        <time>2020-01-17T09:04:15Z</time>
      </trkpt>
      <trkpt lat="39.87011" lon="-0.511582">
        <ele>478.528</ele>
        <time>2020-01-17T09:04:16Z</time>
      </trkpt>
      <trkpt lat="39.870147" lon="-0.511557">
        <ele>477.045</ele>
        <time>2020-01-17T09:04:17Z</time>
      </trkpt>
      <trkpt lat="39.870256" lon="-0.511491">
        <ele>477.856</ele>
        <time>2020-01-17T09:04:20Z</time>
      </trkpt>
      <trkpt lat="39.870321" lon="-0.511461">
        <ele>477.638</ele>
        <time>2020-01-17T09:04:22Z</time>
      </trkpt>
      <trkpt lat="39.870391" lon="-0.51142">
        <ele>478.919</ele>
        <time>2020-01-17T09:04:24Z</time>
      </trkpt>
      <trkpt lat="39.870429" lon="-0.511394">
        <ele>477.748</ele>
        <time>2020-01-17T09:04:25Z</time>
      </trkpt>
      <trkpt lat="39.870521" lon="-0.511327">
        <ele>478.079</ele>
        <time>2020-01-17T09:04:27Z</time>
      </trkpt>
      <trkpt lat="39.870655" lon="-0.511221">
        <ele>477.104</ele>
        <time>2020-01-17T09:04:30Z</time>
      </trkpt>
      <trkpt lat="39.870788" lon="-0.51112">
        <ele>479.674</ele>
        <time>2020-01-17T09:04:31Z</time>
      </trkpt>
      <trkpt lat="39.87084" lon="-0.511101">
        <ele>481.041</ele>
        <time>2020-01-17T09:04:33Z</time>
      </trkpt>
      <trkpt lat="39.870875" lon="-0.511043">
        <ele>482.613</ele>
        <time>2020-01-17T09:04:35Z</time>
      </trkpt>
      <trkpt lat="39.870927" lon="-0.510983">
        <ele>482.402</ele>
        <time>2020-01-17T09:04:37Z</time>
      </trkpt>
      <trkpt lat="39.870972" lon="-0.510955">
        <ele>483.649</ele>
        <time>2020-01-17T09:04:39Z</time>
      </trkpt>
      <trkpt lat="39.871005" lon="-0.510933">
        <ele>481.02</ele>
        <time>2020-01-17T09:04:41Z</time>
      </trkpt>
      <trkpt lat="39.87103" lon="-0.510915">
        <ele>476.145</ele>
        <time>2020-01-17T09:04:42Z</time>
      </trkpt>
      <trkpt lat="39.871056" lon="-0.510896">
        <ele>475.185</ele>
        <time>2020-01-17T09:04:43Z</time>
      </trkpt>
      <trkpt lat="39.871106" lon="-0.510852">
        <ele>477.604</ele>
        <time>2020-01-17T09:04:45Z</time>
      </trkpt>
      <trkpt lat="39.871129" lon="-0.510829">
        <ele>481.623</ele>
        <time>2020-01-17T09:04:46Z</time>
      </trkpt>
      <trkpt lat="39.871167" lon="-0.510793">
        <ele>480.825</ele>
        <time>2020-01-17T09:04:48Z</time>
      </trkpt>
      <trkpt lat="39.871213" lon="-0.510774">
        <ele>481.868</ele>
        <time>2020-01-17T09:04:53Z</time>
      </trkpt>
      <trkpt lat="39.871242" lon="-0.510759">
        <ele>483.569</ele>
        <time>2020-01-17T09:04:55Z</time>
      </trkpt>
      <trkpt lat="39.871292" lon="-0.51073">
        <ele>483.459</ele>
        <time>2020-01-17T09:04:58Z</time>
      </trkpt>
      <trkpt lat="39.871319" lon="-0.510712">
        <ele>483.223</ele>
        <time>2020-01-17T09:05:00Z</time>
      </trkpt>
      <trkpt lat="39.871365" lon="-0.510683">
        <ele>481.479</ele>
        <time>2020-01-17T09:05:03Z</time>
      </trkpt>
      <trkpt lat="39.871452" lon="-0.510645">
        <ele>474.285</ele>
        <time>2020-01-17T09:05:07Z</time>
      </trkpt>
      <trkpt lat="39.871527" lon="-0.510585">
        <ele>474.285</ele>
        <time>2020-01-17T09:05:10Z</time>
      </trkpt>
      <trkpt lat="39.871587" lon="-0.510539">
        <ele>478.836</ele>
        <time>2020-01-17T09:05:13Z</time>
      </trkpt>
      <trkpt lat="39.871654" lon="-0.510513">
        <ele>477.719</ele>
        <time>2020-01-17T09:05:16Z</time>
      </trkpt>
      <trkpt lat="39.871745" lon="-0.510495">
        <ele>475.382</ele>
        <time>2020-01-17T09:05:19Z</time>
      </trkpt>
      <trkpt lat="39.871774" lon="-0.510489">
        <ele>474.425</ele>
        <time>2020-01-17T09:05:20Z</time>
      </trkpt>
      <trkpt lat="39.871801" lon="-0.510484">
        <ele>475.095</ele>
        <time>2020-01-17T09:05:21Z</time>
      </trkpt>
      <trkpt lat="39.87183" lon="-0.510477">
        <ele>476.259</ele>
        <time>2020-01-17T09:05:22Z</time>
      </trkpt>
      <trkpt lat="39.871855" lon="-0.510472">
        <ele>477.957</ele>
        <time>2020-01-17T09:05:23Z</time>
      </trkpt>
      <trkpt lat="39.871901" lon="-0.510455">
        <ele>481.054</ele>
        <time>2020-01-17T09:05:25Z</time>
      </trkpt>
      <trkpt lat="39.871944" lon="-0.51043">
        <ele>479.213</ele>
        <time>2020-01-17T09:05:30Z</time>
      </trkpt>
      <trkpt lat="39.871988" lon="-0.510336">
        <ele>480.147</ele>
        <time>2020-01-17T09:05:35Z</time>
      </trkpt>
      <trkpt lat="39.871988" lon="-0.510336">
        <ele>481.631</ele>
        <time>2020-01-17T09:05:43Z</time>
      </trkpt>
      <trkpt lat="39.871988" lon="-0.510336">
        <ele>482.895</ele>
        <time>2020-01-17T09:05:43Z</time>
      </trkpt>
      <trkpt lat="39.871988" lon="-0.510336">
        <ele>485.485</ele>
        <time>2020-01-17T09:08:08Z</time>
      </trkpt>
      <trkpt lat="39.872221" lon="-0.51031">
        <ele>486.585</ele>
        <time>2020-01-17T09:08:08Z</time>
      </trkpt>
      <trkpt lat="39.872475" lon="-0.510363">
        <ele>482.719</ele>
        <time>2020-01-17T09:08:14Z</time>
      </trkpt>
      <trkpt lat="39.872521" lon="-0.510322">
        <ele>479.578</ele>
        <time>2020-01-17T09:08:16Z</time>
      </trkpt>
      <trkpt lat="39.872568" lon="-0.510313">
        <ele>476.899</ele>
        <time>2020-01-17T09:08:17Z</time>
      </trkpt>
      <trkpt lat="39.872614" lon="-0.510313">
        <ele>474.603</ele>
        <time>2020-01-17T09:08:19Z</time>
      </trkpt>
      <trkpt lat="39.872657" lon="-0.510337">
        <ele>476.739</ele>
        <time>2020-01-17T09:08:21Z</time>
      </trkpt>
      <trkpt lat="39.872703" lon="-0.510345">
        <ele>477.836</ele>
        <time>2020-01-17T09:08:24Z</time>
      </trkpt>
      <trkpt lat="39.872758" lon="-0.510324">
        <ele>474.152</ele>
        <time>2020-01-17T09:08:29Z</time>
      </trkpt>
      <trkpt lat="39.872811" lon="-0.510344">
        <ele>473.297</ele>
        <time>2020-01-17T09:08:32Z</time>
      </trkpt>
      <trkpt lat="39.872851" lon="-0.510372">
        <ele>473.915</ele>
        <time>2020-01-17T09:08:34Z</time>
      </trkpt>
      <trkpt lat="39.872894" lon="-0.510396">
        <ele>474.374</ele>
        <time>2020-01-17T09:08:36Z</time>
      </trkpt>
      <trkpt lat="39.872916" lon="-0.510407">
        <ele>472.594</ele>
        <time>2020-01-17T09:08:37Z</time>
      </trkpt>
      <trkpt lat="39.872962" lon="-0.510423">
        <ele>473.773</ele>
        <time>2020-01-17T09:08:39Z</time>
      </trkpt>
      <trkpt lat="39.872985" lon="-0.510432">
        <ele>473.651</ele>
        <time>2020-01-17T09:08:40Z</time>
      </trkpt>
      <trkpt lat="39.873033" lon="-0.510455">
        <ele>478.543</ele>
        <time>2020-01-17T09:08:42Z</time>
      </trkpt>
      <trkpt lat="39.873079" lon="-0.510491">
        <ele>478.817</ele>
        <time>2020-01-17T09:08:44Z</time>
      </trkpt>
      <trkpt lat="39.873105" lon="-0.510513">
        <ele>477.592</ele>
        <time>2020-01-17T09:08:45Z</time>
      </trkpt>
      <trkpt lat="39.873137" lon="-0.510535">
        <ele>477.557</ele>
        <time>2020-01-17T09:08:46Z</time>
      </trkpt>
      <trkpt lat="39.873213" lon="-0.510635">
        <ele>477.724</ele>
        <time>2020-01-17T09:08:49Z</time>
      </trkpt>
      <trkpt lat="39.873254" lon="-0.510701">
        <ele>477.06</ele>
        <time>2020-01-17T09:08:51Z</time>
      </trkpt>
      <trkpt lat="39.873332" lon="-0.510752">
        <ele>479.444</ele>
        <time>2020-01-17T09:08:53Z</time>
      </trkpt>
      <trkpt lat="39.873374" lon="-0.510781">
        <ele>481.011</ele>
        <time>2020-01-17T09:08:54Z</time>
      </trkpt>
      <trkpt lat="39.873414" lon="-0.510811">
        <ele>480.72</ele>
        <time>2020-01-17T09:08:55Z</time>
      </trkpt>
      <trkpt lat="39.873592" lon="-0.510967">
        <ele>481.068</ele>
        <time>2020-01-17T09:09:00Z</time>
      </trkpt>
      <trkpt lat="39.873651" lon="-0.511061">
        <ele>480.673</ele>
        <time>2020-01-17T09:09:03Z</time>
      </trkpt>
      <trkpt lat="39.873679" lon="-0.51111">
        <ele>481.893</ele>
        <time>2020-01-17T09:09:06Z</time>
      </trkpt>
      <trkpt lat="39.873694" lon="-0.511137">
        <ele>479.268</ele>
        <time>2020-01-17T09:09:08Z</time>
      </trkpt>
      <trkpt lat="39.873749" lon="-0.511221">
        <ele>479.751</ele>
        <time>2020-01-17T09:09:12Z</time>
      </trkpt>
      <trkpt lat="39.873775" lon="-0.511272">
        <ele>479.687</ele>
        <time>2020-01-17T09:09:14Z</time>
      </trkpt>
      <trkpt lat="39.87381" lon="-0.511336">
        <ele>479.987</ele>
        <time>2020-01-17T09:09:16Z</time>
      </trkpt>
      <trkpt lat="39.87383" lon="-0.511366">
        <ele>480.857</ele>
        <time>2020-01-17T09:09:17Z</time>
      </trkpt>
      <trkpt lat="39.873851" lon="-0.511395">
        <ele>477.994</ele>
        <time>2020-01-17T09:09:18Z</time>
      </trkpt>
      <trkpt lat="39.873921" lon="-0.511486">
        <ele>476.754</ele>
        <time>2020-01-17T09:09:21Z</time>
      </trkpt>
      <trkpt lat="39.874002" lon="-0.511593">
        <ele>477.877</ele>
        <time>2020-01-17T09:09:24Z</time>
      </trkpt>
      <trkpt lat="39.874043" lon="-0.511661">
        <ele>479.499</ele>
        <time>2020-01-17T09:09:26Z</time>
      </trkpt>
      <trkpt lat="39.874065" lon="-0.5117">
        <ele>480.436</ele>
        <time>2020-01-17T09:09:27Z</time>
      </trkpt>
      <trkpt lat="39.87409" lon="-0.511741">
        <ele>479.519</ele>
        <time>2020-01-17T09:09:28Z</time>
      </trkpt>
      <trkpt lat="39.874116" lon="-0.511784">
        <ele>478.595</ele>
        <time>2020-01-17T09:09:29Z</time>
      </trkpt>
      <trkpt lat="39.874161" lon="-0.511877">
        <ele>478.4</ele>
        <time>2020-01-17T09:09:31Z</time>
      </trkpt>
      <trkpt lat="39.87422" lon="-0.511997">
        <ele>479.849</ele>
        <time>2020-01-17T09:09:34Z</time>
      </trkpt>
      <trkpt lat="39.874282" lon="-0.512081">
        <ele>481.482</ele>
        <time>2020-01-17T09:09:37Z</time>
      </trkpt>
      <trkpt lat="39.874299" lon="-0.512104">
        <ele>481.631</ele>
        <time>2020-01-17T09:09:38Z</time>
      </trkpt>
      <trkpt lat="39.874317" lon="-0.512132">
        <ele>480.94</ele>
        <time>2020-01-17T09:09:39Z</time>
      </trkpt>
      <trkpt lat="39.874337" lon="-0.512166">
        <ele>482.554</ele>
        <time>2020-01-17T09:09:40Z</time>
      </trkpt>
      <trkpt lat="39.87436" lon="-0.512204">
        <ele>483.962</ele>
        <time>2020-01-17T09:09:41Z</time>
      </trkpt>
      <trkpt lat="39.874381" lon="-0.512234">
        <ele>485.398</ele>
        <time>2020-01-17T09:09:42Z</time>
      </trkpt>
      <trkpt lat="39.874421" lon="-0.512281">
        <ele>487.624</ele>
        <time>2020-01-17T09:09:44Z</time>
      </trkpt>
      <trkpt lat="39.874443" lon="-0.512308">
        <ele>488.807</ele>
        <time>2020-01-17T09:09:45Z</time>
      </trkpt>
      <trkpt lat="39.874466" lon="-0.512335">
        <ele>487.861</ele>
        <time>2020-01-17T09:09:46Z</time>
      </trkpt>
      <trkpt lat="39.874491" lon="-0.512367">
        <ele>490.46</ele>
        <time>2020-01-17T09:09:47Z</time>
      </trkpt>
      <trkpt lat="39.874513" lon="-0.512398">
        <ele>491.148</ele>
        <time>2020-01-17T09:09:48Z</time>
      </trkpt>
      <trkpt lat="39.874533" lon="-0.512431">
        <ele>491.645</ele>
        <time>2020-01-17T09:09:49Z</time>
      </trkpt>
      <trkpt lat="39.874549" lon="-0.512461">
        <ele>491.543</ele>
        <time>2020-01-17T09:09:50Z</time>
      </trkpt>
      <trkpt lat="39.874569" lon="-0.512494">
        <ele>490.842</ele>
        <time>2020-01-17T09:09:51Z</time>
      </trkpt>
      <trkpt lat="39.87459" lon="-0.512529">
        <ele>489.779</ele>
        <time>2020-01-17T09:09:52Z</time>
      </trkpt>
      <trkpt lat="39.874669" lon="-0.512644">
        <ele>490.029</ele>
        <time>2020-01-17T09:09:55Z</time>
      </trkpt>
      <trkpt lat="39.874689" lon="-0.512675">
        <ele>489.405</ele>
        <time>2020-01-17T09:09:56Z</time>
      </trkpt>
      <trkpt lat="39.874709" lon="-0.512701">
        <ele>491.557</ele>
        <time>2020-01-17T09:09:57Z</time>
      </trkpt>
      <trkpt lat="39.874749" lon="-0.51276">
        <ele>491.179</ele>
        <time>2020-01-17T09:09:59Z</time>
      </trkpt>
      <trkpt lat="39.874824" lon="-0.512851">
        <ele>488.069</ele>
        <time>2020-01-17T09:10:02Z</time>
      </trkpt>
      <trkpt lat="39.874846" lon="-0.512881">
        <ele>488.52</ele>
        <time>2020-01-17T09:10:03Z</time>
      </trkpt>
      <trkpt lat="39.874888" lon="-0.512937">
        <ele>487.439</ele>
        <time>2020-01-17T09:10:05Z</time>
      </trkpt>
      <trkpt lat="39.874971" lon="-0.51304">
        <ele>486.867</ele>
        <time>2020-01-17T09:10:08Z</time>
      </trkpt>
      <trkpt lat="39.875012" lon="-0.513087">
        <ele>484.631</ele>
        <time>2020-01-17T09:10:10Z</time>
      </trkpt>
      <trkpt lat="39.875051" lon="-0.513126">
        <ele>483.807</ele>
        <time>2020-01-17T09:10:12Z</time>
      </trkpt>
      <trkpt lat="39.875075" lon="-0.513152">
        <ele>483.173</ele>
        <time>2020-01-17T09:10:13Z</time>
      </trkpt>
      <trkpt lat="39.875099" lon="-0.513177">
        <ele>483.879</ele>
        <time>2020-01-17T09:10:14Z</time>
      </trkpt>
      <trkpt lat="39.875126" lon="-0.513208">
        <ele>484.094</ele>
        <time>2020-01-17T09:10:15Z</time>
      </trkpt>
      <trkpt lat="39.875177" lon="-0.513284">
        <ele>482.298</ele>
        <time>2020-01-17T09:10:17Z</time>
      </trkpt>
      <trkpt lat="39.875217" lon="-0.513342">
        <ele>477.831</ele>
        <time>2020-01-17T09:10:19Z</time>
      </trkpt>
      <trkpt lat="39.875252" lon="-0.513387">
        <ele>476.528</ele>
        <time>2020-01-17T09:10:21Z</time>
      </trkpt>
      <trkpt lat="39.875286" lon="-0.513433">
        <ele>476.653</ele>
        <time>2020-01-17T09:10:23Z</time>
      </trkpt>
      <trkpt lat="39.875328" lon="-0.513497">
        <ele>476.437</ele>
        <time>2020-01-17T09:10:25Z</time>
      </trkpt>
      <trkpt lat="39.875355" lon="-0.513533">
        <ele>476.622</ele>
        <time>2020-01-17T09:10:26Z</time>
      </trkpt>
      <trkpt lat="39.875409" lon="-0.5136">
        <ele>477.194</ele>
        <time>2020-01-17T09:10:28Z</time>
      </trkpt>
      <trkpt lat="39.875501" lon="-0.513656">
        <ele>478.401</ele>
        <time>2020-01-17T09:10:31Z</time>
      </trkpt>
      <trkpt lat="39.87556" lon="-0.513681">
        <ele>472.168</ele>
        <time>2020-01-17T09:10:35Z</time>
      </trkpt>
      <trkpt lat="39.875612" lon="-0.513725">
        <ele>473.048</ele>
        <time>2020-01-17T09:10:38Z</time>
      </trkpt>
      <trkpt lat="39.875641" lon="-0.513752">
        <ele>471.707</ele>
        <time>2020-01-17T09:10:39Z</time>
      </trkpt>
      <trkpt lat="39.875669" lon="-0.513776">
        <ele>475.01</ele>
        <time>2020-01-17T09:10:40Z</time>
      </trkpt>
      <trkpt lat="39.875732" lon="-0.513821">
        <ele>477.108</ele>
        <time>2020-01-17T09:10:42Z</time>
      </trkpt>
      <trkpt lat="39.875824" lon="-0.513864">
        <ele>476.775</ele>
        <time>2020-01-17T09:10:45Z</time>
      </trkpt>
      <trkpt lat="39.875878" lon="-0.513893">
        <ele>477.243</ele>
        <time>2020-01-17T09:10:47Z</time>
      </trkpt>
      <trkpt lat="39.875959" lon="-0.513926">
        <ele>476.713</ele>
        <time>2020-01-17T09:10:50Z</time>
      </trkpt>
      <trkpt lat="39.875985" lon="-0.513938">
        <ele>475.011</ele>
        <time>2020-01-17T09:10:51Z</time>
      </trkpt>
      <trkpt lat="39.876009" lon="-0.513948">
        <ele>474.028</ele>
        <time>2020-01-17T09:10:52Z</time>
      </trkpt>
      <trkpt lat="39.876065" lon="-0.513952">
        <ele>476.2</ele>
        <time>2020-01-17T09:10:54Z</time>
      </trkpt>
      <trkpt lat="39.876095" lon="-0.513954">
        <ele>476.445</ele>
        <time>2020-01-17T09:10:55Z</time>
      </trkpt>
      <trkpt lat="39.876148" lon="-0.513978">
        <ele>476.834</ele>
        <time>2020-01-17T09:10:57Z</time>
      </trkpt>
      <trkpt lat="39.876201" lon="-0.514003">
        <ele>476.416</ele>
        <time>2020-01-17T09:11:00Z</time>
      </trkpt>
      <trkpt lat="39.876233" lon="-0.514019">
        <ele>476.733</ele>
        <time>2020-01-17T09:11:02Z</time>
      </trkpt>
      <trkpt lat="39.876258" lon="-0.514029">
        <ele>475.54</ele>
        <time>2020-01-17T09:11:03Z</time>
      </trkpt>
      <trkpt lat="39.87631" lon="-0.514048">
        <ele>476.904</ele>
        <time>2020-01-17T09:11:05Z</time>
      </trkpt>
      <trkpt lat="39.87637" lon="-0.514082">
        <ele>475.163</ele>
        <time>2020-01-17T09:11:07Z</time>
      </trkpt>
      <trkpt lat="39.876399" lon="-0.514101">
        <ele>475.828</ele>
        <time>2020-01-17T09:11:08Z</time>
      </trkpt>
      <trkpt lat="39.87643" lon="-0.514122">
        <ele>475.619</ele>
        <time>2020-01-17T09:11:09Z</time>
      </trkpt>
      <trkpt lat="39.876462" lon="-0.514144">
        <ele>474.147</ele>
        <time>2020-01-17T09:11:11Z</time>
      </trkpt>
      <trkpt lat="39.876555" lon="-0.514181">
        <ele>474.326</ele>
        <time>2020-01-17T09:11:14Z</time>
      </trkpt>
      <trkpt lat="39.876683" lon="-0.514211">
        <ele>473.793</ele>
        <time>2020-01-17T09:11:18Z</time>
      </trkpt>
      <trkpt lat="39.87676" lon="-0.514214">
        <ele>473.562</ele>
        <time>2020-01-17T09:11:21Z</time>
      </trkpt>
      <trkpt lat="39.87683" lon="-0.514239">
        <ele>479.104</ele>
        <time>2020-01-17T09:11:23Z</time>
      </trkpt>
      <trkpt lat="39.876874" lon="-0.514264">
        <ele>480.275</ele>
        <time>2020-01-17T09:11:25Z</time>
      </trkpt>
      <trkpt lat="39.876914" lon="-0.514323">
        <ele>480.166</ele>
        <time>2020-01-17T09:11:27Z</time>
      </trkpt>
      <trkpt lat="39.876936" lon="-0.514353">
        <ele>479.75</ele>
        <time>2020-01-17T09:11:28Z</time>
      </trkpt>
      <trkpt lat="39.87699" lon="-0.514384">
        <ele>479.506</ele>
        <time>2020-01-17T09:11:31Z</time>
      </trkpt>
      <trkpt lat="39.877027" lon="-0.514411">
        <ele>479.425</ele>
        <time>2020-01-17T09:11:33Z</time>
      </trkpt>
      <trkpt lat="39.877051" lon="-0.514429">
        <ele>479.134</ele>
        <time>2020-01-17T09:11:34Z</time>
      </trkpt>
      <trkpt lat="39.877078" lon="-0.514445">
        <ele>476.256</ele>
        <time>2020-01-17T09:11:35Z</time>
      </trkpt>
      <trkpt lat="39.877107" lon="-0.514462">
        <ele>477.613</ele>
        <time>2020-01-17T09:11:36Z</time>
      </trkpt>
      <trkpt lat="39.877153" lon="-0.514497">
        <ele>480.034</ele>
        <time>2020-01-17T09:11:38Z</time>
      </trkpt>
      <trkpt lat="39.877199" lon="-0.51454">
        <ele>481.753</ele>
        <time>2020-01-17T09:11:40Z</time>
      </trkpt>
      <trkpt lat="39.877221" lon="-0.514558">
        <ele>484.373</ele>
        <time>2020-01-17T09:11:41Z</time>
      </trkpt>
      <trkpt lat="39.877268" lon="-0.514595">
        <ele>484.742</ele>
        <time>2020-01-17T09:11:43Z</time>
      </trkpt>
      <trkpt lat="39.877384" lon="-0.514684">
        <ele>485.673</ele>
        <time>2020-01-17T09:11:48Z</time>
      </trkpt>
      <trkpt lat="39.877433" lon="-0.514719">
        <ele>486.134</ele>
        <time>2020-01-17T09:11:50Z</time>
      </trkpt>
      <trkpt lat="39.877477" lon="-0.514756">
        <ele>487.173</ele>
        <time>2020-01-17T09:11:52Z</time>
      </trkpt>
      <trkpt lat="39.8775" lon="-0.514773">
        <ele>492.786</ele>
        <time>2020-01-17T09:11:53Z</time>
      </trkpt>
      <trkpt lat="39.877538" lon="-0.514826">
        <ele>491.451</ele>
        <time>2020-01-17T09:11:55Z</time>
      </trkpt>
      <trkpt lat="39.877556" lon="-0.514855">
        <ele>489.303</ele>
        <time>2020-01-17T09:11:56Z</time>
      </trkpt>
      <trkpt lat="39.877574" lon="-0.514885">
        <ele>489.934</ele>
        <time>2020-01-17T09:11:57Z</time>
      </trkpt>
      <trkpt lat="39.877635" lon="-0.514975">
        <ele>486.372</ele>
        <time>2020-01-17T09:12:00Z</time>
      </trkpt>
      <trkpt lat="39.877657" lon="-0.515011">
        <ele>488.684</ele>
        <time>2020-01-17T09:12:01Z</time>
      </trkpt>
      <trkpt lat="39.877684" lon="-0.515056">
        <ele>488.755</ele>
        <time>2020-01-17T09:12:02Z</time>
      </trkpt>
      <trkpt lat="39.877715" lon="-0.515108">
        <ele>488.027</ele>
        <time>2020-01-17T09:12:03Z</time>
      </trkpt>
      <trkpt lat="39.877747" lon="-0.515157">
        <ele>488.598</ele>
        <time>2020-01-17T09:12:04Z</time>
      </trkpt>
      <trkpt lat="39.877779" lon="-0.515202">
        <ele>489.865</ele>
        <time>2020-01-17T09:12:05Z</time>
      </trkpt>
      <trkpt lat="39.877809" lon="-0.51524">
        <ele>489.729</ele>
        <time>2020-01-17T09:12:06Z</time>
      </trkpt>
      <trkpt lat="39.877866" lon="-0.515295">
        <ele>489.848</ele>
        <time>2020-01-17T09:12:08Z</time>
      </trkpt>
      <trkpt lat="39.877939" lon="-0.51537">
        <ele>485.559</ele>
        <time>2020-01-17T09:12:11Z</time>
      </trkpt>
      <trkpt lat="39.877994" lon="-0.515441">
        <ele>485.666</ele>
        <time>2020-01-17T09:12:14Z</time>
      </trkpt>
      <trkpt lat="39.878033" lon="-0.515481">
        <ele>483.755</ele>
        <time>2020-01-17T09:12:16Z</time>
      </trkpt>
      <trkpt lat="39.878057" lon="-0.515504">
        <ele>482.579</ele>
        <time>2020-01-17T09:12:17Z</time>
      </trkpt>
      <trkpt lat="39.878083" lon="-0.515532">
        <ele>480.959</ele>
        <time>2020-01-17T09:12:18Z</time>
      </trkpt>
      <trkpt lat="39.878152" lon="-0.515602">
        <ele>482.117</ele>
        <time>2020-01-17T09:12:20Z</time>
      </trkpt>
      <trkpt lat="39.878274" lon="-0.515723">
        <ele>482.266</ele>
        <time>2020-01-17T09:12:24Z</time>
      </trkpt>
      <trkpt lat="39.878321" lon="-0.515801">
        <ele>482.739</ele>
        <time>2020-01-17T09:12:26Z</time>
      </trkpt>
      <trkpt lat="39.878338" lon="-0.515833">
        <ele>483.022</ele>
        <time>2020-01-17T09:12:27Z</time>
      </trkpt>
      <trkpt lat="39.87836" lon="-0.515866">
        <ele>483.476</ele>
        <time>2020-01-17T09:12:28Z</time>
      </trkpt>
      <trkpt lat="39.878382" lon="-0.515901">
        <ele>483.634</ele>
        <time>2020-01-17T09:12:29Z</time>
      </trkpt>
      <trkpt lat="39.878404" lon="-0.515933">
        <ele>480.561</ele>
        <time>2020-01-17T09:12:30Z</time>
      </trkpt>
      <trkpt lat="39.878421" lon="-0.515959">
        <ele>481.278</ele>
        <time>2020-01-17T09:12:31Z</time>
      </trkpt>
      <trkpt lat="39.878468" lon="-0.516007">
        <ele>481.499</ele>
        <time>2020-01-17T09:12:34Z</time>
      </trkpt>
      <trkpt lat="39.878534" lon="-0.516087">
        <ele>481.541</ele>
        <time>2020-01-17T09:12:38Z</time>
      </trkpt>
      <trkpt lat="39.878571" lon="-0.516125">
        <ele>481.76</ele>
        <time>2020-01-17T09:12:40Z</time>
      </trkpt>
      <trkpt lat="39.878595" lon="-0.516148">
        <ele>482.893</ele>
        <time>2020-01-17T09:12:41Z</time>
      </trkpt>
      <trkpt lat="39.878648" lon="-0.516195">
        <ele>483.659</ele>
        <time>2020-01-17T09:12:43Z</time>
      </trkpt>
      <trkpt lat="39.878681" lon="-0.516221">
        <ele>482.58</ele>
        <time>2020-01-17T09:12:44Z</time>
      </trkpt>
      <trkpt lat="39.878713" lon="-0.516244">
        <ele>478.097</ele>
        <time>2020-01-17T09:12:45Z</time>
      </trkpt>
      <trkpt lat="39.878753" lon="-0.516271">
        <ele>478.879</ele>
        <time>2020-01-17T09:12:46Z</time>
      </trkpt>
      <trkpt lat="39.878851" lon="-0.51634">
        <ele>481.477</ele>
        <time>2020-01-17T09:12:50Z</time>
      </trkpt>
      <trkpt lat="39.87892" lon="-0.516412">
        <ele>483.04</ele>
        <time>2020-01-17T09:12:53Z</time>
      </trkpt>
      <trkpt lat="39.878998" lon="-0.516466">
        <ele>482.923</ele>
        <time>2020-01-17T09:12:56Z</time>
      </trkpt>
      <trkpt lat="39.879108" lon="-0.516507">
        <ele>477.917</ele>
        <time>2020-01-17T09:12:59Z</time>
      </trkpt>
      <trkpt lat="39.879177" lon="-0.516526">
        <ele>475.858</ele>
        <time>2020-01-17T09:13:01Z</time>
      </trkpt>
      <trkpt lat="39.879223" lon="-0.516533">
        <ele>475.811</ele>
        <time>2020-01-17T09:13:02Z</time>
      </trkpt>
      <trkpt lat="39.87931" lon="-0.51656">
        <ele>475.039</ele>
        <time>2020-01-17T09:13:04Z</time>
      </trkpt>
      <trkpt lat="39.879406" lon="-0.516629">
        <ele>475.154</ele>
        <time>2020-01-17T09:13:07Z</time>
      </trkpt>
      <trkpt lat="39.879499" lon="-0.51666">
        <ele>474.142</ele>
        <time>2020-01-17T09:13:10Z</time>
      </trkpt>
      <trkpt lat="39.879533" lon="-0.516671">
        <ele>475.746</ele>
        <time>2020-01-17T09:13:11Z</time>
      </trkpt>
      <trkpt lat="39.879582" lon="-0.5167">
        <ele>476.191</ele>
        <time>2020-01-17T09:13:13Z</time>
      </trkpt>
      <trkpt lat="39.879641" lon="-0.51673">
        <ele>474.011</ele>
        <time>2020-01-17T09:13:15Z</time>
      </trkpt>
      <trkpt lat="39.879675" lon="-0.516744">
        <ele>470.867</ele>
        <time>2020-01-17T09:13:16Z</time>
      </trkpt>
      <trkpt lat="39.879772" lon="-0.516764">
        <ele>469.848</ele>
        <time>2020-01-17T09:13:19Z</time>
      </trkpt>
      <trkpt lat="39.879882" lon="-0.516829">
        <ele>471.009</ele>
        <time>2020-01-17T09:13:23Z</time>
      </trkpt>
      <trkpt lat="39.879931" lon="-0.516862">
        <ele>471.147</ele>
        <time>2020-01-17T09:13:25Z</time>
      </trkpt>
      <trkpt lat="39.880015" lon="-0.516902">
        <ele>470.589</ele>
        <time>2020-01-17T09:13:28Z</time>
      </trkpt>
      <trkpt lat="39.880064" lon="-0.516922">
        <ele>467.099</ele>
        <time>2020-01-17T09:13:30Z</time>
      </trkpt>
      <trkpt lat="39.880092" lon="-0.516933">
        <ele>468.845</ele>
        <time>2020-01-17T09:13:31Z</time>
      </trkpt>
      <trkpt lat="39.880166" lon="-0.516951">
        <ele>470.926</ele>
        <time>2020-01-17T09:13:34Z</time>
      </trkpt>
      <trkpt lat="39.880194" lon="-0.516959">
        <ele>472.178</ele>
        <time>2020-01-17T09:13:35Z</time>
      </trkpt>
      <trkpt lat="39.880224" lon="-0.516965">
        <ele>471.879</ele>
        <time>2020-01-17T09:13:36Z</time>
      </trkpt>
      <trkpt lat="39.880296" lon="-0.516984">
        <ele>472.963</ele>
        <time>2020-01-17T09:13:38Z</time>
      </trkpt>
      <trkpt lat="39.880361" lon="-0.517003">
        <ele>472.181</ele>
        <time>2020-01-17T09:13:40Z</time>
      </trkpt>
      <trkpt lat="39.88039" lon="-0.517013">
        <ele>470.13</ele>
        <time>2020-01-17T09:13:41Z</time>
      </trkpt>
      <trkpt lat="39.88044" lon="-0.517033">
        <ele>469.479</ele>
        <time>2020-01-17T09:13:43Z</time>
      </trkpt>
      <trkpt lat="39.880464" lon="-0.517044">
        <ele>472.027</ele>
        <time>2020-01-17T09:13:44Z</time>
      </trkpt>
      <trkpt lat="39.880486" lon="-0.517052">
        <ele>471.837</ele>
        <time>2020-01-17T09:13:45Z</time>
      </trkpt>
      <trkpt lat="39.880552" lon="-0.517071">
        <ele>470.93</ele>
        <time>2020-01-17T09:13:49Z</time>
      </trkpt>
      <trkpt lat="39.880634" lon="-0.517087">
        <ele>470.975</ele>
        <time>2020-01-17T09:13:51Z</time>
      </trkpt>
      <trkpt lat="39.880711" lon="-0.517108">
        <ele>472.805</ele>
        <time>2020-01-17T09:13:53Z</time>
      </trkpt>
      <trkpt lat="39.880774" lon="-0.517147">
        <ele>474.015</ele>
        <time>2020-01-17T09:13:55Z</time>
      </trkpt>
      <trkpt lat="39.88086" lon="-0.517208">
        <ele>475.51</ele>
        <time>2020-01-17T09:13:58Z</time>
      </trkpt>
      <trkpt lat="39.880888" lon="-0.517223">
        <ele>474.188</ele>
        <time>2020-01-17T09:14:00Z</time>
      </trkpt>
      <trkpt lat="39.880942" lon="-0.517257">
        <ele>472.709</ele>
        <time>2020-01-17T09:14:01Z</time>
      </trkpt>
      <trkpt lat="39.880973" lon="-0.517273">
        <ele>468.534</ele>
        <time>2020-01-17T09:14:02Z</time>
      </trkpt>
      <trkpt lat="39.88108" lon="-0.517324">
        <ele>471.376</ele>
        <time>2020-01-17T09:14:05Z</time>
      </trkpt>
      <trkpt lat="39.881143" lon="-0.517351">
        <ele>474.403</ele>
        <time>2020-01-17T09:14:07Z</time>
      </trkpt>
      <trkpt lat="39.881194" lon="-0.517381">
        <ele>473.295</ele>
        <time>2020-01-17T09:14:09Z</time>
      </trkpt>
      <trkpt lat="39.881221" lon="-0.517395">
        <ele>474.061</ele>
        <time>2020-01-17T09:14:10Z</time>
      </trkpt>
      <trkpt lat="39.881279" lon="-0.517405">
        <ele>473.705</ele>
        <time>2020-01-17T09:14:12Z</time>
      </trkpt>
      <trkpt lat="39.881311" lon="-0.517409">
        <ele>473.767</ele>
        <time>2020-01-17T09:14:13Z</time>
      </trkpt>
      <trkpt lat="39.881343" lon="-0.51741">
        <ele>475.214</ele>
        <time>2020-01-17T09:14:14Z</time>
      </trkpt>
      <trkpt lat="39.881407" lon="-0.51741">
        <ele>474.445</ele>
        <time>2020-01-17T09:14:16Z</time>
      </trkpt>
      <trkpt lat="39.881461" lon="-0.51743">
        <ele>474.753</ele>
        <time>2020-01-17T09:14:18Z</time>
      </trkpt>
      <trkpt lat="39.881516" lon="-0.51746">
        <ele>474.13</ele>
        <time>2020-01-17T09:14:20Z</time>
      </trkpt>
      <trkpt lat="39.881539" lon="-0.517472">
        <ele>473.499</ele>
        <time>2020-01-17T09:14:21Z</time>
      </trkpt>
      <trkpt lat="39.881609" lon="-0.517506">
        <ele>471.797</ele>
        <time>2020-01-17T09:14:24Z</time>
      </trkpt>
      <trkpt lat="39.881673" lon="-0.517556">
        <ele>471.792</ele>
        <time>2020-01-17T09:14:27Z</time>
      </trkpt>
      <trkpt lat="39.881741" lon="-0.5176">
        <ele>471.317</ele>
        <time>2020-01-17T09:14:29Z</time>
      </trkpt>
      <trkpt lat="39.881771" lon="-0.517619">
        <ele>470.922</ele>
        <time>2020-01-17T09:14:30Z</time>
      </trkpt>
      <trkpt lat="39.881839" lon="-0.517648">
        <ele>469.795</ele>
        <time>2020-01-17T09:14:32Z</time>
      </trkpt>
      <trkpt lat="39.881927" lon="-0.51768">
        <ele>470.072</ele>
        <time>2020-01-17T09:14:35Z</time>
      </trkpt>
      <trkpt lat="39.881982" lon="-0.517706">
        <ele>471.272</ele>
        <time>2020-01-17T09:14:37Z</time>
      </trkpt>
      <trkpt lat="39.882038" lon="-0.517713">
        <ele>471.225</ele>
        <time>2020-01-17T09:14:39Z</time>
      </trkpt>
      <trkpt lat="39.882118" lon="-0.517711">
        <ele>473.122</ele>
        <time>2020-01-17T09:14:42Z</time>
      </trkpt>
      <trkpt lat="39.882186" lon="-0.517732">
        <ele>472.971</ele>
        <time>2020-01-17T09:14:44Z</time>
      </trkpt>
      <trkpt lat="39.88225" lon="-0.517761">
        <ele>475.521</ele>
        <time>2020-01-17T09:14:46Z</time>
      </trkpt>
      <trkpt lat="39.88228" lon="-0.517774">
        <ele>477.303</ele>
        <time>2020-01-17T09:14:47Z</time>
      </trkpt>
      <trkpt lat="39.882395" lon="-0.517828">
        <ele>476.935</ele>
        <time>2020-01-17T09:14:51Z</time>
      </trkpt>
      <trkpt lat="39.882424" lon="-0.517841">
        <ele>478.868</ele>
        <time>2020-01-17T09:14:52Z</time>
      </trkpt>
      <trkpt lat="39.882455" lon="-0.517852">
        <ele>479.939</ele>
        <time>2020-01-17T09:14:53Z</time>
      </trkpt>
      <trkpt lat="39.882485" lon="-0.517863">
        <ele>480.659</ele>
        <time>2020-01-17T09:14:54Z</time>
      </trkpt>
      <trkpt lat="39.882513" lon="-0.517875">
        <ele>480.275</ele>
        <time>2020-01-17T09:14:55Z</time>
      </trkpt>
      <trkpt lat="39.882538" lon="-0.517885">
        <ele>482.323</ele>
        <time>2020-01-17T09:14:56Z</time>
      </trkpt>
      <trkpt lat="39.882563" lon="-0.517898">
        <ele>483.479</ele>
        <time>2020-01-17T09:14:57Z</time>
      </trkpt>
      <trkpt lat="39.882617" lon="-0.517917">
        <ele>483.469</ele>
        <time>2020-01-17T09:14:59Z</time>
      </trkpt>
      <trkpt lat="39.882679" lon="-0.517924">
        <ele>483.843</ele>
        <time>2020-01-17T09:15:01Z</time>
      </trkpt>
      <trkpt lat="39.882785" lon="-0.517949">
        <ele>483.901</ele>
        <time>2020-01-17T09:15:04Z</time>
      </trkpt>
      <trkpt lat="39.882844" lon="-0.517981">
        <ele>484.582</ele>
        <time>2020-01-17T09:15:06Z</time>
      </trkpt>
      <trkpt lat="39.882906" lon="-0.518015">
        <ele>485.339</ele>
        <time>2020-01-17T09:15:08Z</time>
      </trkpt>
      <trkpt lat="39.882955" lon="-0.518031">
        <ele>488.52</ele>
        <time>2020-01-17T09:15:10Z</time>
      </trkpt>
      <trkpt lat="39.883012" lon="-0.518046">
        <ele>488.676</ele>
        <time>2020-01-17T09:15:12Z</time>
      </trkpt>
      <trkpt lat="39.883039" lon="-0.518055">
        <ele>488.38</ele>
        <time>2020-01-17T09:15:13Z</time>
      </trkpt>
      <trkpt lat="39.883094" lon="-0.518081">
        <ele>487.403</ele>
        <time>2020-01-17T09:15:15Z</time>
      </trkpt>
      <trkpt lat="39.883157" lon="-0.518117">
        <ele>488.865</ele>
        <time>2020-01-17T09:15:17Z</time>
      </trkpt>
      <trkpt lat="39.883191" lon="-0.518132">
        <ele>488.865</ele>
        <time>2020-01-17T09:15:18Z</time>
      </trkpt>
      <trkpt lat="39.883254" lon="-0.518152">
        <ele>484.873</ele>
        <time>2020-01-17T09:15:20Z</time>
      </trkpt>
      <trkpt lat="39.883289" lon="-0.518166">
        <ele>484.889</ele>
        <time>2020-01-17T09:15:21Z</time>
      </trkpt>
      <trkpt lat="39.883322" lon="-0.518178">
        <ele>478.19</ele>
        <time>2020-01-17T09:15:22Z</time>
      </trkpt>
      <trkpt lat="39.883383" lon="-0.518192">
        <ele>478.972</ele>
        <time>2020-01-17T09:15:24Z</time>
      </trkpt>
      <trkpt lat="39.883415" lon="-0.518202">
        <ele>466.026</ele>
        <time>2020-01-17T09:15:25Z</time>
      </trkpt>
      <trkpt lat="39.8835" lon="-0.51825">
        <ele>474.328</ele>
        <time>2020-01-17T09:15:28Z</time>
      </trkpt>
      <trkpt lat="39.883533" lon="-0.518272">
        <ele>475.822</ele>
        <time>2020-01-17T09:15:29Z</time>
      </trkpt>
      <trkpt lat="39.883592" lon="-0.518308">
        <ele>476.636</ele>
        <time>2020-01-17T09:15:31Z</time>
      </trkpt>
      <trkpt lat="39.883621" lon="-0.518328">
        <ele>477.985</ele>
        <time>2020-01-17T09:15:32Z</time>
      </trkpt>
      <trkpt lat="39.883649" lon="-0.518351">
        <ele>479.393</ele>
        <time>2020-01-17T09:15:33Z</time>
      </trkpt>
      <trkpt lat="39.883693" lon="-0.518381">
        <ele>480.76</ele>
        <time>2020-01-17T09:15:35Z</time>
      </trkpt>
      <trkpt lat="39.883731" lon="-0.518402">
        <ele>482.58</ele>
        <time>2020-01-17T09:15:37Z</time>
      </trkpt>
      <trkpt lat="39.883731" lon="-0.518402">
        <ele>482.624</ele>
        <time>2020-01-17T09:15:42Z</time>
      </trkpt>
      <trkpt lat="39.883731" lon="-0.518402">
        <ele>484.775</ele>
        <time>2020-01-17T09:15:42Z</time>
      </trkpt>
      <trkpt lat="39.883731" lon="-0.518402">
        <ele>486.189</ele>
        <time>2020-01-17T09:15:51Z</time>
      </trkpt>
      <trkpt lat="39.884009" lon="-0.518534">
        <ele>482.349</ele>
        <time>2020-01-17T09:15:54Z</time>
      </trkpt>
      <trkpt lat="39.88403" lon="-0.5186">
        <ele>482.843</ele>
        <time>2020-01-17T09:15:58Z</time>
      </trkpt>
      <trkpt lat="39.885079" lon="-0.519769">
        <ele>480.767</ele>
        <time>2020-01-17T09:16:38Z</time>
      </trkpt>
      <trkpt lat="39.88512" lon="-0.519811">
        <ele>475.919</ele>
        <time>2020-01-17T09:16:39Z</time>
      </trkpt>
      <trkpt lat="39.885168" lon="-0.519819">
        <ele>475.959</ele>
        <time>2020-01-17T09:16:42Z</time>
      </trkpt>
      <trkpt lat="39.885207" lon="-0.519856">
        <ele>479.798</ele>
        <time>2020-01-17T09:16:45Z</time>
      </trkpt>
      <trkpt lat="39.885247" lon="-0.519912">
        <ele>478.505</ele>
        <time>2020-01-17T09:16:48Z</time>
      </trkpt>
      <trkpt lat="39.885289" lon="-0.519952">
        <ele>478.493</ele>
        <time>2020-01-17T09:16:50Z</time>
      </trkpt>
      <trkpt lat="39.885314" lon="-0.519974">
        <ele>478.65</ele>
        <time>2020-01-17T09:16:51Z</time>
      </trkpt>
      <trkpt lat="39.885342" lon="-0.519996">
        <ele>478.637</ele>
        <time>2020-01-17T09:16:52Z</time>
      </trkpt>
      <trkpt lat="39.885372" lon="-0.520016">
        <ele>476.293</ele>
        <time>2020-01-17T09:16:53Z</time>
      </trkpt>
      <trkpt lat="39.885401" lon="-0.520039">
        <ele>474.394</ele>
        <time>2020-01-17T09:16:54Z</time>
      </trkpt>
      <trkpt lat="39.885431" lon="-0.520066">
        <ele>473.014</ele>
        <time>2020-01-17T09:16:55Z</time>
      </trkpt>
      <trkpt lat="39.885464" lon="-0.520095">
        <ele>470.356</ele>
        <time>2020-01-17T09:16:56Z</time>
      </trkpt>
      <trkpt lat="39.885497" lon="-0.520131">
        <ele>470.675</ele>
        <time>2020-01-17T09:16:57Z</time>
      </trkpt>
      <trkpt lat="39.885586" lon="-0.520251">
        <ele>472.4</ele>
        <time>2020-01-17T09:17:00Z</time>
      </trkpt>
      <trkpt lat="39.885612" lon="-0.520289">
        <ele>473.016</ele>
        <time>2020-01-17T09:17:01Z</time>
      </trkpt>
      <trkpt lat="39.885655" lon="-0.520366">
        <ele>476.764</ele>
        <time>2020-01-17T09:17:03Z</time>
      </trkpt>
      <trkpt lat="39.885672" lon="-0.520399">
        <ele>475.621</ele>
        <time>2020-01-17T09:17:04Z</time>
      </trkpt>
      <trkpt lat="39.885694" lon="-0.520436">
        <ele>476.613</ele>
        <time>2020-01-17T09:17:05Z</time>
      </trkpt>
      <trkpt lat="39.885752" lon="-0.520511">
        <ele>475.191</ele>
        <time>2020-01-17T09:17:07Z</time>
      </trkpt>
      <trkpt lat="39.885825" lon="-0.520612">
        <ele>475.555</ele>
        <time>2020-01-17T09:17:10Z</time>
      </trkpt>
      <trkpt lat="39.885871" lon="-0.520668">
        <ele>476.725</ele>
        <time>2020-01-17T09:17:12Z</time>
      </trkpt>
      <trkpt lat="39.885895" lon="-0.520696">
        <ele>481.635</ele>
        <time>2020-01-17T09:17:13Z</time>
      </trkpt>
      <trkpt lat="39.885935" lon="-0.520762">
        <ele>481.635</ele>
        <time>2020-01-17T09:17:15Z</time>
      </trkpt>
      <trkpt lat="39.885968" lon="-0.520823">
        <ele>484.401</ele>
        <time>2020-01-17T09:17:17Z</time>
      </trkpt>
      <trkpt lat="39.886014" lon="-0.520913">
        <ele>484.722</ele>
        <time>2020-01-17T09:17:20Z</time>
      </trkpt>
      <trkpt lat="39.88603" lon="-0.520981">
        <ele>482.874</ele>
        <time>2020-01-17T09:17:22Z</time>
      </trkpt>
      <trkpt lat="39.886039" lon="-0.521046">
        <ele>481.924</ele>
        <time>2020-01-17T09:17:24Z</time>
      </trkpt>
      <trkpt lat="39.88607" lon="-0.521125">
        <ele>482.004</ele>
        <time>2020-01-17T09:17:27Z</time>
      </trkpt>
      <trkpt lat="39.886105" lon="-0.521196">
        <ele>482.201</ele>
        <time>2020-01-17T09:17:30Z</time>
      </trkpt>
      <trkpt lat="39.886126" lon="-0.521244">
        <ele>481.532</ele>
        <time>2020-01-17T09:17:32Z</time>
      </trkpt>
      <trkpt lat="39.886174" lon="-0.521356">
        <ele>481.927</ele>
        <time>2020-01-17T09:17:35Z</time>
      </trkpt>
      <trkpt lat="39.886191" lon="-0.5214">
        <ele>482.906</ele>
        <time>2020-01-17T09:17:36Z</time>
      </trkpt>
      <trkpt lat="39.886207" lon="-0.521435">
        <ele>483.639</ele>
        <time>2020-01-17T09:17:37Z</time>
      </trkpt>
      <trkpt lat="39.886227" lon="-0.521517">
        <ele>483.019</ele>
        <time>2020-01-17T09:17:39Z</time>
      </trkpt>
      <trkpt lat="39.886233" lon="-0.521552">
        <ele>483.001</ele>
        <time>2020-01-17T09:17:40Z</time>
      </trkpt>
      <trkpt lat="39.886239" lon="-0.521585">
        <ele>483.208</ele>
        <time>2020-01-17T09:17:41Z</time>
      </trkpt>
      <trkpt lat="39.886267" lon="-0.521649">
        <ele>482.066</ele>
        <time>2020-01-17T09:17:44Z</time>
      </trkpt>
      <trkpt lat="39.886267" lon="-0.521649">
        <ele>482.617</ele>
        <time>2020-01-17T09:17:50Z</time>
      </trkpt>
      <trkpt lat="39.886267" lon="-0.521649">
        <ele>482.624</ele>
        <time>2020-01-17T09:17:51Z</time>
      </trkpt>
      <trkpt lat="39.886267" lon="-0.521649">
        <ele>483.228</ele>
        <time>2020-01-17T09:22:10Z</time>
      </trkpt>
      <trkpt lat="39.886345" lon="-0.521893">
        <ele>482.481</ele>
        <time>2020-01-17T09:22:13Z</time>
      </trkpt>
      <trkpt lat="39.886357" lon="-0.521951">
        <ele>481.866</ele>
        <time>2020-01-17T09:22:21Z</time>
      </trkpt>
      <trkpt lat="39.886369" lon="-0.522025">
        <ele>482.205</ele>
        <time>2020-01-17T09:22:23Z</time>
      </trkpt>
      <trkpt lat="39.886376" lon="-0.522054">
        <ele>482.418</ele>
        <time>2020-01-17T09:22:24Z</time>
      </trkpt>
      <trkpt lat="39.88638" lon="-0.522083">
        <ele>482.591</ele>
        <time>2020-01-17T09:22:25Z</time>
      </trkpt>
      <trkpt lat="39.886385" lon="-0.522116">
        <ele>482.225</ele>
        <time>2020-01-17T09:22:26Z</time>
      </trkpt>
      <trkpt lat="39.886388" lon="-0.522148">
        <ele>481.31</ele>
        <time>2020-01-17T09:22:27Z</time>
      </trkpt>
      <trkpt lat="39.88639" lon="-0.52218">
        <ele>481.242</ele>
        <time>2020-01-17T09:22:28Z</time>
      </trkpt>
      <trkpt lat="39.886393" lon="-0.522213">
        <ele>482.175</ele>
        <time>2020-01-17T09:22:29Z</time>
      </trkpt>
      <trkpt lat="39.886397" lon="-0.522247">
        <ele>483.113</ele>
        <time>2020-01-17T09:22:30Z</time>
      </trkpt>
      <trkpt lat="39.886401" lon="-0.522281">
        <ele>483.369</ele>
        <time>2020-01-17T09:22:31Z</time>
      </trkpt>
      <trkpt lat="39.886406" lon="-0.522317">
        <ele>484.168</ele>
        <time>2020-01-17T09:22:33Z</time>
      </trkpt>
      <trkpt lat="39.88641" lon="-0.522354">
        <ele>484.289</ele>
        <time>2020-01-17T09:22:35Z</time>
      </trkpt>
      <trkpt lat="39.886417" lon="-0.522403">
        <ele>484.832</ele>
        <time>2020-01-17T09:22:37Z</time>
      </trkpt>
      <trkpt lat="39.886426" lon="-0.522455">
        <ele>483.293</ele>
        <time>2020-01-17T09:22:39Z</time>
      </trkpt>
      <trkpt lat="39.886431" lon="-0.522485">
        <ele>482.397</ele>
        <time>2020-01-17T09:22:40Z</time>
      </trkpt>
      <trkpt lat="39.886435" lon="-0.522548">
        <ele>481.385</ele>
        <time>2020-01-17T09:22:42Z</time>
      </trkpt>
      <trkpt lat="39.886439" lon="-0.522628">
        <ele>481.724</ele>
        <time>2020-01-17T09:22:44Z</time>
      </trkpt>
      <trkpt lat="39.886442" lon="-0.52267">
        <ele>482.87</ele>
        <time>2020-01-17T09:22:45Z</time>
      </trkpt>
      <trkpt lat="39.886447" lon="-0.522713">
        <ele>483.03</ele>
        <time>2020-01-17T09:22:46Z</time>
      </trkpt>
      <trkpt lat="39.886451" lon="-0.522751">
        <ele>483.087</ele>
        <time>2020-01-17T09:22:47Z</time>
      </trkpt>
      <trkpt lat="39.886458" lon="-0.52279">
        <ele>484.484</ele>
        <time>2020-01-17T09:22:48Z</time>
      </trkpt>
      <trkpt lat="39.886466" lon="-0.52283">
        <ele>485.847</ele>
        <time>2020-01-17T09:22:49Z</time>
      </trkpt>
      <trkpt lat="39.886476" lon="-0.522876">
        <ele>488.685</ele>
        <time>2020-01-17T09:22:50Z</time>
      </trkpt>
      <trkpt lat="39.886483" lon="-0.522916">
        <ele>488.116</ele>
        <time>2020-01-17T09:22:51Z</time>
      </trkpt>
      <trkpt lat="39.886489" lon="-0.522951">
        <ele>487.717</ele>
        <time>2020-01-17T09:22:52Z</time>
      </trkpt>
      <trkpt lat="39.886494" lon="-0.522994">
        <ele>488.111</ele>
        <time>2020-01-17T09:22:53Z</time>
      </trkpt>
      <trkpt lat="39.886507" lon="-0.52309">
        <ele>487.66</ele>
        <time>2020-01-17T09:22:55Z</time>
      </trkpt>
      <trkpt lat="39.886524" lon="-0.523174">
        <ele>488.142</ele>
        <time>2020-01-17T09:22:57Z</time>
      </trkpt>
      <trkpt lat="39.886533" lon="-0.523212">
        <ele>487.689</ele>
        <time>2020-01-17T09:22:58Z</time>
      </trkpt>
      <trkpt lat="39.886541" lon="-0.523242">
        <ele>486.8</ele>
        <time>2020-01-17T09:22:59Z</time>
      </trkpt>
      <trkpt lat="39.886552" lon="-0.523302">
        <ele>486.591</ele>
        <time>2020-01-17T09:23:01Z</time>
      </trkpt>
      <trkpt lat="39.88658" lon="-0.523426">
        <ele>486.591</ele>
        <time>2020-01-17T09:23:05Z</time>
      </trkpt>
      <trkpt lat="39.886593" lon="-0.523498">
        <ele>487.948</ele>
        <time>2020-01-17T09:23:07Z</time>
      </trkpt>
      <trkpt lat="39.886601" lon="-0.523612">
        <ele>488.096</ele>
        <time>2020-01-17T09:23:10Z</time>
      </trkpt>
      <trkpt lat="39.886621" lon="-0.523757">
        <ele>489.475</ele>
        <time>2020-01-17T09:23:14Z</time>
      </trkpt>
      <trkpt lat="39.886626" lon="-0.523796">
        <ele>487.767</ele>
        <time>2020-01-17T09:23:15Z</time>
      </trkpt>
      <trkpt lat="39.886631" lon="-0.52383">
        <ele>486.403</ele>
        <time>2020-01-17T09:23:16Z</time>
      </trkpt>
      <trkpt lat="39.886636" lon="-0.523894">
        <ele>488.633</ele>
        <time>2020-01-17T09:23:18Z</time>
      </trkpt>
      <trkpt lat="39.886629" lon="-0.523971">
        <ele>489.416</ele>
        <time>2020-01-17T09:23:21Z</time>
      </trkpt>
      <trkpt lat="39.886614" lon="-0.524084">
        <ele>484.692</ele>
        <time>2020-01-17T09:23:25Z</time>
      </trkpt>
      <trkpt lat="39.886584" lon="-0.524177">
        <ele>484.362</ele>
        <time>2020-01-17T09:23:28Z</time>
      </trkpt>
      <trkpt lat="39.886573" lon="-0.524242">
        <ele>480.687</ele>
        <time>2020-01-17T09:23:30Z</time>
      </trkpt>
      <trkpt lat="39.886569" lon="-0.524275">
        <ele>478.783</ele>
        <time>2020-01-17T09:23:31Z</time>
      </trkpt>
      <trkpt lat="39.886552" lon="-0.524348">
        <ele>479.777</ele>
        <time>2020-01-17T09:23:33Z</time>
      </trkpt>
      <trkpt lat="39.886541" lon="-0.524384">
        <ele>482.633</ele>
        <time>2020-01-17T09:23:34Z</time>
      </trkpt>
      <trkpt lat="39.886532" lon="-0.524422">
        <ele>481.439</ele>
        <time>2020-01-17T09:23:35Z</time>
      </trkpt>
      <trkpt lat="39.886522" lon="-0.524459">
        <ele>481.119</ele>
        <time>2020-01-17T09:23:36Z</time>
      </trkpt>
      <trkpt lat="39.886501" lon="-0.524555">
        <ele>480.974</ele>
        <time>2020-01-17T09:23:39Z</time>
      </trkpt>
      <trkpt lat="39.886501" lon="-0.524555">
        <ele>481.819</ele>
        <time>2020-01-17T09:23:45Z</time>
      </trkpt>
      <trkpt lat="39.886501" lon="-0.524555">
        <ele>483.307</ele>
        <time>2020-01-17T09:23:45Z</time>
      </trkpt>
      <trkpt lat="39.886501" lon="-0.524555">
        <ele>483.439</ele>
        <time>2020-01-17T09:24:53Z</time>
      </trkpt>
      <trkpt lat="39.886199" lon="-0.52628">
        <ele>485.324</ele>
        <time>2020-01-17T09:25:08Z</time>
      </trkpt>
      <trkpt lat="39.886116" lon="-0.526286">
        <ele>484.884</ele>
        <time>2020-01-17T09:25:09Z</time>
      </trkpt>
      <trkpt lat="39.886044" lon="-0.526269">
        <ele>484.115</ele>
        <time>2020-01-17T09:25:10Z</time>
      </trkpt>
      <trkpt lat="39.886015" lon="-0.526335">
        <ele>487.127</ele>
        <time>2020-01-17T09:25:13Z</time>
      </trkpt>
      <trkpt lat="39.885996" lon="-0.526375">
        <ele>482.765</ele>
        <time>2020-01-17T09:25:15Z</time>
      </trkpt>
      <trkpt lat="39.885964" lon="-0.526421">
        <ele>482.905</ele>
        <time>2020-01-17T09:25:17Z</time>
      </trkpt>
      <trkpt lat="39.885939" lon="-0.526479">
        <ele>483.297</ele>
        <time>2020-01-17T09:25:19Z</time>
      </trkpt>
      <trkpt lat="39.885898" lon="-0.526551">
        <ele>483.149</ele>
        <time>2020-01-17T09:25:21Z</time>
      </trkpt>
      <trkpt lat="39.885877" lon="-0.526587">
        <ele>482.54</ele>
        <time>2020-01-17T09:25:22Z</time>
      </trkpt>
      <trkpt lat="39.885831" lon="-0.526669">
        <ele>484.14</ele>
        <time>2020-01-17T09:25:24Z</time>
      </trkpt>
      <trkpt lat="39.885806" lon="-0.52671">
        <ele>484.946</ele>
        <time>2020-01-17T09:25:25Z</time>
      </trkpt>
      <trkpt lat="39.885781" lon="-0.526755">
        <ele>483.968</ele>
        <time>2020-01-17T09:25:26Z</time>
      </trkpt>
      <trkpt lat="39.885744" lon="-0.52685">
        <ele>485.261</ele>
        <time>2020-01-17T09:25:28Z</time>
      </trkpt>
      <trkpt lat="39.88565" lon="-0.527047">
        <ele>483.525</ele>
        <time>2020-01-17T09:25:32Z</time>
      </trkpt>
      <trkpt lat="39.885602" lon="-0.527163">
        <ele>485.56</ele>
        <time>2020-01-17T09:25:34Z</time>
      </trkpt>
      <trkpt lat="39.885555" lon="-0.527365">
        <ele>487.324</ele>
        <time>2020-01-17T09:25:37Z</time>
      </trkpt>
      <trkpt lat="39.885524" lon="-0.527434">
        <ele>487.321</ele>
        <time>2020-01-17T09:25:38Z</time>
      </trkpt>
      <trkpt lat="39.885458" lon="-0.527562">
        <ele>485.304</ele>
        <time>2020-01-17T09:25:40Z</time>
      </trkpt>
      <trkpt lat="39.885248" lon="-0.528047">
        <ele>485.851</ele>
        <time>2020-01-17T09:25:45Z</time>
      </trkpt>
      <trkpt lat="39.885208" lon="-0.528161">
        <ele>484.787</ele>
        <time>2020-01-17T09:25:47Z</time>
      </trkpt>
      <trkpt lat="39.885191" lon="-0.528217">
        <ele>485.617</ele>
        <time>2020-01-17T09:25:48Z</time>
      </trkpt>
      <trkpt lat="39.885164" lon="-0.52827">
        <ele>485.365</ele>
        <time>2020-01-17T09:25:49Z</time>
      </trkpt>
      <trkpt lat="39.885103" lon="-0.528364">
        <ele>484.208</ele>
        <time>2020-01-17T09:25:51Z</time>
      </trkpt>
      <trkpt lat="39.885056" lon="-0.528495">
        <ele>484.36</ele>
        <time>2020-01-17T09:25:54Z</time>
      </trkpt>
      <trkpt lat="39.885039" lon="-0.528534">
        <ele>483.255</ele>
        <time>2020-01-17T09:25:55Z</time>
      </trkpt>
      <trkpt lat="39.885007" lon="-0.528605">
        <ele>481.827</ele>
        <time>2020-01-17T09:25:57Z</time>
      </trkpt>
      <trkpt lat="39.884967" lon="-0.528692">
        <ele>481.393</ele>
        <time>2020-01-17T09:25:59Z</time>
      </trkpt>
      <trkpt lat="39.884945" lon="-0.528775">
        <ele>483.048</ele>
        <time>2020-01-17T09:26:01Z</time>
      </trkpt>
      <trkpt lat="39.884933" lon="-0.528814">
        <ele>483.51</ele>
        <time>2020-01-17T09:26:02Z</time>
      </trkpt>
      <trkpt lat="39.884924" lon="-0.52885">
        <ele>483.917</ele>
        <time>2020-01-17T09:26:03Z</time>
      </trkpt>
      <trkpt lat="39.884901" lon="-0.52891">
        <ele>482.662</ele>
        <time>2020-01-17T09:26:05Z</time>
      </trkpt>
      <trkpt lat="39.884862" lon="-0.528971">
        <ele>481.932</ele>
        <time>2020-01-17T09:26:07Z</time>
      </trkpt>
      <trkpt lat="39.884832" lon="-0.529049">
        <ele>482.29</ele>
        <time>2020-01-17T09:26:09Z</time>
      </trkpt>
      <trkpt lat="39.884823" lon="-0.52913">
        <ele>481.668</ele>
        <time>2020-01-17T09:26:11Z</time>
      </trkpt>
      <trkpt lat="39.884819" lon="-0.529213">
        <ele>481.115</ele>
        <time>2020-01-17T09:26:13Z</time>
      </trkpt>
      <trkpt lat="39.884817" lon="-0.529253">
        <ele>481.863</ele>
        <time>2020-01-17T09:26:14Z</time>
      </trkpt>
      <trkpt lat="39.884784" lon="-0.529346">
        <ele>481.339</ele>
        <time>2020-01-17T09:26:17Z</time>
      </trkpt>
      <trkpt lat="39.88475" lon="-0.529402">
        <ele>482.014</ele>
        <time>2020-01-17T09:26:19Z</time>
      </trkpt>
      <trkpt lat="39.884728" lon="-0.529437">
        <ele>484.154</ele>
        <time>2020-01-17T09:26:20Z</time>
      </trkpt>
      <trkpt lat="39.884692" lon="-0.529515">
        <ele>482.979</ele>
        <time>2020-01-17T09:26:22Z</time>
      </trkpt>
      <trkpt lat="39.884678" lon="-0.52955">
        <ele>484.221</ele>
        <time>2020-01-17T09:26:23Z</time>
      </trkpt>
      <trkpt lat="39.884661" lon="-0.529586">
        <ele>482.38</ele>
        <time>2020-01-17T09:26:24Z</time>
      </trkpt>
      <trkpt lat="39.884599" lon="-0.529805">
        <ele>482.482</ele>
        <time>2020-01-17T09:26:29Z</time>
      </trkpt>
      <trkpt lat="39.884577" lon="-0.529875">
        <ele>481.497</ele>
        <time>2020-01-17T09:26:31Z</time>
      </trkpt>
      <trkpt lat="39.884553" lon="-0.529941">
        <ele>483.975</ele>
        <time>2020-01-17T09:26:34Z</time>
      </trkpt>
      <trkpt lat="39.884541" lon="-0.529973">
        <ele>485.996</ele>
        <time>2020-01-17T09:26:35Z</time>
      </trkpt>
      <trkpt lat="39.884531" lon="-0.530003">
        <ele>484.85</ele>
        <time>2020-01-17T09:26:36Z</time>
      </trkpt>
      <trkpt lat="39.884522" lon="-0.530033">
        <ele>485.681</ele>
        <time>2020-01-17T09:26:37Z</time>
      </trkpt>
      <trkpt lat="39.884506" lon="-0.530089">
        <ele>487.413</ele>
        <time>2020-01-17T09:26:39Z</time>
      </trkpt>
      <trkpt lat="39.88446" lon="-0.530178">
        <ele>487.009</ele>
        <time>2020-01-17T09:26:42Z</time>
      </trkpt>
      <trkpt lat="39.884433" lon="-0.530225">
        <ele>487.769</ele>
        <time>2020-01-17T09:26:45Z</time>
      </trkpt>
      <trkpt lat="39.884407" lon="-0.53028">
        <ele>487.806</ele>
        <time>2020-01-17T09:26:47Z</time>
      </trkpt>
      <trkpt lat="39.884391" lon="-0.530312">
        <ele>489.725</ele>
        <time>2020-01-17T09:26:48Z</time>
      </trkpt>
      <trkpt lat="39.884379" lon="-0.530344">
        <ele>491.419</ele>
        <time>2020-01-17T09:26:49Z</time>
      </trkpt>
      <trkpt lat="39.884364" lon="-0.530381">
        <ele>491.744</ele>
        <time>2020-01-17T09:26:50Z</time>
      </trkpt>
      <trkpt lat="39.88434" lon="-0.530461">
        <ele>491.185</ele>
        <time>2020-01-17T09:26:52Z</time>
      </trkpt>
      <trkpt lat="39.884313" lon="-0.530537">
        <ele>489.804</ele>
        <time>2020-01-17T09:26:54Z</time>
      </trkpt>
      <trkpt lat="39.884272" lon="-0.530703">
        <ele>490.424</ele>
        <time>2020-01-17T09:26:58Z</time>
      </trkpt>
      <trkpt lat="39.884259" lon="-0.530747">
        <ele>490.105</ele>
        <time>2020-01-17T09:26:59Z</time>
      </trkpt>
      <trkpt lat="39.884243" lon="-0.530794">
        <ele>490.882</ele>
        <time>2020-01-17T09:27:01Z</time>
      </trkpt>
      <trkpt lat="39.884164" lon="-0.530971">
        <ele>493.457</ele>
        <time>2020-01-17T09:27:04Z</time>
      </trkpt>
      <trkpt lat="39.88415" lon="-0.531009">
        <ele>494.634</ele>
        <time>2020-01-17T09:27:05Z</time>
      </trkpt>
      <trkpt lat="39.88413" lon="-0.531057">
        <ele>494.18</ele>
        <time>2020-01-17T09:27:06Z</time>
      </trkpt>
      <trkpt lat="39.884112" lon="-0.531107">
        <ele>493.764</ele>
        <time>2020-01-17T09:27:07Z</time>
      </trkpt>
      <trkpt lat="39.884067" lon="-0.531233">
        <ele>491.148</ele>
        <time>2020-01-17T09:27:10Z</time>
      </trkpt>
      <trkpt lat="39.884044" lon="-0.531285">
        <ele>490.714</ele>
        <time>2020-01-17T09:27:11Z</time>
      </trkpt>
      <trkpt lat="39.883996" lon="-0.531448">
        <ele>490.772</ele>
        <time>2020-01-17T09:27:14Z</time>
      </trkpt>
      <trkpt lat="39.883957" lon="-0.531596">
        <ele>487.858</ele>
        <time>2020-01-17T09:27:17Z</time>
      </trkpt>
      <trkpt lat="39.88392" lon="-0.531679">
        <ele>483.4</ele>
        <time>2020-01-17T09:27:20Z</time>
      </trkpt>
      <trkpt lat="39.8839" lon="-0.531762">
        <ele>481.773</ele>
        <time>2020-01-17T09:27:22Z</time>
      </trkpt>
      <trkpt lat="39.883897" lon="-0.531837">
        <ele>478.299</ele>
        <time>2020-01-17T09:27:24Z</time>
      </trkpt>
      <trkpt lat="39.883892" lon="-0.531897">
        <ele>480.473</ele>
        <time>2020-01-17T09:27:27Z</time>
      </trkpt>
      <trkpt lat="39.88389" lon="-0.53196">
        <ele>482.265</ele>
        <time>2020-01-17T09:27:30Z</time>
      </trkpt>
      <trkpt lat="39.883871" lon="-0.532058">
        <ele>483.593</ele>
        <time>2020-01-17T09:27:33Z</time>
      </trkpt>
      <trkpt lat="39.88386" lon="-0.532132">
        <ele>484.481</ele>
        <time>2020-01-17T09:27:35Z</time>
      </trkpt>
      <trkpt lat="39.883829" lon="-0.532248">
        <ele>486.648</ele>
        <time>2020-01-17T09:27:38Z</time>
      </trkpt>
      <trkpt lat="39.883805" lon="-0.532316">
        <ele>484.944</ele>
        <time>2020-01-17T09:27:40Z</time>
      </trkpt>
      <trkpt lat="39.883776" lon="-0.532434">
        <ele>482.788</ele>
        <time>2020-01-17T09:27:43Z</time>
      </trkpt>
      <trkpt lat="39.883767" lon="-0.532512">
        <ele>483.421</ele>
        <time>2020-01-17T09:27:45Z</time>
      </trkpt>
      <trkpt lat="39.883773" lon="-0.532584">
        <ele>483.146</ele>
        <time>2020-01-17T09:27:47Z</time>
      </trkpt>
      <trkpt lat="39.883767" lon="-0.532648">
        <ele>485.811</ele>
        <time>2020-01-17T09:27:49Z</time>
      </trkpt>
      <trkpt lat="39.883764" lon="-0.532678">
        <ele>485.065</ele>
        <time>2020-01-17T09:27:50Z</time>
      </trkpt>
      <trkpt lat="39.88376" lon="-0.532707">
        <ele>486.812</ele>
        <time>2020-01-17T09:27:51Z</time>
      </trkpt>
      <trkpt lat="39.883756" lon="-0.532779">
        <ele>488.191</ele>
        <time>2020-01-17T09:27:53Z</time>
      </trkpt>
      <trkpt lat="39.883752" lon="-0.532819">
        <ele>487.147</ele>
        <time>2020-01-17T09:27:54Z</time>
      </trkpt>
      <trkpt lat="39.883749" lon="-0.532966">
        <ele>484.254</ele>
        <time>2020-01-17T09:27:57Z</time>
      </trkpt>
      <trkpt lat="39.883746" lon="-0.533097">
        <ele>484.205</ele>
        <time>2020-01-17T09:28:00Z</time>
      </trkpt>
      <trkpt lat="39.883706" lon="-0.533328">
        <ele>480.059</ele>
        <time>2020-01-17T09:28:04Z</time>
      </trkpt>
      <trkpt lat="39.883698" lon="-0.533369">
        <ele>477.797</ele>
        <time>2020-01-17T09:28:05Z</time>
      </trkpt>
      <trkpt lat="39.883676" lon="-0.533432">
        <ele>477.808</ele>
        <time>2020-01-17T09:28:06Z</time>
      </trkpt>
      <trkpt lat="39.883685" lon="-0.533497">
        <ele>477.837</ele>
        <time>2020-01-17T09:28:09Z</time>
      </trkpt>
      <trkpt lat="39.883705" lon="-0.53372">
        <ele>479.668</ele>
        <time>2020-01-17T09:28:13Z</time>
      </trkpt>
      <trkpt lat="39.883709" lon="-0.533803">
        <ele>479.507</ele>
        <time>2020-01-17T09:28:15Z</time>
      </trkpt>
      <trkpt lat="39.883635" lon="-0.533904">
        <ele>479.461</ele>
        <time>2020-01-17T09:28:18Z</time>
      </trkpt>
      <trkpt lat="39.883597" lon="-0.534018">
        <ele>482.688</ele>
        <time>2020-01-17T09:28:21Z</time>
      </trkpt>
      <trkpt lat="39.883663" lon="-0.534066">
        <ele>484.433</ele>
        <time>2020-01-17T09:28:22Z</time>
      </trkpt>
      <trkpt lat="39.883656" lon="-0.534152">
        <ele>487.01</ele>
        <time>2020-01-17T09:28:24Z</time>
      </trkpt>
      <trkpt lat="39.88365" lon="-0.534236">
        <ele>487.371</ele>
        <time>2020-01-17T09:28:27Z</time>
      </trkpt>
      <trkpt lat="39.883661" lon="-0.534344">
        <ele>488.388</ele>
        <time>2020-01-17T09:28:31Z</time>
      </trkpt>
      <trkpt lat="39.883667" lon="-0.534379">
        <ele>491.936</ele>
        <time>2020-01-17T09:28:32Z</time>
      </trkpt>
      <trkpt lat="39.883652" lon="-0.534475">
        <ele>488.194</ele>
        <time>2020-01-17T09:28:35Z</time>
      </trkpt>
      <trkpt lat="39.883648" lon="-0.534574">
        <ele>488.109</ele>
        <time>2020-01-17T09:28:37Z</time>
      </trkpt>
      <trkpt lat="39.883649" lon="-0.534625">
        <ele>488.719</ele>
        <time>2020-01-17T09:28:38Z</time>
      </trkpt>
      <trkpt lat="39.88365" lon="-0.534821">
        <ele>487.367</ele>
        <time>2020-01-17T09:28:42Z</time>
      </trkpt>
      <trkpt lat="39.883622" lon="-0.535204">
        <ele>486.441</ele>
        <time>2020-01-17T09:28:45Z</time>
      </trkpt>
      <trkpt lat="39.883617" lon="-0.535239">
        <ele>485.402</ele>
        <time>2020-01-17T09:28:46Z</time>
      </trkpt>
      <trkpt lat="39.883666" lon="-0.53535">
        <ele>486.131</ele>
        <time>2020-01-17T09:28:49Z</time>
      </trkpt>
      <trkpt lat="39.883659" lon="-0.535438">
        <ele>486.593</ele>
        <time>2020-01-17T09:28:52Z</time>
      </trkpt>
      <trkpt lat="39.883658" lon="-0.535566">
        <ele>487.08</ele>
        <time>2020-01-17T09:28:56Z</time>
      </trkpt>
      <trkpt lat="39.883664" lon="-0.535675">
        <ele>485.797</ele>
        <time>2020-01-17T09:28:59Z</time>
      </trkpt>
      <trkpt lat="39.883694" lon="-0.535752">
        <ele>486.066</ele>
        <time>2020-01-17T09:29:02Z</time>
      </trkpt>
      <trkpt lat="39.883714" lon="-0.53594">
        <ele>489.184</ele>
        <time>2020-01-17T09:29:06Z</time>
      </trkpt>
      <trkpt lat="39.883713" lon="-0.536018">
        <ele>488.286</ele>
        <time>2020-01-17T09:29:08Z</time>
      </trkpt>
      <trkpt lat="39.883695" lon="-0.536163">
        <ele>486.753</ele>
        <time>2020-01-17T09:29:13Z</time>
      </trkpt>
      <trkpt lat="39.883695" lon="-0.53624">
        <ele>486.108</ele>
        <time>2020-01-17T09:29:15Z</time>
      </trkpt>
      <trkpt lat="39.883696" lon="-0.536277">
        <ele>486.831</ele>
        <time>2020-01-17T09:29:16Z</time>
      </trkpt>
      <trkpt lat="39.883707" lon="-0.536351">
        <ele>486.17</ele>
        <time>2020-01-17T09:29:18Z</time>
      </trkpt>
      <trkpt lat="39.883717" lon="-0.536426">
        <ele>486.9</ele>
        <time>2020-01-17T09:29:20Z</time>
      </trkpt>
      <trkpt lat="39.883716" lon="-0.536554">
        <ele>486.753</ele>
        <time>2020-01-17T09:29:23Z</time>
      </trkpt>
      <trkpt lat="39.883712" lon="-0.536643">
        <ele>487.553</ele>
        <time>2020-01-17T09:29:25Z</time>
      </trkpt>
      <trkpt lat="39.883712" lon="-0.536687">
        <ele>490.869</ele>
        <time>2020-01-17T09:29:26Z</time>
      </trkpt>
      <trkpt lat="39.883716" lon="-0.536832">
        <ele>491.157</ele>
        <time>2020-01-17T09:29:29Z</time>
      </trkpt>
      <trkpt lat="39.88372" lon="-0.536888">
        <ele>488.721</ele>
        <time>2020-01-17T09:29:30Z</time>
      </trkpt>
      <trkpt lat="39.883732" lon="-0.537101">
        <ele>489.761</ele>
        <time>2020-01-17T09:29:33Z</time>
      </trkpt>
      <trkpt lat="39.883732" lon="-0.537193">
        <ele>488.135</ele>
        <time>2020-01-17T09:29:35Z</time>
      </trkpt>
      <trkpt lat="39.883748" lon="-0.537266">
        <ele>487.615</ele>
        <time>2020-01-17T09:29:37Z</time>
      </trkpt>
      <trkpt lat="39.883758" lon="-0.537304">
        <ele>487.852</ele>
        <time>2020-01-17T09:29:38Z</time>
      </trkpt>
      <trkpt lat="39.883767" lon="-0.537343">
        <ele>487.365</ele>
        <time>2020-01-17T09:29:39Z</time>
      </trkpt>
      <trkpt lat="39.883772" lon="-0.537421">
        <ele>489.847</ele>
        <time>2020-01-17T09:29:41Z</time>
      </trkpt>
      <trkpt lat="39.883776" lon="-0.537458">
        <ele>489.335</ele>
        <time>2020-01-17T09:29:42Z</time>
      </trkpt>
      <trkpt lat="39.883792" lon="-0.537532">
        <ele>489.887</ele>
        <time>2020-01-17T09:29:44Z</time>
      </trkpt>
      <trkpt lat="39.883794" lon="-0.537601">
        <ele>489.291</ele>
        <time>2020-01-17T09:29:46Z</time>
      </trkpt>
      <trkpt lat="39.883797" lon="-0.537635">
        <ele>489.869</ele>
        <time>2020-01-17T09:29:47Z</time>
      </trkpt>
      <trkpt lat="39.883792" lon="-0.537703">
        <ele>489.509</ele>
        <time>2020-01-17T09:29:49Z</time>
      </trkpt>
      <trkpt lat="39.88379" lon="-0.537735">
        <ele>489.075</ele>
        <time>2020-01-17T09:29:50Z</time>
      </trkpt>
      <trkpt lat="39.883794" lon="-0.537811">
        <ele>488.787</ele>
        <time>2020-01-17T09:29:52Z</time>
      </trkpt>
      <trkpt lat="39.883808" lon="-0.537896">
        <ele>487.641</ele>
        <time>2020-01-17T09:29:54Z</time>
      </trkpt>
      <trkpt lat="39.883812" lon="-0.537937">
        <ele>485.736</ele>
        <time>2020-01-17T09:29:55Z</time>
      </trkpt>
      <trkpt lat="39.883812" lon="-0.538006">
        <ele>484.717</ele>
        <time>2020-01-17T09:29:57Z</time>
      </trkpt>
      <trkpt lat="39.883805" lon="-0.538074">
        <ele>484.202</ele>
        <time>2020-01-17T09:30:00Z</time>
      </trkpt>
      <trkpt lat="39.883807" lon="-0.538152">
        <ele>483.779</ele>
        <time>2020-01-17T09:30:03Z</time>
      </trkpt>
      <trkpt lat="39.883818" lon="-0.538292">
        <ele>484.466</ele>
        <time>2020-01-17T09:30:07Z</time>
      </trkpt>
      <trkpt lat="39.88383" lon="-0.538371">
        <ele>485.965</ele>
        <time>2020-01-17T09:30:09Z</time>
      </trkpt>
      <trkpt lat="39.883867" lon="-0.53855">
        <ele>484.2</ele>
        <time>2020-01-17T09:30:10Z</time>
      </trkpt>
      <trkpt lat="39.883873" lon="-0.538587">
        <ele>480.02</ele>
        <time>2020-01-17T09:30:11Z</time>
      </trkpt>
      <trkpt lat="39.883881" lon="-0.538632">
        <ele>478.65</ele>
        <time>2020-01-17T09:30:12Z</time>
      </trkpt>
      <trkpt lat="39.883886" lon="-0.538722">
        <ele>476.076</ele>
        <time>2020-01-17T09:30:14Z</time>
      </trkpt>
      <trkpt lat="39.88389" lon="-0.53884">
        <ele>478.94</ele>
        <time>2020-01-17T09:30:17Z</time>
      </trkpt>
      <trkpt lat="39.883908" lon="-0.538916">
        <ele>476.414</ele>
        <time>2020-01-17T09:30:19Z</time>
      </trkpt>
      <trkpt lat="39.883911" lon="-0.538997">
        <ele>475.26</ele>
        <time>2020-01-17T09:30:21Z</time>
      </trkpt>
      <trkpt lat="39.883918" lon="-0.539082">
        <ele>474.759</ele>
        <time>2020-01-17T09:30:24Z</time>
      </trkpt>
      <trkpt lat="39.883919" lon="-0.539112">
        <ele>477.749</ele>
        <time>2020-01-17T09:30:26Z</time>
      </trkpt>
      <trkpt lat="39.883918" lon="-0.539141">
        <ele>479.971</ele>
        <time>2020-01-17T09:30:28Z</time>
      </trkpt>
      <trkpt lat="39.883921" lon="-0.539218">
        <ele>484.413</ele>
        <time>2020-01-17T09:30:31Z</time>
      </trkpt>
      <trkpt lat="39.88392" lon="-0.539248">
        <ele>484.87</ele>
        <time>2020-01-17T09:30:32Z</time>
      </trkpt>
      <trkpt lat="39.883916" lon="-0.539306">
        <ele>488.61</ele>
        <time>2020-01-17T09:30:34Z</time>
      </trkpt>
      <trkpt lat="39.883918" lon="-0.539371">
        <ele>490.047</ele>
        <time>2020-01-17T09:30:36Z</time>
      </trkpt>
      <trkpt lat="39.883921" lon="-0.539406">
        <ele>489.165</ele>
        <time>2020-01-17T09:30:37Z</time>
      </trkpt>
      <trkpt lat="39.883924" lon="-0.539438">
        <ele>485.207</ele>
        <time>2020-01-17T09:30:38Z</time>
      </trkpt>
      <trkpt lat="39.88393" lon="-0.539472">
        <ele>484.945</ele>
        <time>2020-01-17T09:30:39Z</time>
      </trkpt>
      <trkpt lat="39.883937" lon="-0.539508">
        <ele>484.416</ele>
        <time>2020-01-17T09:30:40Z</time>
      </trkpt>
      <trkpt lat="39.883944" lon="-0.539546">
        <ele>485.099</ele>
        <time>2020-01-17T09:30:41Z</time>
      </trkpt>
      <trkpt lat="39.883965" lon="-0.539653">
        <ele>483.267</ele>
        <time>2020-01-17T09:30:43Z</time>
      </trkpt>
      <trkpt lat="39.883983" lon="-0.539746">
        <ele>482.795</ele>
        <time>2020-01-17T09:30:45Z</time>
      </trkpt>
      <trkpt lat="39.883992" lon="-0.539787">
        <ele>487.437</ele>
        <time>2020-01-17T09:30:46Z</time>
      </trkpt>
      <trkpt lat="39.884001" lon="-0.539826">
        <ele>486.182</ele>
        <time>2020-01-17T09:30:47Z</time>
      </trkpt>
      <trkpt lat="39.884079" lon="-0.540084">
        <ele>486.915</ele>
        <time>2020-01-17T09:30:50Z</time>
      </trkpt>
      <trkpt lat="39.884089" lon="-0.540116">
        <ele>487.071</ele>
        <time>2020-01-17T09:30:51Z</time>
      </trkpt>
      <trkpt lat="39.884103" lon="-0.540199">
        <ele>487.854</ele>
        <time>2020-01-17T09:30:53Z</time>
      </trkpt>
      <trkpt lat="39.884135" lon="-0.540266">
        <ele>489.512</ele>
        <time>2020-01-17T09:30:55Z</time>
      </trkpt>
      <trkpt lat="39.884192" lon="-0.540494">
        <ele>489.845</ele>
        <time>2020-01-17T09:31:00Z</time>
      </trkpt>
      <trkpt lat="39.884201" lon="-0.540533">
        <ele>490.317</ele>
        <time>2020-01-17T09:31:01Z</time>
      </trkpt>
      <trkpt lat="39.884225" lon="-0.540597">
        <ele>489.39</ele>
        <time>2020-01-17T09:31:03Z</time>
      </trkpt>
      <trkpt lat="39.88424" lon="-0.540635">
        <ele>489.56</ele>
        <time>2020-01-17T09:31:04Z</time>
      </trkpt>
      <trkpt lat="39.884259" lon="-0.540678">
        <ele>489.341</ele>
        <time>2020-01-17T09:31:05Z</time>
      </trkpt>
      <trkpt lat="39.884276" lon="-0.540715">
        <ele>489.505</ele>
        <time>2020-01-17T09:31:06Z</time>
      </trkpt>
      <trkpt lat="39.884314" lon="-0.540778">
        <ele>489.512</ele>
        <time>2020-01-17T09:31:09Z</time>
      </trkpt>
      <trkpt lat="39.884341" lon="-0.540846">
        <ele>488.99</ele>
        <time>2020-01-17T09:31:12Z</time>
      </trkpt>
      <trkpt lat="39.884376" lon="-0.540913">
        <ele>489.235</ele>
        <time>2020-01-17T09:31:15Z</time>
      </trkpt>
      <trkpt lat="39.884401" lon="-0.54096">
        <ele>490.232</ele>
        <time>2020-01-17T09:31:17Z</time>
      </trkpt>
      <trkpt lat="39.884414" lon="-0.540984">
        <ele>492.101</ele>
        <time>2020-01-17T09:31:18Z</time>
      </trkpt>
      <trkpt lat="39.884428" lon="-0.541016">
        <ele>495.025</ele>
        <time>2020-01-17T09:31:19Z</time>
      </trkpt>
      <trkpt lat="39.88444" lon="-0.541045">
        <ele>493.552</ele>
        <time>2020-01-17T09:31:20Z</time>
      </trkpt>
      <trkpt lat="39.884574" lon="-0.541264">
        <ele>492.339</ele>
        <time>2020-01-17T09:31:22Z</time>
      </trkpt>
      <trkpt lat="39.884597" lon="-0.541306">
        <ele>492.306</ele>
        <time>2020-01-17T09:31:23Z</time>
      </trkpt>
      <trkpt lat="39.88463" lon="-0.541362">
        <ele>493.546</ele>
        <time>2020-01-17T09:31:25Z</time>
      </trkpt>
      <trkpt lat="39.884662" lon="-0.541404">
        <ele>493.657</ele>
        <time>2020-01-17T09:31:26Z</time>
      </trkpt>
      <trkpt lat="39.884713" lon="-0.541467">
        <ele>494.077</ele>
        <time>2020-01-17T09:31:28Z</time>
      </trkpt>
      <trkpt lat="39.884777" lon="-0.541563">
        <ele>496.636</ele>
        <time>2020-01-17T09:31:31Z</time>
      </trkpt>
      <trkpt lat="39.884804" lon="-0.541599">
        <ele>496.498</ele>
        <time>2020-01-17T09:31:32Z</time>
      </trkpt>
      <trkpt lat="39.88483" lon="-0.541629">
        <ele>496.918</ele>
        <time>2020-01-17T09:31:33Z</time>
      </trkpt>
      <trkpt lat="39.884854" lon="-0.541654">
        <ele>496.251</ele>
        <time>2020-01-17T09:31:34Z</time>
      </trkpt>
      <trkpt lat="39.884876" lon="-0.541678">
        <ele>496.518</ele>
        <time>2020-01-17T09:31:35Z</time>
      </trkpt>
      <trkpt lat="39.88494" lon="-0.541754">
        <ele>496.69</ele>
        <time>2020-01-17T09:31:38Z</time>
      </trkpt>
      <trkpt lat="39.884968" lon="-0.541784">
        <ele>498.997</ele>
        <time>2020-01-17T09:31:39Z</time>
      </trkpt>
      <trkpt lat="39.884994" lon="-0.54181">
        <ele>498.04</ele>
        <time>2020-01-17T09:31:40Z</time>
      </trkpt>
      <trkpt lat="39.885017" lon="-0.541835">
        <ele>498.402</ele>
        <time>2020-01-17T09:31:41Z</time>
      </trkpt>
      <trkpt lat="39.885039" lon="-0.541862">
        <ele>499.212</ele>
        <time>2020-01-17T09:31:42Z</time>
      </trkpt>
      <trkpt lat="39.885073" lon="-0.541917">
        <ele>497.693</ele>
        <time>2020-01-17T09:31:47Z</time>
      </trkpt>
      <trkpt lat="39.885129" lon="-0.541973">
        <ele>495.539</ele>
        <time>2020-01-17T09:31:52Z</time>
      </trkpt>
      <trkpt lat="39.885175" lon="-0.542009">
        <ele>494.968</ele>
        <time>2020-01-17T09:31:55Z</time>
      </trkpt>
      <trkpt lat="39.885223" lon="-0.542063">
        <ele>494.439</ele>
        <time>2020-01-17T09:31:57Z</time>
      </trkpt>
      <trkpt lat="39.885251" lon="-0.542097">
        <ele>492.811</ele>
        <time>2020-01-17T09:31:58Z</time>
      </trkpt>
      <trkpt lat="39.88531" lon="-0.542162">
        <ele>490.906</ele>
        <time>2020-01-17T09:32:00Z</time>
      </trkpt>
      <trkpt lat="39.885365" lon="-0.542219">
        <ele>485.472</ele>
        <time>2020-01-17T09:32:02Z</time>
      </trkpt>
      <trkpt lat="39.885391" lon="-0.542246">
        <ele>487.136</ele>
        <time>2020-01-17T09:32:03Z</time>
      </trkpt>
      <trkpt lat="39.885443" lon="-0.542297">
        <ele>487.77</ele>
        <time>2020-01-17T09:32:05Z</time>
      </trkpt>
      <trkpt lat="39.885526" lon="-0.542374">
        <ele>488.791</ele>
        <time>2020-01-17T09:32:08Z</time>
      </trkpt>
      <trkpt lat="39.88556" lon="-0.542402">
        <ele>489.466</ele>
        <time>2020-01-17T09:32:09Z</time>
      </trkpt>
      <trkpt lat="39.885594" lon="-0.542429">
        <ele>489.197</ele>
        <time>2020-01-17T09:32:10Z</time>
      </trkpt>
      <trkpt lat="39.885632" lon="-0.542464">
        <ele>489.187</ele>
        <time>2020-01-17T09:32:11Z</time>
      </trkpt>
      <trkpt lat="39.885695" lon="-0.542518">
        <ele>489.81</ele>
        <time>2020-01-17T09:32:13Z</time>
      </trkpt>
      <trkpt lat="39.885744" lon="-0.542557">
        <ele>492.275</ele>
        <time>2020-01-17T09:32:14Z</time>
      </trkpt>
      <trkpt lat="39.885828" lon="-0.542637">
        <ele>491.438</ele>
        <time>2020-01-17T09:32:17Z</time>
      </trkpt>
      <trkpt lat="39.885911" lon="-0.542709">
        <ele>490.789</ele>
        <time>2020-01-17T09:32:18Z</time>
      </trkpt>
      <trkpt lat="39.885968" lon="-0.542774">
        <ele>492.11</ele>
        <time>2020-01-17T09:32:20Z</time>
      </trkpt>
      <trkpt lat="39.886045" lon="-0.542814">
        <ele>492.403</ele>
        <time>2020-01-17T09:32:23Z</time>
      </trkpt>
      <trkpt lat="39.886089" lon="-0.542863">
        <ele>490.885</ele>
        <time>2020-01-17T09:32:24Z</time>
      </trkpt>
      <trkpt lat="39.886128" lon="-0.542896">
        <ele>489.142</ele>
        <time>2020-01-17T09:32:26Z</time>
      </trkpt>
      <trkpt lat="39.886149" lon="-0.542918">
        <ele>488.453</ele>
        <time>2020-01-17T09:32:27Z</time>
      </trkpt>
      <trkpt lat="39.886225" lon="-0.54295">
        <ele>485.921</ele>
        <time>2020-01-17T09:32:30Z</time>
      </trkpt>
      <trkpt lat="39.886267" lon="-0.542977">
        <ele>485.938</ele>
        <time>2020-01-17T09:32:32Z</time>
      </trkpt>
      <trkpt lat="39.886315" lon="-0.543016">
        <ele>487.443</ele>
        <time>2020-01-17T09:32:35Z</time>
      </trkpt>
      <trkpt lat="39.886378" lon="-0.543057">
        <ele>486.932</ele>
        <time>2020-01-17T09:32:38Z</time>
      </trkpt>
      <trkpt lat="39.886446" lon="-0.543102">
        <ele>488.272</ele>
        <time>2020-01-17T09:32:41Z</time>
      </trkpt>
      <trkpt lat="39.886497" lon="-0.543129">
        <ele>487.047</ele>
        <time>2020-01-17T09:32:43Z</time>
      </trkpt>
      <trkpt lat="39.886527" lon="-0.543144">
        <ele>484.792</ele>
        <time>2020-01-17T09:32:44Z</time>
      </trkpt>
      <trkpt lat="39.886556" lon="-0.543158">
        <ele>482.023</ele>
        <time>2020-01-17T09:32:45Z</time>
      </trkpt>
      <trkpt lat="39.886584" lon="-0.543174">
        <ele>482.771</ele>
        <time>2020-01-17T09:32:46Z</time>
      </trkpt>
      <trkpt lat="39.886648" lon="-0.543212">
        <ele>482.786</ele>
        <time>2020-01-17T09:32:48Z</time>
      </trkpt>
      <trkpt lat="39.886685" lon="-0.543235">
        <ele>481.025</ele>
        <time>2020-01-17T09:32:49Z</time>
      </trkpt>
      <trkpt lat="39.886919" lon="-0.543401">
        <ele>480.315</ele>
        <time>2020-01-17T09:32:51Z</time>
      </trkpt>
      <trkpt lat="39.886951" lon="-0.543429">
        <ele>479.743</ele>
        <time>2020-01-17T09:32:52Z</time>
      </trkpt>
      <trkpt lat="39.887041" lon="-0.54348">
        <ele>476.937</ele>
        <time>2020-01-17T09:32:55Z</time>
      </trkpt>
      <trkpt lat="39.887065" lon="-0.543497">
        <ele>475.549</ele>
        <time>2020-01-17T09:32:56Z</time>
      </trkpt>
      <trkpt lat="39.887088" lon="-0.54351">
        <ele>476.114</ele>
        <time>2020-01-17T09:32:58Z</time>
      </trkpt>
      <trkpt lat="39.887127" lon="-0.543542">
        <ele>479.69</ele>
        <time>2020-01-17T09:33:00Z</time>
      </trkpt>
      <trkpt lat="39.88717" lon="-0.543567">
        <ele>483.567</ele>
        <time>2020-01-17T09:33:02Z</time>
      </trkpt>
      <trkpt lat="39.887194" lon="-0.543582">
        <ele>485.861</ele>
        <time>2020-01-17T09:33:03Z</time>
      </trkpt>
      <trkpt lat="39.887302" lon="-0.543641">
        <ele>487.522</ele>
        <time>2020-01-17T09:33:06Z</time>
      </trkpt>
      <trkpt lat="39.887392" lon="-0.54368">
        <ele>487.794</ele>
        <time>2020-01-17T09:33:07Z</time>
      </trkpt>
      <trkpt lat="39.887529" lon="-0.543737">
        <ele>487.894</ele>
        <time>2020-01-17T09:33:09Z</time>
      </trkpt>
      <trkpt lat="39.887592" lon="-0.543763">
        <ele>489.561</ele>
        <time>2020-01-17T09:33:11Z</time>
      </trkpt>
      <trkpt lat="39.887681" lon="-0.543783">
        <ele>488.891</ele>
        <time>2020-01-17T09:33:14Z</time>
      </trkpt>
      <trkpt lat="39.887755" lon="-0.54381">
        <ele>489.188</ele>
        <time>2020-01-17T09:33:16Z</time>
      </trkpt>
      <trkpt lat="39.88783" lon="-0.543824">
        <ele>489.707</ele>
        <time>2020-01-17T09:33:18Z</time>
      </trkpt>
      <trkpt lat="39.887906" lon="-0.543881">
        <ele>490.01</ele>
        <time>2020-01-17T09:33:21Z</time>
      </trkpt>
      <trkpt lat="39.887934" lon="-0.544034">
        <ele>489.566</ele>
        <time>2020-01-17T09:33:25Z</time>
      </trkpt>
      <trkpt lat="39.887919" lon="-0.544124">
        <ele>490.803</ele>
        <time>2020-01-17T09:33:29Z</time>
      </trkpt>
      <trkpt lat="39.887895" lon="-0.544195">
        <ele>492.366</ele>
        <time>2020-01-17T09:33:33Z</time>
      </trkpt>
      <trkpt lat="39.887849" lon="-0.544284">
        <ele>492.188</ele>
        <time>2020-01-17T09:33:37Z</time>
      </trkpt>
      <trkpt lat="39.887821" lon="-0.544378">
        <ele>493.097</ele>
        <time>2020-01-17T09:33:41Z</time>
      </trkpt>
      <trkpt lat="39.887805" lon="-0.54445">
        <ele>494.436</ele>
        <time>2020-01-17T09:33:44Z</time>
      </trkpt>
      <trkpt lat="39.887794" lon="-0.544507">
        <ele>494.887</ele>
        <time>2020-01-17T09:33:46Z</time>
      </trkpt>
      <trkpt lat="39.887791" lon="-0.544574">
        <ele>495.103</ele>
        <time>2020-01-17T09:33:48Z</time>
      </trkpt>
      <trkpt lat="39.88779" lon="-0.54461">
        <ele>496.318</ele>
        <time>2020-01-17T09:33:49Z</time>
      </trkpt>
      <trkpt lat="39.88779" lon="-0.54465">
        <ele>495.882</ele>
        <time>2020-01-17T09:33:50Z</time>
      </trkpt>
      <trkpt lat="39.887789" lon="-0.544689">
        <ele>494.453</ele>
        <time>2020-01-17T09:33:51Z</time>
      </trkpt>
      <trkpt lat="39.887787" lon="-0.544726">
        <ele>493.437</ele>
        <time>2020-01-17T09:33:52Z</time>
      </trkpt>
      <trkpt lat="39.887787" lon="-0.544758">
        <ele>493.379</ele>
        <time>2020-01-17T09:33:53Z</time>
      </trkpt>
      <trkpt lat="39.887794" lon="-0.544844">
        <ele>492.658</ele>
        <time>2020-01-17T09:33:56Z</time>
      </trkpt>
      <trkpt lat="39.88781" lon="-0.544935">
        <ele>493.679</ele>
        <time>2020-01-17T09:33:59Z</time>
      </trkpt>
      <trkpt lat="39.887819" lon="-0.545006">
        <ele>491.072</ele>
        <time>2020-01-17T09:34:01Z</time>
      </trkpt>
      <trkpt lat="39.887825" lon="-0.545043">
        <ele>491.127</ele>
        <time>2020-01-17T09:34:02Z</time>
      </trkpt>
      <trkpt lat="39.887833" lon="-0.54508">
        <ele>491.223</ele>
        <time>2020-01-17T09:34:04Z</time>
      </trkpt>
      <trkpt lat="39.887847" lon="-0.545158">
        <ele>490.487</ele>
        <time>2020-01-17T09:34:05Z</time>
      </trkpt>
      <trkpt lat="39.887868" lon="-0.545315">
        <ele>491.416</ele>
        <time>2020-01-17T09:34:09Z</time>
      </trkpt>
      <trkpt lat="39.887881" lon="-0.545423">
        <ele>492.19</ele>
        <time>2020-01-17T09:34:11Z</time>
      </trkpt>
      <trkpt lat="39.887931" lon="-0.5456">
        <ele>493.117</ele>
        <time>2020-01-17T09:34:15Z</time>
      </trkpt>
      <trkpt lat="39.887947" lon="-0.545645">
        <ele>494.242</ele>
        <time>2020-01-17T09:34:16Z</time>
      </trkpt>
      <trkpt lat="39.887962" lon="-0.545688">
        <ele>491.492</ele>
        <time>2020-01-17T09:34:17Z</time>
      </trkpt>
      <trkpt lat="39.88799" lon="-0.545766">
        <ele>491.663</ele>
        <time>2020-01-17T09:34:19Z</time>
      </trkpt>
      <trkpt lat="39.888002" lon="-0.545797">
        <ele>493.315</ele>
        <time>2020-01-17T09:34:20Z</time>
      </trkpt>
      <trkpt lat="39.888013" lon="-0.545826">
        <ele>495.028</ele>
        <time>2020-01-17T09:34:21Z</time>
      </trkpt>
      <trkpt lat="39.888024" lon="-0.545856">
        <ele>495.394</ele>
        <time>2020-01-17T09:34:22Z</time>
      </trkpt>
      <trkpt lat="39.888042" lon="-0.545908">
        <ele>496.381</ele>
        <time>2020-01-17T09:34:24Z</time>
      </trkpt>
      <trkpt lat="39.888079" lon="-0.545965">
        <ele>496.608</ele>
        <time>2020-01-17T09:34:26Z</time>
      </trkpt>
      <trkpt lat="39.8881" lon="-0.546004">
        <ele>497.221</ele>
        <time>2020-01-17T09:34:27Z</time>
      </trkpt>
      <trkpt lat="39.888123" lon="-0.546039">
        <ele>498.376</ele>
        <time>2020-01-17T09:34:28Z</time>
      </trkpt>
      <trkpt lat="39.888164" lon="-0.546098">
        <ele>498.924</ele>
        <time>2020-01-17T09:34:30Z</time>
      </trkpt>
      <trkpt lat="39.888292" lon="-0.546242">
        <ele>498.273</ele>
        <time>2020-01-17T09:34:34Z</time>
      </trkpt>
      <trkpt lat="39.88836" lon="-0.546283">
        <ele>497.688</ele>
        <time>2020-01-17T09:34:36Z</time>
      </trkpt>
      <trkpt lat="39.888411" lon="-0.546342">
        <ele>498.008</ele>
        <time>2020-01-17T09:34:38Z</time>
      </trkpt>
      <trkpt lat="39.888456" lon="-0.546466">
        <ele>495.749</ele>
        <time>2020-01-17T09:34:41Z</time>
      </trkpt>
      <trkpt lat="39.888477" lon="-0.54655">
        <ele>494.643</ele>
        <time>2020-01-17T09:34:43Z</time>
      </trkpt>
      <trkpt lat="39.888487" lon="-0.546585">
        <ele>494.249</ele>
        <time>2020-01-17T09:34:44Z</time>
      </trkpt>
      <trkpt lat="39.888497" lon="-0.546621">
        <ele>493.433</ele>
        <time>2020-01-17T09:34:45Z</time>
      </trkpt>
      <trkpt lat="39.888529" lon="-0.546684">
        <ele>490.691</ele>
        <time>2020-01-17T09:34:47Z</time>
      </trkpt>
      <trkpt lat="39.888573" lon="-0.546732">
        <ele>491.218</ele>
        <time>2020-01-17T09:34:49Z</time>
      </trkpt>
      <trkpt lat="39.888616" lon="-0.546831">
        <ele>491.458</ele>
        <time>2020-01-17T09:34:52Z</time>
      </trkpt>
      <trkpt lat="39.888685" lon="-0.546943">
        <ele>490.332</ele>
        <time>2020-01-17T09:34:55Z</time>
      </trkpt>
      <trkpt lat="39.888713" lon="-0.547009">
        <ele>493.646</ele>
        <time>2020-01-17T09:34:57Z</time>
      </trkpt>
      <trkpt lat="39.888781" lon="-0.547078">
        <ele>490.416</ele>
        <time>2020-01-17T09:34:59Z</time>
      </trkpt>
      <trkpt lat="39.888857" lon="-0.547137">
        <ele>491.466</ele>
        <time>2020-01-17T09:35:01Z</time>
      </trkpt>
      <trkpt lat="39.888929" lon="-0.547194">
        <ele>491.54</ele>
        <time>2020-01-17T09:35:03Z</time>
      </trkpt>
      <trkpt lat="39.888975" lon="-0.547234">
        <ele>491.025</ele>
        <time>2020-01-17T09:35:06Z</time>
      </trkpt>
      <trkpt lat="39.889019" lon="-0.547284">
        <ele>490.787</ele>
        <time>2020-01-17T09:35:10Z</time>
      </trkpt>
      <trkpt lat="39.889076" lon="-0.547308">
        <ele>491.746</ele>
        <time>2020-01-17T09:35:12Z</time>
      </trkpt>
      <trkpt lat="39.889132" lon="-0.547345">
        <ele>490.24</ele>
        <time>2020-01-17T09:35:14Z</time>
      </trkpt>
      <trkpt lat="39.889171" lon="-0.547375">
        <ele>489.957</ele>
        <time>2020-01-17T09:35:16Z</time>
      </trkpt>
      <trkpt lat="39.889256" lon="-0.547421">
        <ele>489.976</ele>
        <time>2020-01-17T09:35:21Z</time>
      </trkpt>
      <trkpt lat="39.889285" lon="-0.547436">
        <ele>489.98</ele>
        <time>2020-01-17T09:35:23Z</time>
      </trkpt>
      <trkpt lat="39.889311" lon="-0.547453">
        <ele>489.961</ele>
        <time>2020-01-17T09:35:24Z</time>
      </trkpt>
      <trkpt lat="39.889373" lon="-0.547483">
        <ele>490.465</ele>
        <time>2020-01-17T09:35:26Z</time>
      </trkpt>
      <trkpt lat="39.889397" lon="-0.547496">
        <ele>490.442</ele>
        <time>2020-01-17T09:35:27Z</time>
      </trkpt>
      <trkpt lat="39.88942" lon="-0.547506">
        <ele>489.107</ele>
        <time>2020-01-17T09:35:28Z</time>
      </trkpt>
      <trkpt lat="39.88945" lon="-0.547517">
        <ele>489.209</ele>
        <time>2020-01-17T09:35:29Z</time>
      </trkpt>
      <trkpt lat="39.889505" lon="-0.547536">
        <ele>489.194</ele>
        <time>2020-01-17T09:35:31Z</time>
      </trkpt>
      <trkpt lat="39.889595" lon="-0.547576">
        <ele>489.332</ele>
        <time>2020-01-17T09:35:34Z</time>
      </trkpt>
      <trkpt lat="39.889673" lon="-0.547612">
        <ele>489.303</ele>
        <time>2020-01-17T09:35:36Z</time>
      </trkpt>
      <trkpt lat="39.889811" lon="-0.547682">
        <ele>491.666</ele>
        <time>2020-01-17T09:35:38Z</time>
      </trkpt>
      <trkpt lat="39.889865" lon="-0.547693">
        <ele>492.337</ele>
        <time>2020-01-17T09:35:40Z</time>
      </trkpt>
      <trkpt lat="39.889916" lon="-0.547695">
        <ele>493.413</ele>
        <time>2020-01-17T09:35:42Z</time>
      </trkpt>
      <trkpt lat="39.89002" lon="-0.54773">
        <ele>493.215</ele>
        <time>2020-01-17T09:35:45Z</time>
      </trkpt>
      <trkpt lat="39.890054" lon="-0.547741">
        <ele>493.645</ele>
        <time>2020-01-17T09:35:46Z</time>
      </trkpt>
      <trkpt lat="39.890093" lon="-0.547758">
        <ele>492.113</ele>
        <time>2020-01-17T09:35:47Z</time>
      </trkpt>
      <trkpt lat="39.890131" lon="-0.547771">
        <ele>492.486</ele>
        <time>2020-01-17T09:35:48Z</time>
      </trkpt>
      <trkpt lat="39.890159" lon="-0.547782">
        <ele>492.534</ele>
        <time>2020-01-17T09:35:49Z</time>
      </trkpt>
      <trkpt lat="39.890224" lon="-0.547802">
        <ele>494.012</ele>
        <time>2020-01-17T09:35:51Z</time>
      </trkpt>
      <trkpt lat="39.890248" lon="-0.547812">
        <ele>493.855</ele>
        <time>2020-01-17T09:35:52Z</time>
      </trkpt>
      <trkpt lat="39.890273" lon="-0.547824">
        <ele>494.182</ele>
        <time>2020-01-17T09:35:54Z</time>
      </trkpt>
      <trkpt lat="39.890341" lon="-0.547829">
        <ele>494.689</ele>
        <time>2020-01-17T09:35:58Z</time>
      </trkpt>
      <trkpt lat="39.890395" lon="-0.547825">
        <ele>494.026</ele>
        <time>2020-01-17T09:36:01Z</time>
      </trkpt>
      <trkpt lat="39.890424" lon="-0.547824">
        <ele>493.222</ele>
        <time>2020-01-17T09:36:03Z</time>
      </trkpt>
      <trkpt lat="39.89047" lon="-0.54783">
        <ele>493.673</ele>
        <time>2020-01-17T09:36:05Z</time>
      </trkpt>
      <trkpt lat="39.890538" lon="-0.547827">
        <ele>493.47</ele>
        <time>2020-01-17T09:36:07Z</time>
      </trkpt>
      <trkpt lat="39.890603" lon="-0.547842">
        <ele>493.007</ele>
        <time>2020-01-17T09:36:10Z</time>
      </trkpt>
      <trkpt lat="39.890674" lon="-0.547853">
        <ele>492.313</ele>
        <time>2020-01-17T09:36:13Z</time>
      </trkpt>
      <trkpt lat="39.890774" lon="-0.547867">
        <ele>491.331</ele>
        <time>2020-01-17T09:36:16Z</time>
      </trkpt>
      <trkpt lat="39.890881" lon="-0.547871">
        <ele>491.759</ele>
        <time>2020-01-17T09:36:19Z</time>
      </trkpt>
      <trkpt lat="39.890911" lon="-0.547871">
        <ele>492.937</ele>
        <time>2020-01-17T09:36:20Z</time>
      </trkpt>
      <trkpt lat="39.890983" lon="-0.54787">
        <ele>491.158</ele>
        <time>2020-01-17T09:36:22Z</time>
      </trkpt>
      <trkpt lat="39.891053" lon="-0.547879">
        <ele>490.775</ele>
        <time>2020-01-17T09:36:24Z</time>
      </trkpt>
      <trkpt lat="39.891093" lon="-0.547881">
        <ele>490.602</ele>
        <time>2020-01-17T09:36:25Z</time>
      </trkpt>
      <trkpt lat="39.89117" lon="-0.547888">
        <ele>493.071</ele>
        <time>2020-01-17T09:36:27Z</time>
      </trkpt>
      <trkpt lat="39.891238" lon="-0.547906">
        <ele>493.065</ele>
        <time>2020-01-17T09:36:29Z</time>
      </trkpt>
      <trkpt lat="39.891261" lon="-0.547913">
        <ele>494.184</ele>
        <time>2020-01-17T09:36:30Z</time>
      </trkpt>
      <trkpt lat="39.891311" lon="-0.547926">
        <ele>494.957</ele>
        <time>2020-01-17T09:36:32Z</time>
      </trkpt>
      <trkpt lat="39.891362" lon="-0.547927">
        <ele>495.023</ele>
        <time>2020-01-17T09:36:34Z</time>
      </trkpt>
      <trkpt lat="39.891507" lon="-0.54793">
        <ele>494.435</ele>
        <time>2020-01-17T09:36:38Z</time>
      </trkpt>
      <trkpt lat="39.891581" lon="-0.547912">
        <ele>494.061</ele>
        <time>2020-01-17T09:36:40Z</time>
      </trkpt>
      <trkpt lat="39.891615" lon="-0.547904">
        <ele>490.97</ele>
        <time>2020-01-17T09:36:41Z</time>
      </trkpt>
      <trkpt lat="39.891713" lon="-0.547906">
        <ele>488.516</ele>
        <time>2020-01-17T09:36:45Z</time>
      </trkpt>
      <trkpt lat="39.891934" lon="-0.547966">
        <ele>489.04</ele>
        <time>2020-01-17T09:36:51Z</time>
      </trkpt>
      <trkpt lat="39.891985" lon="-0.547977">
        <ele>490.607</ele>
        <time>2020-01-17T09:36:52Z</time>
      </trkpt>
      <trkpt lat="39.892034" lon="-0.547997">
        <ele>490.16</ele>
        <time>2020-01-17T09:36:53Z</time>
      </trkpt>
      <trkpt lat="39.892125" lon="-0.548006">
        <ele>489.43</ele>
        <time>2020-01-17T09:36:56Z</time>
      </trkpt>
      <trkpt lat="39.892194" lon="-0.548028">
        <ele>490.256</ele>
        <time>2020-01-17T09:36:59Z</time>
      </trkpt>
      <trkpt lat="39.892225" lon="-0.548037">
        <ele>489.732</ele>
        <time>2020-01-17T09:37:00Z</time>
      </trkpt>
      <trkpt lat="39.892257" lon="-0.548045">
        <ele>491.368</ele>
        <time>2020-01-17T09:37:01Z</time>
      </trkpt>
      <trkpt lat="39.892308" lon="-0.548068">
        <ele>491.806</ele>
        <time>2020-01-17T09:37:03Z</time>
      </trkpt>
      <trkpt lat="39.892331" lon="-0.54808">
        <ele>492.171</ele>
        <time>2020-01-17T09:37:04Z</time>
      </trkpt>
      <trkpt lat="39.892354" lon="-0.548091">
        <ele>493.364</ele>
        <time>2020-01-17T09:37:05Z</time>
      </trkpt>
      <trkpt lat="39.892497" lon="-0.548172">
        <ele>493.364</ele>
        <time>2020-01-17T09:37:09Z</time>
      </trkpt>
      <trkpt lat="39.892519" lon="-0.548186">
        <ele>494.846</ele>
        <time>2020-01-17T09:37:10Z</time>
      </trkpt>
      <trkpt lat="39.892562" lon="-0.548229">
        <ele>493.696</ele>
        <time>2020-01-17T09:37:12Z</time>
      </trkpt>
      <trkpt lat="39.892611" lon="-0.548249">
        <ele>493.398</ele>
        <time>2020-01-17T09:37:14Z</time>
      </trkpt>
      <trkpt lat="39.892663" lon="-0.548304">
        <ele>492.257</ele>
        <time>2020-01-17T09:37:16Z</time>
      </trkpt>
      <trkpt lat="39.892712" lon="-0.548338">
        <ele>492.573</ele>
        <time>2020-01-17T09:37:19Z</time>
      </trkpt>
      <trkpt lat="39.892738" lon="-0.548356">
        <ele>491.444</ele>
        <time>2020-01-17T09:37:21Z</time>
      </trkpt>
      <trkpt lat="39.892795" lon="-0.548389">
        <ele>490.726</ele>
        <time>2020-01-17T09:37:24Z</time>
      </trkpt>
      <trkpt lat="39.892848" lon="-0.548441">
        <ele>490.191</ele>
        <time>2020-01-17T09:37:27Z</time>
      </trkpt>
      <trkpt lat="39.892867" lon="-0.548457">
        <ele>485.79</ele>
        <time>2020-01-17T09:37:28Z</time>
      </trkpt>
      <trkpt lat="39.892904" lon="-0.548493">
        <ele>485.826</ele>
        <time>2020-01-17T09:37:30Z</time>
      </trkpt>
      <trkpt lat="39.892925" lon="-0.548516">
        <ele>484.988</ele>
        <time>2020-01-17T09:37:31Z</time>
      </trkpt>
      <trkpt lat="39.892949" lon="-0.548543">
        <ele>483.399</ele>
        <time>2020-01-17T09:37:32Z</time>
      </trkpt>
      <trkpt lat="39.892976" lon="-0.54857">
        <ele>482.829</ele>
        <time>2020-01-17T09:37:33Z</time>
      </trkpt>
      <trkpt lat="39.893003" lon="-0.5486">
        <ele>483.586</ele>
        <time>2020-01-17T09:37:34Z</time>
      </trkpt>
      <trkpt lat="39.893057" lon="-0.548655">
        <ele>486.653</ele>
        <time>2020-01-17T09:37:36Z</time>
      </trkpt>
      <trkpt lat="39.893082" lon="-0.54868">
        <ele>486.1</ele>
        <time>2020-01-17T09:37:37Z</time>
      </trkpt>
      <trkpt lat="39.89315" lon="-0.548743">
        <ele>486.647</ele>
        <time>2020-01-17T09:37:38Z</time>
      </trkpt>
      <trkpt lat="39.89327" lon="-0.548829">
        <ele>486.422</ele>
        <time>2020-01-17T09:37:41Z</time>
      </trkpt>
      <trkpt lat="39.89327" lon="-0.548829">
        <ele>487.023</ele>
        <time>2020-01-17T09:37:47Z</time>
      </trkpt>
      <trkpt lat="39.89327" lon="-0.548829">
        <ele>487.083</ele>
        <time>2020-01-17T09:37:47Z</time>
      </trkpt>
      <trkpt lat="39.89327" lon="-0.548829">
        <ele>486.801</ele>
        <time>2020-01-17T09:38:14Z</time>
      </trkpt>
      <trkpt lat="39.893472" lon="-0.549057">
        <ele>485.994</ele>
        <time>2020-01-17T09:38:16Z</time>
      </trkpt>
      <trkpt lat="39.893535" lon="-0.549127">
        <ele>485.029</ele>
        <time>2020-01-17T09:38:18Z</time>
      </trkpt>
      <trkpt lat="39.893557" lon="-0.549154">
        <ele>483.856</ele>
        <time>2020-01-17T09:38:19Z</time>
      </trkpt>
      <trkpt lat="39.893607" lon="-0.549211">
        <ele>484.307</ele>
        <time>2020-01-17T09:38:21Z</time>
      </trkpt>
      <trkpt lat="39.893597" lon="-0.54932">
        <ele>484.272</ele>
        <time>2020-01-17T09:38:23Z</time>
      </trkpt>
      <trkpt lat="39.893615" lon="-0.549396">
        <ele>483.868</ele>
        <time>2020-01-17T09:38:26Z</time>
      </trkpt>
      <trkpt lat="39.893654" lon="-0.549456">
        <ele>483.23</ele>
        <time>2020-01-17T09:38:30Z</time>
      </trkpt>
      <trkpt lat="39.893681" lon="-0.549508">
        <ele>483.455</ele>
        <time>2020-01-17T09:38:33Z</time>
      </trkpt>
      <trkpt lat="39.893709" lon="-0.549558">
        <ele>482.271</ele>
        <time>2020-01-17T09:38:35Z</time>
      </trkpt>
      <trkpt lat="39.893724" lon="-0.549585">
        <ele>481.48</ele>
        <time>2020-01-17T09:38:36Z</time>
      </trkpt>
      <trkpt lat="39.893744" lon="-0.549614">
        <ele>481.419</ele>
        <time>2020-01-17T09:38:37Z</time>
      </trkpt>
      <trkpt lat="39.893762" lon="-0.549644">
        <ele>475.724</ele>
        <time>2020-01-17T09:38:38Z</time>
      </trkpt>
      <trkpt lat="39.89378" lon="-0.549673">
        <ele>475.579</ele>
        <time>2020-01-17T09:38:39Z</time>
      </trkpt>
      <trkpt lat="39.893796" lon="-0.549702">
        <ele>472.391</ele>
        <time>2020-01-17T09:38:40Z</time>
      </trkpt>
      <trkpt lat="39.893827" lon="-0.549756">
        <ele>473.281</ele>
        <time>2020-01-17T09:38:42Z</time>
      </trkpt>
      <trkpt lat="39.893854" lon="-0.54981">
        <ele>477.088</ele>
        <time>2020-01-17T09:38:44Z</time>
      </trkpt>
      <trkpt lat="39.893873" lon="-0.549878">
        <ele>478.685</ele>
        <time>2020-01-17T09:38:46Z</time>
      </trkpt>
      <trkpt lat="39.893883" lon="-0.549915">
        <ele>479.26</ele>
        <time>2020-01-17T09:38:47Z</time>
      </trkpt>
      <trkpt lat="39.893918" lon="-0.549998">
        <ele>478.991</ele>
        <time>2020-01-17T09:38:49Z</time>
      </trkpt>
      <trkpt lat="39.893942" lon="-0.550048">
        <ele>478.782</ele>
        <time>2020-01-17T09:38:50Z</time>
      </trkpt>
      <trkpt lat="39.893964" lon="-0.550092">
        <ele>480.1</ele>
        <time>2020-01-17T09:38:52Z</time>
      </trkpt>
      <trkpt lat="39.894009" lon="-0.550166">
        <ele>480.875</ele>
        <time>2020-01-17T09:38:54Z</time>
      </trkpt>
      <trkpt lat="39.89404" lon="-0.550224">
        <ele>481.631</ele>
        <time>2020-01-17T09:38:56Z</time>
      </trkpt>
      <trkpt lat="39.894059" lon="-0.550257">
        <ele>482.442</ele>
        <time>2020-01-17T09:38:57Z</time>
      </trkpt>
      <trkpt lat="39.894076" lon="-0.550293">
        <ele>482.175</ele>
        <time>2020-01-17T09:38:58Z</time>
      </trkpt>
      <trkpt lat="39.894097" lon="-0.550334">
        <ele>482.251</ele>
        <time>2020-01-17T09:38:59Z</time>
      </trkpt>
      <trkpt lat="39.894121" lon="-0.550377">
        <ele>481.084</ele>
        <time>2020-01-17T09:39:00Z</time>
      </trkpt>
      <trkpt lat="39.894173" lon="-0.550458">
        <ele>482.15</ele>
        <time>2020-01-17T09:39:02Z</time>
      </trkpt>
      <trkpt lat="39.894197" lon="-0.550494">
        <ele>483.236</ele>
        <time>2020-01-17T09:39:03Z</time>
      </trkpt>
      <trkpt lat="39.894239" lon="-0.550561">
        <ele>483.164</ele>
        <time>2020-01-17T09:39:05Z</time>
      </trkpt>
      <trkpt lat="39.894285" lon="-0.550647">
        <ele>482.955</ele>
        <time>2020-01-17T09:39:08Z</time>
      </trkpt>
      <trkpt lat="39.894302" lon="-0.550678">
        <ele>482.623</ele>
        <time>2020-01-17T09:39:09Z</time>
      </trkpt>
      <trkpt lat="39.894325" lon="-0.550714">
        <ele>482.611</ele>
        <time>2020-01-17T09:39:10Z</time>
      </trkpt>
      <trkpt lat="39.89435" lon="-0.550753">
        <ele>483.939</ele>
        <time>2020-01-17T09:39:11Z</time>
      </trkpt>
      <trkpt lat="39.894397" lon="-0.550814">
        <ele>483.699</ele>
        <time>2020-01-17T09:39:13Z</time>
      </trkpt>
      <trkpt lat="39.894446" lon="-0.550881">
        <ele>484.156</ele>
        <time>2020-01-17T09:39:15Z</time>
      </trkpt>
      <trkpt lat="39.89449" lon="-0.550952">
        <ele>483.693</ele>
        <time>2020-01-17T09:39:17Z</time>
      </trkpt>
      <trkpt lat="39.894526" lon="-0.551026">
        <ele>484.232</ele>
        <time>2020-01-17T09:39:19Z</time>
      </trkpt>
      <trkpt lat="39.894542" lon="-0.55106">
        <ele>484.553</ele>
        <time>2020-01-17T09:39:20Z</time>
      </trkpt>
      <trkpt lat="39.894559" lon="-0.551091">
        <ele>484.539</ele>
        <time>2020-01-17T09:39:21Z</time>
      </trkpt>
      <trkpt lat="39.894575" lon="-0.551126">
        <ele>483.037</ele>
        <time>2020-01-17T09:39:22Z</time>
      </trkpt>
      <trkpt lat="39.89459" lon="-0.551158">
        <ele>483.311</ele>
        <time>2020-01-17T09:39:23Z</time>
      </trkpt>
      <trkpt lat="39.894604" lon="-0.55119">
        <ele>482.715</ele>
        <time>2020-01-17T09:39:24Z</time>
      </trkpt>
      <trkpt lat="39.89462" lon="-0.551221">
        <ele>482.835</ele>
        <time>2020-01-17T09:39:25Z</time>
      </trkpt>
      <trkpt lat="39.894636" lon="-0.551249">
        <ele>483.16</ele>
        <time>2020-01-17T09:39:26Z</time>
      </trkpt>
      <trkpt lat="39.894653" lon="-0.551281">
        <ele>482.074</ele>
        <time>2020-01-17T09:39:27Z</time>
      </trkpt>
      <trkpt lat="39.894668" lon="-0.551315">
        <ele>479.669</ele>
        <time>2020-01-17T09:39:28Z</time>
      </trkpt>
      <trkpt lat="39.894711" lon="-0.551404">
        <ele>479.494</ele>
        <time>2020-01-17T09:39:31Z</time>
      </trkpt>
      <trkpt lat="39.89475" lon="-0.551463">
        <ele>477.968</ele>
        <time>2020-01-17T09:39:33Z</time>
      </trkpt>
      <trkpt lat="39.894768" lon="-0.55149">
        <ele>478.255</ele>
        <time>2020-01-17T09:39:34Z</time>
      </trkpt>
      <trkpt lat="39.894786" lon="-0.55152">
        <ele>477.771</ele>
        <time>2020-01-17T09:39:35Z</time>
      </trkpt>
      <trkpt lat="39.894807" lon="-0.551554">
        <ele>477.712</ele>
        <time>2020-01-17T09:39:36Z</time>
      </trkpt>
      <trkpt lat="39.894842" lon="-0.551628">
        <ele>478.397</ele>
        <time>2020-01-17T09:39:38Z</time>
      </trkpt>
      <trkpt lat="39.89486" lon="-0.551663">
        <ele>478.456</ele>
        <time>2020-01-17T09:39:39Z</time>
      </trkpt>
      <trkpt lat="39.894945" lon="-0.551787">
        <ele>480.344</ele>
        <time>2020-01-17T09:39:43Z</time>
      </trkpt>
      <trkpt lat="39.895" lon="-0.551885">
        <ele>480.325</ele>
        <time>2020-01-17T09:39:46Z</time>
      </trkpt>
      <trkpt lat="39.895017" lon="-0.551916">
        <ele>481.16</ele>
        <time>2020-01-17T09:39:47Z</time>
      </trkpt>
      <trkpt lat="39.895064" lon="-0.551994">
        <ele>482.291</ele>
        <time>2020-01-17T09:39:49Z</time>
      </trkpt>
      <trkpt lat="39.895095" lon="-0.552044">
        <ele>482.762</ele>
        <time>2020-01-17T09:39:51Z</time>
      </trkpt>
      <trkpt lat="39.895134" lon="-0.552106">
        <ele>484.579</ele>
        <time>2020-01-17T09:39:53Z</time>
      </trkpt>
      <trkpt lat="39.895152" lon="-0.552138">
        <ele>485.427</ele>
        <time>2020-01-17T09:39:54Z</time>
      </trkpt>
      <trkpt lat="39.895174" lon="-0.552178">
        <ele>482.19</ele>
        <time>2020-01-17T09:39:55Z</time>
      </trkpt>
      <trkpt lat="39.895195" lon="-0.552215">
        <ele>481.834</ele>
        <time>2020-01-17T09:39:56Z</time>
      </trkpt>
      <trkpt lat="39.895232" lon="-0.552279">
        <ele>481.833</ele>
        <time>2020-01-17T09:39:58Z</time>
      </trkpt>
      <trkpt lat="39.895264" lon="-0.552328">
        <ele>481.989</ele>
        <time>2020-01-17T09:40:00Z</time>
      </trkpt>
      <trkpt lat="39.895284" lon="-0.552356">
        <ele>483.677</ele>
        <time>2020-01-17T09:40:02Z</time>
      </trkpt>
      <trkpt lat="39.895383" lon="-0.552552">
        <ele>483.868</ele>
        <time>2020-01-17T09:40:06Z</time>
      </trkpt>
      <trkpt lat="39.895415" lon="-0.552615">
        <ele>484.315</ele>
        <time>2020-01-17T09:40:08Z</time>
      </trkpt>
      <trkpt lat="39.895479" lon="-0.552722">
        <ele>483.251</ele>
        <time>2020-01-17T09:40:12Z</time>
      </trkpt>
      <trkpt lat="39.895507" lon="-0.552787">
        <ele>482.122</ele>
        <time>2020-01-17T09:40:15Z</time>
      </trkpt>
      <trkpt lat="39.895537" lon="-0.552835">
        <ele>485.654</ele>
        <time>2020-01-17T09:40:17Z</time>
      </trkpt>
      <trkpt lat="39.895555" lon="-0.552871">
        <ele>486.935</ele>
        <time>2020-01-17T09:40:18Z</time>
      </trkpt>
      <trkpt lat="39.895591" lon="-0.552939">
        <ele>486.765</ele>
        <time>2020-01-17T09:40:20Z</time>
      </trkpt>
      <trkpt lat="39.895609" lon="-0.55297">
        <ele>490.057</ele>
        <time>2020-01-17T09:40:21Z</time>
      </trkpt>
      <trkpt lat="39.895628" lon="-0.552999">
        <ele>491.408</ele>
        <time>2020-01-17T09:40:22Z</time>
      </trkpt>
      <trkpt lat="39.895662" lon="-0.553053">
        <ele>493.196</ele>
        <time>2020-01-17T09:40:24Z</time>
      </trkpt>
      <trkpt lat="39.895679" lon="-0.553082">
        <ele>489.475</ele>
        <time>2020-01-17T09:40:26Z</time>
      </trkpt>
      <trkpt lat="39.895746" lon="-0.553213">
        <ele>489.901</ele>
        <time>2020-01-17T09:40:28Z</time>
      </trkpt>
      <trkpt lat="39.895788" lon="-0.553268">
        <ele>490.906</ele>
        <time>2020-01-17T09:40:30Z</time>
      </trkpt>
      <trkpt lat="39.895857" lon="-0.553373">
        <ele>490.104</ele>
        <time>2020-01-17T09:40:34Z</time>
      </trkpt>
      <trkpt lat="39.895891" lon="-0.553444">
        <ele>490.179</ele>
        <time>2020-01-17T09:40:38Z</time>
      </trkpt>
      <trkpt lat="39.895923" lon="-0.553496">
        <ele>490.425</ele>
        <time>2020-01-17T09:40:40Z</time>
      </trkpt>
      <trkpt lat="39.895969" lon="-0.553657">
        <ele>490.115</ele>
        <time>2020-01-17T09:40:43Z</time>
      </trkpt>
      <trkpt lat="39.896032" lon="-0.553745">
        <ele>487.805</ele>
        <time>2020-01-17T09:40:46Z</time>
      </trkpt>
      <trkpt lat="39.896061" lon="-0.553815">
        <ele>485.034</ele>
        <time>2020-01-17T09:40:48Z</time>
      </trkpt>
      <trkpt lat="39.896129" lon="-0.553893">
        <ele>484.864</ele>
        <time>2020-01-17T09:40:51Z</time>
      </trkpt>
      <trkpt lat="39.896153" lon="-0.55395">
        <ele>485.599</ele>
        <time>2020-01-17T09:40:53Z</time>
      </trkpt>
      <trkpt lat="39.896177" lon="-0.554004">
        <ele>485.832</ele>
        <time>2020-01-17T09:40:55Z</time>
      </trkpt>
      <trkpt lat="39.896199" lon="-0.554065">
        <ele>486.711</ele>
        <time>2020-01-17T09:40:57Z</time>
      </trkpt>
      <trkpt lat="39.896217" lon="-0.554127">
        <ele>486.022</ele>
        <time>2020-01-17T09:40:59Z</time>
      </trkpt>
      <trkpt lat="39.896245" lon="-0.554184">
        <ele>487.832</ele>
        <time>2020-01-17T09:41:01Z</time>
      </trkpt>
      <trkpt lat="39.896291" lon="-0.554235">
        <ele>487.246</ele>
        <time>2020-01-17T09:41:05Z</time>
      </trkpt>
      <trkpt lat="39.896324" lon="-0.554284">
        <ele>486.714</ele>
        <time>2020-01-17T09:41:08Z</time>
      </trkpt>
      <trkpt lat="39.896351" lon="-0.554339">
        <ele>487.954</ele>
        <time>2020-01-17T09:41:11Z</time>
      </trkpt>
      <trkpt lat="39.896401" lon="-0.554418">
        <ele>489.041</ele>
        <time>2020-01-17T09:41:15Z</time>
      </trkpt>
      <trkpt lat="39.896416" lon="-0.554443">
        <ele>492.813</ele>
        <time>2020-01-17T09:41:16Z</time>
      </trkpt>
      <trkpt lat="39.896445" lon="-0.554488">
        <ele>490.758</ele>
        <time>2020-01-17T09:41:18Z</time>
      </trkpt>
      <trkpt lat="39.896463" lon="-0.554523">
        <ele>489.858</ele>
        <time>2020-01-17T09:41:19Z</time>
      </trkpt>
      <trkpt lat="39.896497" lon="-0.554592">
        <ele>490.401</ele>
        <time>2020-01-17T09:41:21Z</time>
      </trkpt>
      <trkpt lat="39.89653" lon="-0.554656">
        <ele>490.502</ele>
        <time>2020-01-17T09:41:23Z</time>
      </trkpt>
      <trkpt lat="39.89655" lon="-0.554689">
        <ele>490.122</ele>
        <time>2020-01-17T09:41:24Z</time>
      </trkpt>
      <trkpt lat="39.896569" lon="-0.55472">
        <ele>489.369</ele>
        <time>2020-01-17T09:41:25Z</time>
      </trkpt>
      <trkpt lat="39.89662" lon="-0.55484">
        <ele>489.014</ele>
        <time>2020-01-17T09:41:28Z</time>
      </trkpt>
      <trkpt lat="39.896659" lon="-0.554951">
        <ele>488.78</ele>
        <time>2020-01-17T09:41:31Z</time>
      </trkpt>
      <trkpt lat="39.896689" lon="-0.555019">
        <ele>488.508</ele>
        <time>2020-01-17T09:41:33Z</time>
      </trkpt>
      <trkpt lat="39.896758" lon="-0.555142">
        <ele>489.209</ele>
        <time>2020-01-17T09:41:36Z</time>
      </trkpt>
      <trkpt lat="39.896799" lon="-0.555209">
        <ele>489.887</ele>
        <time>2020-01-17T09:41:38Z</time>
      </trkpt>
      <trkpt lat="39.896816" lon="-0.555234">
        <ele>489.647</ele>
        <time>2020-01-17T09:41:39Z</time>
      </trkpt>
      <trkpt lat="39.89683" lon="-0.555259">
        <ele>489.915</ele>
        <time>2020-01-17T09:41:40Z</time>
      </trkpt>
      <trkpt lat="39.896845" lon="-0.555286">
        <ele>491.013</ele>
        <time>2020-01-17T09:41:41Z</time>
      </trkpt>
      <trkpt lat="39.896868" lon="-0.555339">
        <ele>491.882</ele>
        <time>2020-01-17T09:41:43Z</time>
      </trkpt>
      <trkpt lat="39.896914" lon="-0.555438">
        <ele>491.615</ele>
        <time>2020-01-17T09:41:47Z</time>
      </trkpt>
      <trkpt lat="39.896956" lon="-0.555488">
        <ele>489.875</ele>
        <time>2020-01-17T09:41:49Z</time>
      </trkpt>
      <trkpt lat="39.896989" lon="-0.55554">
        <ele>490.26</ele>
        <time>2020-01-17T09:41:51Z</time>
      </trkpt>
      <trkpt lat="39.897015" lon="-0.555591">
        <ele>489.083</ele>
        <time>2020-01-17T09:41:53Z</time>
      </trkpt>
      <trkpt lat="39.897047" lon="-0.555647">
        <ele>487.856</ele>
        <time>2020-01-17T09:41:55Z</time>
      </trkpt>
      <trkpt lat="39.897087" lon="-0.555706">
        <ele>487.976</ele>
        <time>2020-01-17T09:41:57Z</time>
      </trkpt>
      <trkpt lat="39.897111" lon="-0.555739">
        <ele>487.918</ele>
        <time>2020-01-17T09:41:58Z</time>
      </trkpt>
      <trkpt lat="39.897134" lon="-0.555774">
        <ele>487.862</ele>
        <time>2020-01-17T09:41:59Z</time>
      </trkpt>
      <trkpt lat="39.89722" lon="-0.555901">
        <ele>488.975</ele>
        <time>2020-01-17T09:42:03Z</time>
      </trkpt>
      <trkpt lat="39.897237" lon="-0.555958">
        <ele>486.227</ele>
        <time>2020-01-17T09:42:05Z</time>
      </trkpt>
      <trkpt lat="39.89725" lon="-0.556012">
        <ele>485.799</ele>
        <time>2020-01-17T09:42:07Z</time>
      </trkpt>
      <trkpt lat="39.897274" lon="-0.556063">
        <ele>486.422</ele>
        <time>2020-01-17T09:42:09Z</time>
      </trkpt>
      <trkpt lat="39.897306" lon="-0.556118">
        <ele>485.747</ele>
        <time>2020-01-17T09:42:11Z</time>
      </trkpt>
      <trkpt lat="39.897357" lon="-0.556167">
        <ele>487.257</ele>
        <time>2020-01-17T09:42:13Z</time>
      </trkpt>
      <trkpt lat="39.897413" lon="-0.55621">
        <ele>488.171</ele>
        <time>2020-01-17T09:42:15Z</time>
      </trkpt>
      <trkpt lat="39.897458" lon="-0.556253">
        <ele>489.057</ele>
        <time>2020-01-17T09:42:17Z</time>
      </trkpt>
      <trkpt lat="39.897501" lon="-0.556317">
        <ele>490.245</ele>
        <time>2020-01-17T09:42:19Z</time>
      </trkpt>
      <trkpt lat="39.897523" lon="-0.55635">
        <ele>491.0</ele>
        <time>2020-01-17T09:42:20Z</time>
      </trkpt>
      <trkpt lat="39.897539" lon="-0.556379">
        <ele>487.731</ele>
        <time>2020-01-17T09:42:21Z</time>
      </trkpt>
      <trkpt lat="39.897565" lon="-0.556471">
        <ele>485.249</ele>
        <time>2020-01-17T09:42:24Z</time>
      </trkpt>
      <trkpt lat="39.897575" lon="-0.556508">
        <ele>485.347</ele>
        <time>2020-01-17T09:42:25Z</time>
      </trkpt>
      <trkpt lat="39.897587" lon="-0.556547">
        <ele>487.073</ele>
        <time>2020-01-17T09:42:26Z</time>
      </trkpt>
      <trkpt lat="39.897625" lon="-0.556644">
        <ele>489.119</ele>
        <time>2020-01-17T09:42:29Z</time>
      </trkpt>
      <trkpt lat="39.897687" lon="-0.55676">
        <ele>490.648</ele>
        <time>2020-01-17T09:42:34Z</time>
      </trkpt>
      <trkpt lat="39.897731" lon="-0.556814">
        <ele>490.246</ele>
        <time>2020-01-17T09:42:37Z</time>
      </trkpt>
      <trkpt lat="39.897775" lon="-0.556918">
        <ele>490.085</ele>
        <time>2020-01-17T09:42:41Z</time>
      </trkpt>
      <trkpt lat="39.89781" lon="-0.556973">
        <ele>490.585</ele>
        <time>2020-01-17T09:42:43Z</time>
      </trkpt>
      <trkpt lat="39.897828" lon="-0.556996">
        <ele>491.638</ele>
        <time>2020-01-17T09:42:44Z</time>
      </trkpt>
      <trkpt lat="39.897863" lon="-0.557069">
        <ele>490.616</ele>
        <time>2020-01-17T09:42:46Z</time>
      </trkpt>
      <trkpt lat="39.897931" lon="-0.557225">
        <ele>490.97</ele>
        <time>2020-01-17T09:42:50Z</time>
      </trkpt>
      <trkpt lat="39.897965" lon="-0.557271">
        <ele>492.516</ele>
        <time>2020-01-17T09:42:52Z</time>
      </trkpt>
      <trkpt lat="39.898038" lon="-0.55734">
        <ele>492.5</ele>
        <time>2020-01-17T09:42:55Z</time>
      </trkpt>
      <trkpt lat="39.89808" lon="-0.557407">
        <ele>494.11</ele>
        <time>2020-01-17T09:42:57Z</time>
      </trkpt>
      <trkpt lat="39.898098" lon="-0.557438">
        <ele>493.319</ele>
        <time>2020-01-17T09:42:58Z</time>
      </trkpt>
      <trkpt lat="39.898115" lon="-0.55747">
        <ele>493.846</ele>
        <time>2020-01-17T09:42:59Z</time>
      </trkpt>
      <trkpt lat="39.898132" lon="-0.557509">
        <ele>494.114</ele>
        <time>2020-01-17T09:43:00Z</time>
      </trkpt>
      <trkpt lat="39.898181" lon="-0.557585">
        <ele>493.26</ele>
        <time>2020-01-17T09:43:02Z</time>
      </trkpt>
      <trkpt lat="39.898227" lon="-0.55763">
        <ele>492.427</ele>
        <time>2020-01-17T09:43:04Z</time>
      </trkpt>
      <trkpt lat="39.898259" lon="-0.557675">
        <ele>493.763</ele>
        <time>2020-01-17T09:43:06Z</time>
      </trkpt>
      <trkpt lat="39.898296" lon="-0.557711">
        <ele>491.366</ele>
        <time>2020-01-17T09:43:08Z</time>
      </trkpt>
      <trkpt lat="39.898327" lon="-0.557758">
        <ele>491.331</ele>
        <time>2020-01-17T09:43:10Z</time>
      </trkpt>
      <trkpt lat="39.898381" lon="-0.557829">
        <ele>490.754</ele>
        <time>2020-01-17T09:43:13Z</time>
      </trkpt>
      <trkpt lat="39.898442" lon="-0.557858">
        <ele>490.524</ele>
        <time>2020-01-17T09:43:15Z</time>
      </trkpt>
      <trkpt lat="39.898505" lon="-0.557903">
        <ele>489.777</ele>
        <time>2020-01-17T09:43:17Z</time>
      </trkpt>
      <trkpt lat="39.898566" lon="-0.557939">
        <ele>492.669</ele>
        <time>2020-01-17T09:43:19Z</time>
      </trkpt>
      <trkpt lat="39.898624" lon="-0.557986">
        <ele>494.255</ele>
        <time>2020-01-17T09:43:21Z</time>
      </trkpt>
      <trkpt lat="39.898661" lon="-0.558025">
        <ele>498.765</ele>
        <time>2020-01-17T09:43:23Z</time>
      </trkpt>
      <trkpt lat="39.898708" lon="-0.558085">
        <ele>498.87</ele>
        <time>2020-01-17T09:43:26Z</time>
      </trkpt>
      <trkpt lat="39.898761" lon="-0.558115">
        <ele>499.032</ele>
        <time>2020-01-17T09:43:28Z</time>
      </trkpt>
      <trkpt lat="39.898785" lon="-0.558129">
        <ele>498.514</ele>
        <time>2020-01-17T09:43:29Z</time>
      </trkpt>
      <trkpt lat="39.898822" lon="-0.558163">
        <ele>499.872</ele>
        <time>2020-01-17T09:43:31Z</time>
      </trkpt>
      <trkpt lat="39.898859" lon="-0.558203">
        <ele>500.164</ele>
        <time>2020-01-17T09:43:33Z</time>
      </trkpt>
      <trkpt lat="39.898882" lon="-0.558224">
        <ele>498.825</ele>
        <time>2020-01-17T09:43:34Z</time>
      </trkpt>
      <trkpt lat="39.898906" lon="-0.558245">
        <ele>498.081</ele>
        <time>2020-01-17T09:43:35Z</time>
      </trkpt>
      <trkpt lat="39.898931" lon="-0.558267">
        <ele>495.283</ele>
        <time>2020-01-17T09:43:36Z</time>
      </trkpt>
      <trkpt lat="39.898951" lon="-0.558283">
        <ele>495.596</ele>
        <time>2020-01-17T09:43:37Z</time>
      </trkpt>
      <trkpt lat="39.898971" lon="-0.5583">
        <ele>493.296</ele>
        <time>2020-01-17T09:43:38Z</time>
      </trkpt>
      <trkpt lat="39.899005" lon="-0.55833">
        <ele>493.92</ele>
        <time>2020-01-17T09:43:40Z</time>
      </trkpt>
      <trkpt lat="39.899026" lon="-0.558349">
        <ele>494.262</ele>
        <time>2020-01-17T09:43:41Z</time>
      </trkpt>
      <trkpt lat="39.899046" lon="-0.558371">
        <ele>493.754</ele>
        <time>2020-01-17T09:43:42Z</time>
      </trkpt>
      <trkpt lat="39.899084" lon="-0.558415">
        <ele>494.18</ele>
        <time>2020-01-17T09:43:44Z</time>
      </trkpt>
      <trkpt lat="39.899104" lon="-0.558437">
        <ele>494.163</ele>
        <time>2020-01-17T09:43:45Z</time>
      </trkpt>
      <trkpt lat="39.899158" lon="-0.558476">
        <ele>494.004</ele>
        <time>2020-01-17T09:43:47Z</time>
      </trkpt>
      <trkpt lat="39.899196" lon="-0.558521">
        <ele>495.016</ele>
        <time>2020-01-17T09:43:49Z</time>
      </trkpt>
      <trkpt lat="39.89923" lon="-0.558568">
        <ele>494.217</ele>
        <time>2020-01-17T09:43:51Z</time>
      </trkpt>
      <trkpt lat="39.89927" lon="-0.558616">
        <ele>494.966</ele>
        <time>2020-01-17T09:43:53Z</time>
      </trkpt>
      <trkpt lat="39.89933" lon="-0.558662">
        <ele>495.229</ele>
        <time>2020-01-17T09:43:56Z</time>
      </trkpt>
      <trkpt lat="39.899381" lon="-0.558673">
        <ele>496.458</ele>
        <time>2020-01-17T09:43:58Z</time>
      </trkpt>
      <trkpt lat="39.899406" lon="-0.558678">
        <ele>496.874</ele>
        <time>2020-01-17T09:43:59Z</time>
      </trkpt>
      <trkpt lat="39.899463" lon="-0.5587">
        <ele>495.626</ele>
        <time>2020-01-17T09:44:01Z</time>
      </trkpt>
      <trkpt lat="39.899537" lon="-0.558745">
        <ele>496.799</ele>
        <time>2020-01-17T09:44:04Z</time>
      </trkpt>
      <trkpt lat="39.899561" lon="-0.558763">
        <ele>497.645</ele>
        <time>2020-01-17T09:44:05Z</time>
      </trkpt>
      <trkpt lat="39.899584" lon="-0.558781">
        <ele>495.139</ele>
        <time>2020-01-17T09:44:06Z</time>
      </trkpt>
      <trkpt lat="39.899615" lon="-0.558804">
        <ele>494.43</ele>
        <time>2020-01-17T09:44:07Z</time>
      </trkpt>
      <trkpt lat="39.899664" lon="-0.558851">
        <ele>493.609</ele>
        <time>2020-01-17T09:44:09Z</time>
      </trkpt>
      <trkpt lat="39.899759" lon="-0.558951">
        <ele>493.594</ele>
        <time>2020-01-17T09:44:13Z</time>
      </trkpt>
      <trkpt lat="39.899802" lon="-0.559">
        <ele>491.086</ele>
        <time>2020-01-17T09:44:15Z</time>
      </trkpt>
      <trkpt lat="39.899859" lon="-0.559052">
        <ele>491.487</ele>
        <time>2020-01-17T09:44:17Z</time>
      </trkpt>
      <trkpt lat="39.89994" lon="-0.55912">
        <ele>493.101</ele>
        <time>2020-01-17T09:44:20Z</time>
      </trkpt>
      <trkpt lat="39.899989" lon="-0.559158">
        <ele>497.692</ele>
        <time>2020-01-17T09:44:22Z</time>
      </trkpt>
      <trkpt lat="39.900017" lon="-0.559178">
        <ele>499.01</ele>
        <time>2020-01-17T09:44:23Z</time>
      </trkpt>
      <trkpt lat="39.900041" lon="-0.559198">
        <ele>499.906</ele>
        <time>2020-01-17T09:44:24Z</time>
      </trkpt>
      <trkpt lat="39.900066" lon="-0.559218">
        <ele>500.998</ele>
        <time>2020-01-17T09:44:25Z</time>
      </trkpt>
      <trkpt lat="39.900088" lon="-0.559232">
        <ele>501.506</ele>
        <time>2020-01-17T09:44:26Z</time>
      </trkpt>
      <trkpt lat="39.90011" lon="-0.559246">
        <ele>503.651</ele>
        <time>2020-01-17T09:44:27Z</time>
      </trkpt>
      <trkpt lat="39.900148" lon="-0.559275">
        <ele>504.178</ele>
        <time>2020-01-17T09:44:29Z</time>
      </trkpt>
      <trkpt lat="39.90017" lon="-0.559292">
        <ele>504.695</ele>
        <time>2020-01-17T09:44:30Z</time>
      </trkpt>
      <trkpt lat="39.900197" lon="-0.559311">
        <ele>503.975</ele>
        <time>2020-01-17T09:44:31Z</time>
      </trkpt>
      <trkpt lat="39.900244" lon="-0.559346">
        <ele>504.505</ele>
        <time>2020-01-17T09:44:33Z</time>
      </trkpt>
      <trkpt lat="39.900312" lon="-0.559388">
        <ele>503.198</ele>
        <time>2020-01-17T09:44:36Z</time>
      </trkpt>
      <trkpt lat="39.900364" lon="-0.559445">
        <ele>502.979</ele>
        <time>2020-01-17T09:44:38Z</time>
      </trkpt>
      <trkpt lat="39.900409" lon="-0.559504">
        <ele>502.425</ele>
        <time>2020-01-17T09:44:40Z</time>
      </trkpt>
      <trkpt lat="39.900476" lon="-0.559566">
        <ele>499.462</ele>
        <time>2020-01-17T09:44:43Z</time>
      </trkpt>
      <trkpt lat="39.900528" lon="-0.559613">
        <ele>495.917</ele>
        <time>2020-01-17T09:44:45Z</time>
      </trkpt>
      <trkpt lat="39.900566" lon="-0.559673">
        <ele>496.868</ele>
        <time>2020-01-17T09:44:47Z</time>
      </trkpt>
      <trkpt lat="39.900622" lon="-0.559702">
        <ele>497.201</ele>
        <time>2020-01-17T09:44:49Z</time>
      </trkpt>
      <trkpt lat="39.900651" lon="-0.559715">
        <ele>498.13</ele>
        <time>2020-01-17T09:44:50Z</time>
      </trkpt>
      <trkpt lat="39.900703" lon="-0.559769">
        <ele>495.344</ele>
        <time>2020-01-17T09:44:52Z</time>
      </trkpt>
      <trkpt lat="39.900749" lon="-0.559794">
        <ele>495.113</ele>
        <time>2020-01-17T09:44:54Z</time>
      </trkpt>
      <trkpt lat="39.900896" lon="-0.559881">
        <ele>495.942</ele>
        <time>2020-01-17T09:45:00Z</time>
      </trkpt>
      <trkpt lat="39.900969" lon="-0.559957">
        <ele>497.498</ele>
        <time>2020-01-17T09:45:03Z</time>
      </trkpt>
      <trkpt lat="39.900991" lon="-0.55998">
        <ele>494.762</ele>
        <time>2020-01-17T09:45:04Z</time>
      </trkpt>
      <trkpt lat="39.901015" lon="-0.560003">
        <ele>495.636</ele>
        <time>2020-01-17T09:45:05Z</time>
      </trkpt>
      <trkpt lat="39.90106" lon="-0.560054">
        <ele>496.374</ele>
        <time>2020-01-17T09:45:07Z</time>
      </trkpt>
      <trkpt lat="39.901128" lon="-0.560112">
        <ele>496.827</ele>
        <time>2020-01-17T09:45:10Z</time>
      </trkpt>
      <trkpt lat="39.901168" lon="-0.560149">
        <ele>492.804</ele>
        <time>2020-01-17T09:45:12Z</time>
      </trkpt>
      <trkpt lat="39.90119" lon="-0.560166">
        <ele>496.563</ele>
        <time>2020-01-17T09:45:13Z</time>
      </trkpt>
      <trkpt lat="39.901215" lon="-0.560188">
        <ele>494.35</ele>
        <time>2020-01-17T09:45:14Z</time>
      </trkpt>
      <trkpt lat="39.901263" lon="-0.560226">
        <ele>494.12</ele>
        <time>2020-01-17T09:45:16Z</time>
      </trkpt>
      <trkpt lat="39.901313" lon="-0.560261">
        <ele>495.779</ele>
        <time>2020-01-17T09:45:18Z</time>
      </trkpt>
      <trkpt lat="39.901344" lon="-0.560279">
        <ele>496.43</ele>
        <time>2020-01-17T09:45:19Z</time>
      </trkpt>
      <trkpt lat="39.901375" lon="-0.560299">
        <ele>496.837</ele>
        <time>2020-01-17T09:45:20Z</time>
      </trkpt>
      <trkpt lat="39.901432" lon="-0.560323">
        <ele>498.551</ele>
        <time>2020-01-17T09:45:22Z</time>
      </trkpt>
      <trkpt lat="39.9015" lon="-0.560342">
        <ele>498.393</ele>
        <time>2020-01-17T09:45:24Z</time>
      </trkpt>
      <trkpt lat="39.901622" lon="-0.560417">
        <ele>499.286</ele>
        <time>2020-01-17T09:45:28Z</time>
      </trkpt>
      <trkpt lat="39.901671" lon="-0.560471">
        <ele>499.529</ele>
        <time>2020-01-17T09:45:30Z</time>
      </trkpt>
      <trkpt lat="39.901692" lon="-0.560554">
        <ele>499.884</ele>
        <time>2020-01-17T09:45:32Z</time>
      </trkpt>
      <trkpt lat="39.901754" lon="-0.560618">
        <ele>500.655</ele>
        <time>2020-01-17T09:45:35Z</time>
      </trkpt>
      <trkpt lat="39.901854" lon="-0.560585">
        <ele>502.033</ele>
        <time>2020-01-17T09:45:38Z</time>
      </trkpt>
      <trkpt lat="39.901919" lon="-0.560585">
        <ele>502.561</ele>
        <time>2020-01-17T09:45:40Z</time>
      </trkpt>
      <trkpt lat="39.901978" lon="-0.560618">
        <ele>503.557</ele>
        <time>2020-01-17T09:45:42Z</time>
      </trkpt>
      <trkpt lat="39.902031" lon="-0.560655">
        <ele>502.376</ele>
        <time>2020-01-17T09:45:44Z</time>
      </trkpt>
      <trkpt lat="39.902096" lon="-0.560655">
        <ele>503.847</ele>
        <time>2020-01-17T09:45:46Z</time>
      </trkpt>
      <trkpt lat="39.902125" lon="-0.560656">
        <ele>503.184</ele>
        <time>2020-01-17T09:45:47Z</time>
      </trkpt>
      <trkpt lat="39.902177" lon="-0.560684">
        <ele>503.62</ele>
        <time>2020-01-17T09:45:49Z</time>
      </trkpt>
      <trkpt lat="39.902205" lon="-0.560768">
        <ele>505.508</ele>
        <time>2020-01-17T09:45:51Z</time>
      </trkpt>
      <trkpt lat="39.902247" lon="-0.56082">
        <ele>505.149</ele>
        <time>2020-01-17T09:45:53Z</time>
      </trkpt>
      <trkpt lat="39.902289" lon="-0.560859">
        <ele>506.98</ele>
        <time>2020-01-17T09:45:55Z</time>
      </trkpt>
      <trkpt lat="39.902314" lon="-0.560879">
        <ele>505.123</ele>
        <time>2020-01-17T09:45:56Z</time>
      </trkpt>
      <trkpt lat="39.902339" lon="-0.560898">
        <ele>505.119</ele>
        <time>2020-01-17T09:45:57Z</time>
      </trkpt>
      <trkpt lat="39.902363" lon="-0.560915">
        <ele>505.166</ele>
        <time>2020-01-17T09:45:58Z</time>
      </trkpt>
      <trkpt lat="39.902389" lon="-0.560931">
        <ele>505.676</ele>
        <time>2020-01-17T09:45:59Z</time>
      </trkpt>
      <trkpt lat="39.902411" lon="-0.560942">
        <ele>505.785</ele>
        <time>2020-01-17T09:46:00Z</time>
      </trkpt>
      <trkpt lat="39.90247" lon="-0.560965">
        <ele>505.819</ele>
        <time>2020-01-17T09:46:03Z</time>
      </trkpt>
      <trkpt lat="39.902548" lon="-0.561013">
        <ele>505.895</ele>
        <time>2020-01-17T09:46:06Z</time>
      </trkpt>
      <trkpt lat="39.902631" lon="-0.561031">
        <ele>505.844</ele>
        <time>2020-01-17T09:46:09Z</time>
      </trkpt>
      <trkpt lat="39.902675" lon="-0.561039">
        <ele>505.54</ele>
        <time>2020-01-17T09:46:11Z</time>
      </trkpt>
      <trkpt lat="39.902721" lon="-0.561044">
        <ele>505.308</ele>
        <time>2020-01-17T09:46:13Z</time>
      </trkpt>
      <trkpt lat="39.90276" lon="-0.561047">
        <ele>504.569</ele>
        <time>2020-01-17T09:46:15Z</time>
      </trkpt>
      <trkpt lat="39.90283" lon="-0.561034">
        <ele>506.165</ele>
        <time>2020-01-17T09:46:18Z</time>
      </trkpt>
      <trkpt lat="39.902877" lon="-0.561047">
        <ele>505.508</ele>
        <time>2020-01-17T09:46:20Z</time>
      </trkpt>
      <trkpt lat="39.902922" lon="-0.561059">
        <ele>505.219</ele>
        <time>2020-01-17T09:46:22Z</time>
      </trkpt>
      <trkpt lat="39.902948" lon="-0.561066">
        <ele>504.646</ele>
        <time>2020-01-17T09:46:23Z</time>
      </trkpt>
      <trkpt lat="39.902975" lon="-0.561076">
        <ele>504.791</ele>
        <time>2020-01-17T09:46:24Z</time>
      </trkpt>
      <trkpt lat="39.903037" lon="-0.561081">
        <ele>505.003</ele>
        <time>2020-01-17T09:46:26Z</time>
      </trkpt>
      <trkpt lat="39.903085" lon="-0.561058">
        <ele>505.432</ele>
        <time>2020-01-17T09:46:28Z</time>
      </trkpt>
      <trkpt lat="39.903136" lon="-0.561055">
        <ele>505.324</ele>
        <time>2020-01-17T09:46:30Z</time>
      </trkpt>
      <trkpt lat="39.903159" lon="-0.561054">
        <ele>505.452</ele>
        <time>2020-01-17T09:46:31Z</time>
      </trkpt>
      <trkpt lat="39.90322" lon="-0.561036">
        <ele>505.497</ele>
        <time>2020-01-17T09:46:34Z</time>
      </trkpt>
      <trkpt lat="39.90325" lon="-0.561029">
        <ele>505.583</ele>
        <time>2020-01-17T09:46:35Z</time>
      </trkpt>
      <trkpt lat="39.903279" lon="-0.561023">
        <ele>505.509</ele>
        <time>2020-01-17T09:46:36Z</time>
      </trkpt>
      <trkpt lat="39.903308" lon="-0.561019">
        <ele>506.297</ele>
        <time>2020-01-17T09:46:37Z</time>
      </trkpt>
      <trkpt lat="39.903335" lon="-0.561015">
        <ele>508.243</ele>
        <time>2020-01-17T09:46:38Z</time>
      </trkpt>
      <trkpt lat="39.903362" lon="-0.561011">
        <ele>507.986</ele>
        <time>2020-01-17T09:46:39Z</time>
      </trkpt>
      <trkpt lat="39.903385" lon="-0.561004">
        <ele>508.042</ele>
        <time>2020-01-17T09:46:40Z</time>
      </trkpt>
      <trkpt lat="39.903411" lon="-0.560996">
        <ele>508.335</ele>
        <time>2020-01-17T09:46:41Z</time>
      </trkpt>
      <trkpt lat="39.90346" lon="-0.56099">
        <ele>506.935</ele>
        <time>2020-01-17T09:46:43Z</time>
      </trkpt>
      <trkpt lat="39.90349" lon="-0.560985">
        <ele>507.035</ele>
        <time>2020-01-17T09:46:44Z</time>
      </trkpt>
      <trkpt lat="39.903565" lon="-0.560945">
        <ele>506.305</ele>
        <time>2020-01-17T09:46:47Z</time>
      </trkpt>
      <trkpt lat="39.903612" lon="-0.560918">
        <ele>506.157</ele>
        <time>2020-01-17T09:46:49Z</time>
      </trkpt>
      <trkpt lat="39.903663" lon="-0.5609">
        <ele>507.107</ele>
        <time>2020-01-17T09:46:51Z</time>
      </trkpt>
      <trkpt lat="39.90369" lon="-0.560888">
        <ele>508.742</ele>
        <time>2020-01-17T09:46:52Z</time>
      </trkpt>
      <trkpt lat="39.903715" lon="-0.560876">
        <ele>509.071</ele>
        <time>2020-01-17T09:46:53Z</time>
      </trkpt>
      <trkpt lat="39.903741" lon="-0.560861">
        <ele>508.19</ele>
        <time>2020-01-17T09:46:54Z</time>
      </trkpt>
      <trkpt lat="39.903765" lon="-0.560845">
        <ele>507.876</ele>
        <time>2020-01-17T09:46:55Z</time>
      </trkpt>
      <trkpt lat="39.903812" lon="-0.560824">
        <ele>509.697</ele>
        <time>2020-01-17T09:46:57Z</time>
      </trkpt>
      <trkpt lat="39.903854" lon="-0.560796">
        <ele>507.832</ele>
        <time>2020-01-17T09:46:59Z</time>
      </trkpt>
      <trkpt lat="39.903873" lon="-0.560781">
        <ele>507.521</ele>
        <time>2020-01-17T09:47:00Z</time>
      </trkpt>
      <trkpt lat="39.903895" lon="-0.560765">
        <ele>509.252</ele>
        <time>2020-01-17T09:47:01Z</time>
      </trkpt>
      <trkpt lat="39.903939" lon="-0.560741">
        <ele>512.741</ele>
        <time>2020-01-17T09:47:03Z</time>
      </trkpt>
      <trkpt lat="39.903988" lon="-0.560724">
        <ele>512.856</ele>
        <time>2020-01-17T09:47:05Z</time>
      </trkpt>
      <trkpt lat="39.904012" lon="-0.560714">
        <ele>513.995</ele>
        <time>2020-01-17T09:47:06Z</time>
      </trkpt>
      <trkpt lat="39.904035" lon="-0.560702">
        <ele>513.599</ele>
        <time>2020-01-17T09:47:07Z</time>
      </trkpt>
      <trkpt lat="39.904087" lon="-0.560676">
        <ele>513.917</ele>
        <time>2020-01-17T09:47:09Z</time>
      </trkpt>
      <trkpt lat="39.90411" lon="-0.560662">
        <ele>511.974</ele>
        <time>2020-01-17T09:47:10Z</time>
      </trkpt>
      <trkpt lat="39.904134" lon="-0.560648">
        <ele>512.097</ele>
        <time>2020-01-17T09:47:11Z</time>
      </trkpt>
      <trkpt lat="39.90416" lon="-0.560628">
        <ele>513.853</ele>
        <time>2020-01-17T09:47:12Z</time>
      </trkpt>
      <trkpt lat="39.904213" lon="-0.560569">
        <ele>513.379</ele>
        <time>2020-01-17T09:47:14Z</time>
      </trkpt>
      <trkpt lat="39.904238" lon="-0.560539">
        <ele>514.119</ele>
        <time>2020-01-17T09:47:15Z</time>
      </trkpt>
      <trkpt lat="39.904287" lon="-0.560486">
        <ele>514.699</ele>
        <time>2020-01-17T09:47:17Z</time>
      </trkpt>
      <trkpt lat="39.904312" lon="-0.560464">
        <ele>513.192</ele>
        <time>2020-01-17T09:47:18Z</time>
      </trkpt>
      <trkpt lat="39.904361" lon="-0.560418">
        <ele>515.144</ele>
        <time>2020-01-17T09:47:20Z</time>
      </trkpt>
      <trkpt lat="39.904456" lon="-0.560381">
        <ele>515.352</ele>
        <time>2020-01-17T09:47:23Z</time>
      </trkpt>
      <trkpt lat="39.904502" lon="-0.560338">
        <ele>514.795</ele>
        <time>2020-01-17T09:47:25Z</time>
      </trkpt>
      <trkpt lat="39.90453" lon="-0.560315">
        <ele>514.17</ele>
        <time>2020-01-17T09:47:26Z</time>
      </trkpt>
      <trkpt lat="39.904557" lon="-0.56029">
        <ele>513.943</ele>
        <time>2020-01-17T09:47:27Z</time>
      </trkpt>
      <trkpt lat="39.904588" lon="-0.560263">
        <ele>513.465</ele>
        <time>2020-01-17T09:47:28Z</time>
      </trkpt>
      <trkpt lat="39.904629" lon="-0.560227">
        <ele>513.155</ele>
        <time>2020-01-17T09:47:30Z</time>
      </trkpt>
      <trkpt lat="39.904663" lon="-0.560198">
        <ele>513.467</ele>
        <time>2020-01-17T09:47:32Z</time>
      </trkpt>
      <trkpt lat="39.904705" lon="-0.560143">
        <ele>510.159</ele>
        <time>2020-01-17T09:47:35Z</time>
      </trkpt>
      <trkpt lat="39.904756" lon="-0.560072">
        <ele>508.628</ele>
        <time>2020-01-17T09:47:38Z</time>
      </trkpt>
      <trkpt lat="39.904793" lon="-0.560031">
        <ele>508.884</ele>
        <time>2020-01-17T09:47:40Z</time>
      </trkpt>
      <trkpt lat="39.904813" lon="-0.56001">
        <ele>509.523</ele>
        <time>2020-01-17T09:47:41Z</time>
      </trkpt>
      <trkpt lat="39.904852" lon="-0.559965">
        <ele>509.611</ele>
        <time>2020-01-17T09:47:43Z</time>
      </trkpt>
      <trkpt lat="39.904874" lon="-0.559943">
        <ele>509.016</ele>
        <time>2020-01-17T09:47:44Z</time>
      </trkpt>
      <trkpt lat="39.904901" lon="-0.559915">
        <ele>509.248</ele>
        <time>2020-01-17T09:47:45Z</time>
      </trkpt>
      <trkpt lat="39.904924" lon="-0.559891">
        <ele>509.204</ele>
        <time>2020-01-17T09:47:46Z</time>
      </trkpt>
      <trkpt lat="39.904968" lon="-0.559848">
        <ele>508.334</ele>
        <time>2020-01-17T09:47:48Z</time>
      </trkpt>
      <trkpt lat="39.904988" lon="-0.559827">
        <ele>508.546</ele>
        <time>2020-01-17T09:47:49Z</time>
      </trkpt>
      <trkpt lat="39.905008" lon="-0.559805">
        <ele>509.103</ele>
        <time>2020-01-17T09:47:50Z</time>
      </trkpt>
      <trkpt lat="39.905029" lon="-0.559782">
        <ele>508.344</ele>
        <time>2020-01-17T09:47:51Z</time>
      </trkpt>
      <trkpt lat="39.90508" lon="-0.559734">
        <ele>507.096</ele>
        <time>2020-01-17T09:47:53Z</time>
      </trkpt>
      <trkpt lat="39.905167" lon="-0.559654">
        <ele>506.284</ele>
        <time>2020-01-17T09:47:56Z</time>
      </trkpt>
      <trkpt lat="39.90525" lon="-0.559596">
        <ele>506.779</ele>
        <time>2020-01-17T09:47:59Z</time>
      </trkpt>
      <trkpt lat="39.905292" lon="-0.559558">
        <ele>506.197</ele>
        <time>2020-01-17T09:48:01Z</time>
      </trkpt>
      <trkpt lat="39.905362" lon="-0.559495">
        <ele>506.521</ele>
        <time>2020-01-17T09:48:04Z</time>
      </trkpt>
      <trkpt lat="39.905398" lon="-0.559438">
        <ele>505.804</ele>
        <time>2020-01-17T09:48:06Z</time>
      </trkpt>
      <trkpt lat="39.905413" lon="-0.559412">
        <ele>506.442</ele>
        <time>2020-01-17T09:48:07Z</time>
      </trkpt>
      <trkpt lat="39.905456" lon="-0.559347">
        <ele>505.305</ele>
        <time>2020-01-17T09:48:10Z</time>
      </trkpt>
      <trkpt lat="39.905511" lon="-0.559291">
        <ele>504.098</ele>
        <time>2020-01-17T09:48:13Z</time>
      </trkpt>
      <trkpt lat="39.905511" lon="-0.559291">
        <ele>504.733</ele>
        <time>2020-01-17T09:48:19Z</time>
      </trkpt>
      <trkpt lat="39.905511" lon="-0.559291">
        <ele>504.457</ele>
        <time>2020-01-17T09:48:36Z</time>
      </trkpt>
      <trkpt lat="39.905659" lon="-0.559262">
        <ele>505.082</ele>
        <time>2020-01-17T09:48:36Z</time>
      </trkpt>
      <trkpt lat="39.905755" lon="-0.559258">
        <ele>504.109</ele>
        <time>2020-01-17T09:48:39Z</time>
      </trkpt>
      <trkpt lat="39.905787" lon="-0.559256">
        <ele>505.135</ele>
        <time>2020-01-17T09:48:40Z</time>
      </trkpt>
      <trkpt lat="39.905875" lon="-0.55921">
        <ele>504.543</ele>
        <time>2020-01-17T09:48:43Z</time>
      </trkpt>
      <trkpt lat="39.90595" lon="-0.559189">
        <ele>503.51</ele>
        <time>2020-01-17T09:48:45Z</time>
      </trkpt>
      <trkpt lat="39.905997" lon="-0.559185">
        <ele>504.319</ele>
        <time>2020-01-17T09:48:46Z</time>
      </trkpt>
      <trkpt lat="39.906068" lon="-0.559134">
        <ele>502.717</ele>
        <time>2020-01-17T09:48:48Z</time>
      </trkpt>
      <trkpt lat="39.906191" lon="-0.559018">
        <ele>502.351</ele>
        <time>2020-01-17T09:48:51Z</time>
      </trkpt>
      <trkpt lat="39.906245" lon="-0.559022">
        <ele>502.415</ele>
        <time>2020-01-17T09:48:52Z</time>
      </trkpt>
      <trkpt lat="39.906314" lon="-0.55898">
        <ele>501.856</ele>
        <time>2020-01-17T09:48:54Z</time>
      </trkpt>
      <trkpt lat="39.906375" lon="-0.558934">
        <ele>501.739</ele>
        <time>2020-01-17T09:48:56Z</time>
      </trkpt>
      <trkpt lat="39.906467" lon="-0.558923">
        <ele>501.474</ele>
        <time>2020-01-17T09:48:58Z</time>
      </trkpt>
      <trkpt lat="39.906522" lon="-0.558928">
        <ele>500.28</ele>
        <time>2020-01-17T09:48:59Z</time>
      </trkpt>
      <trkpt lat="39.906603" lon="-0.558903">
        <ele>501.196</ele>
        <time>2020-01-17T09:49:01Z</time>
      </trkpt>
      <trkpt lat="39.906641" lon="-0.558894">
        <ele>501.924</ele>
        <time>2020-01-17T09:49:02Z</time>
      </trkpt>
      <trkpt lat="39.906762" lon="-0.558878">
        <ele>502.539</ele>
        <time>2020-01-17T09:49:05Z</time>
      </trkpt>
      <trkpt lat="39.906869" lon="-0.558908">
        <ele>502.942</ele>
        <time>2020-01-17T09:49:07Z</time>
      </trkpt>
      <trkpt lat="39.906918" lon="-0.558922">
        <ele>497.995</ele>
        <time>2020-01-17T09:49:08Z</time>
      </trkpt>
      <trkpt lat="39.907044" lon="-0.558932">
        <ele>497.423</ele>
        <time>2020-01-17T09:49:11Z</time>
      </trkpt>
      <trkpt lat="39.907095" lon="-0.558954">
        <ele>496.635</ele>
        <time>2020-01-17T09:49:12Z</time>
      </trkpt>
      <trkpt lat="39.907125" lon="-0.558964">
        <ele>497.212</ele>
        <time>2020-01-17T09:49:13Z</time>
      </trkpt>
      <trkpt lat="39.907201" lon="-0.559016">
        <ele>497.651</ele>
        <time>2020-01-17T09:49:15Z</time>
      </trkpt>
      <trkpt lat="39.907268" lon="-0.559058">
        <ele>497.806</ele>
        <time>2020-01-17T09:49:17Z</time>
      </trkpt>
      <trkpt lat="39.907339" lon="-0.559111">
        <ele>498.382</ele>
        <time>2020-01-17T09:49:19Z</time>
      </trkpt>
      <trkpt lat="39.907373" lon="-0.559141">
        <ele>499.462</ele>
        <time>2020-01-17T09:49:20Z</time>
      </trkpt>
      <trkpt lat="39.907406" lon="-0.559166">
        <ele>499.397</ele>
        <time>2020-01-17T09:49:21Z</time>
      </trkpt>
      <trkpt lat="39.907438" lon="-0.559192">
        <ele>499.52</ele>
        <time>2020-01-17T09:49:22Z</time>
      </trkpt>
      <trkpt lat="39.907474" lon="-0.559226">
        <ele>500.323</ele>
        <time>2020-01-17T09:49:23Z</time>
      </trkpt>
      <trkpt lat="39.907541" lon="-0.559291">
        <ele>499.699</ele>
        <time>2020-01-17T09:49:25Z</time>
      </trkpt>
      <trkpt lat="39.907626" lon="-0.559401">
        <ele>498.398</ele>
        <time>2020-01-17T09:49:28Z</time>
      </trkpt>
      <trkpt lat="39.907653" lon="-0.559441">
        <ele>499.362</ele>
        <time>2020-01-17T09:49:29Z</time>
      </trkpt>
      <trkpt lat="39.907678" lon="-0.559478">
        <ele>500.068</ele>
        <time>2020-01-17T09:49:30Z</time>
      </trkpt>
      <trkpt lat="39.907699" lon="-0.559511">
        <ele>500.63</ele>
        <time>2020-01-17T09:49:31Z</time>
      </trkpt>
      <trkpt lat="39.90772" lon="-0.559543">
        <ele>498.424</ele>
        <time>2020-01-17T09:49:32Z</time>
      </trkpt>
      <trkpt lat="39.907742" lon="-0.559574">
        <ele>500.004</ele>
        <time>2020-01-17T09:49:33Z</time>
      </trkpt>
      <trkpt lat="39.907782" lon="-0.559631">
        <ele>498.531</ele>
        <time>2020-01-17T09:49:35Z</time>
      </trkpt>
      <trkpt lat="39.907805" lon="-0.559667">
        <ele>499.882</ele>
        <time>2020-01-17T09:49:37Z</time>
      </trkpt>
      <trkpt lat="39.907826" lon="-0.559707">
        <ele>499.426</ele>
        <time>2020-01-17T09:49:39Z</time>
      </trkpt>
      <trkpt lat="39.907877" lon="-0.559775">
        <ele>498.95</ele>
        <time>2020-01-17T09:49:42Z</time>
      </trkpt>
      <trkpt lat="39.907893" lon="-0.559796">
        <ele>498.0</ele>
        <time>2020-01-17T09:49:43Z</time>
      </trkpt>
      <trkpt lat="39.907926" lon="-0.559883">
        <ele>497.87</ele>
        <time>2020-01-17T09:49:45Z</time>
      </trkpt>
      <trkpt lat="39.907962" lon="-0.560013">
        <ele>497.67</ele>
        <time>2020-01-17T09:49:48Z</time>
      </trkpt>
      <trkpt lat="39.908001" lon="-0.56009">
        <ele>497.599</ele>
        <time>2020-01-17T09:49:50Z</time>
      </trkpt>
      <trkpt lat="39.908024" lon="-0.560129">
        <ele>498.543</ele>
        <time>2020-01-17T09:49:51Z</time>
      </trkpt>
      <trkpt lat="39.908048" lon="-0.56017">
        <ele>498.221</ele>
        <time>2020-01-17T09:49:52Z</time>
      </trkpt>
      <trkpt lat="39.908069" lon="-0.560208">
        <ele>498.805</ele>
        <time>2020-01-17T09:49:53Z</time>
      </trkpt>
      <trkpt lat="39.90809" lon="-0.560243">
        <ele>499.506</ele>
        <time>2020-01-17T09:49:54Z</time>
      </trkpt>
      <trkpt lat="39.908132" lon="-0.560307">
        <ele>498.188</ele>
        <time>2020-01-17T09:49:56Z</time>
      </trkpt>
      <trkpt lat="39.908185" lon="-0.560364">
        <ele>497.35</ele>
        <time>2020-01-17T09:49:59Z</time>
      </trkpt>
      <trkpt lat="39.908255" lon="-0.56039">
        <ele>498.391</ele>
        <time>2020-01-17T09:50:06Z</time>
      </trkpt>
      <trkpt lat="39.908309" lon="-0.5604">
        <ele>498.377</ele>
        <time>2020-01-17T09:50:08Z</time>
      </trkpt>
      <trkpt lat="39.908364" lon="-0.560449">
        <ele>497.119</ele>
        <time>2020-01-17T09:50:11Z</time>
      </trkpt>
      <trkpt lat="39.908406" lon="-0.560542">
        <ele>497.596</ele>
        <time>2020-01-17T09:50:14Z</time>
      </trkpt>
      <trkpt lat="39.908427" lon="-0.560582">
        <ele>497.455</ele>
        <time>2020-01-17T09:50:15Z</time>
      </trkpt>
      <trkpt lat="39.908454" lon="-0.560623">
        <ele>498.474</ele>
        <time>2020-01-17T09:50:16Z</time>
      </trkpt>
      <trkpt lat="39.908479" lon="-0.560659">
        <ele>498.038</ele>
        <time>2020-01-17T09:50:17Z</time>
      </trkpt>
      <trkpt lat="39.908518" lon="-0.560728">
        <ele>497.666</ele>
        <time>2020-01-17T09:50:19Z</time>
      </trkpt>
      <trkpt lat="39.908545" lon="-0.560795">
        <ele>496.456</ele>
        <time>2020-01-17T09:50:21Z</time>
      </trkpt>
      <trkpt lat="39.90856" lon="-0.560829">
        <ele>497.108</ele>
        <time>2020-01-17T09:50:22Z</time>
      </trkpt>
      <trkpt lat="39.908591" lon="-0.560902">
        <ele>497.161</ele>
        <time>2020-01-17T09:50:24Z</time>
      </trkpt>
      <trkpt lat="39.908605" lon="-0.560937">
        <ele>496.656</ele>
        <time>2020-01-17T09:50:25Z</time>
      </trkpt>
      <trkpt lat="39.908622" lon="-0.560977">
        <ele>496.336</ele>
        <time>2020-01-17T09:50:26Z</time>
      </trkpt>
      <trkpt lat="39.908636" lon="-0.561017">
        <ele>498.234</ele>
        <time>2020-01-17T09:50:27Z</time>
      </trkpt>
      <trkpt lat="39.908649" lon="-0.561052">
        <ele>498.458</ele>
        <time>2020-01-17T09:50:28Z</time>
      </trkpt>
      <trkpt lat="39.908669" lon="-0.561135">
        <ele>497.912</ele>
        <time>2020-01-17T09:50:29Z</time>
      </trkpt>
      <trkpt lat="39.9087" lon="-0.561229">
        <ele>498.466</ele>
        <time>2020-01-17T09:50:32Z</time>
      </trkpt>
      <trkpt lat="39.908732" lon="-0.561301">
        <ele>498.185</ele>
        <time>2020-01-17T09:50:34Z</time>
      </trkpt>
      <trkpt lat="39.908759" lon="-0.56138">
        <ele>496.227</ele>
        <time>2020-01-17T09:50:36Z</time>
      </trkpt>
      <trkpt lat="39.908786" lon="-0.561444">
        <ele>499.487</ele>
        <time>2020-01-17T09:50:38Z</time>
      </trkpt>
      <trkpt lat="39.90881" lon="-0.561507">
        <ele>499.212</ele>
        <time>2020-01-17T09:50:41Z</time>
      </trkpt>
      <trkpt lat="39.908836" lon="-0.561579">
        <ele>500.702</ele>
        <time>2020-01-17T09:50:42Z</time>
      </trkpt>
      <trkpt lat="39.908855" lon="-0.561653">
        <ele>501.863</ele>
        <time>2020-01-17T09:50:44Z</time>
      </trkpt>
      <trkpt lat="39.908865" lon="-0.561782">
        <ele>502.595</ele>
        <time>2020-01-17T09:50:47Z</time>
      </trkpt>
      <trkpt lat="39.908869" lon="-0.561825">
        <ele>500.516</ele>
        <time>2020-01-17T09:50:48Z</time>
      </trkpt>
      <trkpt lat="39.908875" lon="-0.561867">
        <ele>500.378</ele>
        <time>2020-01-17T09:50:49Z</time>
      </trkpt>
      <trkpt lat="39.908879" lon="-0.561898">
        <ele>500.414</ele>
        <time>2020-01-17T09:50:50Z</time>
      </trkpt>
      <trkpt lat="39.908884" lon="-0.56194">
        <ele>500.796</ele>
        <time>2020-01-17T09:50:52Z</time>
      </trkpt>
      <trkpt lat="39.908887" lon="-0.561986">
        <ele>500.014</ele>
        <time>2020-01-17T09:50:54Z</time>
      </trkpt>
      <trkpt lat="39.908892" lon="-0.562021">
        <ele>498.838</ele>
        <time>2020-01-17T09:50:55Z</time>
      </trkpt>
      <trkpt lat="39.908927" lon="-0.562125">
        <ele>497.199</ele>
        <time>2020-01-17T09:50:56Z</time>
      </trkpt>
      <trkpt lat="39.908933" lon="-0.562211">
        <ele>497.029</ele>
        <time>2020-01-17T09:50:58Z</time>
      </trkpt>
      <trkpt lat="39.908954" lon="-0.562289">
        <ele>497.034</ele>
        <time>2020-01-17T09:51:00Z</time>
      </trkpt>
      <trkpt lat="39.908956" lon="-0.562375">
        <ele>497.878</ele>
        <time>2020-01-17T09:51:02Z</time>
      </trkpt>
      <trkpt lat="39.908969" lon="-0.562446">
        <ele>498.286</ele>
        <time>2020-01-17T09:51:04Z</time>
      </trkpt>
      <trkpt lat="39.909012" lon="-0.562562">
        <ele>501.075</ele>
        <time>2020-01-17T09:51:07Z</time>
      </trkpt>
      <trkpt lat="39.909029" lon="-0.562668">
        <ele>500.241</ele>
        <time>2020-01-17T09:51:10Z</time>
      </trkpt>
      <trkpt lat="39.909034" lon="-0.562704">
        <ele>498.399</ele>
        <time>2020-01-17T09:51:11Z</time>
      </trkpt>
      <trkpt lat="39.909039" lon="-0.562768">
        <ele>497.673</ele>
        <time>2020-01-17T09:51:13Z</time>
      </trkpt>
      <trkpt lat="39.909033" lon="-0.562835">
        <ele>494.821</ele>
        <time>2020-01-17T09:51:17Z</time>
      </trkpt>
      <trkpt lat="39.909051" lon="-0.562906">
        <ele>495.879</ele>
        <time>2020-01-17T09:51:20Z</time>
      </trkpt>
      <trkpt lat="39.909079" lon="-0.562962">
        <ele>497.674</ele>
        <time>2020-01-17T09:51:22Z</time>
      </trkpt>
      <trkpt lat="39.909091" lon="-0.562988">
        <ele>499.506</ele>
        <time>2020-01-17T09:51:23Z</time>
      </trkpt>
      <trkpt lat="39.909107" lon="-0.563045">
        <ele>500.245</ele>
        <time>2020-01-17T09:51:25Z</time>
      </trkpt>
      <trkpt lat="39.909117" lon="-0.563156">
        <ele>501.988</ele>
        <time>2020-01-17T09:51:28Z</time>
      </trkpt>
      <trkpt lat="39.909122" lon="-0.563194">
        <ele>501.76</ele>
        <time>2020-01-17T09:51:29Z</time>
      </trkpt>
      <trkpt lat="39.909126" lon="-0.563229">
        <ele>502.618</ele>
        <time>2020-01-17T09:51:30Z</time>
      </trkpt>
      <trkpt lat="39.909131" lon="-0.563261">
        <ele>502.744</ele>
        <time>2020-01-17T09:51:31Z</time>
      </trkpt>
      <trkpt lat="39.909145" lon="-0.563328">
        <ele>503.152</ele>
        <time>2020-01-17T09:51:33Z</time>
      </trkpt>
      <trkpt lat="39.909156" lon="-0.563417">
        <ele>503.536</ele>
        <time>2020-01-17T09:51:35Z</time>
      </trkpt>
      <trkpt lat="39.909164" lon="-0.563466">
        <ele>502.529</ele>
        <time>2020-01-17T09:51:36Z</time>
      </trkpt>
      <trkpt lat="39.909192" lon="-0.563557">
        <ele>503.083</ele>
        <time>2020-01-17T09:51:38Z</time>
      </trkpt>
      <trkpt lat="39.909228" lon="-0.563648">
        <ele>504.704</ele>
        <time>2020-01-17T09:51:40Z</time>
      </trkpt>
      <trkpt lat="39.909258" lon="-0.563813">
        <ele>506.977</ele>
        <time>2020-01-17T09:51:44Z</time>
      </trkpt>
      <trkpt lat="39.909268" lon="-0.563887">
        <ele>502.654</ele>
        <time>2020-01-17T09:51:46Z</time>
      </trkpt>
      <trkpt lat="39.909305" lon="-0.563997">
        <ele>502.328</ele>
        <time>2020-01-17T09:51:49Z</time>
      </trkpt>
      <trkpt lat="39.909338" lon="-0.564074">
        <ele>501.951</ele>
        <time>2020-01-17T09:51:51Z</time>
      </trkpt>
      <trkpt lat="39.909384" lon="-0.564183">
        <ele>503.896</ele>
        <time>2020-01-17T09:51:54Z</time>
      </trkpt>
      <trkpt lat="39.909418" lon="-0.564251">
        <ele>506.572</ele>
        <time>2020-01-17T09:51:56Z</time>
      </trkpt>
      <trkpt lat="39.909456" lon="-0.564359">
        <ele>506.246</ele>
        <time>2020-01-17T09:51:59Z</time>
      </trkpt>
      <trkpt lat="39.909491" lon="-0.56446">
        <ele>507.388</ele>
        <time>2020-01-17T09:52:02Z</time>
      </trkpt>
      <trkpt lat="39.909494" lon="-0.564542">
        <ele>507.716</ele>
        <time>2020-01-17T09:52:04Z</time>
      </trkpt>
      <trkpt lat="39.909499" lon="-0.564662">
        <ele>507.954</ele>
        <time>2020-01-17T09:52:08Z</time>
      </trkpt>
      <trkpt lat="39.909516" lon="-0.564728">
        <ele>507.5</ele>
        <time>2020-01-17T09:52:10Z</time>
      </trkpt>
      <trkpt lat="39.909577" lon="-0.56486">
        <ele>506.852</ele>
        <time>2020-01-17T09:52:14Z</time>
      </trkpt>
      <trkpt lat="39.909598" lon="-0.56492">
        <ele>506.44</ele>
        <time>2020-01-17T09:52:16Z</time>
      </trkpt>
      <trkpt lat="39.909634" lon="-0.564972">
        <ele>505.933</ele>
        <time>2020-01-17T09:52:18Z</time>
      </trkpt>
      <trkpt lat="39.909695" lon="-0.565051">
        <ele>507.901</ele>
        <time>2020-01-17T09:52:21Z</time>
      </trkpt>
      <trkpt lat="39.909708" lon="-0.565161">
        <ele>508.892</ele>
        <time>2020-01-17T09:52:24Z</time>
      </trkpt>
      <trkpt lat="39.909707" lon="-0.565241">
        <ele>509.279</ele>
        <time>2020-01-17T09:52:26Z</time>
      </trkpt>
      <trkpt lat="39.909707" lon="-0.565283">
        <ele>508.96</ele>
        <time>2020-01-17T09:52:27Z</time>
      </trkpt>
      <trkpt lat="39.909709" lon="-0.565322">
        <ele>511.567</ele>
        <time>2020-01-17T09:52:28Z</time>
      </trkpt>
      <trkpt lat="39.909728" lon="-0.565406">
        <ele>512.187</ele>
        <time>2020-01-17T09:52:30Z</time>
      </trkpt>
      <trkpt lat="39.909762" lon="-0.565561">
        <ele>508.97</ele>
        <time>2020-01-17T09:52:34Z</time>
      </trkpt>
      <trkpt lat="39.909793" lon="-0.565644">
        <ele>508.597</ele>
        <time>2020-01-17T09:52:37Z</time>
      </trkpt>
      <trkpt lat="39.909807" lon="-0.565711">
        <ele>510.006</ele>
        <time>2020-01-17T09:52:39Z</time>
      </trkpt>
      <trkpt lat="39.909816" lon="-0.565789">
        <ele>511.678</ele>
        <time>2020-01-17T09:52:41Z</time>
      </trkpt>
      <trkpt lat="39.909865" lon="-0.565937">
        <ele>511.977</ele>
        <time>2020-01-17T09:52:45Z</time>
      </trkpt>
      <trkpt lat="39.909872" lon="-0.565998">
        <ele>514.872</ele>
        <time>2020-01-17T09:52:47Z</time>
      </trkpt>
      <trkpt lat="39.909877" lon="-0.566056">
        <ele>513.673</ele>
        <time>2020-01-17T09:52:49Z</time>
      </trkpt>
      <trkpt lat="39.909897" lon="-0.566184">
        <ele>511.37</ele>
        <time>2020-01-17T09:52:54Z</time>
      </trkpt>
      <trkpt lat="39.909904" lon="-0.566241">
        <ele>514.419</ele>
        <time>2020-01-17T09:52:56Z</time>
      </trkpt>
      <trkpt lat="39.909913" lon="-0.566292">
        <ele>515.116</ele>
        <time>2020-01-17T09:52:58Z</time>
      </trkpt>
      <trkpt lat="39.909961" lon="-0.566398">
        <ele>515.887</ele>
        <time>2020-01-17T09:53:02Z</time>
      </trkpt>
      <trkpt lat="39.909986" lon="-0.566471">
        <ele>515.725</ele>
        <time>2020-01-17T09:53:04Z</time>
      </trkpt>
      <trkpt lat="39.910003" lon="-0.566517">
        <ele>514.621</ele>
        <time>2020-01-17T09:53:05Z</time>
      </trkpt>
      <trkpt lat="39.910026" lon="-0.566596">
        <ele>515.055</ele>
        <time>2020-01-17T09:53:07Z</time>
      </trkpt>
      <trkpt lat="39.910038" lon="-0.566636">
        <ele>517.545</ele>
        <time>2020-01-17T09:53:08Z</time>
      </trkpt>
      <trkpt lat="39.910048" lon="-0.566671">
        <ele>518.817</ele>
        <time>2020-01-17T09:53:09Z</time>
      </trkpt>
      <trkpt lat="39.910071" lon="-0.566772">
        <ele>519.663</ele>
        <time>2020-01-17T09:53:12Z</time>
      </trkpt>
      <trkpt lat="39.910068" lon="-0.566901">
        <ele>520.512</ele>
        <time>2020-01-17T09:53:16Z</time>
      </trkpt>
      <trkpt lat="39.910017" lon="-0.566994">
        <ele>521.139</ele>
        <time>2020-01-17T09:53:20Z</time>
      </trkpt>
      <trkpt lat="39.909996" lon="-0.567055">
        <ele>522.113</ele>
        <time>2020-01-17T09:53:22Z</time>
      </trkpt>
      <trkpt lat="39.909982" lon="-0.567125">
        <ele>520.44</ele>
        <time>2020-01-17T09:53:24Z</time>
      </trkpt>
      <trkpt lat="39.909978" lon="-0.567188">
        <ele>520.21</ele>
        <time>2020-01-17T09:53:26Z</time>
      </trkpt>
      <trkpt lat="39.909995" lon="-0.56725">
        <ele>521.794</ele>
        <time>2020-01-17T09:53:28Z</time>
      </trkpt>
      <trkpt lat="39.910036" lon="-0.567317">
        <ele>522.229</ele>
        <time>2020-01-17T09:53:30Z</time>
      </trkpt>
      <trkpt lat="39.910084" lon="-0.567385">
        <ele>526.854</ele>
        <time>2020-01-17T09:53:32Z</time>
      </trkpt>
      <trkpt lat="39.910118" lon="-0.567441">
        <ele>527.139</ele>
        <time>2020-01-17T09:53:34Z</time>
      </trkpt>
      <trkpt lat="39.910175" lon="-0.567488">
        <ele>527.561</ele>
        <time>2020-01-17T09:53:37Z</time>
      </trkpt>
      <trkpt lat="39.910272" lon="-0.567535">
        <ele>527.339</ele>
        <time>2020-01-17T09:53:40Z</time>
      </trkpt>
      <trkpt lat="39.910338" lon="-0.567583">
        <ele>526.545</ele>
        <time>2020-01-17T09:53:42Z</time>
      </trkpt>
      <trkpt lat="39.910414" lon="-0.567629">
        <ele>525.041</ele>
        <time>2020-01-17T09:53:44Z</time>
      </trkpt>
      <trkpt lat="39.910449" lon="-0.567653">
        <ele>524.084</ele>
        <time>2020-01-17T09:53:45Z</time>
      </trkpt>
      <trkpt lat="39.910564" lon="-0.567771">
        <ele>523.795</ele>
        <time>2020-01-17T09:53:49Z</time>
      </trkpt>
      <trkpt lat="39.910632" lon="-0.567858">
        <ele>526.958</ele>
        <time>2020-01-17T09:53:52Z</time>
      </trkpt>
      <trkpt lat="39.910669" lon="-0.567934">
        <ele>525.132</ele>
        <time>2020-01-17T09:53:54Z</time>
      </trkpt>
      <trkpt lat="39.910692" lon="-0.568017">
        <ele>526.712</ele>
        <time>2020-01-17T09:53:56Z</time>
      </trkpt>
      <trkpt lat="39.910753" lon="-0.568151">
        <ele>525.971</ele>
        <time>2020-01-17T09:53:59Z</time>
      </trkpt>
      <trkpt lat="39.910781" lon="-0.568197">
        <ele>526.074</ele>
        <time>2020-01-17T09:54:00Z</time>
      </trkpt>
      <trkpt lat="39.910832" lon="-0.568278">
        <ele>527.351</ele>
        <time>2020-01-17T09:54:02Z</time>
      </trkpt>
      <trkpt lat="39.910863" lon="-0.56835">
        <ele>528.371</ele>
        <time>2020-01-17T09:54:04Z</time>
      </trkpt>
      <trkpt lat="39.910877" lon="-0.568383">
        <ele>528.733</ele>
        <time>2020-01-17T09:54:05Z</time>
      </trkpt>
      <trkpt lat="39.910918" lon="-0.568457">
        <ele>530.581</ele>
        <time>2020-01-17T09:54:07Z</time>
      </trkpt>
      <trkpt lat="39.910933" lon="-0.568483">
        <ele>530.887</ele>
        <time>2020-01-17T09:54:08Z</time>
      </trkpt>
      <trkpt lat="39.910913" lon="-0.56856">
        <ele>528.643</ele>
        <time>2020-01-17T09:54:12Z</time>
      </trkpt>
      <trkpt lat="39.910955" lon="-0.56862">
        <ele>528.651</ele>
        <time>2020-01-17T09:54:17Z</time>
      </trkpt>
      <trkpt lat="39.910972" lon="-0.568641">
        <ele>527.585</ele>
        <time>2020-01-17T09:54:18Z</time>
      </trkpt>
      <trkpt lat="39.911043" lon="-0.568712">
        <ele>525.484</ele>
        <time>2020-01-17T09:54:21Z</time>
      </trkpt>
      <trkpt lat="39.911102" lon="-0.568755">
        <ele>524.419</ele>
        <time>2020-01-17T09:54:23Z</time>
      </trkpt>
      <trkpt lat="39.911166" lon="-0.568896">
        <ele>526.826</ele>
        <time>2020-01-17T09:54:27Z</time>
      </trkpt>
      <trkpt lat="39.911172" lon="-0.568967">
        <ele>527.738</ele>
        <time>2020-01-17T09:54:29Z</time>
      </trkpt>
      <trkpt lat="39.911171" lon="-0.569036">
        <ele>526.644</ele>
        <time>2020-01-17T09:54:31Z</time>
      </trkpt>
      <trkpt lat="39.911179" lon="-0.569096">
        <ele>529.335</ele>
        <time>2020-01-17T09:54:33Z</time>
      </trkpt>
      <trkpt lat="39.911225" lon="-0.569193">
        <ele>530.164</ele>
        <time>2020-01-17T09:54:36Z</time>
      </trkpt>
      <trkpt lat="39.91126" lon="-0.569249">
        <ele>532.093</ele>
        <time>2020-01-17T09:54:38Z</time>
      </trkpt>
      <trkpt lat="39.911301" lon="-0.569308">
        <ele>532.78</ele>
        <time>2020-01-17T09:54:41Z</time>
      </trkpt>
      <trkpt lat="39.911372" lon="-0.569357">
        <ele>532.81</ele>
        <time>2020-01-17T09:54:45Z</time>
      </trkpt>
      <trkpt lat="39.911428" lon="-0.569397">
        <ele>534.76</ele>
        <time>2020-01-17T09:54:48Z</time>
      </trkpt>
      <trkpt lat="39.911474" lon="-0.569427">
        <ele>535.266</ele>
        <time>2020-01-17T09:54:52Z</time>
      </trkpt>
      <trkpt lat="39.91152" lon="-0.569467">
        <ele>537.932</ele>
        <time>2020-01-17T09:54:55Z</time>
      </trkpt>
      <trkpt lat="39.911585" lon="-0.569538">
        <ele>538.953</ele>
        <time>2020-01-17T09:54:58Z</time>
      </trkpt>
      <trkpt lat="39.911629" lon="-0.569587">
        <ele>540.437</ele>
        <time>2020-01-17T09:55:00Z</time>
      </trkpt>
      <trkpt lat="39.911653" lon="-0.569614">
        <ele>537.59</ele>
        <time>2020-01-17T09:55:01Z</time>
      </trkpt>
      <trkpt lat="39.9117" lon="-0.56967">
        <ele>537.647</ele>
        <time>2020-01-17T09:55:03Z</time>
      </trkpt>
      <trkpt lat="39.911764" lon="-0.56974">
        <ele>536.996</ele>
        <time>2020-01-17T09:55:05Z</time>
      </trkpt>
      <trkpt lat="39.91183" lon="-0.569821">
        <ele>536.592</ele>
        <time>2020-01-17T09:55:07Z</time>
      </trkpt>
      <trkpt lat="39.911871" lon="-0.569891">
        <ele>539.03</ele>
        <time>2020-01-17T09:55:09Z</time>
      </trkpt>
      <trkpt lat="39.91192" lon="-0.569944">
        <ele>539.611</ele>
        <time>2020-01-17T09:55:11Z</time>
      </trkpt>
      <trkpt lat="39.911951" lon="-0.569974">
        <ele>538.734</ele>
        <time>2020-01-17T09:55:12Z</time>
      </trkpt>
      <trkpt lat="39.91204" lon="-0.57004">
        <ele>538.595</ele>
        <time>2020-01-17T09:55:15Z</time>
      </trkpt>
      <trkpt lat="39.912073" lon="-0.570065">
        <ele>540.405</ele>
        <time>2020-01-17T09:55:16Z</time>
      </trkpt>
      <trkpt lat="39.912126" lon="-0.570112">
        <ele>540.688</ele>
        <time>2020-01-17T09:55:18Z</time>
      </trkpt>
      <trkpt lat="39.912156" lon="-0.570161">
        <ele>540.977</ele>
        <time>2020-01-17T09:55:20Z</time>
      </trkpt>
      <trkpt lat="39.912173" lon="-0.570276">
        <ele>541.185</ele>
        <time>2020-01-17T09:55:24Z</time>
      </trkpt>
      <trkpt lat="39.912168" lon="-0.570369">
        <ele>543.172</ele>
        <time>2020-01-17T09:55:27Z</time>
      </trkpt>
      <trkpt lat="39.912249" lon="-0.570529">
        <ele>543.46</ele>
        <time>2020-01-17T09:55:32Z</time>
      </trkpt>
      <trkpt lat="39.912326" lon="-0.570609">
        <ele>544.982</ele>
        <time>2020-01-17T09:55:34Z</time>
      </trkpt>
      <trkpt lat="39.912398" lon="-0.570655">
        <ele>546.249</ele>
        <time>2020-01-17T09:55:36Z</time>
      </trkpt>
      <trkpt lat="39.912438" lon="-0.570718">
        <ele>543.276</ele>
        <time>2020-01-17T09:55:38Z</time>
      </trkpt>
      <trkpt lat="39.912388" lon="-0.570828">
        <ele>540.356</ele>
        <time>2020-01-17T09:55:40Z</time>
      </trkpt>
      <trkpt lat="39.912357" lon="-0.570882">
        <ele>539.783</ele>
        <time>2020-01-17T09:55:41Z</time>
      </trkpt>
      <trkpt lat="39.912338" lon="-0.570982">
        <ele>538.603</ele>
        <time>2020-01-17T09:55:43Z</time>
      </trkpt>
      <trkpt lat="39.912347" lon="-0.571053">
        <ele>539.87</ele>
        <time>2020-01-17T09:55:45Z</time>
      </trkpt>
      <trkpt lat="39.912371" lon="-0.57111">
        <ele>538.625</ele>
        <time>2020-01-17T09:55:47Z</time>
      </trkpt>
      <trkpt lat="39.912402" lon="-0.571159">
        <ele>538.949</ele>
        <time>2020-01-17T09:55:49Z</time>
      </trkpt>
      <trkpt lat="39.912422" lon="-0.571193">
        <ele>541.014</ele>
        <time>2020-01-17T09:55:51Z</time>
      </trkpt>
      <trkpt lat="39.912434" lon="-0.571272">
        <ele>541.219</ele>
        <time>2020-01-17T09:55:54Z</time>
      </trkpt>
      <trkpt lat="39.912418" lon="-0.571332">
        <ele>540.256</ele>
        <time>2020-01-17T09:55:56Z</time>
      </trkpt>
      <trkpt lat="39.912423" lon="-0.571425">
        <ele>540.984</ele>
        <time>2020-01-17T09:55:59Z</time>
      </trkpt>
      <trkpt lat="39.912457" lon="-0.571468">
        <ele>543.105</ele>
        <time>2020-01-17T09:56:01Z</time>
      </trkpt>
      <trkpt lat="39.912476" lon="-0.57149">
        <ele>543.435</ele>
        <time>2020-01-17T09:56:02Z</time>
      </trkpt>
      <trkpt lat="39.912497" lon="-0.571512">
        <ele>545.212</ele>
        <time>2020-01-17T09:56:03Z</time>
      </trkpt>
      <trkpt lat="39.912526" lon="-0.571562">
        <ele>545.286</ele>
        <time>2020-01-17T09:56:05Z</time>
      </trkpt>
      <trkpt lat="39.912551" lon="-0.571617">
        <ele>544.097</ele>
        <time>2020-01-17T09:56:07Z</time>
      </trkpt>
      <trkpt lat="39.912547" lon="-0.571677">
        <ele>543.363</ele>
        <time>2020-01-17T09:56:11Z</time>
      </trkpt>
      <trkpt lat="39.912543" lon="-0.571709">
        <ele>541.071</ele>
        <time>2020-01-17T09:56:13Z</time>
      </trkpt>
      <trkpt lat="39.912543" lon="-0.571709">
        <ele>541.067</ele>
        <time>2020-01-17T09:56:22Z</time>
      </trkpt>
      <trkpt lat="39.912543" lon="-0.571709">
        <ele>539.801</ele>
        <time>2020-01-17T09:56:31Z</time>
      </trkpt>
      <trkpt lat="39.912603" lon="-0.57189">
        <ele>539.904</ele>
        <time>2020-01-17T09:56:31Z</time>
      </trkpt>
      <trkpt lat="39.912641" lon="-0.571984">
        <ele>541.747</ele>
        <time>2020-01-17T09:56:34Z</time>
      </trkpt>
      <trkpt lat="39.912641" lon="-0.572049">
        <ele>541.385</ele>
        <time>2020-01-17T09:56:36Z</time>
      </trkpt>
      <trkpt lat="39.91261" lon="-0.572221">
        <ele>541.915</ele>
        <time>2020-01-17T09:56:40Z</time>
      </trkpt>
      <trkpt lat="39.912597" lon="-0.572332">
        <ele>543.871</ele>
        <time>2020-01-17T09:56:43Z</time>
      </trkpt>
      <trkpt lat="39.91265" lon="-0.572364">
        <ele>543.916</ele>
        <time>2020-01-17T09:56:45Z</time>
      </trkpt>
      <trkpt lat="39.912758" lon="-0.572319">
        <ele>543.641</ele>
        <time>2020-01-17T09:56:48Z</time>
      </trkpt>
      <trkpt lat="39.912821" lon="-0.572278">
        <ele>542.989</ele>
        <time>2020-01-17T09:56:50Z</time>
      </trkpt>
      <trkpt lat="39.912847" lon="-0.572258">
        <ele>547.041</ele>
        <time>2020-01-17T09:56:51Z</time>
      </trkpt>
      <trkpt lat="39.912887" lon="-0.572224">
        <ele>547.465</ele>
        <time>2020-01-17T09:56:53Z</time>
      </trkpt>
      <trkpt lat="39.912924" lon="-0.57218">
        <ele>546.9</ele>
        <time>2020-01-17T09:56:55Z</time>
      </trkpt>
      <trkpt lat="39.912942" lon="-0.572158">
        <ele>546.706</ele>
        <time>2020-01-17T09:56:56Z</time>
      </trkpt>
      <trkpt lat="39.912977" lon="-0.572106">
        <ele>546.035</ele>
        <time>2020-01-17T09:56:58Z</time>
      </trkpt>
      <trkpt lat="39.913023" lon="-0.572058">
        <ele>546.303</ele>
        <time>2020-01-17T09:57:00Z</time>
      </trkpt>
      <trkpt lat="39.913085" lon="-0.572013">
        <ele>547.905</ele>
        <time>2020-01-17T09:57:02Z</time>
      </trkpt>
      <trkpt lat="39.913154" lon="-0.57196">
        <ele>548.088</ele>
        <time>2020-01-17T09:57:04Z</time>
      </trkpt>
      <trkpt lat="39.913183" lon="-0.571939">
        <ele>548.35</ele>
        <time>2020-01-17T09:57:05Z</time>
      </trkpt>
      <trkpt lat="39.913207" lon="-0.57192">
        <ele>546.702</ele>
        <time>2020-01-17T09:57:06Z</time>
      </trkpt>
      <trkpt lat="39.91323" lon="-0.5719">
        <ele>547.53</ele>
        <time>2020-01-17T09:57:07Z</time>
      </trkpt>
      <trkpt lat="39.913256" lon="-0.571878">
        <ele>545.768</ele>
        <time>2020-01-17T09:57:08Z</time>
      </trkpt>
      <trkpt lat="39.913288" lon="-0.571855">
        <ele>544.993</ele>
        <time>2020-01-17T09:57:09Z</time>
      </trkpt>
      <trkpt lat="39.913322" lon="-0.571828">
        <ele>543.86</ele>
        <time>2020-01-17T09:57:10Z</time>
      </trkpt>
      <trkpt lat="39.913391" lon="-0.571765">
        <ele>543.11</ele>
        <time>2020-01-17T09:57:12Z</time>
      </trkpt>
      <trkpt lat="39.913459" lon="-0.571704">
        <ele>543.361</ele>
        <time>2020-01-17T09:57:14Z</time>
      </trkpt>
      <trkpt lat="39.913569" lon="-0.571622">
        <ele>543.345</ele>
        <time>2020-01-17T09:57:15Z</time>
      </trkpt>
      <trkpt lat="39.913614" lon="-0.571575">
        <ele>543.532</ele>
        <time>2020-01-17T09:57:17Z</time>
      </trkpt>
      <trkpt lat="39.913661" lon="-0.571549">
        <ele>546.848</ele>
        <time>2020-01-17T09:57:19Z</time>
      </trkpt>
      <trkpt lat="39.913755" lon="-0.571478">
        <ele>550.025</ele>
        <time>2020-01-17T09:57:22Z</time>
      </trkpt>
      <trkpt lat="39.91378" lon="-0.571456">
        <ele>550.291</ele>
        <time>2020-01-17T09:57:23Z</time>
      </trkpt>
      <trkpt lat="39.913847" lon="-0.571423">
        <ele>550.28</ele>
        <time>2020-01-17T09:57:25Z</time>
      </trkpt>
      <trkpt lat="39.913897" lon="-0.571398">
        <ele>550.978</ele>
        <time>2020-01-17T09:57:27Z</time>
      </trkpt>
      <trkpt lat="39.913966" lon="-0.571355">
        <ele>550.902</ele>
        <time>2020-01-17T09:57:29Z</time>
      </trkpt>
      <trkpt lat="39.914037" lon="-0.571323">
        <ele>548.098</ele>
        <time>2020-01-17T09:57:32Z</time>
      </trkpt>
      <trkpt lat="39.91412" lon="-0.571321">
        <ele>549.164</ele>
        <time>2020-01-17T09:57:36Z</time>
      </trkpt>
      <trkpt lat="39.914176" lon="-0.571298">
        <ele>549.342</ele>
        <time>2020-01-17T09:57:39Z</time>
      </trkpt>
      <trkpt lat="39.914199" lon="-0.571287">
        <ele>554.162</ele>
        <time>2020-01-17T09:57:40Z</time>
      </trkpt>
      <trkpt lat="39.914224" lon="-0.571276">
        <ele>553.32</ele>
        <time>2020-01-17T09:57:41Z</time>
      </trkpt>
      <trkpt lat="39.914279" lon="-0.571261">
        <ele>552.488</ele>
        <time>2020-01-17T09:57:43Z</time>
      </trkpt>
      <trkpt lat="39.914312" lon="-0.571254">
        <ele>553.347</ele>
        <time>2020-01-17T09:57:44Z</time>
      </trkpt>
      <trkpt lat="39.914348" lon="-0.571249">
        <ele>553.276</ele>
        <time>2020-01-17T09:57:45Z</time>
      </trkpt>
      <trkpt lat="39.914426" lon="-0.57124">
        <ele>549.298</ele>
        <time>2020-01-17T09:57:47Z</time>
      </trkpt>
      <trkpt lat="39.91446" lon="-0.571236">
        <ele>547.574</ele>
        <time>2020-01-17T09:57:48Z</time>
      </trkpt>
      <trkpt lat="39.914498" lon="-0.571229">
        <ele>549.338</ele>
        <time>2020-01-17T09:57:49Z</time>
      </trkpt>
      <trkpt lat="39.914535" lon="-0.57122">
        <ele>550.568</ele>
        <time>2020-01-17T09:57:50Z</time>
      </trkpt>
      <trkpt lat="39.914574" lon="-0.571212">
        <ele>550.946</ele>
        <time>2020-01-17T09:57:51Z</time>
      </trkpt>
      <trkpt lat="39.914692" lon="-0.571208">
        <ele>555.122</ele>
        <time>2020-01-17T09:57:54Z</time>
      </trkpt>
      <trkpt lat="39.914793" lon="-0.571215">
        <ele>561.146</ele>
        <time>2020-01-17T09:57:57Z</time>
      </trkpt>
      <trkpt lat="39.914847" lon="-0.571206">
        <ele>559.637</ele>
        <time>2020-01-17T09:57:59Z</time>
      </trkpt>
      <trkpt lat="39.914875" lon="-0.571199">
        <ele>558.812</ele>
        <time>2020-01-17T09:58:00Z</time>
      </trkpt>
      <trkpt lat="39.914995" lon="-0.57119">
        <ele>558.034</ele>
        <time>2020-01-17T09:58:03Z</time>
      </trkpt>
      <trkpt lat="39.915041" lon="-0.57119">
        <ele>557.676</ele>
        <time>2020-01-17T09:58:04Z</time>
      </trkpt>
      <trkpt lat="39.915147" lon="-0.571185">
        <ele>558.952</ele>
        <time>2020-01-17T09:58:07Z</time>
      </trkpt>
      <trkpt lat="39.91527" lon="-0.571172">
        <ele>559.83</ele>
        <time>2020-01-17T09:58:10Z</time>
      </trkpt>
      <trkpt lat="39.915315" lon="-0.571167">
        <ele>558.804</ele>
        <time>2020-01-17T09:58:11Z</time>
      </trkpt>
      <trkpt lat="39.915355" lon="-0.571162">
        <ele>561.295</ele>
        <time>2020-01-17T09:58:12Z</time>
      </trkpt>
      <trkpt lat="39.915386" lon="-0.571156">
        <ele>556.728</ele>
        <time>2020-01-17T09:58:13Z</time>
      </trkpt>
      <trkpt lat="39.915415" lon="-0.571154">
        <ele>557.645</ele>
        <time>2020-01-17T09:58:14Z</time>
      </trkpt>
      <trkpt lat="39.915585" lon="-0.571162">
        <ele>560.873</ele>
        <time>2020-01-17T09:58:18Z</time>
      </trkpt>
      <trkpt lat="39.915613" lon="-0.571165">
        <ele>562.183</ele>
        <time>2020-01-17T09:58:19Z</time>
      </trkpt>
      <trkpt lat="39.915668" lon="-0.571177">
        <ele>562.73</ele>
        <time>2020-01-17T09:58:21Z</time>
      </trkpt>
      <trkpt lat="39.915745" lon="-0.571217">
        <ele>564.443</ele>
        <time>2020-01-17T09:58:24Z</time>
      </trkpt>
      <trkpt lat="39.915805" lon="-0.57124">
        <ele>565.875</ele>
        <time>2020-01-17T09:58:26Z</time>
      </trkpt>
      <trkpt lat="39.915839" lon="-0.571256">
        <ele>566.45</ele>
        <time>2020-01-17T09:58:27Z</time>
      </trkpt>
      <trkpt lat="39.915873" lon="-0.571275">
        <ele>567.972</ele>
        <time>2020-01-17T09:58:28Z</time>
      </trkpt>
      <trkpt lat="39.915951" lon="-0.571315">
        <ele>568.388</ele>
        <time>2020-01-17T09:58:30Z</time>
      </trkpt>
      <trkpt lat="39.916035" lon="-0.571352">
        <ele>568.924</ele>
        <time>2020-01-17T09:58:32Z</time>
      </trkpt>
      <trkpt lat="39.916082" lon="-0.571375">
        <ele>569.211</ele>
        <time>2020-01-17T09:58:33Z</time>
      </trkpt>
      <trkpt lat="39.91615" lon="-0.571416">
        <ele>567.663</ele>
        <time>2020-01-17T09:58:35Z</time>
      </trkpt>
      <trkpt lat="39.916191" lon="-0.571454">
        <ele>566.782</ele>
        <time>2020-01-17T09:58:37Z</time>
      </trkpt>
      <trkpt lat="39.916185" lon="-0.571516">
        <ele>566.013</ele>
        <time>2020-01-17T09:58:40Z</time>
      </trkpt>
      <trkpt lat="39.916101" lon="-0.571586">
        <ele>566.02</ele>
        <time>2020-01-17T09:58:44Z</time>
      </trkpt>
      <trkpt lat="39.916101" lon="-0.571586">
        <ele>566.686</ele>
        <time>2020-01-17T09:58:50Z</time>
      </trkpt>
      <trkpt lat="39.916101" lon="-0.571586">
        <ele>567.138</ele>
        <time>2020-01-17T10:02:06Z</time>
      </trkpt>
      <trkpt lat="39.916282" lon="-0.571618">
        <ele>567.63</ele>
        <time>2020-01-17T10:02:06Z</time>
      </trkpt>
      <trkpt lat="39.916367" lon="-0.571711">
        <ele>567.164</ele>
        <time>2020-01-17T10:02:09Z</time>
      </trkpt>
      <trkpt lat="39.916414" lon="-0.571737">
        <ele>567.427</ele>
        <time>2020-01-17T10:02:11Z</time>
      </trkpt>
      <trkpt lat="39.916467" lon="-0.571792">
        <ele>567.8</ele>
        <time>2020-01-17T10:02:13Z</time>
      </trkpt>
      <trkpt lat="39.916518" lon="-0.571853">
        <ele>568.663</ele>
        <time>2020-01-17T10:02:15Z</time>
      </trkpt>
      <trkpt lat="39.916539" lon="-0.571879">
        <ele>568.912</ele>
        <time>2020-01-17T10:02:17Z</time>
      </trkpt>
      <trkpt lat="39.916583" lon="-0.571921">
        <ele>569.401</ele>
        <time>2020-01-17T10:02:22Z</time>
      </trkpt>
      <trkpt lat="39.916611" lon="-0.571949">
        <ele>570.142</ele>
        <time>2020-01-17T10:02:24Z</time>
      </trkpt>
      <trkpt lat="39.916644" lon="-0.571978">
        <ele>570.749</ele>
        <time>2020-01-17T10:02:26Z</time>
      </trkpt>
      <trkpt lat="39.916695" lon="-0.572011">
        <ele>569.864</ele>
        <time>2020-01-17T10:02:28Z</time>
      </trkpt>
      <trkpt lat="39.916719" lon="-0.572026">
        <ele>568.497</ele>
        <time>2020-01-17T10:02:29Z</time>
      </trkpt>
      <trkpt lat="39.916742" lon="-0.572042">
        <ele>568.474</ele>
        <time>2020-01-17T10:02:30Z</time>
      </trkpt>
      <trkpt lat="39.916767" lon="-0.57206">
        <ele>569.182</ele>
        <time>2020-01-17T10:02:31Z</time>
      </trkpt>
      <trkpt lat="39.916789" lon="-0.572077">
        <ele>569.167</ele>
        <time>2020-01-17T10:02:32Z</time>
      </trkpt>
      <trkpt lat="39.91681" lon="-0.572094">
        <ele>569.221</ele>
        <time>2020-01-17T10:02:33Z</time>
      </trkpt>
      <trkpt lat="39.916832" lon="-0.572112">
        <ele>570.232</ele>
        <time>2020-01-17T10:02:34Z</time>
      </trkpt>
      <trkpt lat="39.916853" lon="-0.572128">
        <ele>570.252</ele>
        <time>2020-01-17T10:02:35Z</time>
      </trkpt>
      <trkpt lat="39.916901" lon="-0.572176">
        <ele>569.847</ele>
        <time>2020-01-17T10:02:37Z</time>
      </trkpt>
      <trkpt lat="39.916944" lon="-0.57222">
        <ele>567.318</ele>
        <time>2020-01-17T10:02:39Z</time>
      </trkpt>
      <trkpt lat="39.916987" lon="-0.572261">
        <ele>568.233</ele>
        <time>2020-01-17T10:02:41Z</time>
      </trkpt>
      <trkpt lat="39.917033" lon="-0.572298">
        <ele>569.237</ele>
        <time>2020-01-17T10:02:43Z</time>
      </trkpt>
      <trkpt lat="39.917096" lon="-0.572357">
        <ele>567.649</ele>
        <time>2020-01-17T10:02:45Z</time>
      </trkpt>
      <trkpt lat="39.917141" lon="-0.572401">
        <ele>567.815</ele>
        <time>2020-01-17T10:02:46Z</time>
      </trkpt>
      <trkpt lat="39.917255" lon="-0.572536">
        <ele>568.916</ele>
        <time>2020-01-17T10:02:49Z</time>
      </trkpt>
      <trkpt lat="39.917286" lon="-0.572579">
        <ele>571.855</ele>
        <time>2020-01-17T10:02:50Z</time>
      </trkpt>
      <trkpt lat="39.917316" lon="-0.572618">
        <ele>571.997</ele>
        <time>2020-01-17T10:02:51Z</time>
      </trkpt>
      <trkpt lat="39.917338" lon="-0.572647">
        <ele>573.725</ele>
        <time>2020-01-17T10:02:52Z</time>
      </trkpt>
      <trkpt lat="39.917357" lon="-0.57267">
        <ele>573.125</ele>
        <time>2020-01-17T10:02:53Z</time>
      </trkpt>
      <trkpt lat="39.917397" lon="-0.572727">
        <ele>572.019</ele>
        <time>2020-01-17T10:02:55Z</time>
      </trkpt>
      <trkpt lat="39.917425" lon="-0.572764">
        <ele>572.754</ele>
        <time>2020-01-17T10:02:56Z</time>
      </trkpt>
      <trkpt lat="39.917451" lon="-0.572799">
        <ele>571.495</ele>
        <time>2020-01-17T10:02:57Z</time>
      </trkpt>
      <trkpt lat="39.91748" lon="-0.572865">
        <ele>573.207</ele>
        <time>2020-01-17T10:02:59Z</time>
      </trkpt>
      <trkpt lat="39.917494" lon="-0.572897">
        <ele>572.864</ele>
        <time>2020-01-17T10:03:00Z</time>
      </trkpt>
      <trkpt lat="39.917508" lon="-0.572925">
        <ele>573.411</ele>
        <time>2020-01-17T10:03:01Z</time>
      </trkpt>
      <trkpt lat="39.917541" lon="-0.572979">
        <ele>574.002</ele>
        <time>2020-01-17T10:03:03Z</time>
      </trkpt>
      <trkpt lat="39.917565" lon="-0.573037">
        <ele>575.981</ele>
        <time>2020-01-17T10:03:05Z</time>
      </trkpt>
      <trkpt lat="39.91758" lon="-0.573105">
        <ele>576.33</ele>
        <time>2020-01-17T10:03:07Z</time>
      </trkpt>
      <trkpt lat="39.917622" lon="-0.573216">
        <ele>576.571</ele>
        <time>2020-01-17T10:03:10Z</time>
      </trkpt>
      <trkpt lat="39.917656" lon="-0.573284">
        <ele>576.56</ele>
        <time>2020-01-17T10:03:12Z</time>
      </trkpt>
      <trkpt lat="39.917686" lon="-0.57336">
        <ele>577.071</ele>
        <time>2020-01-17T10:03:14Z</time>
      </trkpt>
      <trkpt lat="39.917699" lon="-0.573393">
        <ele>579.056</ele>
        <time>2020-01-17T10:03:15Z</time>
      </trkpt>
      <trkpt lat="39.91771" lon="-0.573422">
        <ele>581.029</ele>
        <time>2020-01-17T10:03:16Z</time>
      </trkpt>
      <trkpt lat="39.917736" lon="-0.573479">
        <ele>581.534</ele>
        <time>2020-01-17T10:03:18Z</time>
      </trkpt>
      <trkpt lat="39.917789" lon="-0.573569">
        <ele>582.721</ele>
        <time>2020-01-17T10:03:22Z</time>
      </trkpt>
      <trkpt lat="39.917881" lon="-0.573691">
        <ele>583.074</ele>
        <time>2020-01-17T10:03:27Z</time>
      </trkpt>
      <trkpt lat="39.917917" lon="-0.573762">
        <ele>582.692</ele>
        <time>2020-01-17T10:03:29Z</time>
      </trkpt>
      <trkpt lat="39.917942" lon="-0.573833">
        <ele>584.211</ele>
        <time>2020-01-17T10:03:31Z</time>
      </trkpt>
      <trkpt lat="39.917977" lon="-0.573897">
        <ele>581.218</ele>
        <time>2020-01-17T10:03:33Z</time>
      </trkpt>
      <trkpt lat="39.918039" lon="-0.573991">
        <ele>580.69</ele>
        <time>2020-01-17T10:03:36Z</time>
      </trkpt>
      <trkpt lat="39.918065" lon="-0.574071">
        <ele>580.616</ele>
        <time>2020-01-17T10:03:38Z</time>
      </trkpt>
      <trkpt lat="39.918074" lon="-0.574102">
        <ele>581.149</ele>
        <time>2020-01-17T10:03:39Z</time>
      </trkpt>
      <trkpt lat="39.918086" lon="-0.574146">
        <ele>581.567</ele>
        <time>2020-01-17T10:03:41Z</time>
      </trkpt>
      <trkpt lat="39.918136" lon="-0.574228">
        <ele>580.941</ele>
        <time>2020-01-17T10:03:44Z</time>
      </trkpt>
      <trkpt lat="39.918249" lon="-0.574339">
        <ele>579.765</ele>
        <time>2020-01-17T10:03:48Z</time>
      </trkpt>
      <trkpt lat="39.918302" lon="-0.574389">
        <ele>578.871</ele>
        <time>2020-01-17T10:03:50Z</time>
      </trkpt>
      <trkpt lat="39.91836" lon="-0.574424">
        <ele>578.751</ele>
        <time>2020-01-17T10:03:52Z</time>
      </trkpt>
      <trkpt lat="39.918423" lon="-0.574417">
        <ele>578.528</ele>
        <time>2020-01-17T10:03:54Z</time>
      </trkpt>
      <trkpt lat="39.918489" lon="-0.574384">
        <ele>579.038</ele>
        <time>2020-01-17T10:03:56Z</time>
      </trkpt>
      <trkpt lat="39.918546" lon="-0.574341">
        <ele>578.313</ele>
        <time>2020-01-17T10:03:58Z</time>
      </trkpt>
      <trkpt lat="39.918593" lon="-0.574292">
        <ele>578.24</ele>
        <time>2020-01-17T10:04:00Z</time>
      </trkpt>
      <trkpt lat="39.91862" lon="-0.574266">
        <ele>577.154</ele>
        <time>2020-01-17T10:04:01Z</time>
      </trkpt>
      <trkpt lat="39.918646" lon="-0.574239">
        <ele>577.108</ele>
        <time>2020-01-17T10:04:02Z</time>
      </trkpt>
      <trkpt lat="39.918684" lon="-0.574173">
        <ele>576.24</ele>
        <time>2020-01-17T10:04:04Z</time>
      </trkpt>
      <trkpt lat="39.918702" lon="-0.574139">
        <ele>575.933</ele>
        <time>2020-01-17T10:04:05Z</time>
      </trkpt>
      <trkpt lat="39.918719" lon="-0.574107">
        <ele>575.57</ele>
        <time>2020-01-17T10:04:06Z</time>
      </trkpt>
      <trkpt lat="39.918736" lon="-0.574077">
        <ele>575.374</ele>
        <time>2020-01-17T10:04:07Z</time>
      </trkpt>
      <trkpt lat="39.918755" lon="-0.574048">
        <ele>574.665</ele>
        <time>2020-01-17T10:04:08Z</time>
      </trkpt>
      <trkpt lat="39.918852" lon="-0.573931">
        <ele>574.518</ele>
        <time>2020-01-17T10:04:12Z</time>
      </trkpt>
      <trkpt lat="39.918884" lon="-0.573853">
        <ele>573.188</ele>
        <time>2020-01-17T10:04:14Z</time>
      </trkpt>
      <trkpt lat="39.918897" lon="-0.57381">
        <ele>572.923</ele>
        <time>2020-01-17T10:04:15Z</time>
      </trkpt>
      <trkpt lat="39.918928" lon="-0.57374">
        <ele>571.927</ele>
        <time>2020-01-17T10:04:17Z</time>
      </trkpt>
      <trkpt lat="39.918938" lon="-0.57371">
        <ele>571.948</ele>
        <time>2020-01-17T10:04:18Z</time>
      </trkpt>
      <trkpt lat="39.918958" lon="-0.57366">
        <ele>571.6</ele>
        <time>2020-01-17T10:04:20Z</time>
      </trkpt>
      <trkpt lat="39.918987" lon="-0.57361">
        <ele>571.477</ele>
        <time>2020-01-17T10:04:22Z</time>
      </trkpt>
      <trkpt lat="39.919034" lon="-0.573548">
        <ele>570.887</ele>
        <time>2020-01-17T10:04:24Z</time>
      </trkpt>
      <trkpt lat="39.919056" lon="-0.573524">
        <ele>569.709</ele>
        <time>2020-01-17T10:04:25Z</time>
      </trkpt>
      <trkpt lat="39.919076" lon="-0.573501">
        <ele>568.876</ele>
        <time>2020-01-17T10:04:26Z</time>
      </trkpt>
      <trkpt lat="39.919099" lon="-0.573472">
        <ele>567.058</ele>
        <time>2020-01-17T10:04:27Z</time>
      </trkpt>
      <trkpt lat="39.919099" lon="-0.573472">
        <ele>566.63</ele>
        <time>2020-01-17T10:04:34Z</time>
      </trkpt>
      <trkpt lat="39.919099" lon="-0.573472">
        <ele>566.869</ele>
        <time>2020-01-17T10:04:39Z</time>
      </trkpt>
      <trkpt lat="39.919161" lon="-0.573583">
        <ele>566.398</ele>
        <time>2020-01-17T10:04:39Z</time>
      </trkpt>
      <trkpt lat="39.919038" lon="-0.573686">
        <ele>565.893</ele>
        <time>2020-01-17T10:04:43Z</time>
      </trkpt>
      <trkpt lat="39.918996" lon="-0.573737">
        <ele>565.146</ele>
        <time>2020-01-17T10:04:45Z</time>
      </trkpt>
      <trkpt lat="39.918967" lon="-0.57377">
        <ele>564.815</ele>
        <time>2020-01-17T10:04:46Z</time>
      </trkpt>
      <trkpt lat="39.918919" lon="-0.573858">
        <ele>563.955</ele>
        <time>2020-01-17T10:04:48Z</time>
      </trkpt>
      <trkpt lat="39.918897" lon="-0.57391">
        <ele>563.791</ele>
        <time>2020-01-17T10:04:49Z</time>
      </trkpt>
      <trkpt lat="39.918868" lon="-0.573962">
        <ele>562.543</ele>
        <time>2020-01-17T10:04:50Z</time>
      </trkpt>
      <trkpt lat="39.918835" lon="-0.574014">
        <ele>562.608</ele>
        <time>2020-01-17T10:04:51Z</time>
      </trkpt>
      <trkpt lat="39.918804" lon="-0.574063">
        <ele>562.485</ele>
        <time>2020-01-17T10:04:52Z</time>
      </trkpt>
      <trkpt lat="39.918708" lon="-0.574213">
        <ele>562.704</ele>
        <time>2020-01-17T10:04:55Z</time>
      </trkpt>
      <trkpt lat="39.918581" lon="-0.574392">
        <ele>561.854</ele>
        <time>2020-01-17T10:04:59Z</time>
      </trkpt>
      <trkpt lat="39.918532" lon="-0.574424">
        <ele>561.742</ele>
        <time>2020-01-17T10:05:00Z</time>
      </trkpt>
      <trkpt lat="39.918439" lon="-0.574445">
        <ele>561.717</ele>
        <time>2020-01-17T10:05:02Z</time>
      </trkpt>
      <trkpt lat="39.918393" lon="-0.57444">
        <ele>562.326</ele>
        <time>2020-01-17T10:05:03Z</time>
      </trkpt>
      <trkpt lat="39.918339" lon="-0.574431">
        <ele>561.383</ele>
        <time>2020-01-17T10:05:04Z</time>
      </trkpt>
      <trkpt lat="39.918276" lon="-0.574386">
        <ele>561.304</ele>
        <time>2020-01-17T10:05:05Z</time>
      </trkpt>
      <trkpt lat="39.918217" lon="-0.574335">
        <ele>560.656</ele>
        <time>2020-01-17T10:05:06Z</time>
      </trkpt>
      <trkpt lat="39.918155" lon="-0.574268">
        <ele>560.15</ele>
        <time>2020-01-17T10:05:07Z</time>
      </trkpt>
      <trkpt lat="39.918111" lon="-0.574194">
        <ele>558.791</ele>
        <time>2020-01-17T10:05:08Z</time>
      </trkpt>
      <trkpt lat="39.918076" lon="-0.574123">
        <ele>558.701</ele>
        <time>2020-01-17T10:05:09Z</time>
      </trkpt>
      <trkpt lat="39.91804" lon="-0.574045">
        <ele>550.844</ele>
        <time>2020-01-17T10:05:10Z</time>
      </trkpt>
      <trkpt lat="39.917998" lon="-0.573967">
        <ele>549.11</ele>
        <time>2020-01-17T10:05:11Z</time>
      </trkpt>
      <trkpt lat="39.917955" lon="-0.57388">
        <ele>549.221</ele>
        <time>2020-01-17T10:05:12Z</time>
      </trkpt>
      <trkpt lat="39.917919" lon="-0.573781">
        <ele>548.659</ele>
        <time>2020-01-17T10:05:13Z</time>
      </trkpt>
      <trkpt lat="39.917877" lon="-0.573686">
        <ele>549.386</ele>
        <time>2020-01-17T10:05:14Z</time>
      </trkpt>
      <trkpt lat="39.917831" lon="-0.57359">
        <ele>549.267</ele>
        <time>2020-01-17T10:05:15Z</time>
      </trkpt>
      <trkpt lat="39.917801" lon="-0.573496">
        <ele>549.455</ele>
        <time>2020-01-17T10:05:16Z</time>
      </trkpt>
      <trkpt lat="39.917757" lon="-0.5734">
        <ele>549.428</ele>
        <time>2020-01-17T10:05:17Z</time>
      </trkpt>
      <trkpt lat="39.917714" lon="-0.573312">
        <ele>548.795</ele>
        <time>2020-01-17T10:05:18Z</time>
      </trkpt>
      <trkpt lat="39.917674" lon="-0.57323">
        <ele>548.079</ele>
        <time>2020-01-17T10:05:19Z</time>
      </trkpt>
      <trkpt lat="39.917626" lon="-0.573145">
        <ele>549.625</ele>
        <time>2020-01-17T10:05:20Z</time>
      </trkpt>
      <trkpt lat="39.917577" lon="-0.573061">
        <ele>549.234</ele>
        <time>2020-01-17T10:05:21Z</time>
      </trkpt>
      <trkpt lat="39.917536" lon="-0.57298">
        <ele>547.885</ele>
        <time>2020-01-17T10:05:22Z</time>
      </trkpt>
      <trkpt lat="39.91748" lon="-0.572892">
        <ele>547.909</ele>
        <time>2020-01-17T10:05:23Z</time>
      </trkpt>
      <trkpt lat="39.917438" lon="-0.572811">
        <ele>549.104</ele>
        <time>2020-01-17T10:05:24Z</time>
      </trkpt>
      <trkpt lat="39.917401" lon="-0.572751">
        <ele>549.788</ele>
        <time>2020-01-17T10:05:25Z</time>
      </trkpt>
      <trkpt lat="39.917344" lon="-0.572692">
        <ele>549.451</ele>
        <time>2020-01-17T10:05:26Z</time>
      </trkpt>
      <trkpt lat="39.91729" lon="-0.572627">
        <ele>550.143</ele>
        <time>2020-01-17T10:05:27Z</time>
      </trkpt>
      <trkpt lat="39.917236" lon="-0.572565">
        <ele>550.583</ele>
        <time>2020-01-17T10:05:28Z</time>
      </trkpt>
      <trkpt lat="39.917178" lon="-0.572505">
        <ele>550.29</ele>
        <time>2020-01-17T10:05:29Z</time>
      </trkpt>
      <trkpt lat="39.917123" lon="-0.572453">
        <ele>550.629</ele>
        <time>2020-01-17T10:05:30Z</time>
      </trkpt>
      <trkpt lat="39.917071" lon="-0.572397">
        <ele>549.066</ele>
        <time>2020-01-17T10:05:31Z</time>
      </trkpt>
      <trkpt lat="39.917009" lon="-0.572353">
        <ele>548.26</ele>
        <time>2020-01-17T10:05:32Z</time>
      </trkpt>
      <trkpt lat="39.91684" lon="-0.572199">
        <ele>547.615</ele>
        <time>2020-01-17T10:05:35Z</time>
      </trkpt>
      <trkpt lat="39.916784" lon="-0.572149">
        <ele>548.617</ele>
        <time>2020-01-17T10:05:36Z</time>
      </trkpt>
      <trkpt lat="39.916727" lon="-0.572101">
        <ele>547.908</ele>
        <time>2020-01-17T10:05:37Z</time>
      </trkpt>
      <trkpt lat="39.916668" lon="-0.572041">
        <ele>546.51</ele>
        <time>2020-01-17T10:05:38Z</time>
      </trkpt>
      <trkpt lat="39.916611" lon="-0.571979">
        <ele>547.482</ele>
        <time>2020-01-17T10:05:39Z</time>
      </trkpt>
      <trkpt lat="39.916563" lon="-0.571927">
        <ele>547.473</ele>
        <time>2020-01-17T10:05:40Z</time>
      </trkpt>
      <trkpt lat="39.916365" lon="-0.571709">
        <ele>547.778</ele>
        <time>2020-01-17T10:05:43Z</time>
      </trkpt>
      <trkpt lat="39.916206" lon="-0.571562">
        <ele>547.058</ele>
        <time>2020-01-17T10:05:46Z</time>
      </trkpt>
      <trkpt lat="39.916162" lon="-0.571518">
        <ele>545.591</ele>
        <time>2020-01-17T10:05:47Z</time>
      </trkpt>
      <trkpt lat="39.916097" lon="-0.571432">
        <ele>545.39</ele>
        <time>2020-01-17T10:05:49Z</time>
      </trkpt>
      <trkpt lat="39.916059" lon="-0.571397">
        <ele>545.465</ele>
        <time>2020-01-17T10:05:50Z</time>
      </trkpt>
      <trkpt lat="39.916024" lon="-0.571368">
        <ele>547.345</ele>
        <time>2020-01-17T10:05:51Z</time>
      </trkpt>
      <trkpt lat="39.915988" lon="-0.57134">
        <ele>548.012</ele>
        <time>2020-01-17T10:05:52Z</time>
      </trkpt>
      <trkpt lat="39.915915" lon="-0.571313">
        <ele>547.484</ele>
        <time>2020-01-17T10:05:54Z</time>
      </trkpt>
      <trkpt lat="39.915834" lon="-0.571295">
        <ele>548.701</ele>
        <time>2020-01-17T10:05:56Z</time>
      </trkpt>
      <trkpt lat="39.915797" lon="-0.57129">
        <ele>551.659</ele>
        <time>2020-01-17T10:05:57Z</time>
      </trkpt>
      <trkpt lat="39.91571" lon="-0.571291">
        <ele>552.654</ele>
        <time>2020-01-17T10:06:00Z</time>
      </trkpt>
      <trkpt lat="39.915638" lon="-0.571269">
        <ele>554.621</ele>
        <time>2020-01-17T10:06:03Z</time>
      </trkpt>
      <trkpt lat="39.915554" lon="-0.571271">
        <ele>551.913</ele>
        <time>2020-01-17T10:06:06Z</time>
      </trkpt>
      <trkpt lat="39.91548" lon="-0.571278">
        <ele>552.417</ele>
        <time>2020-01-17T10:06:07Z</time>
      </trkpt>
      <trkpt lat="39.915427" lon="-0.57128">
        <ele>548.079</ele>
        <time>2020-01-17T10:06:08Z</time>
      </trkpt>
      <trkpt lat="39.91536" lon="-0.571283">
        <ele>548.759</ele>
        <time>2020-01-17T10:06:09Z</time>
      </trkpt>
      <trkpt lat="39.915291" lon="-0.571285">
        <ele>548.881</ele>
        <time>2020-01-17T10:06:10Z</time>
      </trkpt>
      <trkpt lat="39.915229" lon="-0.571275">
        <ele>548.614</ele>
        <time>2020-01-17T10:06:11Z</time>
      </trkpt>
      <trkpt lat="39.915166" lon="-0.571275">
        <ele>549.254</ele>
        <time>2020-01-17T10:06:12Z</time>
      </trkpt>
      <trkpt lat="39.915106" lon="-0.571277">
        <ele>546.198</ele>
        <time>2020-01-17T10:06:13Z</time>
      </trkpt>
      <trkpt lat="39.915046" lon="-0.571295">
        <ele>545.988</ele>
        <time>2020-01-17T10:06:14Z</time>
      </trkpt>
      <trkpt lat="39.915008" lon="-0.571306">
        <ele>546.284</ele>
        <time>2020-01-17T10:06:15Z</time>
      </trkpt>
      <trkpt lat="39.914951" lon="-0.5713">
        <ele>547.544</ele>
        <time>2020-01-17T10:06:16Z</time>
      </trkpt>
      <trkpt lat="39.914906" lon="-0.571296">
        <ele>547.025</ele>
        <time>2020-01-17T10:06:17Z</time>
      </trkpt>
      <trkpt lat="39.914828" lon="-0.571299">
        <ele>548.454</ele>
        <time>2020-01-17T10:06:19Z</time>
      </trkpt>
      <trkpt lat="39.914796" lon="-0.571302">
        <ele>546.811</ele>
        <time>2020-01-17T10:06:20Z</time>
      </trkpt>
      <trkpt lat="39.914722" lon="-0.571296">
        <ele>547.553</ele>
        <time>2020-01-17T10:06:22Z</time>
      </trkpt>
      <trkpt lat="39.914688" lon="-0.57124">
        <ele>547.26</ele>
        <time>2020-01-17T10:06:24Z</time>
      </trkpt>
      <trkpt lat="39.91467" lon="-0.571181">
        <ele>547.539</ele>
        <time>2020-01-17T10:06:27Z</time>
      </trkpt>
      <trkpt lat="39.91467" lon="-0.571181">
        <ele>546.554</ele>
        <time>2020-01-17T10:06:32Z</time>
      </trkpt>
      <trkpt lat="39.91467" lon="-0.571181">
        <ele>546.643</ele>
        <time>2020-01-17T10:07:14Z</time>
      </trkpt>
      <trkpt lat="39.914519" lon="-0.57135">
        <ele>547.864</ele>
        <time>2020-01-17T10:07:14Z</time>
      </trkpt>
      <trkpt lat="39.914517" lon="-0.571465">
        <ele>547.553</ele>
        <time>2020-01-17T10:07:19Z</time>
      </trkpt>
      <trkpt lat="39.914532" lon="-0.571534">
        <ele>548.996</ele>
        <time>2020-01-17T10:07:21Z</time>
      </trkpt>
      <trkpt lat="39.914539" lon="-0.571569">
        <ele>549.371</ele>
        <time>2020-01-17T10:07:22Z</time>
      </trkpt>
      <trkpt lat="39.914543" lon="-0.5716">
        <ele>548.286</ele>
        <time>2020-01-17T10:07:23Z</time>
      </trkpt>
      <trkpt lat="39.914535" lon="-0.571658">
        <ele>547.781</ele>
        <time>2020-01-17T10:07:25Z</time>
      </trkpt>
      <trkpt lat="39.914529" lon="-0.571702">
        <ele>547.326</ele>
        <time>2020-01-17T10:07:26Z</time>
      </trkpt>
      <trkpt lat="39.914568" lon="-0.571812">
        <ele>546.764</ele>
        <time>2020-01-17T10:07:29Z</time>
      </trkpt>
      <trkpt lat="39.914579" lon="-0.571842">
        <ele>547.941</ele>
        <time>2020-01-17T10:07:31Z</time>
      </trkpt>
      <trkpt lat="39.914593" lon="-0.571912">
        <ele>549.265</ele>
        <time>2020-01-17T10:07:36Z</time>
      </trkpt>
      <trkpt lat="39.914613" lon="-0.572006">
        <ele>547.512</ele>
        <time>2020-01-17T10:07:39Z</time>
      </trkpt>
      <trkpt lat="39.914628" lon="-0.57208">
        <ele>547.96</ele>
        <time>2020-01-17T10:07:41Z</time>
      </trkpt>
      <trkpt lat="39.914696" lon="-0.57216">
        <ele>549.091</ele>
        <time>2020-01-17T10:07:49Z</time>
      </trkpt>
      <trkpt lat="39.91472" lon="-0.572213">
        <ele>549.713</ele>
        <time>2020-01-17T10:07:52Z</time>
      </trkpt>
      <trkpt lat="39.914737" lon="-0.572314">
        <ele>548.532</ele>
        <time>2020-01-17T10:07:55Z</time>
      </trkpt>
      <trkpt lat="39.914754" lon="-0.572403">
        <ele>547.837</ele>
        <time>2020-01-17T10:07:57Z</time>
      </trkpt>
      <trkpt lat="39.91476" lon="-0.572433">
        <ele>549.197</ele>
        <time>2020-01-17T10:07:58Z</time>
      </trkpt>
      <trkpt lat="39.914769" lon="-0.572472">
        <ele>548.491</ele>
        <time>2020-01-17T10:08:00Z</time>
      </trkpt>
      <trkpt lat="39.914779" lon="-0.572513">
        <ele>549.11</ele>
        <time>2020-01-17T10:08:02Z</time>
      </trkpt>
      <trkpt lat="39.914793" lon="-0.572563">
        <ele>549.137</ele>
        <time>2020-01-17T10:08:04Z</time>
      </trkpt>
      <trkpt lat="39.914803" lon="-0.572592">
        <ele>548.903</ele>
        <time>2020-01-17T10:08:05Z</time>
      </trkpt>
      <trkpt lat="39.914812" lon="-0.572621">
        <ele>548.431</ele>
        <time>2020-01-17T10:08:06Z</time>
      </trkpt>
      <trkpt lat="39.914824" lon="-0.572654">
        <ele>548.202</ele>
        <time>2020-01-17T10:08:07Z</time>
      </trkpt>
      <trkpt lat="39.914836" lon="-0.572685">
        <ele>547.869</ele>
        <time>2020-01-17T10:08:08Z</time>
      </trkpt>
      <trkpt lat="39.914876" lon="-0.572747">
        <ele>546.857</ele>
        <time>2020-01-17T10:08:11Z</time>
      </trkpt>
      <trkpt lat="39.914905" lon="-0.572796">
        <ele>546.84</ele>
        <time>2020-01-17T10:08:13Z</time>
      </trkpt>
      <trkpt lat="39.914922" lon="-0.572822">
        <ele>547.243</ele>
        <time>2020-01-17T10:08:14Z</time>
      </trkpt>
      <trkpt lat="39.914939" lon="-0.572848">
        <ele>547.513</ele>
        <time>2020-01-17T10:08:15Z</time>
      </trkpt>
      <trkpt lat="39.914956" lon="-0.572874">
        <ele>547.62</ele>
        <time>2020-01-17T10:08:16Z</time>
      </trkpt>
      <trkpt lat="39.91498" lon="-0.572909">
        <ele>548.155</ele>
        <time>2020-01-17T10:08:17Z</time>
      </trkpt>
      <trkpt lat="39.915005" lon="-0.572943">
        <ele>546.682</ele>
        <time>2020-01-17T10:08:18Z</time>
      </trkpt>
      <trkpt lat="39.915027" lon="-0.572972">
        <ele>546.172</ele>
        <time>2020-01-17T10:08:19Z</time>
      </trkpt>
      <trkpt lat="39.915048" lon="-0.572996">
        <ele>547.507</ele>
        <time>2020-01-17T10:08:20Z</time>
      </trkpt>
      <trkpt lat="39.91507" lon="-0.573025">
        <ele>549.717</ele>
        <time>2020-01-17T10:08:21Z</time>
      </trkpt>
      <trkpt lat="39.91509" lon="-0.573055">
        <ele>549.922</ele>
        <time>2020-01-17T10:08:22Z</time>
      </trkpt>
      <trkpt lat="39.915127" lon="-0.573135">
        <ele>550.264</ele>
        <time>2020-01-17T10:08:24Z</time>
      </trkpt>
      <trkpt lat="39.915147" lon="-0.573184">
        <ele>550.458</ele>
        <time>2020-01-17T10:08:25Z</time>
      </trkpt>
      <trkpt lat="39.91517" lon="-0.57323">
        <ele>551.251</ele>
        <time>2020-01-17T10:08:26Z</time>
      </trkpt>
      <trkpt lat="39.915195" lon="-0.573273">
        <ele>549.429</ele>
        <time>2020-01-17T10:08:27Z</time>
      </trkpt>
      <trkpt lat="39.915245" lon="-0.57334">
        <ele>551.805</ele>
        <time>2020-01-17T10:08:29Z</time>
      </trkpt>
      <trkpt lat="39.915289" lon="-0.57338">
        <ele>551.943</ele>
        <time>2020-01-17T10:08:31Z</time>
      </trkpt>
      <trkpt lat="39.915331" lon="-0.573426">
        <ele>555.437</ele>
        <time>2020-01-17T10:08:35Z</time>
      </trkpt>
      <trkpt lat="39.915379" lon="-0.57346">
        <ele>556.08</ele>
        <time>2020-01-17T10:08:38Z</time>
      </trkpt>
      <trkpt lat="39.915436" lon="-0.573506">
        <ele>554.455</ele>
        <time>2020-01-17T10:08:41Z</time>
      </trkpt>
      <trkpt lat="39.915473" lon="-0.573533">
        <ele>554.644</ele>
        <time>2020-01-17T10:08:43Z</time>
      </trkpt>
      <trkpt lat="39.915482" lon="-0.573595">
        <ele>549.527</ele>
        <time>2020-01-17T10:08:46Z</time>
      </trkpt>
      <trkpt lat="39.915482" lon="-0.573595">
        <ele>550.818</ele>
        <time>2020-01-17T10:08:54Z</time>
      </trkpt>
      <trkpt lat="39.915482" lon="-0.573595">
        <ele>551.479</ele>
        <time>2020-01-17T10:09:36Z</time>
      </trkpt>
      <trkpt lat="39.915623" lon="-0.573713">
        <ele>550.828</ele>
        <time>2020-01-17T10:09:36Z</time>
      </trkpt>
      <trkpt lat="39.91567" lon="-0.57376">
        <ele>550.363</ele>
        <time>2020-01-17T10:09:38Z</time>
      </trkpt>
      <trkpt lat="39.915702" lon="-0.573796">
        <ele>551.774</ele>
        <time>2020-01-17T10:09:39Z</time>
      </trkpt>
      <trkpt lat="39.915733" lon="-0.573835">
        <ele>550.804</ele>
        <time>2020-01-17T10:09:40Z</time>
      </trkpt>
      <trkpt lat="39.915772" lon="-0.57387">
        <ele>553.214</ele>
        <time>2020-01-17T10:09:42Z</time>
      </trkpt>
      <trkpt lat="39.915824" lon="-0.573902">
        <ele>556.068</ele>
        <time>2020-01-17T10:09:45Z</time>
      </trkpt>
      <trkpt lat="39.915885" lon="-0.573955">
        <ele>554.24</ele>
        <time>2020-01-17T10:09:48Z</time>
      </trkpt>
      <trkpt lat="39.915923" lon="-0.573992">
        <ele>553.933</ele>
        <time>2020-01-17T10:09:50Z</time>
      </trkpt>
      <trkpt lat="39.915946" lon="-0.574013">
        <ele>551.902</ele>
        <time>2020-01-17T10:09:51Z</time>
      </trkpt>
      <trkpt lat="39.915991" lon="-0.574049">
        <ele>553.437</ele>
        <time>2020-01-17T10:09:53Z</time>
      </trkpt>
      <trkpt lat="39.916011" lon="-0.574067">
        <ele>553.733</ele>
        <time>2020-01-17T10:09:54Z</time>
      </trkpt>
      <trkpt lat="39.916032" lon="-0.574089">
        <ele>553.389</ele>
        <time>2020-01-17T10:09:55Z</time>
      </trkpt>
      <trkpt lat="39.916055" lon="-0.57411">
        <ele>552.61</ele>
        <time>2020-01-17T10:09:56Z</time>
      </trkpt>
      <trkpt lat="39.916078" lon="-0.574133">
        <ele>553.514</ele>
        <time>2020-01-17T10:09:57Z</time>
      </trkpt>
      <trkpt lat="39.916102" lon="-0.574155">
        <ele>556.921</ele>
        <time>2020-01-17T10:09:58Z</time>
      </trkpt>
      <trkpt lat="39.916153" lon="-0.574205">
        <ele>556.387</ele>
        <time>2020-01-17T10:10:00Z</time>
      </trkpt>
      <trkpt lat="39.916196" lon="-0.574245">
        <ele>556.322</ele>
        <time>2020-01-17T10:10:02Z</time>
      </trkpt>
      <trkpt lat="39.916216" lon="-0.574263">
        <ele>555.651</ele>
        <time>2020-01-17T10:10:04Z</time>
      </trkpt>
      <trkpt lat="39.916256" lon="-0.574289">
        <ele>554.197</ele>
        <time>2020-01-17T10:10:08Z</time>
      </trkpt>
      <trkpt lat="39.916286" lon="-0.57431">
        <ele>553.562</ele>
        <time>2020-01-17T10:10:10Z</time>
      </trkpt>
      <trkpt lat="39.916313" lon="-0.574329">
        <ele>552.933</ele>
        <time>2020-01-17T10:10:11Z</time>
      </trkpt>
      <trkpt lat="39.916371" lon="-0.57437">
        <ele>552.963</ele>
        <time>2020-01-17T10:10:13Z</time>
      </trkpt>
      <trkpt lat="39.916392" lon="-0.574386">
        <ele>550.908</ele>
        <time>2020-01-17T10:10:14Z</time>
      </trkpt>
      <trkpt lat="39.916426" lon="-0.574416">
        <ele>553.637</ele>
        <time>2020-01-17T10:10:16Z</time>
      </trkpt>
      <trkpt lat="39.916462" lon="-0.574441">
        <ele>553.366</ele>
        <time>2020-01-17T10:10:18Z</time>
      </trkpt>
      <trkpt lat="39.916504" lon="-0.574472">
        <ele>555.531</ele>
        <time>2020-01-17T10:10:20Z</time>
      </trkpt>
      <trkpt lat="39.916568" lon="-0.574509">
        <ele>554.622</ele>
        <time>2020-01-17T10:10:23Z</time>
      </trkpt>
      <trkpt lat="39.91659" lon="-0.57452">
        <ele>554.354</ele>
        <time>2020-01-17T10:10:24Z</time>
      </trkpt>
      <trkpt lat="39.916641" lon="-0.574552">
        <ele>554.252</ele>
        <time>2020-01-17T10:10:26Z</time>
      </trkpt>
      <trkpt lat="39.916663" lon="-0.574567">
        <ele>553.98</ele>
        <time>2020-01-17T10:10:27Z</time>
      </trkpt>
      <trkpt lat="39.916725" lon="-0.574627">
        <ele>555.038</ele>
        <time>2020-01-17T10:10:29Z</time>
      </trkpt>
      <trkpt lat="39.916774" lon="-0.574675">
        <ele>555.602</ele>
        <time>2020-01-17T10:10:31Z</time>
      </trkpt>
      <trkpt lat="39.916821" lon="-0.574714">
        <ele>555.552</ele>
        <time>2020-01-17T10:10:33Z</time>
      </trkpt>
      <trkpt lat="39.916873" lon="-0.574755">
        <ele>561.073</ele>
        <time>2020-01-17T10:10:35Z</time>
      </trkpt>
      <trkpt lat="39.916958" lon="-0.574812">
        <ele>560.755</ele>
        <time>2020-01-17T10:10:38Z</time>
      </trkpt>
      <trkpt lat="39.91701" lon="-0.574843">
        <ele>560.654</ele>
        <time>2020-01-17T10:10:40Z</time>
      </trkpt>
      <trkpt lat="39.917063" lon="-0.574885">
        <ele>560.525</ele>
        <time>2020-01-17T10:10:42Z</time>
      </trkpt>
      <trkpt lat="39.917168" lon="-0.574951">
        <ele>560.714</ele>
        <time>2020-01-17T10:10:45Z</time>
      </trkpt>
      <trkpt lat="39.917234" lon="-0.574985">
        <ele>560.714</ele>
        <time>2020-01-17T10:10:47Z</time>
      </trkpt>
      <trkpt lat="39.917341" lon="-0.575027">
        <ele>560.714</ele>
        <time>2020-01-17T10:10:50Z</time>
      </trkpt>
      <trkpt lat="39.917455" lon="-0.575107">
        <ele>576.011</ele>
        <time>2020-01-17T10:10:53Z</time>
      </trkpt>
      <trkpt lat="39.917521" lon="-0.575149">
        <ele>573.1</ele>
        <time>2020-01-17T10:10:55Z</time>
      </trkpt>
      <trkpt lat="39.917563" lon="-0.57517">
        <ele>570.138</ele>
        <time>2020-01-17T10:10:57Z</time>
      </trkpt>
      <trkpt lat="39.917601" lon="-0.575217">
        <ele>572.957</ele>
        <time>2020-01-17T10:11:00Z</time>
      </trkpt>
      <trkpt lat="39.917644" lon="-0.575247">
        <ele>572.814</ele>
        <time>2020-01-17T10:11:02Z</time>
      </trkpt>
      <trkpt lat="39.917692" lon="-0.575273">
        <ele>577.728</ele>
        <time>2020-01-17T10:11:04Z</time>
      </trkpt>
      <trkpt lat="39.917738" lon="-0.575287">
        <ele>577.081</ele>
        <time>2020-01-17T10:11:06Z</time>
      </trkpt>
      <trkpt lat="39.917798" lon="-0.575283">
        <ele>577.318</ele>
        <time>2020-01-17T10:11:09Z</time>
      </trkpt>
      <trkpt lat="39.91786" lon="-0.575235">
        <ele>576.866</ele>
        <time>2020-01-17T10:11:12Z</time>
      </trkpt>
      <trkpt lat="39.917916" lon="-0.57521">
        <ele>578.201</ele>
        <time>2020-01-17T10:11:15Z</time>
      </trkpt>
      <trkpt lat="39.917962" lon="-0.5752">
        <ele>578.609</ele>
        <time>2020-01-17T10:11:17Z</time>
      </trkpt>
      <trkpt lat="39.918044" lon="-0.575204">
        <ele>577.664</ele>
        <time>2020-01-17T10:11:20Z</time>
      </trkpt>
      <trkpt lat="39.918093" lon="-0.575201">
        <ele>579.369</ele>
        <time>2020-01-17T10:11:22Z</time>
      </trkpt>
      <trkpt lat="39.918159" lon="-0.575168">
        <ele>579.026</ele>
        <time>2020-01-17T10:11:25Z</time>
      </trkpt>
      <trkpt lat="39.918233" lon="-0.575106">
        <ele>577.502</ele>
        <time>2020-01-17T10:11:29Z</time>
      </trkpt>
      <trkpt lat="39.918284" lon="-0.575081">
        <ele>578.582</ele>
        <time>2020-01-17T10:11:31Z</time>
      </trkpt>
      <trkpt lat="39.918398" lon="-0.575064">
        <ele>577.816</ele>
        <time>2020-01-17T10:11:35Z</time>
      </trkpt>
      <trkpt lat="39.918512" lon="-0.575039">
        <ele>577.275</ele>
        <time>2020-01-17T10:11:38Z</time>
      </trkpt>
      <trkpt lat="39.918575" lon="-0.575022">
        <ele>577.0</ele>
        <time>2020-01-17T10:11:40Z</time>
      </trkpt>
      <trkpt lat="39.918646" lon="-0.575013">
        <ele>577.242</ele>
        <time>2020-01-17T10:11:42Z</time>
      </trkpt>
      <trkpt lat="39.918713" lon="-0.574993">
        <ele>577.169</ele>
        <time>2020-01-17T10:11:44Z</time>
      </trkpt>
      <trkpt lat="39.918744" lon="-0.574985">
        <ele>577.427</ele>
        <time>2020-01-17T10:11:45Z</time>
      </trkpt>
      <trkpt lat="39.918841" lon="-0.574972">
        <ele>577.806</ele>
        <time>2020-01-17T10:11:48Z</time>
      </trkpt>
      <trkpt lat="39.918904" lon="-0.574955">
        <ele>578.556</ele>
        <time>2020-01-17T10:11:50Z</time>
      </trkpt>
      <trkpt lat="39.918935" lon="-0.574946">
        <ele>578.382</ele>
        <time>2020-01-17T10:11:51Z</time>
      </trkpt>
      <trkpt lat="39.918965" lon="-0.574934">
        <ele>579.91</ele>
        <time>2020-01-17T10:11:52Z</time>
      </trkpt>
      <trkpt lat="39.91909" lon="-0.574803">
        <ele>581.018</ele>
        <time>2020-01-17T10:11:57Z</time>
      </trkpt>
      <trkpt lat="39.919149" lon="-0.574692">
        <ele>580.219</ele>
        <time>2020-01-17T10:12:00Z</time>
      </trkpt>
      <trkpt lat="39.919198" lon="-0.574627">
        <ele>580.291</ele>
        <time>2020-01-17T10:12:02Z</time>
      </trkpt>
      <trkpt lat="39.919261" lon="-0.574529">
        <ele>580.051</ele>
        <time>2020-01-17T10:12:05Z</time>
      </trkpt>
      <trkpt lat="39.919261" lon="-0.574529">
        <ele>581.998</ele>
        <time>2020-01-17T10:12:11Z</time>
      </trkpt>
      <trkpt lat="39.919261" lon="-0.574529">
        <ele>580.97</ele>
        <time>2020-01-17T10:12:16Z</time>
      </trkpt>
      <trkpt lat="39.919291" lon="-0.574516">
        <ele>581.999</ele>
        <time>2020-01-17T10:12:16Z</time>
      </trkpt>
      <trkpt lat="39.919291" lon="-0.574516">
        <ele>581.902</ele>
        <time>2020-01-17T10:12:23Z</time>
      </trkpt>
      <trkpt lat="39.919291" lon="-0.574516">
        <ele>580.75</ele>
        <time>2020-01-17T10:12:23Z</time>
      </trkpt>
      <trkpt lat="39.919291" lon="-0.574516">
        <ele>580.399</ele>
        <time>2020-01-17T10:12:35Z</time>
      </trkpt>
      <trkpt lat="39.919291" lon="-0.574516">
        <ele>581.89</ele>
        <time>2020-01-17T10:18:30Z</time>
      </trkpt>
      <trkpt lat="39.922516" lon="-0.56858">
        <ele>582.291</ele>
        <time>2020-01-17T10:18:31Z</time>
      </trkpt>
      <trkpt lat="39.922958" lon="-0.567924">
        <ele>582.511</ele>
        <time>2020-01-17T10:18:51Z</time>
      </trkpt>
      <trkpt lat="39.922999" lon="-0.567879">
        <ele>583.034</ele>
        <time>2020-01-17T10:18:55Z</time>
      </trkpt>
      <trkpt lat="39.923036" lon="-0.567824">
        <ele>582.705</ele>
        <time>2020-01-17T10:18:57Z</time>
      </trkpt>
      <trkpt lat="39.923055" lon="-0.567797">
        <ele>585.394</ele>
        <time>2020-01-17T10:18:58Z</time>
      </trkpt>
      <trkpt lat="39.923108" lon="-0.567713">
        <ele>585.474</ele>
        <time>2020-01-17T10:19:01Z</time>
      </trkpt>
      <trkpt lat="39.923128" lon="-0.567679">
        <ele>585.649</ele>
        <time>2020-01-17T10:19:02Z</time>
      </trkpt>
      <trkpt lat="39.92315" lon="-0.567643">
        <ele>581.999</ele>
        <time>2020-01-17T10:19:03Z</time>
      </trkpt>
      <trkpt lat="39.923173" lon="-0.567609">
        <ele>581.892</ele>
        <time>2020-01-17T10:19:04Z</time>
      </trkpt>
      <trkpt lat="39.923196" lon="-0.567577">
        <ele>580.772</ele>
        <time>2020-01-17T10:19:05Z</time>
      </trkpt>
      <trkpt lat="39.923221" lon="-0.567541">
        <ele>582.409</ele>
        <time>2020-01-17T10:19:06Z</time>
      </trkpt>
      <trkpt lat="39.923243" lon="-0.567505">
        <ele>584.855</ele>
        <time>2020-01-17T10:19:07Z</time>
      </trkpt>
      <trkpt lat="39.923265" lon="-0.567466">
        <ele>584.268</ele>
        <time>2020-01-17T10:19:08Z</time>
      </trkpt>
      <trkpt lat="39.923289" lon="-0.567427">
        <ele>584.493</ele>
        <time>2020-01-17T10:19:09Z</time>
      </trkpt>
      <trkpt lat="39.923347" lon="-0.567302">
        <ele>584.452</ele>
        <time>2020-01-17T10:19:12Z</time>
      </trkpt>
      <trkpt lat="39.923393" lon="-0.567234">
        <ele>585.035</ele>
        <time>2020-01-17T10:19:14Z</time>
      </trkpt>
      <trkpt lat="39.923418" lon="-0.567198">
        <ele>585.106</ele>
        <time>2020-01-17T10:19:15Z</time>
      </trkpt>
      <trkpt lat="39.923444" lon="-0.567161">
        <ele>584.959</ele>
        <time>2020-01-17T10:19:16Z</time>
      </trkpt>
      <trkpt lat="39.923472" lon="-0.567128">
        <ele>584.983</ele>
        <time>2020-01-17T10:19:17Z</time>
      </trkpt>
      <trkpt lat="39.923545" lon="-0.567078">
        <ele>584.382</ele>
        <time>2020-01-17T10:19:19Z</time>
      </trkpt>
      <trkpt lat="39.923584" lon="-0.567056">
        <ele>585.814</ele>
        <time>2020-01-17T10:19:20Z</time>
      </trkpt>
      <trkpt lat="39.923619" lon="-0.567034">
        <ele>586.73</ele>
        <time>2020-01-17T10:19:21Z</time>
      </trkpt>
      <trkpt lat="39.923734" lon="-0.566958">
        <ele>587.531</ele>
        <time>2020-01-17T10:19:24Z</time>
      </trkpt>
      <trkpt lat="39.92377" lon="-0.566933">
        <ele>586.025</ele>
        <time>2020-01-17T10:19:25Z</time>
      </trkpt>
      <trkpt lat="39.923832" lon="-0.566881">
        <ele>582.308</ele>
        <time>2020-01-17T10:19:27Z</time>
      </trkpt>
      <trkpt lat="39.923858" lon="-0.566856">
        <ele>583.271</ele>
        <time>2020-01-17T10:19:28Z</time>
      </trkpt>
      <trkpt lat="39.923884" lon="-0.56683">
        <ele>582.717</ele>
        <time>2020-01-17T10:19:29Z</time>
      </trkpt>
      <trkpt lat="39.923968" lon="-0.566763">
        <ele>581.247</ele>
        <time>2020-01-17T10:19:32Z</time>
      </trkpt>
      <trkpt lat="39.923996" lon="-0.566741">
        <ele>580.052</ele>
        <time>2020-01-17T10:19:33Z</time>
      </trkpt>
      <trkpt lat="39.924053" lon="-0.566696">
        <ele>578.377</ele>
        <time>2020-01-17T10:19:35Z</time>
      </trkpt>
      <trkpt lat="39.924139" lon="-0.566642">
        <ele>578.745</ele>
        <time>2020-01-17T10:19:38Z</time>
      </trkpt>
      <trkpt lat="39.924191" lon="-0.566598">
        <ele>582.575</ele>
        <time>2020-01-17T10:19:40Z</time>
      </trkpt>
      <trkpt lat="39.924276" lon="-0.566527">
        <ele>583.315</ele>
        <time>2020-01-17T10:19:43Z</time>
      </trkpt>
      <trkpt lat="39.924303" lon="-0.566501">
        <ele>584.464</ele>
        <time>2020-01-17T10:19:44Z</time>
      </trkpt>
      <trkpt lat="39.924355" lon="-0.566463">
        <ele>584.955</ele>
        <time>2020-01-17T10:19:46Z</time>
      </trkpt>
      <trkpt lat="39.924404" lon="-0.566429">
        <ele>584.211</ele>
        <time>2020-01-17T10:19:48Z</time>
      </trkpt>
      <trkpt lat="39.924452" lon="-0.566384">
        <ele>583.212</ele>
        <time>2020-01-17T10:19:50Z</time>
      </trkpt>
      <trkpt lat="39.924476" lon="-0.566361">
        <ele>582.232</ele>
        <time>2020-01-17T10:19:51Z</time>
      </trkpt>
      <trkpt lat="39.924557" lon="-0.566287">
        <ele>582.902</ele>
        <time>2020-01-17T10:19:54Z</time>
      </trkpt>
      <trkpt lat="39.924591" lon="-0.56626">
        <ele>582.316</ele>
        <time>2020-01-17T10:19:55Z</time>
      </trkpt>
      <trkpt lat="39.924632" lon="-0.566232">
        <ele>581.695</ele>
        <time>2020-01-17T10:19:56Z</time>
      </trkpt>
      <trkpt lat="39.924755" lon="-0.566139">
        <ele>582.471</ele>
        <time>2020-01-17T10:19:59Z</time>
      </trkpt>
      <trkpt lat="39.924828" lon="-0.56609">
        <ele>582.561</ele>
        <time>2020-01-17T10:20:01Z</time>
      </trkpt>
      <trkpt lat="39.924889" lon="-0.566043">
        <ele>581.302</ele>
        <time>2020-01-17T10:20:03Z</time>
      </trkpt>
      <trkpt lat="39.924954" lon="-0.56599">
        <ele>579.76</ele>
        <time>2020-01-17T10:20:05Z</time>
      </trkpt>
      <trkpt lat="39.925049" lon="-0.565932">
        <ele>578.697</ele>
        <time>2020-01-17T10:20:08Z</time>
      </trkpt>
      <trkpt lat="39.925081" lon="-0.565912">
        <ele>579.374</ele>
        <time>2020-01-17T10:20:09Z</time>
      </trkpt>
      <trkpt lat="39.925152" lon="-0.565832">
        <ele>578.249</ele>
        <time>2020-01-17T10:20:12Z</time>
      </trkpt>
      <trkpt lat="39.925206" lon="-0.565787">
        <ele>576.163</ele>
        <time>2020-01-17T10:20:14Z</time>
      </trkpt>
      <trkpt lat="39.925262" lon="-0.565741">
        <ele>576.176</ele>
        <time>2020-01-17T10:20:16Z</time>
      </trkpt>
      <trkpt lat="39.925293" lon="-0.565716">
        <ele>578.404</ele>
        <time>2020-01-17T10:20:17Z</time>
      </trkpt>
      <trkpt lat="39.925322" lon="-0.565687">
        <ele>579.489</ele>
        <time>2020-01-17T10:20:18Z</time>
      </trkpt>
      <trkpt lat="39.92535" lon="-0.565662">
        <ele>579.103</ele>
        <time>2020-01-17T10:20:19Z</time>
      </trkpt>
      <trkpt lat="39.925433" lon="-0.565598">
        <ele>577.107</ele>
        <time>2020-01-17T10:20:22Z</time>
      </trkpt>
      <trkpt lat="39.925463" lon="-0.565575">
        <ele>577.738</ele>
        <time>2020-01-17T10:20:23Z</time>
      </trkpt>
      <trkpt lat="39.925492" lon="-0.565553">
        <ele>579.805</ele>
        <time>2020-01-17T10:20:24Z</time>
      </trkpt>
      <trkpt lat="39.925543" lon="-0.56551">
        <ele>580.106</ele>
        <time>2020-01-17T10:20:26Z</time>
      </trkpt>
      <trkpt lat="39.925596" lon="-0.565463">
        <ele>579.508</ele>
        <time>2020-01-17T10:20:28Z</time>
      </trkpt>
      <trkpt lat="39.925623" lon="-0.565437">
        <ele>581.379</ele>
        <time>2020-01-17T10:20:29Z</time>
      </trkpt>
      <trkpt lat="39.925641" lon="-0.565418">
        <ele>581.539</ele>
        <time>2020-01-17T10:20:30Z</time>
      </trkpt>
      <trkpt lat="39.925664" lon="-0.565397">
        <ele>581.81</ele>
        <time>2020-01-17T10:20:32Z</time>
      </trkpt>
      <trkpt lat="39.925717" lon="-0.565362">
        <ele>582.672</ele>
        <time>2020-01-17T10:20:35Z</time>
      </trkpt>
      <trkpt lat="39.925843" lon="-0.565276">
        <ele>582.6</ele>
        <time>2020-01-17T10:20:36Z</time>
      </trkpt>
      <trkpt lat="39.925944" lon="-0.565216">
        <ele>582.181</ele>
        <time>2020-01-17T10:20:39Z</time>
      </trkpt>
      <trkpt lat="39.925983" lon="-0.565122">
        <ele>583.825</ele>
        <time>2020-01-17T10:20:41Z</time>
      </trkpt>
      <trkpt lat="39.926044" lon="-0.56508">
        <ele>584.213</ele>
        <time>2020-01-17T10:20:43Z</time>
      </trkpt>
      <trkpt lat="39.926114" lon="-0.564985">
        <ele>585.074</ele>
        <time>2020-01-17T10:20:46Z</time>
      </trkpt>
      <trkpt lat="39.92616" lon="-0.56495">
        <ele>586.627</ele>
        <time>2020-01-17T10:20:48Z</time>
      </trkpt>
      <trkpt lat="39.926238" lon="-0.56487">
        <ele>585.927</ele>
        <time>2020-01-17T10:20:54Z</time>
      </trkpt>
      <trkpt lat="39.926279" lon="-0.564833">
        <ele>584.686</ele>
        <time>2020-01-17T10:20:56Z</time>
      </trkpt>
      <trkpt lat="39.926344" lon="-0.564747">
        <ele>584.2</ele>
        <time>2020-01-17T10:20:59Z</time>
      </trkpt>
      <trkpt lat="39.926366" lon="-0.564717">
        <ele>583.829</ele>
        <time>2020-01-17T10:21:00Z</time>
      </trkpt>
      <trkpt lat="39.92639" lon="-0.564685">
        <ele>582.89</ele>
        <time>2020-01-17T10:21:01Z</time>
      </trkpt>
      <trkpt lat="39.926454" lon="-0.564623">
        <ele>582.221</ele>
        <time>2020-01-17T10:21:03Z</time>
      </trkpt>
      <trkpt lat="39.926527" lon="-0.564578">
        <ele>581.428</ele>
        <time>2020-01-17T10:21:05Z</time>
      </trkpt>
      <trkpt lat="39.926609" lon="-0.564526">
        <ele>581.713</ele>
        <time>2020-01-17T10:21:07Z</time>
      </trkpt>
      <trkpt lat="39.926686" lon="-0.56446">
        <ele>582.003</ele>
        <time>2020-01-17T10:21:09Z</time>
      </trkpt>
      <trkpt lat="39.926745" lon="-0.564396">
        <ele>585.553</ele>
        <time>2020-01-17T10:21:11Z</time>
      </trkpt>
      <trkpt lat="39.926792" lon="-0.564335">
        <ele>584.76</ele>
        <time>2020-01-17T10:21:13Z</time>
      </trkpt>
      <trkpt lat="39.926813" lon="-0.564304">
        <ele>585.849</ele>
        <time>2020-01-17T10:21:14Z</time>
      </trkpt>
      <trkpt lat="39.92687" lon="-0.564268">
        <ele>586.359</ele>
        <time>2020-01-17T10:21:16Z</time>
      </trkpt>
      <trkpt lat="39.92694" lon="-0.564238">
        <ele>586.684</ele>
        <time>2020-01-17T10:21:18Z</time>
      </trkpt>
      <trkpt lat="39.927012" lon="-0.564196">
        <ele>585.406</ele>
        <time>2020-01-17T10:21:20Z</time>
      </trkpt>
      <trkpt lat="39.927045" lon="-0.564181">
        <ele>585.781</ele>
        <time>2020-01-17T10:21:21Z</time>
      </trkpt>
      <trkpt lat="39.92708" lon="-0.564163">
        <ele>586.48</ele>
        <time>2020-01-17T10:21:22Z</time>
      </trkpt>
      <trkpt lat="39.927113" lon="-0.564145">
        <ele>585.319</ele>
        <time>2020-01-17T10:21:23Z</time>
      </trkpt>
      <trkpt lat="39.92723" lon="-0.564012">
        <ele>585.32</ele>
        <time>2020-01-17T10:21:27Z</time>
      </trkpt>
      <trkpt lat="39.927349" lon="-0.563893">
        <ele>584.871</ele>
        <time>2020-01-17T10:21:31Z</time>
      </trkpt>
      <trkpt lat="39.927501" lon="-0.56382">
        <ele>586.039</ele>
        <time>2020-01-17T10:21:34Z</time>
      </trkpt>
      <trkpt lat="39.927547" lon="-0.563807">
        <ele>586.101</ele>
        <time>2020-01-17T10:21:35Z</time>
      </trkpt>
      <trkpt lat="39.927603" lon="-0.56379">
        <ele>585.915</ele>
        <time>2020-01-17T10:21:37Z</time>
      </trkpt>
      <trkpt lat="39.927647" lon="-0.563762">
        <ele>585.977</ele>
        <time>2020-01-17T10:21:38Z</time>
      </trkpt>
      <trkpt lat="39.927696" lon="-0.563727">
        <ele>585.093</ele>
        <time>2020-01-17T10:21:39Z</time>
      </trkpt>
      <trkpt lat="39.927771" lon="-0.563675">
        <ele>584.801</ele>
        <time>2020-01-17T10:21:41Z</time>
      </trkpt>
      <trkpt lat="39.927818" lon="-0.563652">
        <ele>585.053</ele>
        <time>2020-01-17T10:21:44Z</time>
      </trkpt>
      <trkpt lat="39.927895" lon="-0.563598">
        <ele>585.731</ele>
        <time>2020-01-17T10:21:47Z</time>
      </trkpt>
      <trkpt lat="39.927944" lon="-0.563558">
        <ele>586.24</ele>
        <time>2020-01-17T10:21:49Z</time>
      </trkpt>
      <trkpt lat="39.927965" lon="-0.563541">
        <ele>585.997</ele>
        <time>2020-01-17T10:21:50Z</time>
      </trkpt>
      <trkpt lat="39.928021" lon="-0.563498">
        <ele>583.756</ele>
        <time>2020-01-17T10:21:52Z</time>
      </trkpt>
      <trkpt lat="39.928048" lon="-0.563479">
        <ele>583.634</ele>
        <time>2020-01-17T10:21:53Z</time>
      </trkpt>
      <trkpt lat="39.928097" lon="-0.563428">
        <ele>583.844</ele>
        <time>2020-01-17T10:21:55Z</time>
      </trkpt>
      <trkpt lat="39.928147" lon="-0.563362">
        <ele>583.46</ele>
        <time>2020-01-17T10:21:57Z</time>
      </trkpt>
      <trkpt lat="39.928174" lon="-0.56333">
        <ele>584.095</ele>
        <time>2020-01-17T10:21:58Z</time>
      </trkpt>
      <trkpt lat="39.928226" lon="-0.563261">
        <ele>583.809</ele>
        <time>2020-01-17T10:22:00Z</time>
      </trkpt>
      <trkpt lat="39.928262" lon="-0.563194">
        <ele>583.908</ele>
        <time>2020-01-17T10:22:02Z</time>
      </trkpt>
      <trkpt lat="39.928281" lon="-0.563158">
        <ele>584.359</ele>
        <time>2020-01-17T10:22:03Z</time>
      </trkpt>
      <trkpt lat="39.928333" lon="-0.563077">
        <ele>584.714</ele>
        <time>2020-01-17T10:22:05Z</time>
      </trkpt>
      <trkpt lat="39.928367" lon="-0.563026">
        <ele>585.358</ele>
        <time>2020-01-17T10:22:06Z</time>
      </trkpt>
      <trkpt lat="39.928397" lon="-0.562971">
        <ele>586.157</ele>
        <time>2020-01-17T10:22:07Z</time>
      </trkpt>
      <trkpt lat="39.928426" lon="-0.562923">
        <ele>586.31</ele>
        <time>2020-01-17T10:22:08Z</time>
      </trkpt>
      <trkpt lat="39.928451" lon="-0.562874">
        <ele>587.079</ele>
        <time>2020-01-17T10:22:09Z</time>
      </trkpt>
      <trkpt lat="39.928474" lon="-0.562834">
        <ele>587.799</ele>
        <time>2020-01-17T10:22:10Z</time>
      </trkpt>
      <trkpt lat="39.928515" lon="-0.562758">
        <ele>588.396</ele>
        <time>2020-01-17T10:22:12Z</time>
      </trkpt>
      <trkpt lat="39.928532" lon="-0.562722">
        <ele>589.031</ele>
        <time>2020-01-17T10:22:14Z</time>
      </trkpt>
      <trkpt lat="39.928547" lon="-0.562656">
        <ele>589.245</ele>
        <time>2020-01-17T10:22:15Z</time>
      </trkpt>
      <trkpt lat="39.928557" lon="-0.562585">
        <ele>590.078</ele>
        <time>2020-01-17T10:22:18Z</time>
      </trkpt>
      <trkpt lat="39.928577" lon="-0.562517">
        <ele>589.743</ele>
        <time>2020-01-17T10:22:20Z</time>
      </trkpt>
      <trkpt lat="39.928589" lon="-0.56248">
        <ele>590.281</ele>
        <time>2020-01-17T10:22:21Z</time>
      </trkpt>
      <trkpt lat="39.9286" lon="-0.562437">
        <ele>590.582</ele>
        <time>2020-01-17T10:22:22Z</time>
      </trkpt>
      <trkpt lat="39.928617" lon="-0.562377">
        <ele>590.589</ele>
        <time>2020-01-17T10:22:23Z</time>
      </trkpt>
      <trkpt lat="39.928666" lon="-0.562184">
        <ele>590.762</ele>
        <time>2020-01-17T10:22:26Z</time>
      </trkpt>
      <trkpt lat="39.928687" lon="-0.562074">
        <ele>590.407</ele>
        <time>2020-01-17T10:22:28Z</time>
      </trkpt>
      <trkpt lat="39.928697" lon="-0.562036">
        <ele>590.504</ele>
        <time>2020-01-17T10:22:29Z</time>
      </trkpt>
      <trkpt lat="39.928705" lon="-0.562">
        <ele>591.857</ele>
        <time>2020-01-17T10:22:30Z</time>
      </trkpt>
      <trkpt lat="39.928711" lon="-0.561966">
        <ele>591.204</ele>
        <time>2020-01-17T10:22:32Z</time>
      </trkpt>
      <trkpt lat="39.928717" lon="-0.561883">
        <ele>590.053</ele>
        <time>2020-01-17T10:22:36Z</time>
      </trkpt>
      <trkpt lat="39.928717" lon="-0.561816">
        <ele>589.656</ele>
        <time>2020-01-17T10:22:38Z</time>
      </trkpt>
      <trkpt lat="39.928715" lon="-0.561739">
        <ele>589.729</ele>
        <time>2020-01-17T10:22:40Z</time>
      </trkpt>
      <trkpt lat="39.928713" lon="-0.561695">
        <ele>588.808</ele>
        <time>2020-01-17T10:22:41Z</time>
      </trkpt>
      <trkpt lat="39.928705" lon="-0.561596">
        <ele>588.96</ele>
        <time>2020-01-17T10:22:43Z</time>
      </trkpt>
      <trkpt lat="39.928698" lon="-0.561431">
        <ele>589.243</ele>
        <time>2020-01-17T10:22:46Z</time>
      </trkpt>
      <trkpt lat="39.928704" lon="-0.561159">
        <ele>589.596</ele>
        <time>2020-01-17T10:22:51Z</time>
      </trkpt>
      <trkpt lat="39.928703" lon="-0.561111">
        <ele>589.596</ele>
        <time>2020-01-17T10:22:52Z</time>
      </trkpt>
      <trkpt lat="39.928703" lon="-0.561066">
        <ele>589.092</ele>
        <time>2020-01-17T10:22:53Z</time>
      </trkpt>
      <trkpt lat="39.928702" lon="-0.561015">
        <ele>589.748</ele>
        <time>2020-01-17T10:22:54Z</time>
      </trkpt>
      <trkpt lat="39.928701" lon="-0.560886">
        <ele>589.541</ele>
        <time>2020-01-17T10:22:57Z</time>
      </trkpt>
      <trkpt lat="39.928702" lon="-0.560831">
        <ele>590.842</ele>
        <time>2020-01-17T10:22:58Z</time>
      </trkpt>
      <trkpt lat="39.928704" lon="-0.560756">
        <ele>590.936</ele>
        <time>2020-01-17T10:22:59Z</time>
      </trkpt>
      <trkpt lat="39.928704" lon="-0.560587">
        <ele>591.212</ele>
        <time>2020-01-17T10:23:02Z</time>
      </trkpt>
      <trkpt lat="39.928713" lon="-0.560504">
        <ele>591.479</ele>
        <time>2020-01-17T10:23:04Z</time>
      </trkpt>
      <trkpt lat="39.928718" lon="-0.56046">
        <ele>590.91</ele>
        <time>2020-01-17T10:23:05Z</time>
      </trkpt>
      <trkpt lat="39.928722" lon="-0.560417">
        <ele>590.594</ele>
        <time>2020-01-17T10:23:06Z</time>
      </trkpt>
      <trkpt lat="39.928718" lon="-0.560296">
        <ele>592.201</ele>
        <time>2020-01-17T10:23:10Z</time>
      </trkpt>
      <trkpt lat="39.928716" lon="-0.560256">
        <ele>588.176</ele>
        <time>2020-01-17T10:23:11Z</time>
      </trkpt>
      <trkpt lat="39.928709" lon="-0.56017">
        <ele>588.814</ele>
        <time>2020-01-17T10:23:13Z</time>
      </trkpt>
      <trkpt lat="39.928705" lon="-0.560128">
        <ele>589.847</ele>
        <time>2020-01-17T10:23:14Z</time>
      </trkpt>
      <trkpt lat="39.928702" lon="-0.560085">
        <ele>589.763</ele>
        <time>2020-01-17T10:23:15Z</time>
      </trkpt>
      <trkpt lat="39.928694" lon="-0.559993">
        <ele>591.161</ele>
        <time>2020-01-17T10:23:17Z</time>
      </trkpt>
      <trkpt lat="39.928686" lon="-0.559903">
        <ele>592.469</ele>
        <time>2020-01-17T10:23:19Z</time>
      </trkpt>
      <trkpt lat="39.928685" lon="-0.559858">
        <ele>591.29</ele>
        <time>2020-01-17T10:23:20Z</time>
      </trkpt>
      <trkpt lat="39.928684" lon="-0.559825">
        <ele>591.651</ele>
        <time>2020-01-17T10:23:21Z</time>
      </trkpt>
      <trkpt lat="39.928684" lon="-0.559786">
        <ele>591.645</ele>
        <time>2020-01-17T10:23:23Z</time>
      </trkpt>
      <trkpt lat="39.928682" lon="-0.559739">
        <ele>592.909</ele>
        <time>2020-01-17T10:23:25Z</time>
      </trkpt>
      <trkpt lat="39.92868" lon="-0.559709">
        <ele>591.469</ele>
        <time>2020-01-17T10:23:26Z</time>
      </trkpt>
      <trkpt lat="39.928679" lon="-0.559648">
        <ele>588.927</ele>
        <time>2020-01-17T10:23:28Z</time>
      </trkpt>
      <trkpt lat="39.928679" lon="-0.559617">
        <ele>589.518</ele>
        <time>2020-01-17T10:23:29Z</time>
      </trkpt>
      <trkpt lat="39.928678" lon="-0.559586">
        <ele>589.418</ele>
        <time>2020-01-17T10:23:30Z</time>
      </trkpt>
      <trkpt lat="39.928676" lon="-0.559556">
        <ele>590.292</ele>
        <time>2020-01-17T10:23:31Z</time>
      </trkpt>
      <trkpt lat="39.928675" lon="-0.55952">
        <ele>592.217</ele>
        <time>2020-01-17T10:23:32Z</time>
      </trkpt>
      <trkpt lat="39.928674" lon="-0.559487">
        <ele>591.59</ele>
        <time>2020-01-17T10:23:33Z</time>
      </trkpt>
      <trkpt lat="39.928673" lon="-0.559449">
        <ele>591.518</ele>
        <time>2020-01-17T10:23:34Z</time>
      </trkpt>
      <trkpt lat="39.928673" lon="-0.559403">
        <ele>588.105</ele>
        <time>2020-01-17T10:23:35Z</time>
      </trkpt>
      <trkpt lat="39.928674" lon="-0.559353">
        <ele>588.526</ele>
        <time>2020-01-17T10:23:36Z</time>
      </trkpt>
      <trkpt lat="39.928675" lon="-0.559304">
        <ele>589.021</ele>
        <time>2020-01-17T10:23:37Z</time>
      </trkpt>
      <trkpt lat="39.928675" lon="-0.559259">
        <ele>588.724</ele>
        <time>2020-01-17T10:23:38Z</time>
      </trkpt>
      <trkpt lat="39.928676" lon="-0.559204">
        <ele>588.399</ele>
        <time>2020-01-17T10:23:39Z</time>
      </trkpt>
      <trkpt lat="39.928677" lon="-0.559093">
        <ele>588.437</ele>
        <time>2020-01-17T10:23:41Z</time>
      </trkpt>
      <trkpt lat="39.928679" lon="-0.55894">
        <ele>588.527</ele>
        <time>2020-01-17T10:23:44Z</time>
      </trkpt>
      <trkpt lat="39.928667" lon="-0.558854">
        <ele>587.715</ele>
        <time>2020-01-17T10:23:46Z</time>
      </trkpt>
      <trkpt lat="39.928659" lon="-0.558816">
        <ele>587.146</ele>
        <time>2020-01-17T10:23:47Z</time>
      </trkpt>
      <trkpt lat="39.928655" lon="-0.558738">
        <ele>588.069</ele>
        <time>2020-01-17T10:23:49Z</time>
      </trkpt>
      <trkpt lat="39.928655" lon="-0.55869">
        <ele>586.877</ele>
        <time>2020-01-17T10:23:50Z</time>
      </trkpt>
      <trkpt lat="39.928656" lon="-0.558632">
        <ele>586.518</ele>
        <time>2020-01-17T10:23:51Z</time>
      </trkpt>
      <trkpt lat="39.928657" lon="-0.558576">
        <ele>585.311</ele>
        <time>2020-01-17T10:23:52Z</time>
      </trkpt>
      <trkpt lat="39.928658" lon="-0.558522">
        <ele>583.354</ele>
        <time>2020-01-17T10:23:53Z</time>
      </trkpt>
      <trkpt lat="39.928661" lon="-0.558474">
        <ele>583.208</ele>
        <time>2020-01-17T10:23:54Z</time>
      </trkpt>
      <trkpt lat="39.928665" lon="-0.558427">
        <ele>582.71</ele>
        <time>2020-01-17T10:23:55Z</time>
      </trkpt>
      <trkpt lat="39.928663" lon="-0.558334">
        <ele>582.958</ele>
        <time>2020-01-17T10:23:57Z</time>
      </trkpt>
      <trkpt lat="39.928661" lon="-0.558299">
        <ele>582.787</ele>
        <time>2020-01-17T10:23:58Z</time>
      </trkpt>
      <trkpt lat="39.928653" lon="-0.558216">
        <ele>580.845</ele>
        <time>2020-01-17T10:24:00Z</time>
      </trkpt>
      <trkpt lat="39.928665" lon="-0.558029">
        <ele>581.03</ele>
        <time>2020-01-17T10:24:03Z</time>
      </trkpt>
      <trkpt lat="39.92867" lon="-0.557946">
        <ele>581.57</ele>
        <time>2020-01-17T10:24:05Z</time>
      </trkpt>
      <trkpt lat="39.928669" lon="-0.557904">
        <ele>581.924</ele>
        <time>2020-01-17T10:24:06Z</time>
      </trkpt>
      <trkpt lat="39.928666" lon="-0.557837">
        <ele>583.193</ele>
        <time>2020-01-17T10:24:08Z</time>
      </trkpt>
      <trkpt lat="39.928663" lon="-0.557806">
        <ele>582.306</ele>
        <time>2020-01-17T10:24:09Z</time>
      </trkpt>
      <trkpt lat="39.92866" lon="-0.557773">
        <ele>581.311</ele>
        <time>2020-01-17T10:24:10Z</time>
      </trkpt>
      <trkpt lat="39.928657" lon="-0.557733">
        <ele>582.692</ele>
        <time>2020-01-17T10:24:11Z</time>
      </trkpt>
      <trkpt lat="39.928646" lon="-0.557646">
        <ele>582.642</ele>
        <time>2020-01-17T10:24:13Z</time>
      </trkpt>
      <trkpt lat="39.928641" lon="-0.557599">
        <ele>584.215</ele>
        <time>2020-01-17T10:24:14Z</time>
      </trkpt>
      <trkpt lat="39.928637" lon="-0.557456">
        <ele>584.569</ele>
        <time>2020-01-17T10:24:17Z</time>
      </trkpt>
      <trkpt lat="39.928642" lon="-0.557368">
        <ele>585.065</ele>
        <time>2020-01-17T10:24:19Z</time>
      </trkpt>
      <trkpt lat="39.928646" lon="-0.557271">
        <ele>586.113</ele>
        <time>2020-01-17T10:24:21Z</time>
      </trkpt>
      <trkpt lat="39.928646" lon="-0.557155">
        <ele>585.844</ele>
        <time>2020-01-17T10:24:23Z</time>
      </trkpt>
      <trkpt lat="39.92865" lon="-0.557052">
        <ele>586.717</ele>
        <time>2020-01-17T10:24:25Z</time>
      </trkpt>
      <trkpt lat="39.928651" lon="-0.557008">
        <ele>586.524</ele>
        <time>2020-01-17T10:24:26Z</time>
      </trkpt>
      <trkpt lat="39.928652" lon="-0.556941">
        <ele>587.032</ele>
        <time>2020-01-17T10:24:27Z</time>
      </trkpt>
      <trkpt lat="39.928651" lon="-0.556849">
        <ele>588.244</ele>
        <time>2020-01-17T10:24:29Z</time>
      </trkpt>
      <trkpt lat="39.928644" lon="-0.556756">
        <ele>589.434</ele>
        <time>2020-01-17T10:24:31Z</time>
      </trkpt>
      <trkpt lat="39.928652" lon="-0.556674">
        <ele>589.983</ele>
        <time>2020-01-17T10:24:33Z</time>
      </trkpt>
      <trkpt lat="39.928647" lon="-0.556572">
        <ele>590.711</ele>
        <time>2020-01-17T10:24:35Z</time>
      </trkpt>
      <trkpt lat="39.928635" lon="-0.556484">
        <ele>591.451</ele>
        <time>2020-01-17T10:24:37Z</time>
      </trkpt>
      <trkpt lat="39.928632" lon="-0.556419">
        <ele>592.253</ele>
        <time>2020-01-17T10:24:39Z</time>
      </trkpt>
      <trkpt lat="39.928631" lon="-0.556378">
        <ele>592.206</ele>
        <time>2020-01-17T10:24:41Z</time>
      </trkpt>
      <trkpt lat="39.928621" lon="-0.556283">
        <ele>594.324</ele>
        <time>2020-01-17T10:24:44Z</time>
      </trkpt>
      <trkpt lat="39.928617" lon="-0.556245">
        <ele>594.515</ele>
        <time>2020-01-17T10:24:45Z</time>
      </trkpt>
      <trkpt lat="39.928614" lon="-0.556201">
        <ele>593.992</ele>
        <time>2020-01-17T10:24:46Z</time>
      </trkpt>
      <trkpt lat="39.928611" lon="-0.556145">
        <ele>594.149</ele>
        <time>2020-01-17T10:24:47Z</time>
      </trkpt>
      <trkpt lat="39.928612" lon="-0.556076">
        <ele>593.824</ele>
        <time>2020-01-17T10:24:48Z</time>
      </trkpt>
      <trkpt lat="39.928614" lon="-0.555944">
        <ele>593.442</ele>
        <time>2020-01-17T10:24:50Z</time>
      </trkpt>
      <trkpt lat="39.928614" lon="-0.555886">
        <ele>593.099</ele>
        <time>2020-01-17T10:24:51Z</time>
      </trkpt>
      <trkpt lat="39.928616" lon="-0.555837">
        <ele>592.154</ele>
        <time>2020-01-17T10:24:52Z</time>
      </trkpt>
      <trkpt lat="39.928621" lon="-0.55579">
        <ele>593.204</ele>
        <time>2020-01-17T10:24:53Z</time>
      </trkpt>
      <trkpt lat="39.928626" lon="-0.555741">
        <ele>591.921</ele>
        <time>2020-01-17T10:24:54Z</time>
      </trkpt>
      <trkpt lat="39.928632" lon="-0.555695">
        <ele>591.582</ele>
        <time>2020-01-17T10:24:55Z</time>
      </trkpt>
      <trkpt lat="39.928642" lon="-0.555603">
        <ele>592.277</ele>
        <time>2020-01-17T10:24:57Z</time>
      </trkpt>
      <trkpt lat="39.928635" lon="-0.555505">
        <ele>590.769</ele>
        <time>2020-01-17T10:24:59Z</time>
      </trkpt>
      <trkpt lat="39.928632" lon="-0.555463">
        <ele>590.881</ele>
        <time>2020-01-17T10:25:00Z</time>
      </trkpt>
      <trkpt lat="39.928621" lon="-0.555387">
        <ele>589.76</ele>
        <time>2020-01-17T10:25:02Z</time>
      </trkpt>
      <trkpt lat="39.92862" lon="-0.555309">
        <ele>591.409</ele>
        <time>2020-01-17T10:25:04Z</time>
      </trkpt>
      <trkpt lat="39.928621" lon="-0.555268">
        <ele>591.059</ele>
        <time>2020-01-17T10:25:05Z</time>
      </trkpt>
      <trkpt lat="39.928623" lon="-0.555219">
        <ele>590.119</ele>
        <time>2020-01-17T10:25:06Z</time>
      </trkpt>
      <trkpt lat="39.928625" lon="-0.555167">
        <ele>590.342</ele>
        <time>2020-01-17T10:25:07Z</time>
      </trkpt>
      <trkpt lat="39.928627" lon="-0.555117">
        <ele>589.852</ele>
        <time>2020-01-17T10:25:08Z</time>
      </trkpt>
      <trkpt lat="39.928629" lon="-0.555019">
        <ele>590.292</ele>
        <time>2020-01-17T10:25:10Z</time>
      </trkpt>
      <trkpt lat="39.928628" lon="-0.55498">
        <ele>590.987</ele>
        <time>2020-01-17T10:25:11Z</time>
      </trkpt>
      <trkpt lat="39.928627" lon="-0.554937">
        <ele>591.177</ele>
        <time>2020-01-17T10:25:12Z</time>
      </trkpt>
      <trkpt lat="39.928627" lon="-0.554893">
        <ele>592.635</ele>
        <time>2020-01-17T10:25:13Z</time>
      </trkpt>
      <trkpt lat="39.928627" lon="-0.554795">
        <ele>593.757</ele>
        <time>2020-01-17T10:25:15Z</time>
      </trkpt>
      <trkpt lat="39.928625" lon="-0.554739">
        <ele>594.488</ele>
        <time>2020-01-17T10:25:16Z</time>
      </trkpt>
      <trkpt lat="39.928618" lon="-0.554641">
        <ele>595.399</ele>
        <time>2020-01-17T10:25:18Z</time>
      </trkpt>
      <trkpt lat="39.928614" lon="-0.554573">
        <ele>595.82</ele>
        <time>2020-01-17T10:25:20Z</time>
      </trkpt>
      <trkpt lat="39.928614" lon="-0.554541">
        <ele>595.453</ele>
        <time>2020-01-17T10:25:21Z</time>
      </trkpt>
      <trkpt lat="39.928614" lon="-0.55448">
        <ele>596.199</ele>
        <time>2020-01-17T10:25:23Z</time>
      </trkpt>
      <trkpt lat="39.928613" lon="-0.55445">
        <ele>595.818</ele>
        <time>2020-01-17T10:25:24Z</time>
      </trkpt>
      <trkpt lat="39.928612" lon="-0.55441">
        <ele>595.688</ele>
        <time>2020-01-17T10:25:25Z</time>
      </trkpt>
      <trkpt lat="39.92861" lon="-0.554362">
        <ele>597.039</ele>
        <time>2020-01-17T10:25:26Z</time>
      </trkpt>
      <trkpt lat="39.928609" lon="-0.55431">
        <ele>598.593</ele>
        <time>2020-01-17T10:25:27Z</time>
      </trkpt>
      <trkpt lat="39.928609" lon="-0.554218">
        <ele>598.449</ele>
        <time>2020-01-17T10:25:29Z</time>
      </trkpt>
      <trkpt lat="39.928607" lon="-0.554135">
        <ele>598.082</ele>
        <time>2020-01-17T10:25:31Z</time>
      </trkpt>
      <trkpt lat="39.928604" lon="-0.554094">
        <ele>597.577</ele>
        <time>2020-01-17T10:25:32Z</time>
      </trkpt>
      <trkpt lat="39.928601" lon="-0.554052">
        <ele>598.539</ele>
        <time>2020-01-17T10:25:33Z</time>
      </trkpt>
      <trkpt lat="39.928599" lon="-0.554004">
        <ele>597.823</ele>
        <time>2020-01-17T10:25:34Z</time>
      </trkpt>
      <trkpt lat="39.928596" lon="-0.553955">
        <ele>598.008</ele>
        <time>2020-01-17T10:25:35Z</time>
      </trkpt>
      <trkpt lat="39.928593" lon="-0.553906">
        <ele>597.179</ele>
        <time>2020-01-17T10:25:36Z</time>
      </trkpt>
      <trkpt lat="39.92859" lon="-0.553858">
        <ele>596.015</ele>
        <time>2020-01-17T10:25:37Z</time>
      </trkpt>
      <trkpt lat="39.928585" lon="-0.5538">
        <ele>595.684</ele>
        <time>2020-01-17T10:25:38Z</time>
      </trkpt>
      <trkpt lat="39.928583" lon="-0.553747">
        <ele>595.526</ele>
        <time>2020-01-17T10:25:39Z</time>
      </trkpt>
      <trkpt lat="39.928593" lon="-0.553633">
        <ele>594.855</ele>
        <time>2020-01-17T10:25:41Z</time>
      </trkpt>
      <trkpt lat="39.9286" lon="-0.553532">
        <ele>594.176</ele>
        <time>2020-01-17T10:25:43Z</time>
      </trkpt>
      <trkpt lat="39.928589" lon="-0.553408">
        <ele>593.505</ele>
        <time>2020-01-17T10:25:46Z</time>
      </trkpt>
      <trkpt lat="39.928591" lon="-0.553344">
        <ele>591.854</ele>
        <time>2020-01-17T10:25:48Z</time>
      </trkpt>
      <trkpt lat="39.928595" lon="-0.553256">
        <ele>593.125</ele>
        <time>2020-01-17T10:25:50Z</time>
      </trkpt>
      <trkpt lat="39.928598" lon="-0.553165">
        <ele>593.041</ele>
        <time>2020-01-17T10:25:52Z</time>
      </trkpt>
      <trkpt lat="39.9286" lon="-0.553124">
        <ele>593.309</ele>
        <time>2020-01-17T10:25:53Z</time>
      </trkpt>
      <trkpt lat="39.928602" lon="-0.55308">
        <ele>593.692</ele>
        <time>2020-01-17T10:25:54Z</time>
      </trkpt>
      <trkpt lat="39.928596" lon="-0.552991">
        <ele>592.113</ele>
        <time>2020-01-17T10:25:56Z</time>
      </trkpt>
      <trkpt lat="39.928592" lon="-0.552951">
        <ele>590.965</ele>
        <time>2020-01-17T10:25:57Z</time>
      </trkpt>
      <trkpt lat="39.928589" lon="-0.552897">
        <ele>591.776</ele>
        <time>2020-01-17T10:25:58Z</time>
      </trkpt>
      <trkpt lat="39.928588" lon="-0.552834">
        <ele>591.066</ele>
        <time>2020-01-17T10:25:59Z</time>
      </trkpt>
      <trkpt lat="39.928585" lon="-0.552664">
        <ele>592.733</ele>
        <time>2020-01-17T10:26:02Z</time>
      </trkpt>
      <trkpt lat="39.928584" lon="-0.552616">
        <ele>593.867</ele>
        <time>2020-01-17T10:26:03Z</time>
      </trkpt>
      <trkpt lat="39.928584" lon="-0.552571">
        <ele>593.555</ele>
        <time>2020-01-17T10:26:04Z</time>
      </trkpt>
      <trkpt lat="39.928584" lon="-0.552522">
        <ele>594.079</ele>
        <time>2020-01-17T10:26:05Z</time>
      </trkpt>
      <trkpt lat="39.928582" lon="-0.552476">
        <ele>594.168</ele>
        <time>2020-01-17T10:26:07Z</time>
      </trkpt>
      <trkpt lat="39.928578" lon="-0.552421">
        <ele>595.158</ele>
        <time>2020-01-17T10:26:09Z</time>
      </trkpt>
      <trkpt lat="39.928576" lon="-0.552389">
        <ele>593.539</ele>
        <time>2020-01-17T10:26:10Z</time>
      </trkpt>
      <trkpt lat="39.928577" lon="-0.552283">
        <ele>593.646</ele>
        <time>2020-01-17T10:26:13Z</time>
      </trkpt>
      <trkpt lat="39.928577" lon="-0.552244">
        <ele>593.712</ele>
        <time>2020-01-17T10:26:14Z</time>
      </trkpt>
      <trkpt lat="39.928578" lon="-0.552201">
        <ele>594.517</ele>
        <time>2020-01-17T10:26:15Z</time>
      </trkpt>
      <trkpt lat="39.92858" lon="-0.552103">
        <ele>595.844</ele>
        <time>2020-01-17T10:26:17Z</time>
      </trkpt>
      <trkpt lat="39.928581" lon="-0.552054">
        <ele>594.015</ele>
        <time>2020-01-17T10:26:18Z</time>
      </trkpt>
      <trkpt lat="39.92858" lon="-0.551969">
        <ele>593.856</ele>
        <time>2020-01-17T10:26:20Z</time>
      </trkpt>
      <trkpt lat="39.92858" lon="-0.551931">
        <ele>594.071</ele>
        <time>2020-01-17T10:26:21Z</time>
      </trkpt>
      <trkpt lat="39.928574" lon="-0.551797">
        <ele>596.666</ele>
        <time>2020-01-17T10:26:23Z</time>
      </trkpt>
      <trkpt lat="39.928575" lon="-0.551724">
        <ele>598.038</ele>
        <time>2020-01-17T10:26:24Z</time>
      </trkpt>
      <trkpt lat="39.928576" lon="-0.551662">
        <ele>598.022</ele>
        <time>2020-01-17T10:26:25Z</time>
      </trkpt>
      <trkpt lat="39.928573" lon="-0.551607">
        <ele>598.027</ele>
        <time>2020-01-17T10:26:26Z</time>
      </trkpt>
      <trkpt lat="39.928572" lon="-0.551554">
        <ele>598.195</ele>
        <time>2020-01-17T10:26:27Z</time>
      </trkpt>
      <trkpt lat="39.92857" lon="-0.551388">
        <ele>599.523</ele>
        <time>2020-01-17T10:26:31Z</time>
      </trkpt>
      <trkpt lat="39.928582" lon="-0.5512">
        <ele>600.192</ele>
        <time>2020-01-17T10:26:36Z</time>
      </trkpt>
      <trkpt lat="39.928595" lon="-0.55113">
        <ele>601.334</ele>
        <time>2020-01-17T10:26:38Z</time>
      </trkpt>
      <trkpt lat="39.928603" lon="-0.551085">
        <ele>595.155</ele>
        <time>2020-01-17T10:26:40Z</time>
      </trkpt>
      <trkpt lat="39.928605" lon="-0.550997">
        <ele>595.718</ele>
        <time>2020-01-17T10:26:43Z</time>
      </trkpt>
      <trkpt lat="39.928607" lon="-0.550869">
        <ele>595.877</ele>
        <time>2020-01-17T10:26:45Z</time>
      </trkpt>
      <trkpt lat="39.928613" lon="-0.550706">
        <ele>595.498</ele>
        <time>2020-01-17T10:26:48Z</time>
      </trkpt>
      <trkpt lat="39.928618" lon="-0.550614">
        <ele>595.108</ele>
        <time>2020-01-17T10:26:50Z</time>
      </trkpt>
      <trkpt lat="39.928628" lon="-0.550486">
        <ele>595.98</ele>
        <time>2020-01-17T10:26:53Z</time>
      </trkpt>
      <trkpt lat="39.928634" lon="-0.550415">
        <ele>596.031</ele>
        <time>2020-01-17T10:26:55Z</time>
      </trkpt>
      <trkpt lat="39.928651" lon="-0.550328">
        <ele>597.67</ele>
        <time>2020-01-17T10:26:57Z</time>
      </trkpt>
      <trkpt lat="39.928661" lon="-0.550276">
        <ele>599.362</ele>
        <time>2020-01-17T10:26:58Z</time>
      </trkpt>
      <trkpt lat="39.928668" lon="-0.550235">
        <ele>598.149</ele>
        <time>2020-01-17T10:26:59Z</time>
      </trkpt>
      <trkpt lat="39.92869" lon="-0.550149">
        <ele>601.024</ele>
        <time>2020-01-17T10:27:01Z</time>
      </trkpt>
      <trkpt lat="39.928712" lon="-0.550077">
        <ele>600.082</ele>
        <time>2020-01-17T10:27:03Z</time>
      </trkpt>
      <trkpt lat="39.928723" lon="-0.550047">
        <ele>599.789</ele>
        <time>2020-01-17T10:27:04Z</time>
      </trkpt>
      <trkpt lat="39.928741" lon="-0.549984">
        <ele>600.543</ele>
        <time>2020-01-17T10:27:06Z</time>
      </trkpt>
      <trkpt lat="39.928755" lon="-0.549924">
        <ele>602.867</ele>
        <time>2020-01-17T10:27:08Z</time>
      </trkpt>
      <trkpt lat="39.928774" lon="-0.54986">
        <ele>603.344</ele>
        <time>2020-01-17T10:27:10Z</time>
      </trkpt>
      <trkpt lat="39.928784" lon="-0.549823">
        <ele>603.299</ele>
        <time>2020-01-17T10:27:11Z</time>
      </trkpt>
      <trkpt lat="39.928796" lon="-0.54978">
        <ele>603.785</ele>
        <time>2020-01-17T10:27:12Z</time>
      </trkpt>
      <trkpt lat="39.92881" lon="-0.549734">
        <ele>603.991</ele>
        <time>2020-01-17T10:27:13Z</time>
      </trkpt>
      <trkpt lat="39.928826" lon="-0.549687">
        <ele>603.292</ele>
        <time>2020-01-17T10:27:14Z</time>
      </trkpt>
      <trkpt lat="39.92884" lon="-0.54964">
        <ele>602.423</ele>
        <time>2020-01-17T10:27:15Z</time>
      </trkpt>
      <trkpt lat="39.928868" lon="-0.549553">
        <ele>602.797</ele>
        <time>2020-01-17T10:27:17Z</time>
      </trkpt>
      <trkpt lat="39.928883" lon="-0.549515">
        <ele>603.165</ele>
        <time>2020-01-17T10:27:18Z</time>
      </trkpt>
      <trkpt lat="39.928925" lon="-0.549413">
        <ele>604.096</ele>
        <time>2020-01-17T10:27:21Z</time>
      </trkpt>
      <trkpt lat="39.928954" lon="-0.549338">
        <ele>605.493</ele>
        <time>2020-01-17T10:27:23Z</time>
      </trkpt>
      <trkpt lat="39.92897" lon="-0.5493">
        <ele>605.559</ele>
        <time>2020-01-17T10:27:24Z</time>
      </trkpt>
      <trkpt lat="39.929013" lon="-0.549239">
        <ele>606.668</ele>
        <time>2020-01-17T10:27:26Z</time>
      </trkpt>
      <trkpt lat="39.929059" lon="-0.549186">
        <ele>607.238</ele>
        <time>2020-01-17T10:27:28Z</time>
      </trkpt>
      <trkpt lat="39.92909" lon="-0.549131">
        <ele>607.984</ele>
        <time>2020-01-17T10:27:30Z</time>
      </trkpt>
      <trkpt lat="39.929124" lon="-0.549062">
        <ele>608.683</ele>
        <time>2020-01-17T10:27:32Z</time>
      </trkpt>
      <trkpt lat="39.929144" lon="-0.549021">
        <ele>608.61</ele>
        <time>2020-01-17T10:27:33Z</time>
      </trkpt>
      <trkpt lat="39.929185" lon="-0.548942">
        <ele>609.099</ele>
        <time>2020-01-17T10:27:35Z</time>
      </trkpt>
      <trkpt lat="39.929204" lon="-0.548909">
        <ele>609.781</ele>
        <time>2020-01-17T10:27:36Z</time>
      </trkpt>
      <trkpt lat="39.929223" lon="-0.548875">
        <ele>610.177</ele>
        <time>2020-01-17T10:27:37Z</time>
      </trkpt>
      <trkpt lat="39.929256" lon="-0.548809">
        <ele>610.925</ele>
        <time>2020-01-17T10:27:39Z</time>
      </trkpt>
      <trkpt lat="39.929271" lon="-0.54878">
        <ele>610.463</ele>
        <time>2020-01-17T10:27:40Z</time>
      </trkpt>
      <trkpt lat="39.929289" lon="-0.548752">
        <ele>610.265</ele>
        <time>2020-01-17T10:27:41Z</time>
      </trkpt>
      <trkpt lat="39.929344" lon="-0.548717">
        <ele>611.011</ele>
        <time>2020-01-17T10:27:43Z</time>
      </trkpt>
      <trkpt lat="39.929408" lon="-0.54864">
        <ele>609.812</ele>
        <time>2020-01-17T10:27:46Z</time>
      </trkpt>
      <trkpt lat="39.929464" lon="-0.548522">
        <ele>609.698</ele>
        <time>2020-01-17T10:27:49Z</time>
      </trkpt>
      <trkpt lat="39.929479" lon="-0.548486">
        <ele>607.885</ele>
        <time>2020-01-17T10:27:50Z</time>
      </trkpt>
      <trkpt lat="39.929508" lon="-0.548419">
        <ele>606.956</ele>
        <time>2020-01-17T10:27:52Z</time>
      </trkpt>
      <trkpt lat="39.929556" lon="-0.548352">
        <ele>609.552</ele>
        <time>2020-01-17T10:27:54Z</time>
      </trkpt>
      <trkpt lat="39.929577" lon="-0.548322">
        <ele>609.456</ele>
        <time>2020-01-17T10:27:55Z</time>
      </trkpt>
      <trkpt lat="39.929596" lon="-0.548293">
        <ele>609.064</ele>
        <time>2020-01-17T10:27:56Z</time>
      </trkpt>
      <trkpt lat="39.929622" lon="-0.548236">
        <ele>608.916</ele>
        <time>2020-01-17T10:27:58Z</time>
      </trkpt>
      <trkpt lat="39.929659" lon="-0.548138">
        <ele>609.545</ele>
        <time>2020-01-17T10:28:01Z</time>
      </trkpt>
      <trkpt lat="39.929745" lon="-0.548019">
        <ele>609.22</ele>
        <time>2020-01-17T10:28:05Z</time>
      </trkpt>
      <trkpt lat="39.929774" lon="-0.547982">
        <ele>610.997</ele>
        <time>2020-01-17T10:28:06Z</time>
      </trkpt>
      <trkpt lat="39.929799" lon="-0.54795">
        <ele>610.33</ele>
        <time>2020-01-17T10:28:07Z</time>
      </trkpt>
      <trkpt lat="39.92985" lon="-0.547894">
        <ele>610.751</ele>
        <time>2020-01-17T10:28:09Z</time>
      </trkpt>
      <trkpt lat="39.929877" lon="-0.547865">
        <ele>610.968</ele>
        <time>2020-01-17T10:28:10Z</time>
      </trkpt>
      <trkpt lat="39.929905" lon="-0.547834">
        <ele>610.141</ele>
        <time>2020-01-17T10:28:11Z</time>
      </trkpt>
      <trkpt lat="39.929951" lon="-0.547775">
        <ele>609.468</ele>
        <time>2020-01-17T10:28:13Z</time>
      </trkpt>
      <trkpt lat="39.929971" lon="-0.547751">
        <ele>610.52</ele>
        <time>2020-01-17T10:28:14Z</time>
      </trkpt>
      <trkpt lat="39.930016" lon="-0.547705">
        <ele>610.575</ele>
        <time>2020-01-17T10:28:16Z</time>
      </trkpt>
      <trkpt lat="39.930094" lon="-0.547644">
        <ele>610.279</ele>
        <time>2020-01-17T10:28:19Z</time>
      </trkpt>
      <trkpt lat="39.930116" lon="-0.547628">
        <ele>610.714</ele>
        <time>2020-01-17T10:28:20Z</time>
      </trkpt>
      <trkpt lat="39.930139" lon="-0.547611">
        <ele>610.274</ele>
        <time>2020-01-17T10:28:21Z</time>
      </trkpt>
      <trkpt lat="39.930161" lon="-0.547594">
        <ele>608.936</ele>
        <time>2020-01-17T10:28:22Z</time>
      </trkpt>
      <trkpt lat="39.930211" lon="-0.547562">
        <ele>608.253</ele>
        <time>2020-01-17T10:28:24Z</time>
      </trkpt>
      <trkpt lat="39.930262" lon="-0.547522">
        <ele>607.401</ele>
        <time>2020-01-17T10:28:26Z</time>
      </trkpt>
      <trkpt lat="39.930284" lon="-0.547506">
        <ele>606.546</ele>
        <time>2020-01-17T10:28:27Z</time>
      </trkpt>
      <trkpt lat="39.930359" lon="-0.547471">
        <ele>606.629</ele>
        <time>2020-01-17T10:28:30Z</time>
      </trkpt>
      <trkpt lat="39.930402" lon="-0.547439">
        <ele>605.472</ele>
        <time>2020-01-17T10:28:32Z</time>
      </trkpt>
      <trkpt lat="39.930423" lon="-0.547422">
        <ele>605.651</ele>
        <time>2020-01-17T10:28:33Z</time>
      </trkpt>
      <trkpt lat="39.930465" lon="-0.547396">
        <ele>606.032</ele>
        <time>2020-01-17T10:28:35Z</time>
      </trkpt>
      <trkpt lat="39.930514" lon="-0.547369">
        <ele>605.822</ele>
        <time>2020-01-17T10:28:37Z</time>
      </trkpt>
      <trkpt lat="39.930539" lon="-0.547353">
        <ele>605.913</ele>
        <time>2020-01-17T10:28:38Z</time>
      </trkpt>
      <trkpt lat="39.930585" lon="-0.547314">
        <ele>605.427</ele>
        <time>2020-01-17T10:28:40Z</time>
      </trkpt>
      <trkpt lat="39.930672" lon="-0.547274">
        <ele>604.099</ele>
        <time>2020-01-17T10:28:44Z</time>
      </trkpt>
      <trkpt lat="39.930701" lon="-0.547265">
        <ele>605.202</ele>
        <time>2020-01-17T10:28:45Z</time>
      </trkpt>
      <trkpt lat="39.930728" lon="-0.547258">
        <ele>606.086</ele>
        <time>2020-01-17T10:28:46Z</time>
      </trkpt>
      <trkpt lat="39.930795" lon="-0.547243">
        <ele>605.913</ele>
        <time>2020-01-17T10:28:48Z</time>
      </trkpt>
      <trkpt lat="39.93084" lon="-0.547232">
        <ele>605.575</ele>
        <time>2020-01-17T10:28:49Z</time>
      </trkpt>
      <trkpt lat="39.93088" lon="-0.547223">
        <ele>602.189</ele>
        <time>2020-01-17T10:28:50Z</time>
      </trkpt>
      <trkpt lat="39.930915" lon="-0.547211">
        <ele>604.826</ele>
        <time>2020-01-17T10:28:51Z</time>
      </trkpt>
      <trkpt lat="39.930952" lon="-0.5472">
        <ele>605.216</ele>
        <time>2020-01-17T10:28:52Z</time>
      </trkpt>
      <trkpt lat="39.931023" lon="-0.547188">
        <ele>609.163</ele>
        <time>2020-01-17T10:28:54Z</time>
      </trkpt>
      <trkpt lat="39.931087" lon="-0.547179">
        <ele>609.169</ele>
        <time>2020-01-17T10:28:56Z</time>
      </trkpt>
      <trkpt lat="39.931157" lon="-0.547174">
        <ele>609.014</ele>
        <time>2020-01-17T10:28:58Z</time>
      </trkpt>
      <trkpt lat="39.931194" lon="-0.547173">
        <ele>610.073</ele>
        <time>2020-01-17T10:28:59Z</time>
      </trkpt>
      <trkpt lat="39.931255" lon="-0.547168">
        <ele>607.734</ele>
        <time>2020-01-17T10:29:01Z</time>
      </trkpt>
      <trkpt lat="39.93128" lon="-0.547166">
        <ele>607.535</ele>
        <time>2020-01-17T10:29:02Z</time>
      </trkpt>
      <trkpt lat="39.931323" lon="-0.547165">
        <ele>608.594</ele>
        <time>2020-01-17T10:29:04Z</time>
      </trkpt>
      <trkpt lat="39.93135" lon="-0.547163">
        <ele>609.036</ele>
        <time>2020-01-17T10:29:05Z</time>
      </trkpt>
      <trkpt lat="39.93141" lon="-0.547168">
        <ele>608.95</ele>
        <time>2020-01-17T10:29:07Z</time>
      </trkpt>
      <trkpt lat="39.931441" lon="-0.547171">
        <ele>608.639</ele>
        <time>2020-01-17T10:29:08Z</time>
      </trkpt>
      <trkpt lat="39.931471" lon="-0.547174">
        <ele>609.989</ele>
        <time>2020-01-17T10:29:09Z</time>
      </trkpt>
      <trkpt lat="39.93158" lon="-0.547193">
        <ele>610.393</ele>
        <time>2020-01-17T10:29:12Z</time>
      </trkpt>
      <trkpt lat="39.931651" lon="-0.547203">
        <ele>609.512</ele>
        <time>2020-01-17T10:29:14Z</time>
      </trkpt>
      <trkpt lat="39.931707" lon="-0.547222">
        <ele>609.611</ele>
        <time>2020-01-17T10:29:16Z</time>
      </trkpt>
      <trkpt lat="39.931734" lon="-0.547232">
        <ele>610.834</ele>
        <time>2020-01-17T10:29:17Z</time>
      </trkpt>
      <trkpt lat="39.931795" lon="-0.547245">
        <ele>612.16</ele>
        <time>2020-01-17T10:29:19Z</time>
      </trkpt>
      <trkpt lat="39.931859" lon="-0.547264">
        <ele>610.818</ele>
        <time>2020-01-17T10:29:21Z</time>
      </trkpt>
      <trkpt lat="39.931956" lon="-0.547312">
        <ele>608.626</ele>
        <time>2020-01-17T10:29:24Z</time>
      </trkpt>
      <trkpt lat="39.932021" lon="-0.547343">
        <ele>610.027</ele>
        <time>2020-01-17T10:29:26Z</time>
      </trkpt>
      <trkpt lat="39.932083" lon="-0.547381">
        <ele>609.948</ele>
        <time>2020-01-17T10:29:28Z</time>
      </trkpt>
      <trkpt lat="39.932135" lon="-0.547423">
        <ele>612.409</ele>
        <time>2020-01-17T10:29:30Z</time>
      </trkpt>
      <trkpt lat="39.932186" lon="-0.547464">
        <ele>610.765</ele>
        <time>2020-01-17T10:29:32Z</time>
      </trkpt>
      <trkpt lat="39.932212" lon="-0.547483">
        <ele>612.252</ele>
        <time>2020-01-17T10:29:33Z</time>
      </trkpt>
      <trkpt lat="39.932273" lon="-0.547519">
        <ele>613.814</ele>
        <time>2020-01-17T10:29:35Z</time>
      </trkpt>
      <trkpt lat="39.932337" lon="-0.547554">
        <ele>613.664</ele>
        <time>2020-01-17T10:29:37Z</time>
      </trkpt>
      <trkpt lat="39.932453" lon="-0.547625">
        <ele>613.06</ele>
        <time>2020-01-17T10:29:40Z</time>
      </trkpt>
      <trkpt lat="39.932488" lon="-0.547651">
        <ele>613.696</ele>
        <time>2020-01-17T10:29:41Z</time>
      </trkpt>
      <trkpt lat="39.932519" lon="-0.547673">
        <ele>614.327</ele>
        <time>2020-01-17T10:29:42Z</time>
      </trkpt>
      <trkpt lat="39.932576" lon="-0.54771">
        <ele>616.69</ele>
        <time>2020-01-17T10:29:44Z</time>
      </trkpt>
      <trkpt lat="39.932622" lon="-0.547743">
        <ele>616.476</ele>
        <time>2020-01-17T10:29:46Z</time>
      </trkpt>
      <trkpt lat="39.932684" lon="-0.547803">
        <ele>615.807</ele>
        <time>2020-01-17T10:29:49Z</time>
      </trkpt>
      <trkpt lat="39.932707" lon="-0.547823">
        <ele>614.614</ele>
        <time>2020-01-17T10:29:50Z</time>
      </trkpt>
      <trkpt lat="39.932787" lon="-0.547883">
        <ele>617.422</ele>
        <time>2020-01-17T10:29:53Z</time>
      </trkpt>
      <trkpt lat="39.932844" lon="-0.547934">
        <ele>617.558</ele>
        <time>2020-01-17T10:29:55Z</time>
      </trkpt>
      <trkpt lat="39.932924" lon="-0.548026">
        <ele>618.867</ele>
        <time>2020-01-17T10:29:58Z</time>
      </trkpt>
      <trkpt lat="39.932985" lon="-0.548076">
        <ele>619.682</ele>
        <time>2020-01-17T10:30:00Z</time>
      </trkpt>
      <trkpt lat="39.933015" lon="-0.548101">
        <ele>621.005</ele>
        <time>2020-01-17T10:30:01Z</time>
      </trkpt>
      <trkpt lat="39.933096" lon="-0.54814">
        <ele>620.164</ele>
        <time>2020-01-17T10:30:04Z</time>
      </trkpt>
      <trkpt lat="39.93315" lon="-0.548167">
        <ele>619.941</ele>
        <time>2020-01-17T10:30:06Z</time>
      </trkpt>
      <trkpt lat="39.933209" lon="-0.548204">
        <ele>621.353</ele>
        <time>2020-01-17T10:30:08Z</time>
      </trkpt>
      <trkpt lat="39.933235" lon="-0.54822">
        <ele>620.286</ele>
        <time>2020-01-17T10:30:09Z</time>
      </trkpt>
      <trkpt lat="39.933276" lon="-0.548258">
        <ele>620.827</ele>
        <time>2020-01-17T10:30:11Z</time>
      </trkpt>
      <trkpt lat="39.933294" lon="-0.548276">
        <ele>618.764</ele>
        <time>2020-01-17T10:30:12Z</time>
      </trkpt>
      <trkpt lat="39.933316" lon="-0.548298">
        <ele>618.824</ele>
        <time>2020-01-17T10:30:13Z</time>
      </trkpt>
      <trkpt lat="39.933365" lon="-0.548347">
        <ele>618.822</ele>
        <time>2020-01-17T10:30:15Z</time>
      </trkpt>
      <trkpt lat="39.933448" lon="-0.548433">
        <ele>618.963</ele>
        <time>2020-01-17T10:30:18Z</time>
      </trkpt>
      <trkpt lat="39.933476" lon="-0.548463">
        <ele>619.348</ele>
        <time>2020-01-17T10:30:19Z</time>
      </trkpt>
      <trkpt lat="39.933502" lon="-0.548489">
        <ele>618.02</ele>
        <time>2020-01-17T10:30:20Z</time>
      </trkpt>
      <trkpt lat="39.933588" lon="-0.548572">
        <ele>619.857</ele>
        <time>2020-01-17T10:30:23Z</time>
      </trkpt>
      <trkpt lat="39.933615" lon="-0.548599">
        <ele>619.936</ele>
        <time>2020-01-17T10:30:24Z</time>
      </trkpt>
      <trkpt lat="39.933638" lon="-0.548626">
        <ele>618.813</ele>
        <time>2020-01-17T10:30:25Z</time>
      </trkpt>
      <trkpt lat="39.933687" lon="-0.548675">
        <ele>619.679</ele>
        <time>2020-01-17T10:30:27Z</time>
      </trkpt>
      <trkpt lat="39.933709" lon="-0.548699">
        <ele>619.207</ele>
        <time>2020-01-17T10:30:28Z</time>
      </trkpt>
      <trkpt lat="39.933749" lon="-0.548768">
        <ele>619.715</ele>
        <time>2020-01-17T10:30:30Z</time>
      </trkpt>
      <trkpt lat="39.933833" lon="-0.548961">
        <ele>619.974</ele>
        <time>2020-01-17T10:30:35Z</time>
      </trkpt>
      <trkpt lat="39.933851" lon="-0.548997">
        <ele>619.549</ele>
        <time>2020-01-17T10:30:36Z</time>
      </trkpt>
      <trkpt lat="39.933925" lon="-0.549092">
        <ele>620.28</ele>
        <time>2020-01-17T10:30:39Z</time>
      </trkpt>
      <trkpt lat="39.933966" lon="-0.549151">
        <ele>620.642</ele>
        <time>2020-01-17T10:30:41Z</time>
      </trkpt>
      <trkpt lat="39.933995" lon="-0.54922">
        <ele>624.583</ele>
        <time>2020-01-17T10:30:43Z</time>
      </trkpt>
      <trkpt lat="39.934011" lon="-0.549256">
        <ele>625.052</ele>
        <time>2020-01-17T10:30:44Z</time>
      </trkpt>
      <trkpt lat="39.934039" lon="-0.549331">
        <ele>625.377</ele>
        <time>2020-01-17T10:30:46Z</time>
      </trkpt>
      <trkpt lat="39.934051" lon="-0.549368">
        <ele>623.245</ele>
        <time>2020-01-17T10:30:47Z</time>
      </trkpt>
      <trkpt lat="39.934063" lon="-0.549412">
        <ele>622.439</ele>
        <time>2020-01-17T10:30:48Z</time>
      </trkpt>
      <trkpt lat="39.934106" lon="-0.549635">
        <ele>623.936</ele>
        <time>2020-01-17T10:30:53Z</time>
      </trkpt>
      <trkpt lat="39.934116" lon="-0.549675">
        <ele>624.853</ele>
        <time>2020-01-17T10:30:54Z</time>
      </trkpt>
      <trkpt lat="39.934165" lon="-0.549785">
        <ele>625.469</ele>
        <time>2020-01-17T10:30:57Z</time>
      </trkpt>
      <trkpt lat="39.934229" lon="-0.549891">
        <ele>625.609</ele>
        <time>2020-01-17T10:31:00Z</time>
      </trkpt>
      <trkpt lat="39.934251" lon="-0.549929">
        <ele>623.999</ele>
        <time>2020-01-17T10:31:01Z</time>
      </trkpt>
      <trkpt lat="39.934293" lon="-0.550045">
        <ele>623.341</ele>
        <time>2020-01-17T10:31:04Z</time>
      </trkpt>
      <trkpt lat="39.934336" lon="-0.550213">
        <ele>623.466</ele>
        <time>2020-01-17T10:31:08Z</time>
      </trkpt>
      <trkpt lat="39.934366" lon="-0.550296">
        <ele>623.413</ele>
        <time>2020-01-17T10:31:10Z</time>
      </trkpt>
      <trkpt lat="39.934434" lon="-0.55044">
        <ele>624.741</ele>
        <time>2020-01-17T10:31:14Z</time>
      </trkpt>
      <trkpt lat="39.934473" lon="-0.550508">
        <ele>624.535</ele>
        <time>2020-01-17T10:31:16Z</time>
      </trkpt>
      <trkpt lat="39.934514" lon="-0.550633">
        <ele>624.762</ele>
        <time>2020-01-17T10:31:20Z</time>
      </trkpt>
      <trkpt lat="39.934528" lon="-0.550718">
        <ele>622.066</ele>
        <time>2020-01-17T10:31:23Z</time>
      </trkpt>
      <trkpt lat="39.934533" lon="-0.550797">
        <ele>621.46</ele>
        <time>2020-01-17T10:31:25Z</time>
      </trkpt>
      <trkpt lat="39.934534" lon="-0.550888">
        <ele>622.079</ele>
        <time>2020-01-17T10:31:27Z</time>
      </trkpt>
      <trkpt lat="39.934541" lon="-0.550982">
        <ele>624.976</ele>
        <time>2020-01-17T10:31:29Z</time>
      </trkpt>
      <trkpt lat="39.934565" lon="-0.551103">
        <ele>626.384</ele>
        <time>2020-01-17T10:31:32Z</time>
      </trkpt>
      <trkpt lat="39.934609" lon="-0.551228">
        <ele>627.351</ele>
        <time>2020-01-17T10:31:35Z</time>
      </trkpt>
      <trkpt lat="39.934659" lon="-0.551362">
        <ele>627.101</ele>
        <time>2020-01-17T10:31:38Z</time>
      </trkpt>
      <trkpt lat="39.934675" lon="-0.551404">
        <ele>626.356</ele>
        <time>2020-01-17T10:31:39Z</time>
      </trkpt>
      <trkpt lat="39.934698" lon="-0.551486">
        <ele>625.123</ele>
        <time>2020-01-17T10:31:41Z</time>
      </trkpt>
      <trkpt lat="39.934736" lon="-0.551581">
        <ele>624.853</ele>
        <time>2020-01-17T10:31:44Z</time>
      </trkpt>
      <trkpt lat="39.934764" lon="-0.551719">
        <ele>624.274</ele>
        <time>2020-01-17T10:31:47Z</time>
      </trkpt>
      <trkpt lat="39.93479" lon="-0.551804">
        <ele>624.695</ele>
        <time>2020-01-17T10:31:49Z</time>
      </trkpt>
      <trkpt lat="39.934824" lon="-0.551884">
        <ele>624.344</ele>
        <time>2020-01-17T10:31:51Z</time>
      </trkpt>
      <trkpt lat="39.934837" lon="-0.551915">
        <ele>622.89</ele>
        <time>2020-01-17T10:31:52Z</time>
      </trkpt>
      <trkpt lat="39.934868" lon="-0.551971">
        <ele>622.549</ele>
        <time>2020-01-17T10:31:54Z</time>
      </trkpt>
      <trkpt lat="39.934896" lon="-0.552042">
        <ele>624.558</ele>
        <time>2020-01-17T10:31:56Z</time>
      </trkpt>
      <trkpt lat="39.934911" lon="-0.552106">
        <ele>623.386</ele>
        <time>2020-01-17T10:31:58Z</time>
      </trkpt>
      <trkpt lat="39.934919" lon="-0.552133">
        <ele>622.221</ele>
        <time>2020-01-17T10:31:59Z</time>
      </trkpt>
      <trkpt lat="39.934934" lon="-0.55219">
        <ele>622.425</ele>
        <time>2020-01-17T10:32:01Z</time>
      </trkpt>
      <trkpt lat="39.934945" lon="-0.552253">
        <ele>621.7</ele>
        <time>2020-01-17T10:32:03Z</time>
      </trkpt>
      <trkpt lat="39.935005" lon="-0.552414">
        <ele>621.9</ele>
        <time>2020-01-17T10:32:08Z</time>
      </trkpt>
      <trkpt lat="39.935034" lon="-0.552473">
        <ele>621.742</ele>
        <time>2020-01-17T10:32:10Z</time>
      </trkpt>
      <trkpt lat="39.935048" lon="-0.552501">
        <ele>622.558</ele>
        <time>2020-01-17T10:32:11Z</time>
      </trkpt>
      <trkpt lat="39.935063" lon="-0.552528">
        <ele>622.604</ele>
        <time>2020-01-17T10:32:12Z</time>
      </trkpt>
      <trkpt lat="39.935134" lon="-0.552657">
        <ele>624.076</ele>
        <time>2020-01-17T10:32:16Z</time>
      </trkpt>
      <trkpt lat="39.935157" lon="-0.552703">
        <ele>624.791</ele>
        <time>2020-01-17T10:32:17Z</time>
      </trkpt>
      <trkpt lat="39.935194" lon="-0.552792">
        <ele>625.34</ele>
        <time>2020-01-17T10:32:19Z</time>
      </trkpt>
      <trkpt lat="39.935228" lon="-0.552922">
        <ele>630.44</ele>
        <time>2020-01-17T10:32:22Z</time>
      </trkpt>
      <trkpt lat="39.935272" lon="-0.553011">
        <ele>630.453</ele>
        <time>2020-01-17T10:32:24Z</time>
      </trkpt>
      <trkpt lat="39.935303" lon="-0.553054">
        <ele>624.931</ele>
        <time>2020-01-17T10:32:25Z</time>
      </trkpt>
      <trkpt lat="39.935389" lon="-0.55318">
        <ele>624.239</ele>
        <time>2020-01-17T10:32:28Z</time>
      </trkpt>
      <trkpt lat="39.935417" lon="-0.553257">
        <ele>624.163</ele>
        <time>2020-01-17T10:32:30Z</time>
      </trkpt>
      <trkpt lat="39.935428" lon="-0.553289">
        <ele>623.294</ele>
        <time>2020-01-17T10:32:31Z</time>
      </trkpt>
      <trkpt lat="39.935446" lon="-0.553347">
        <ele>623.533</ele>
        <time>2020-01-17T10:32:33Z</time>
      </trkpt>
      <trkpt lat="39.935455" lon="-0.553378">
        <ele>624.1</ele>
        <time>2020-01-17T10:32:34Z</time>
      </trkpt>
      <trkpt lat="39.935463" lon="-0.553411">
        <ele>624.845</ele>
        <time>2020-01-17T10:32:35Z</time>
      </trkpt>
      <trkpt lat="39.93547" lon="-0.553445">
        <ele>624.809</ele>
        <time>2020-01-17T10:32:36Z</time>
      </trkpt>
      <trkpt lat="39.93549" lon="-0.553537">
        <ele>624.733</ele>
        <time>2020-01-17T10:32:38Z</time>
      </trkpt>
      <trkpt lat="39.935527" lon="-0.553649">
        <ele>622.948</ele>
        <time>2020-01-17T10:32:41Z</time>
      </trkpt>
      <trkpt lat="39.935561" lon="-0.553721">
        <ele>622.75</ele>
        <time>2020-01-17T10:32:43Z</time>
      </trkpt>
      <trkpt lat="39.935609" lon="-0.553797">
        <ele>622.853</ele>
        <time>2020-01-17T10:32:45Z</time>
      </trkpt>
      <trkpt lat="39.93563" lon="-0.553825">
        <ele>623.845</ele>
        <time>2020-01-17T10:32:46Z</time>
      </trkpt>
      <trkpt lat="39.935654" lon="-0.553854">
        <ele>623.226</ele>
        <time>2020-01-17T10:32:47Z</time>
      </trkpt>
      <trkpt lat="39.935711" lon="-0.553946">
        <ele>623.798</ele>
        <time>2020-01-17T10:32:49Z</time>
      </trkpt>
      <trkpt lat="39.935738" lon="-0.553995">
        <ele>627.269</ele>
        <time>2020-01-17T10:32:50Z</time>
      </trkpt>
      <trkpt lat="39.935761" lon="-0.554043">
        <ele>627.659</ele>
        <time>2020-01-17T10:32:51Z</time>
      </trkpt>
      <trkpt lat="39.935798" lon="-0.554132">
        <ele>627.876</ele>
        <time>2020-01-17T10:32:53Z</time>
      </trkpt>
      <trkpt lat="39.935856" lon="-0.554247">
        <ele>627.939</ele>
        <time>2020-01-17T10:32:56Z</time>
      </trkpt>
      <trkpt lat="39.935877" lon="-0.554283">
        <ele>627.472</ele>
        <time>2020-01-17T10:32:57Z</time>
      </trkpt>
      <trkpt lat="39.935921" lon="-0.554365">
        <ele>629.493</ele>
        <time>2020-01-17T10:32:59Z</time>
      </trkpt>
      <trkpt lat="39.935969" lon="-0.554489">
        <ele>628.643</ele>
        <time>2020-01-17T10:33:02Z</time>
      </trkpt>
      <trkpt lat="39.936006" lon="-0.554561">
        <ele>627.771</ele>
        <time>2020-01-17T10:33:04Z</time>
      </trkpt>
      <trkpt lat="39.936046" lon="-0.554645">
        <ele>627.415</ele>
        <time>2020-01-17T10:33:07Z</time>
      </trkpt>
      <trkpt lat="39.936067" lon="-0.554697">
        <ele>627.446</ele>
        <time>2020-01-17T10:33:09Z</time>
      </trkpt>
      <trkpt lat="39.936077" lon="-0.554725">
        <ele>626.655</ele>
        <time>2020-01-17T10:33:10Z</time>
      </trkpt>
      <trkpt lat="39.936087" lon="-0.554753">
        <ele>626.752</ele>
        <time>2020-01-17T10:33:11Z</time>
      </trkpt>
      <trkpt lat="39.936097" lon="-0.554781">
        <ele>626.546</ele>
        <time>2020-01-17T10:33:12Z</time>
      </trkpt>
      <trkpt lat="39.936107" lon="-0.554814">
        <ele>624.171</ele>
        <time>2020-01-17T10:33:13Z</time>
      </trkpt>
      <trkpt lat="39.936118" lon="-0.554851">
        <ele>619.78</ele>
        <time>2020-01-17T10:33:14Z</time>
      </trkpt>
      <trkpt lat="39.936172" lon="-0.554978">
        <ele>619.928</ele>
        <time>2020-01-17T10:33:17Z</time>
      </trkpt>
      <trkpt lat="39.936193" lon="-0.555023">
        <ele>621.493</ele>
        <time>2020-01-17T10:33:18Z</time>
      </trkpt>
      <trkpt lat="39.936262" lon="-0.555126">
        <ele>621.634</ele>
        <time>2020-01-17T10:33:21Z</time>
      </trkpt>
      <trkpt lat="39.936279" lon="-0.555153">
        <ele>621.937</ele>
        <time>2020-01-17T10:33:22Z</time>
      </trkpt>
      <trkpt lat="39.93632" lon="-0.555213">
        <ele>621.844</ele>
        <time>2020-01-17T10:33:24Z</time>
      </trkpt>
      <trkpt lat="39.936381" lon="-0.555286">
        <ele>622.783</ele>
        <time>2020-01-17T10:33:27Z</time>
      </trkpt>
      <trkpt lat="39.936428" lon="-0.555371">
        <ele>625.382</ele>
        <time>2020-01-17T10:33:30Z</time>
      </trkpt>
      <trkpt lat="39.936461" lon="-0.55545">
        <ele>625.383</ele>
        <time>2020-01-17T10:33:32Z</time>
      </trkpt>
      <trkpt lat="39.936511" lon="-0.555567">
        <ele>625.022</ele>
        <time>2020-01-17T10:33:35Z</time>
      </trkpt>
      <trkpt lat="39.936545" lon="-0.555641">
        <ele>624.201</ele>
        <time>2020-01-17T10:33:37Z</time>
      </trkpt>
      <trkpt lat="39.936566" lon="-0.55568">
        <ele>624.008</ele>
        <time>2020-01-17T10:33:38Z</time>
      </trkpt>
      <trkpt lat="39.936587" lon="-0.555718">
        <ele>623.465</ele>
        <time>2020-01-17T10:33:39Z</time>
      </trkpt>
      <trkpt lat="39.936609" lon="-0.555753">
        <ele>624.712</ele>
        <time>2020-01-17T10:33:40Z</time>
      </trkpt>
      <trkpt lat="39.936654" lon="-0.555824">
        <ele>624.148</ele>
        <time>2020-01-17T10:33:42Z</time>
      </trkpt>
      <trkpt lat="39.936674" lon="-0.555857">
        <ele>624.684</ele>
        <time>2020-01-17T10:33:43Z</time>
      </trkpt>
      <trkpt lat="39.936693" lon="-0.555887">
        <ele>633.205</ele>
        <time>2020-01-17T10:33:44Z</time>
      </trkpt>
      <trkpt lat="39.936734" lon="-0.555949">
        <ele>632.421</ele>
        <time>2020-01-17T10:33:46Z</time>
      </trkpt>
      <trkpt lat="39.936759" lon="-0.555983">
        <ele>633.261</ele>
        <time>2020-01-17T10:33:47Z</time>
      </trkpt>
      <trkpt lat="39.936778" lon="-0.556011">
        <ele>632.465</ele>
        <time>2020-01-17T10:33:49Z</time>
      </trkpt>
      <trkpt lat="39.936811" lon="-0.556056">
        <ele>629.975</ele>
        <time>2020-01-17T10:33:50Z</time>
      </trkpt>
      <trkpt lat="39.936837" lon="-0.556099">
        <ele>629.853</ele>
        <time>2020-01-17T10:33:52Z</time>
      </trkpt>
      <trkpt lat="39.936894" lon="-0.556174">
        <ele>629.469</ele>
        <time>2020-01-17T10:33:55Z</time>
      </trkpt>
      <trkpt lat="39.936945" lon="-0.556222">
        <ele>629.734</ele>
        <time>2020-01-17T10:33:57Z</time>
      </trkpt>
      <trkpt lat="39.937013" lon="-0.55629">
        <ele>629.181</ele>
        <time>2020-01-17T10:34:00Z</time>
      </trkpt>
      <trkpt lat="39.937078" lon="-0.556375">
        <ele>633.965</ele>
        <time>2020-01-17T10:34:03Z</time>
      </trkpt>
      <trkpt lat="39.937147" lon="-0.556459">
        <ele>635.58</ele>
        <time>2020-01-17T10:34:06Z</time>
      </trkpt>
      <trkpt lat="39.937196" lon="-0.556505">
        <ele>635.566</ele>
        <time>2020-01-17T10:34:08Z</time>
      </trkpt>
      <trkpt lat="39.937251" lon="-0.556544">
        <ele>636.19</ele>
        <time>2020-01-17T10:34:10Z</time>
      </trkpt>
      <trkpt lat="39.937301" lon="-0.556591">
        <ele>637.478</ele>
        <time>2020-01-17T10:34:12Z</time>
      </trkpt>
      <trkpt lat="39.937322" lon="-0.556612">
        <ele>637.68</ele>
        <time>2020-01-17T10:34:13Z</time>
      </trkpt>
      <trkpt lat="39.937343" lon="-0.556631">
        <ele>640.132</ele>
        <time>2020-01-17T10:34:14Z</time>
      </trkpt>
      <trkpt lat="39.937365" lon="-0.556652">
        <ele>640.853</ele>
        <time>2020-01-17T10:34:15Z</time>
      </trkpt>
      <trkpt lat="39.937406" lon="-0.556703">
        <ele>640.67</ele>
        <time>2020-01-17T10:34:17Z</time>
      </trkpt>
      <trkpt lat="39.937467" lon="-0.556764">
        <ele>640.886</ele>
        <time>2020-01-17T10:34:19Z</time>
      </trkpt>
      <trkpt lat="39.937532" lon="-0.556822">
        <ele>639.8</ele>
        <time>2020-01-17T10:34:21Z</time>
      </trkpt>
      <trkpt lat="39.937582" lon="-0.556862">
        <ele>634.622</ele>
        <time>2020-01-17T10:34:23Z</time>
      </trkpt>
      <trkpt lat="39.937651" lon="-0.556919">
        <ele>637.021</ele>
        <time>2020-01-17T10:34:25Z</time>
      </trkpt>
      <trkpt lat="39.937719" lon="-0.556964">
        <ele>639.525</ele>
        <time>2020-01-17T10:34:27Z</time>
      </trkpt>
      <trkpt lat="39.937782" lon="-0.557022">
        <ele>639.331</ele>
        <time>2020-01-17T10:34:29Z</time>
      </trkpt>
      <trkpt lat="39.937846" lon="-0.55709">
        <ele>643.983</ele>
        <time>2020-01-17T10:34:31Z</time>
      </trkpt>
      <trkpt lat="39.937899" lon="-0.557148">
        <ele>641.725</ele>
        <time>2020-01-17T10:34:33Z</time>
      </trkpt>
      <trkpt lat="39.937956" lon="-0.557176">
        <ele>640.989</ele>
        <time>2020-01-17T10:34:35Z</time>
      </trkpt>
      <trkpt lat="39.937979" lon="-0.557188">
        <ele>641.21</ele>
        <time>2020-01-17T10:34:36Z</time>
      </trkpt>
      <trkpt lat="39.93802" lon="-0.557208">
        <ele>640.933</ele>
        <time>2020-01-17T10:34:38Z</time>
      </trkpt>
      <trkpt lat="39.938041" lon="-0.55722">
        <ele>639.56</ele>
        <time>2020-01-17T10:34:39Z</time>
      </trkpt>
      <trkpt lat="39.938106" lon="-0.557281">
        <ele>639.005</ele>
        <time>2020-01-17T10:34:42Z</time>
      </trkpt>
      <trkpt lat="39.938127" lon="-0.5573">
        <ele>638.676</ele>
        <time>2020-01-17T10:34:43Z</time>
      </trkpt>
      <trkpt lat="39.938149" lon="-0.557317">
        <ele>638.874</ele>
        <time>2020-01-17T10:34:44Z</time>
      </trkpt>
      <trkpt lat="39.938203" lon="-0.557353">
        <ele>638.226</ele>
        <time>2020-01-17T10:34:46Z</time>
      </trkpt>
      <trkpt lat="39.938253" lon="-0.557402">
        <ele>638.888</ele>
        <time>2020-01-17T10:34:48Z</time>
      </trkpt>
      <trkpt lat="39.938273" lon="-0.557422">
        <ele>640.955</ele>
        <time>2020-01-17T10:34:49Z</time>
      </trkpt>
      <trkpt lat="39.938326" lon="-0.557455">
        <ele>640.793</ele>
        <time>2020-01-17T10:34:51Z</time>
      </trkpt>
      <trkpt lat="39.938401" lon="-0.557468">
        <ele>639.736</ele>
        <time>2020-01-17T10:34:53Z</time>
      </trkpt>
      <trkpt lat="39.938486" lon="-0.557506">
        <ele>638.49</ele>
        <time>2020-01-17T10:34:56Z</time>
      </trkpt>
      <trkpt lat="39.938527" lon="-0.557564">
        <ele>637.708</ele>
        <time>2020-01-17T10:34:58Z</time>
      </trkpt>
      <trkpt lat="39.93856" lon="-0.557626">
        <ele>637.729</ele>
        <time>2020-01-17T10:35:00Z</time>
      </trkpt>
      <trkpt lat="39.938603" lon="-0.557707">
        <ele>640.762</ele>
        <time>2020-01-17T10:35:02Z</time>
      </trkpt>
      <trkpt lat="39.938648" lon="-0.557785">
        <ele>640.62</ele>
        <time>2020-01-17T10:35:04Z</time>
      </trkpt>
      <trkpt lat="39.93874" lon="-0.557823">
        <ele>640.535</ele>
        <time>2020-01-17T10:35:07Z</time>
      </trkpt>
      <trkpt lat="39.938806" lon="-0.557834">
        <ele>641.071</ele>
        <time>2020-01-17T10:35:09Z</time>
      </trkpt>
      <trkpt lat="39.938865" lon="-0.557856">
        <ele>641.429</ele>
        <time>2020-01-17T10:35:11Z</time>
      </trkpt>
      <trkpt lat="39.938928" lon="-0.557915">
        <ele>641.461</ele>
        <time>2020-01-17T10:35:14Z</time>
      </trkpt>
      <trkpt lat="39.938976" lon="-0.557945">
        <ele>641.622</ele>
        <time>2020-01-17T10:35:16Z</time>
      </trkpt>
      <trkpt lat="39.939006" lon="-0.557963">
        <ele>641.312</ele>
        <time>2020-01-17T10:35:17Z</time>
      </trkpt>
      <trkpt lat="39.939036" lon="-0.557977">
        <ele>641.825</ele>
        <time>2020-01-17T10:35:18Z</time>
      </trkpt>
      <trkpt lat="39.939103" lon="-0.558006">
        <ele>641.252</ele>
        <time>2020-01-17T10:35:20Z</time>
      </trkpt>
      <trkpt lat="39.939171" lon="-0.558055">
        <ele>640.695</ele>
        <time>2020-01-17T10:35:22Z</time>
      </trkpt>
      <trkpt lat="39.939223" lon="-0.55812">
        <ele>641.331</ele>
        <time>2020-01-17T10:35:24Z</time>
      </trkpt>
      <trkpt lat="39.939265" lon="-0.558159">
        <ele>640.823</ele>
        <time>2020-01-17T10:35:26Z</time>
      </trkpt>
      <trkpt lat="39.939317" lon="-0.558201">
        <ele>640.204</ele>
        <time>2020-01-17T10:35:29Z</time>
      </trkpt>
      <trkpt lat="39.939344" lon="-0.558226">
        <ele>640.584</ele>
        <time>2020-01-17T10:35:30Z</time>
      </trkpt>
      <trkpt lat="39.939406" lon="-0.558288">
        <ele>640.627</ele>
        <time>2020-01-17T10:35:32Z</time>
      </trkpt>
      <trkpt lat="39.939453" lon="-0.558378">
        <ele>640.967</ele>
        <time>2020-01-17T10:35:34Z</time>
      </trkpt>
      <trkpt lat="39.939535" lon="-0.558488">
        <ele>641.802</ele>
        <time>2020-01-17T10:35:37Z</time>
      </trkpt>
      <trkpt lat="39.939664" lon="-0.558586">
        <ele>641.434</ele>
        <time>2020-01-17T10:35:41Z</time>
      </trkpt>
      <trkpt lat="39.939697" lon="-0.558608">
        <ele>640.721</ele>
        <time>2020-01-17T10:35:42Z</time>
      </trkpt>
      <trkpt lat="39.939765" lon="-0.558664">
        <ele>641.006</ele>
        <time>2020-01-17T10:35:45Z</time>
      </trkpt>
      <trkpt lat="39.939817" lon="-0.558695">
        <ele>641.66</ele>
        <time>2020-01-17T10:35:48Z</time>
      </trkpt>
      <trkpt lat="39.939863" lon="-0.558735">
        <ele>641.567</ele>
        <time>2020-01-17T10:35:50Z</time>
      </trkpt>
      <trkpt lat="39.939895" lon="-0.558764">
        <ele>641.807</ele>
        <time>2020-01-17T10:35:51Z</time>
      </trkpt>
      <trkpt lat="39.93995" lon="-0.558818">
        <ele>641.76</ele>
        <time>2020-01-17T10:35:53Z</time>
      </trkpt>
      <trkpt lat="39.939994" lon="-0.558874">
        <ele>641.789</ele>
        <time>2020-01-17T10:35:55Z</time>
      </trkpt>
      <trkpt lat="39.940049" lon="-0.558933">
        <ele>642.161</ele>
        <time>2020-01-17T10:35:57Z</time>
      </trkpt>
      <trkpt lat="39.940075" lon="-0.558963">
        <ele>642.262</ele>
        <time>2020-01-17T10:35:58Z</time>
      </trkpt>
      <trkpt lat="39.940104" lon="-0.558995">
        <ele>642.104</ele>
        <time>2020-01-17T10:35:59Z</time>
      </trkpt>
      <trkpt lat="39.940152" lon="-0.559064">
        <ele>642.099</ele>
        <time>2020-01-17T10:36:01Z</time>
      </trkpt>
      <trkpt lat="39.940174" lon="-0.559098">
        <ele>641.159</ele>
        <time>2020-01-17T10:36:02Z</time>
      </trkpt>
      <trkpt lat="39.940227" lon="-0.559156">
        <ele>640.557</ele>
        <time>2020-01-17T10:36:04Z</time>
      </trkpt>
      <trkpt lat="39.940295" lon="-0.559218">
        <ele>639.659</ele>
        <time>2020-01-17T10:36:06Z</time>
      </trkpt>
      <trkpt lat="39.940326" lon="-0.559245">
        <ele>639.809</ele>
        <time>2020-01-17T10:36:07Z</time>
      </trkpt>
      <trkpt lat="39.940351" lon="-0.559269">
        <ele>640.182</ele>
        <time>2020-01-17T10:36:08Z</time>
      </trkpt>
      <trkpt lat="39.940418" lon="-0.559355">
        <ele>640.165</ele>
        <time>2020-01-17T10:36:11Z</time>
      </trkpt>
      <trkpt lat="39.940458" lon="-0.55939">
        <ele>639.77</ele>
        <time>2020-01-17T10:36:13Z</time>
      </trkpt>
      <trkpt lat="39.940487" lon="-0.559411">
        <ele>639.872</ele>
        <time>2020-01-17T10:36:15Z</time>
      </trkpt>
      <trkpt lat="39.940573" lon="-0.559508">
        <ele>638.875</ele>
        <time>2020-01-17T10:36:19Z</time>
      </trkpt>
      <trkpt lat="39.940594" lon="-0.559534">
        <ele>639.738</ele>
        <time>2020-01-17T10:36:20Z</time>
      </trkpt>
      <trkpt lat="39.940616" lon="-0.559557">
        <ele>639.472</ele>
        <time>2020-01-17T10:36:21Z</time>
      </trkpt>
      <trkpt lat="39.940638" lon="-0.559581">
        <ele>639.558</ele>
        <time>2020-01-17T10:36:22Z</time>
      </trkpt>
      <trkpt lat="39.940659" lon="-0.559603">
        <ele>639.064</ele>
        <time>2020-01-17T10:36:23Z</time>
      </trkpt>
      <trkpt lat="39.940681" lon="-0.559628">
        <ele>639.764</ele>
        <time>2020-01-17T10:36:24Z</time>
      </trkpt>
      <trkpt lat="39.940698" lon="-0.55965">
        <ele>641.783</ele>
        <time>2020-01-17T10:36:25Z</time>
      </trkpt>
      <trkpt lat="39.940719" lon="-0.559677">
        <ele>640.871</ele>
        <time>2020-01-17T10:36:26Z</time>
      </trkpt>
      <trkpt lat="39.940745" lon="-0.55971">
        <ele>641.321</ele>
        <time>2020-01-17T10:36:27Z</time>
      </trkpt>
      <trkpt lat="39.940775" lon="-0.559749">
        <ele>641.045</ele>
        <time>2020-01-17T10:36:28Z</time>
      </trkpt>
      <trkpt lat="39.940888" lon="-0.559892">
        <ele>640.033</ele>
        <time>2020-01-17T10:36:32Z</time>
      </trkpt>
      <trkpt lat="39.940907" lon="-0.559914">
        <ele>642.807</ele>
        <time>2020-01-17T10:36:33Z</time>
      </trkpt>
      <trkpt lat="39.940979" lon="-0.559988">
        <ele>643.575</ele>
        <time>2020-01-17T10:36:36Z</time>
      </trkpt>
      <trkpt lat="39.941025" lon="-0.560045">
        <ele>644.521</ele>
        <time>2020-01-17T10:36:38Z</time>
      </trkpt>
      <trkpt lat="39.941047" lon="-0.560073">
        <ele>644.921</ele>
        <time>2020-01-17T10:36:39Z</time>
      </trkpt>
      <trkpt lat="39.941092" lon="-0.560131">
        <ele>644.625</ele>
        <time>2020-01-17T10:36:41Z</time>
      </trkpt>
      <trkpt lat="39.941139" lon="-0.560194">
        <ele>649.145</ele>
        <time>2020-01-17T10:36:43Z</time>
      </trkpt>
      <trkpt lat="39.941161" lon="-0.560223">
        <ele>647.583</ele>
        <time>2020-01-17T10:36:44Z</time>
      </trkpt>
      <trkpt lat="39.941182" lon="-0.560252">
        <ele>647.645</ele>
        <time>2020-01-17T10:36:45Z</time>
      </trkpt>
      <trkpt lat="39.941198" lon="-0.560272">
        <ele>647.14</ele>
        <time>2020-01-17T10:36:46Z</time>
      </trkpt>
      <trkpt lat="39.94125" lon="-0.560317">
        <ele>640.724</ele>
        <time>2020-01-17T10:36:49Z</time>
      </trkpt>
      <trkpt lat="39.941272" lon="-0.560339">
        <ele>641.59</ele>
        <time>2020-01-17T10:36:50Z</time>
      </trkpt>
      <trkpt lat="39.94135" lon="-0.560446">
        <ele>643.513</ele>
        <time>2020-01-17T10:36:53Z</time>
      </trkpt>
      <trkpt lat="39.941379" lon="-0.560492">
        <ele>640.753</ele>
        <time>2020-01-17T10:36:54Z</time>
      </trkpt>
      <trkpt lat="39.941408" lon="-0.560538">
        <ele>642.958</ele>
        <time>2020-01-17T10:36:55Z</time>
      </trkpt>
      <trkpt lat="39.941435" lon="-0.560577">
        <ele>645.202</ele>
        <time>2020-01-17T10:36:56Z</time>
      </trkpt>
      <trkpt lat="39.94146" lon="-0.560613">
        <ele>646.799</ele>
        <time>2020-01-17T10:36:57Z</time>
      </trkpt>
      <trkpt lat="39.941481" lon="-0.560646">
        <ele>648.979</ele>
        <time>2020-01-17T10:36:58Z</time>
      </trkpt>
      <trkpt lat="39.941502" lon="-0.560678">
        <ele>650.265</ele>
        <time>2020-01-17T10:36:59Z</time>
      </trkpt>
      <trkpt lat="39.941519" lon="-0.560702">
        <ele>649.467</ele>
        <time>2020-01-17T10:37:00Z</time>
      </trkpt>
      <trkpt lat="39.941576" lon="-0.560803">
        <ele>649.784</ele>
        <time>2020-01-17T10:37:03Z</time>
      </trkpt>
      <trkpt lat="39.941629" lon="-0.560886">
        <ele>651.391</ele>
        <time>2020-01-17T10:37:05Z</time>
      </trkpt>
      <trkpt lat="39.941676" lon="-0.560962">
        <ele>651.485</ele>
        <time>2020-01-17T10:37:07Z</time>
      </trkpt>
      <trkpt lat="39.941746" lon="-0.56108">
        <ele>649.053</ele>
        <time>2020-01-17T10:37:10Z</time>
      </trkpt>
      <trkpt lat="39.941795" lon="-0.561141">
        <ele>647.85</ele>
        <time>2020-01-17T10:37:12Z</time>
      </trkpt>
      <trkpt lat="39.941835" lon="-0.561208">
        <ele>647.239</ele>
        <time>2020-01-17T10:37:14Z</time>
      </trkpt>
      <trkpt lat="39.941855" lon="-0.56124">
        <ele>645.199</ele>
        <time>2020-01-17T10:37:15Z</time>
      </trkpt>
      <trkpt lat="39.941952" lon="-0.561373">
        <ele>644.844</ele>
        <time>2020-01-17T10:37:19Z</time>
      </trkpt>
      <trkpt lat="39.941975" lon="-0.561403">
        <ele>645.438</ele>
        <time>2020-01-17T10:37:20Z</time>
      </trkpt>
      <trkpt lat="39.941998" lon="-0.561432">
        <ele>645.212</ele>
        <time>2020-01-17T10:37:21Z</time>
      </trkpt>
      <trkpt lat="39.94202" lon="-0.561458">
        <ele>646.315</ele>
        <time>2020-01-17T10:37:22Z</time>
      </trkpt>
      <trkpt lat="39.942038" lon="-0.561479">
        <ele>646.412</ele>
        <time>2020-01-17T10:37:23Z</time>
      </trkpt>
      <trkpt lat="39.942056" lon="-0.561499">
        <ele>649.592</ele>
        <time>2020-01-17T10:37:24Z</time>
      </trkpt>
      <trkpt lat="39.942076" lon="-0.561523">
        <ele>648.54</ele>
        <time>2020-01-17T10:37:25Z</time>
      </trkpt>
      <trkpt lat="39.942119" lon="-0.561573">
        <ele>648.013</ele>
        <time>2020-01-17T10:37:27Z</time>
      </trkpt>
      <trkpt lat="39.94218" lon="-0.561651">
        <ele>648.72</ele>
        <time>2020-01-17T10:37:30Z</time>
      </trkpt>
      <trkpt lat="39.942221" lon="-0.561714">
        <ele>648.703</ele>
        <time>2020-01-17T10:37:32Z</time>
      </trkpt>
      <trkpt lat="39.942329" lon="-0.561812">
        <ele>648.76</ele>
        <time>2020-01-17T10:37:36Z</time>
      </trkpt>
      <trkpt lat="39.942381" lon="-0.561865">
        <ele>649.065</ele>
        <time>2020-01-17T10:37:38Z</time>
      </trkpt>
      <trkpt lat="39.942436" lon="-0.561898">
        <ele>651.413</ele>
        <time>2020-01-17T10:37:41Z</time>
      </trkpt>
      <trkpt lat="39.942488" lon="-0.561918">
        <ele>653.578</ele>
        <time>2020-01-17T10:37:42Z</time>
      </trkpt>
      <trkpt lat="39.942514" lon="-0.56193">
        <ele>653.686</ele>
        <time>2020-01-17T10:37:43Z</time>
      </trkpt>
      <trkpt lat="39.94256" lon="-0.561969">
        <ele>653.461</ele>
        <time>2020-01-17T10:37:45Z</time>
      </trkpt>
      <trkpt lat="39.942667" lon="-0.561997">
        <ele>654.019</ele>
        <time>2020-01-17T10:37:49Z</time>
      </trkpt>
      <trkpt lat="39.942735" lon="-0.562007">
        <ele>652.684</ele>
        <time>2020-01-17T10:37:51Z</time>
      </trkpt>
      <trkpt lat="39.942764" lon="-0.562011">
        <ele>652.0</ele>
        <time>2020-01-17T10:37:52Z</time>
      </trkpt>
      <trkpt lat="39.94282" lon="-0.56202">
        <ele>651.246</ele>
        <time>2020-01-17T10:37:54Z</time>
      </trkpt>
      <trkpt lat="39.942894" lon="-0.562066">
        <ele>651.486</ele>
        <time>2020-01-17T10:37:56Z</time>
      </trkpt>
      <trkpt lat="39.942927" lon="-0.562085">
        <ele>651.924</ele>
        <time>2020-01-17T10:37:57Z</time>
      </trkpt>
      <trkpt lat="39.943091" lon="-0.562117">
        <ele>653.08</ele>
        <time>2020-01-17T10:38:02Z</time>
      </trkpt>
      <trkpt lat="39.943217" lon="-0.562163">
        <ele>652.475</ele>
        <time>2020-01-17T10:38:05Z</time>
      </trkpt>
      <trkpt lat="39.943252" lon="-0.562177">
        <ele>651.416</ele>
        <time>2020-01-17T10:38:06Z</time>
      </trkpt>
      <trkpt lat="39.943317" lon="-0.562242">
        <ele>650.687</ele>
        <time>2020-01-17T10:38:09Z</time>
      </trkpt>
      <trkpt lat="39.943416" lon="-0.562259">
        <ele>652.24</ele>
        <time>2020-01-17T10:38:13Z</time>
      </trkpt>
      <trkpt lat="39.943469" lon="-0.562238">
        <ele>654.043</ele>
        <time>2020-01-17T10:38:15Z</time>
      </trkpt>
      <trkpt lat="39.943522" lon="-0.562228">
        <ele>653.914</ele>
        <time>2020-01-17T10:38:17Z</time>
      </trkpt>
      <trkpt lat="39.943591" lon="-0.562224">
        <ele>653.162</ele>
        <time>2020-01-17T10:38:20Z</time>
      </trkpt>
      <trkpt lat="39.943665" lon="-0.562213">
        <ele>652.415</ele>
        <time>2020-01-17T10:38:22Z</time>
      </trkpt>
      <trkpt lat="39.943703" lon="-0.562204">
        <ele>653.664</ele>
        <time>2020-01-17T10:38:23Z</time>
      </trkpt>
      <trkpt lat="39.943745" lon="-0.562198">
        <ele>653.295</ele>
        <time>2020-01-17T10:38:24Z</time>
      </trkpt>
      <trkpt lat="39.943809" lon="-0.562192">
        <ele>652.976</ele>
        <time>2020-01-17T10:38:26Z</time>
      </trkpt>
      <trkpt lat="39.943882" lon="-0.5622">
        <ele>648.669</ele>
        <time>2020-01-17T10:38:29Z</time>
      </trkpt>
      <trkpt lat="39.943911" lon="-0.562205">
        <ele>649.368</ele>
        <time>2020-01-17T10:38:30Z</time>
      </trkpt>
      <trkpt lat="39.944006" lon="-0.562238">
        <ele>648.9</ele>
        <time>2020-01-17T10:38:33Z</time>
      </trkpt>
      <trkpt lat="39.944073" lon="-0.562247">
        <ele>647.633</ele>
        <time>2020-01-17T10:38:35Z</time>
      </trkpt>
      <trkpt lat="39.944201" lon="-0.562322">
        <ele>648.578</ele>
        <time>2020-01-17T10:38:39Z</time>
      </trkpt>
      <trkpt lat="39.944229" lon="-0.562342">
        <ele>648.361</ele>
        <time>2020-01-17T10:38:40Z</time>
      </trkpt>
      <trkpt lat="39.944286" lon="-0.562365">
        <ele>650.312</ele>
        <time>2020-01-17T10:38:42Z</time>
      </trkpt>
      <trkpt lat="39.944352" lon="-0.562374">
        <ele>648.535</ele>
        <time>2020-01-17T10:38:44Z</time>
      </trkpt>
      <trkpt lat="39.944445" lon="-0.562369">
        <ele>646.696</ele>
        <time>2020-01-17T10:38:47Z</time>
      </trkpt>
      <trkpt lat="39.94451" lon="-0.56239">
        <ele>647.306</ele>
        <time>2020-01-17T10:38:49Z</time>
      </trkpt>
      <trkpt lat="39.944544" lon="-0.562399">
        <ele>647.247</ele>
        <time>2020-01-17T10:38:50Z</time>
      </trkpt>
      <trkpt lat="39.944577" lon="-0.562404">
        <ele>646.49</ele>
        <time>2020-01-17T10:38:51Z</time>
      </trkpt>
      <trkpt lat="39.944635" lon="-0.562418">
        <ele>648.046</ele>
        <time>2020-01-17T10:38:53Z</time>
      </trkpt>
      <trkpt lat="39.944664" lon="-0.562426">
        <ele>646.892</ele>
        <time>2020-01-17T10:38:54Z</time>
      </trkpt>
      <trkpt lat="39.944735" lon="-0.562446">
        <ele>646.86</ele>
        <time>2020-01-17T10:38:56Z</time>
      </trkpt>
      <trkpt lat="39.944784" lon="-0.562442">
        <ele>645.409</ele>
        <time>2020-01-17T10:38:58Z</time>
      </trkpt>
      <trkpt lat="39.944876" lon="-0.562418">
        <ele>646.314</ele>
        <time>2020-01-17T10:39:02Z</time>
      </trkpt>
      <trkpt lat="39.945034" lon="-0.562433">
        <ele>647.293</ele>
        <time>2020-01-17T10:39:06Z</time>
      </trkpt>
      <trkpt lat="39.945068" lon="-0.562437">
        <ele>651.297</ele>
        <time>2020-01-17T10:39:07Z</time>
      </trkpt>
      <trkpt lat="39.945104" lon="-0.562443">
        <ele>651.083</ele>
        <time>2020-01-17T10:39:08Z</time>
      </trkpt>
      <trkpt lat="39.9452" lon="-0.562476">
        <ele>653.49</ele>
        <time>2020-01-17T10:39:11Z</time>
      </trkpt>
      <trkpt lat="39.945225" lon="-0.562484">
        <ele>652.041</ele>
        <time>2020-01-17T10:39:12Z</time>
      </trkpt>
      <trkpt lat="39.945274" lon="-0.562491">
        <ele>652.76</ele>
        <time>2020-01-17T10:39:14Z</time>
      </trkpt>
      <trkpt lat="39.945302" lon="-0.562496">
        <ele>653.388</ele>
        <time>2020-01-17T10:39:15Z</time>
      </trkpt>
      <trkpt lat="39.945327" lon="-0.562499">
        <ele>655.768</ele>
        <time>2020-01-17T10:39:16Z</time>
      </trkpt>
      <trkpt lat="39.945368" lon="-0.562507">
        <ele>656.716</ele>
        <time>2020-01-17T10:39:18Z</time>
      </trkpt>
      <trkpt lat="39.945507" lon="-0.562546">
        <ele>656.516</ele>
        <time>2020-01-17T10:39:22Z</time>
      </trkpt>
      <trkpt lat="39.945585" lon="-0.562581">
        <ele>658.133</ele>
        <time>2020-01-17T10:39:24Z</time>
      </trkpt>
      <trkpt lat="39.945661" lon="-0.562602">
        <ele>660.626</ele>
        <time>2020-01-17T10:39:26Z</time>
      </trkpt>
      <trkpt lat="39.945834" lon="-0.562612">
        <ele>661.462</ele>
        <time>2020-01-17T10:39:30Z</time>
      </trkpt>
      <trkpt lat="39.945865" lon="-0.562613">
        <ele>664.488</ele>
        <time>2020-01-17T10:39:31Z</time>
      </trkpt>
      <trkpt lat="39.945923" lon="-0.562627">
        <ele>664.064</ele>
        <time>2020-01-17T10:39:33Z</time>
      </trkpt>
      <trkpt lat="39.945988" lon="-0.562632">
        <ele>664.099</ele>
        <time>2020-01-17T10:39:35Z</time>
      </trkpt>
      <trkpt lat="39.946014" lon="-0.562637">
        <ele>660.451</ele>
        <time>2020-01-17T10:39:36Z</time>
      </trkpt>
      <trkpt lat="39.946073" lon="-0.562671">
        <ele>661.969</ele>
        <time>2020-01-17T10:39:38Z</time>
      </trkpt>
      <trkpt lat="39.946121" lon="-0.562726">
        <ele>661.41</ele>
        <time>2020-01-17T10:39:40Z</time>
      </trkpt>
      <trkpt lat="39.946144" lon="-0.562751">
        <ele>660.695</ele>
        <time>2020-01-17T10:39:41Z</time>
      </trkpt>
      <trkpt lat="39.946199" lon="-0.562862">
        <ele>659.038</ele>
        <time>2020-01-17T10:39:44Z</time>
      </trkpt>
      <trkpt lat="39.94624" lon="-0.562956">
        <ele>657.908</ele>
        <time>2020-01-17T10:39:46Z</time>
      </trkpt>
      <trkpt lat="39.946294" lon="-0.563027">
        <ele>659.63</ele>
        <time>2020-01-17T10:39:48Z</time>
      </trkpt>
      <trkpt lat="39.946347" lon="-0.563082">
        <ele>662.86</ele>
        <time>2020-01-17T10:39:50Z</time>
      </trkpt>
      <trkpt lat="39.946397" lon="-0.563108">
        <ele>660.205</ele>
        <time>2020-01-17T10:39:52Z</time>
      </trkpt>
      <trkpt lat="39.946438" lon="-0.563153">
        <ele>665.289</ele>
        <time>2020-01-17T10:39:54Z</time>
      </trkpt>
      <trkpt lat="39.946485" lon="-0.563244">
        <ele>664.781</ele>
        <time>2020-01-17T10:39:57Z</time>
      </trkpt>
      <trkpt lat="39.946536" lon="-0.563362">
        <ele>665.319</ele>
        <time>2020-01-17T10:40:00Z</time>
      </trkpt>
      <trkpt lat="39.946604" lon="-0.563466">
        <ele>664.672</ele>
        <time>2020-01-17T10:40:03Z</time>
      </trkpt>
      <trkpt lat="39.946628" lon="-0.563506">
        <ele>664.359</ele>
        <time>2020-01-17T10:40:04Z</time>
      </trkpt>
      <trkpt lat="39.946647" lon="-0.563542">
        <ele>663.864</ele>
        <time>2020-01-17T10:40:05Z</time>
      </trkpt>
      <trkpt lat="39.946662" lon="-0.563571">
        <ele>663.634</ele>
        <time>2020-01-17T10:40:06Z</time>
      </trkpt>
      <trkpt lat="39.946674" lon="-0.563597">
        <ele>664.099</ele>
        <time>2020-01-17T10:40:07Z</time>
      </trkpt>
      <trkpt lat="39.94671" lon="-0.563661">
        <ele>664.17</ele>
        <time>2020-01-17T10:40:09Z</time>
      </trkpt>
      <trkpt lat="39.946729" lon="-0.56369">
        <ele>664.104</ele>
        <time>2020-01-17T10:40:10Z</time>
      </trkpt>
      <trkpt lat="39.946798" lon="-0.563777">
        <ele>663.14</ele>
        <time>2020-01-17T10:40:13Z</time>
      </trkpt>
      <trkpt lat="39.946838" lon="-0.563882">
        <ele>662.808</ele>
        <time>2020-01-17T10:40:16Z</time>
      </trkpt>
      <trkpt lat="39.946854" lon="-0.563918">
        <ele>662.986</ele>
        <time>2020-01-17T10:40:17Z</time>
      </trkpt>
      <trkpt lat="39.946888" lon="-0.563974">
        <ele>663.155</ele>
        <time>2020-01-17T10:40:19Z</time>
      </trkpt>
      <trkpt lat="39.946926" lon="-0.564021">
        <ele>662.672</ele>
        <time>2020-01-17T10:40:21Z</time>
      </trkpt>
      <trkpt lat="39.946975" lon="-0.56407">
        <ele>661.812</ele>
        <time>2020-01-17T10:40:23Z</time>
      </trkpt>
      <trkpt lat="39.947014" lon="-0.564125">
        <ele>662.381</ele>
        <time>2020-01-17T10:40:25Z</time>
      </trkpt>
      <trkpt lat="39.94705" lon="-0.564188">
        <ele>661.158</ele>
        <time>2020-01-17T10:40:28Z</time>
      </trkpt>
      <trkpt lat="39.947085" lon="-0.564261">
        <ele>660.48</ele>
        <time>2020-01-17T10:40:29Z</time>
      </trkpt>
      <trkpt lat="39.947121" lon="-0.56438">
        <ele>659.377</ele>
        <time>2020-01-17T10:40:32Z</time>
      </trkpt>
      <trkpt lat="39.947194" lon="-0.564498">
        <ele>658.711</ele>
        <time>2020-01-17T10:40:35Z</time>
      </trkpt>
      <trkpt lat="39.947218" lon="-0.564535">
        <ele>655.755</ele>
        <time>2020-01-17T10:40:36Z</time>
      </trkpt>
      <trkpt lat="39.947262" lon="-0.564607">
        <ele>657.403</ele>
        <time>2020-01-17T10:40:38Z</time>
      </trkpt>
      <trkpt lat="39.947314" lon="-0.564703">
        <ele>655.891</ele>
        <time>2020-01-17T10:40:41Z</time>
      </trkpt>
      <trkpt lat="39.947363" lon="-0.564812">
        <ele>654.254</ele>
        <time>2020-01-17T10:40:44Z</time>
      </trkpt>
      <trkpt lat="39.94739" lon="-0.564861">
        <ele>654.4</ele>
        <time>2020-01-17T10:40:46Z</time>
      </trkpt>
      <trkpt lat="39.947427" lon="-0.564909">
        <ele>654.329</ele>
        <time>2020-01-17T10:40:48Z</time>
      </trkpt>
      <trkpt lat="39.947465" lon="-0.564974">
        <ele>655.321</ele>
        <time>2020-01-17T10:40:50Z</time>
      </trkpt>
      <trkpt lat="39.947524" lon="-0.565143">
        <ele>656.549</ele>
        <time>2020-01-17T10:40:55Z</time>
      </trkpt>
      <trkpt lat="39.947593" lon="-0.565259">
        <ele>655.287</ele>
        <time>2020-01-17T10:40:59Z</time>
      </trkpt>
      <trkpt lat="39.947624" lon="-0.565363">
        <ele>659.622</ele>
        <time>2020-01-17T10:41:02Z</time>
      </trkpt>
      <trkpt lat="39.94768" lon="-0.565446">
        <ele>660.918</ele>
        <time>2020-01-17T10:41:05Z</time>
      </trkpt>
      <trkpt lat="39.947752" lon="-0.56555">
        <ele>662.29</ele>
        <time>2020-01-17T10:41:08Z</time>
      </trkpt>
      <trkpt lat="39.947805" lon="-0.565598">
        <ele>663.384</ele>
        <time>2020-01-17T10:41:10Z</time>
      </trkpt>
      <trkpt lat="39.947852" lon="-0.565713">
        <ele>665.152</ele>
        <time>2020-01-17T10:41:13Z</time>
      </trkpt>
      <trkpt lat="39.947874" lon="-0.565778">
        <ele>664.439</ele>
        <time>2020-01-17T10:41:15Z</time>
      </trkpt>
      <trkpt lat="39.947874" lon="-0.565778">
        <ele>664.546</ele>
        <time>2020-01-17T10:41:21Z</time>
      </trkpt>
      <trkpt lat="39.947874" lon="-0.565778">
        <ele>663.213</ele>
        <time>2020-01-17T11:07:00Z</time>
      </trkpt>
      <trkpt lat="39.947782" lon="-0.565517">
        <ele>662.416</ele>
        <time>2020-01-17T11:07:00Z</time>
      </trkpt>
      <trkpt lat="39.947667" lon="-0.565454">
        <ele>655.161</ele>
        <time>2020-01-17T11:07:04Z</time>
      </trkpt>
      <trkpt lat="39.947617" lon="-0.565374">
        <ele>655.493</ele>
        <time>2020-01-17T11:07:06Z</time>
      </trkpt>
      <trkpt lat="39.94758" lon="-0.565333">
        <ele>651.298</ele>
        <time>2020-01-17T11:07:07Z</time>
      </trkpt>
      <trkpt lat="39.947556" lon="-0.565223">
        <ele>651.202</ele>
        <time>2020-01-17T11:07:09Z</time>
      </trkpt>
      <trkpt lat="39.947522" lon="-0.565174">
        <ele>650.166</ele>
        <time>2020-01-17T11:07:10Z</time>
      </trkpt>
      <trkpt lat="39.947493" lon="-0.565124">
        <ele>650.432</ele>
        <time>2020-01-17T11:07:11Z</time>
      </trkpt>
      <trkpt lat="39.947455" lon="-0.565074">
        <ele>649.373</ele>
        <time>2020-01-17T11:07:12Z</time>
      </trkpt>
      <trkpt lat="39.94742" lon="-0.565025">
        <ele>648.694</ele>
        <time>2020-01-17T11:07:13Z</time>
      </trkpt>
      <trkpt lat="39.947379" lon="-0.564976">
        <ele>648.455</ele>
        <time>2020-01-17T11:07:14Z</time>
      </trkpt>
      <trkpt lat="39.947355" lon="-0.564924">
        <ele>647.619</ele>
        <time>2020-01-17T11:07:15Z</time>
      </trkpt>
      <trkpt lat="39.94734" lon="-0.564864">
        <ele>648.269</ele>
        <time>2020-01-17T11:07:16Z</time>
      </trkpt>
      <trkpt lat="39.947308" lon="-0.564808">
        <ele>649.15</ele>
        <time>2020-01-17T11:07:17Z</time>
      </trkpt>
      <trkpt lat="39.94728" lon="-0.564762">
        <ele>649.743</ele>
        <time>2020-01-17T11:07:18Z</time>
      </trkpt>
      <trkpt lat="39.947241" lon="-0.564709">
        <ele>652.327</ele>
        <time>2020-01-17T11:07:19Z</time>
      </trkpt>
      <trkpt lat="39.947205" lon="-0.564653">
        <ele>653.139</ele>
        <time>2020-01-17T11:07:20Z</time>
      </trkpt>
      <trkpt lat="39.947184" lon="-0.564579">
        <ele>653.453</ele>
        <time>2020-01-17T11:07:21Z</time>
      </trkpt>
      <trkpt lat="39.947159" lon="-0.564526">
        <ele>653.276</ele>
        <time>2020-01-17T11:07:22Z</time>
      </trkpt>
      <trkpt lat="39.947136" lon="-0.564468">
        <ele>652.821</ele>
        <time>2020-01-17T11:07:23Z</time>
      </trkpt>
      <trkpt lat="39.947101" lon="-0.564428">
        <ele>647.777</ele>
        <time>2020-01-17T11:07:24Z</time>
      </trkpt>
      <trkpt lat="39.947074" lon="-0.564378">
        <ele>649.498</ele>
        <time>2020-01-17T11:07:25Z</time>
      </trkpt>
      <trkpt lat="39.947018" lon="-0.564314">
        <ele>650.107</ele>
        <time>2020-01-17T11:07:27Z</time>
      </trkpt>
      <trkpt lat="39.947003" lon="-0.564241">
        <ele>651.267</ele>
        <time>2020-01-17T11:07:29Z</time>
      </trkpt>
      <trkpt lat="39.947003" lon="-0.564241">
        <ele>651.147</ele>
        <time>2020-01-17T11:07:36Z</time>
      </trkpt>
      <trkpt lat="39.947003" lon="-0.564241">
        <ele>651.222</ele>
        <time>2020-01-17T11:07:40Z</time>
      </trkpt>
      <trkpt lat="39.946982" lon="-0.564173">
        <ele>651.226</ele>
        <time>2020-01-17T11:07:40Z</time>
      </trkpt>
      <trkpt lat="39.946923" lon="-0.564051">
        <ele>651.332</ele>
        <time>2020-01-17T11:07:44Z</time>
      </trkpt>
      <trkpt lat="39.946909" lon="-0.56396">
        <ele>651.464</ele>
        <time>2020-01-17T11:07:46Z</time>
      </trkpt>
      <trkpt lat="39.946904" lon="-0.563911">
        <ele>649.24</ele>
        <time>2020-01-17T11:07:47Z</time>
      </trkpt>
      <trkpt lat="39.946898" lon="-0.563868">
        <ele>650.216</ele>
        <time>2020-01-17T11:07:48Z</time>
      </trkpt>
      <trkpt lat="39.946869" lon="-0.563803">
        <ele>650.145</ele>
        <time>2020-01-17T11:07:50Z</time>
      </trkpt>
      <trkpt lat="39.946825" lon="-0.563749">
        <ele>650.466</ele>
        <time>2020-01-17T11:07:52Z</time>
      </trkpt>
      <trkpt lat="39.946785" lon="-0.563712">
        <ele>650.209</ele>
        <time>2020-01-17T11:07:55Z</time>
      </trkpt>
      <trkpt lat="39.946753" lon="-0.56366">
        <ele>651.082</ele>
        <time>2020-01-17T11:07:58Z</time>
      </trkpt>
      <trkpt lat="39.946711" lon="-0.563603">
        <ele>651.754</ele>
        <time>2020-01-17T11:08:00Z</time>
      </trkpt>
      <trkpt lat="39.946691" lon="-0.563575">
        <ele>650.724</ele>
        <time>2020-01-17T11:08:01Z</time>
      </trkpt>
      <trkpt lat="39.946671" lon="-0.563549">
        <ele>651.066</ele>
        <time>2020-01-17T11:08:02Z</time>
      </trkpt>
      <trkpt lat="39.946632" lon="-0.563483">
        <ele>651.583</ele>
        <time>2020-01-17T11:08:04Z</time>
      </trkpt>
      <trkpt lat="39.946607" lon="-0.563445">
        <ele>652.62</ele>
        <time>2020-01-17T11:08:05Z</time>
      </trkpt>
      <trkpt lat="39.946505" lon="-0.563332">
        <ele>652.857</ele>
        <time>2020-01-17T11:08:08Z</time>
      </trkpt>
      <trkpt lat="39.946459" lon="-0.563287">
        <ele>652.284</ele>
        <time>2020-01-17T11:08:09Z</time>
      </trkpt>
      <trkpt lat="39.946414" lon="-0.563236">
        <ele>652.661</ele>
        <time>2020-01-17T11:08:10Z</time>
      </trkpt>
      <trkpt lat="39.946174" lon="-0.562975">
        <ele>651.688</ele>
        <time>2020-01-17T11:08:13Z</time>
      </trkpt>
      <trkpt lat="39.946133" lon="-0.562941">
        <ele>651.724</ele>
        <time>2020-01-17T11:08:14Z</time>
      </trkpt>
      <trkpt lat="39.946067" lon="-0.562825">
        <ele>650.879</ele>
        <time>2020-01-17T11:08:16Z</time>
      </trkpt>
      <trkpt lat="39.946026" lon="-0.562799">
        <ele>648.229</ele>
        <time>2020-01-17T11:08:17Z</time>
      </trkpt>
      <trkpt lat="39.945983" lon="-0.562765">
        <ele>646.072</ele>
        <time>2020-01-17T11:08:18Z</time>
      </trkpt>
      <trkpt lat="39.945948" lon="-0.562742">
        <ele>646.307</ele>
        <time>2020-01-17T11:08:19Z</time>
      </trkpt>
      <trkpt lat="39.945881" lon="-0.562683">
        <ele>646.888</ele>
        <time>2020-01-17T11:08:21Z</time>
      </trkpt>
      <trkpt lat="39.945813" lon="-0.56263">
        <ele>647.962</ele>
        <time>2020-01-17T11:08:23Z</time>
      </trkpt>
      <trkpt lat="39.94575" lon="-0.562581">
        <ele>648.568</ele>
        <time>2020-01-17T11:08:25Z</time>
      </trkpt>
      <trkpt lat="39.945653" lon="-0.562514">
        <ele>649.122</ele>
        <time>2020-01-17T11:08:28Z</time>
      </trkpt>
      <trkpt lat="39.9456" lon="-0.56251">
        <ele>649.612</ele>
        <time>2020-01-17T11:08:30Z</time>
      </trkpt>
      <trkpt lat="39.945577" lon="-0.562506">
        <ele>648.625</ele>
        <time>2020-01-17T11:08:31Z</time>
      </trkpt>
      <trkpt lat="39.945553" lon="-0.562503">
        <ele>647.722</ele>
        <time>2020-01-17T11:08:32Z</time>
      </trkpt>
      <trkpt lat="39.945431" lon="-0.562493">
        <ele>647.78</ele>
        <time>2020-01-17T11:08:36Z</time>
      </trkpt>
      <trkpt lat="39.945376" lon="-0.56249">
        <ele>647.369</ele>
        <time>2020-01-17T11:08:37Z</time>
      </trkpt>
      <trkpt lat="39.945323" lon="-0.562486">
        <ele>646.834</ele>
        <time>2020-01-17T11:08:38Z</time>
      </trkpt>
      <trkpt lat="39.945269" lon="-0.562481">
        <ele>645.542</ele>
        <time>2020-01-17T11:08:39Z</time>
      </trkpt>
      <trkpt lat="39.945192" lon="-0.562474">
        <ele>646.931</ele>
        <time>2020-01-17T11:08:40Z</time>
      </trkpt>
      <trkpt lat="39.94498" lon="-0.562449">
        <ele>647.666</ele>
        <time>2020-01-17T11:08:43Z</time>
      </trkpt>
      <trkpt lat="39.94489" lon="-0.562435">
        <ele>647.931</ele>
        <time>2020-01-17T11:08:45Z</time>
      </trkpt>
      <trkpt lat="39.944851" lon="-0.562433">
        <ele>647.37</ele>
        <time>2020-01-17T11:08:46Z</time>
      </trkpt>
      <trkpt lat="39.944732" lon="-0.5624">
        <ele>646.046</ele>
        <time>2020-01-17T11:08:49Z</time>
      </trkpt>
      <trkpt lat="39.944694" lon="-0.562387">
        <ele>645.906</ele>
        <time>2020-01-17T11:08:50Z</time>
      </trkpt>
      <trkpt lat="39.944611" lon="-0.562389">
        <ele>646.605</ele>
        <time>2020-01-17T11:08:52Z</time>
      </trkpt>
      <trkpt lat="39.944567" lon="-0.562386">
        <ele>646.991</ele>
        <time>2020-01-17T11:08:53Z</time>
      </trkpt>
      <trkpt lat="39.944529" lon="-0.56238">
        <ele>647.465</ele>
        <time>2020-01-17T11:08:54Z</time>
      </trkpt>
      <trkpt lat="39.94449" lon="-0.562378">
        <ele>646.882</ele>
        <time>2020-01-17T11:08:55Z</time>
      </trkpt>
      <trkpt lat="39.944405" lon="-0.562353">
        <ele>646.923</ele>
        <time>2020-01-17T11:08:57Z</time>
      </trkpt>
      <trkpt lat="39.944321" lon="-0.56235">
        <ele>647.667</ele>
        <time>2020-01-17T11:08:59Z</time>
      </trkpt>
      <trkpt lat="39.94423" lon="-0.562326">
        <ele>643.227</ele>
        <time>2020-01-17T11:09:01Z</time>
      </trkpt>
      <trkpt lat="39.944192" lon="-0.562319">
        <ele>643.787</ele>
        <time>2020-01-17T11:09:02Z</time>
      </trkpt>
      <trkpt lat="39.94415" lon="-0.562311">
        <ele>643.68</ele>
        <time>2020-01-17T11:09:03Z</time>
      </trkpt>
      <trkpt lat="39.944071" lon="-0.562304">
        <ele>643.58</ele>
        <time>2020-01-17T11:09:05Z</time>
      </trkpt>
      <trkpt lat="39.94403" lon="-0.562301">
        <ele>644.082</ele>
        <time>2020-01-17T11:09:06Z</time>
      </trkpt>
      <trkpt lat="39.943977" lon="-0.562297">
        <ele>643.577</ele>
        <time>2020-01-17T11:09:07Z</time>
      </trkpt>
      <trkpt lat="39.943939" lon="-0.562291">
        <ele>644.171</ele>
        <time>2020-01-17T11:09:08Z</time>
      </trkpt>
      <trkpt lat="39.943904" lon="-0.562282">
        <ele>644.022</ele>
        <time>2020-01-17T11:09:09Z</time>
      </trkpt>
      <trkpt lat="39.943861" lon="-0.562276">
        <ele>644.608</ele>
        <time>2020-01-17T11:09:10Z</time>
      </trkpt>
      <trkpt lat="39.943819" lon="-0.562271">
        <ele>644.842</ele>
        <time>2020-01-17T11:09:11Z</time>
      </trkpt>
      <trkpt lat="39.943778" lon="-0.562267">
        <ele>644.413</ele>
        <time>2020-01-17T11:09:12Z</time>
      </trkpt>
      <trkpt lat="39.943737" lon="-0.562264">
        <ele>643.802</ele>
        <time>2020-01-17T11:09:13Z</time>
      </trkpt>
      <trkpt lat="39.943695" lon="-0.56226">
        <ele>642.908</ele>
        <time>2020-01-17T11:09:14Z</time>
      </trkpt>
      <trkpt lat="39.943654" lon="-0.562256">
        <ele>642.187</ele>
        <time>2020-01-17T11:09:15Z</time>
      </trkpt>
      <trkpt lat="39.943536" lon="-0.562226">
        <ele>641.685</ele>
        <time>2020-01-17T11:09:18Z</time>
      </trkpt>
      <trkpt lat="39.943449" lon="-0.562197">
        <ele>642.27</ele>
        <time>2020-01-17T11:09:20Z</time>
      </trkpt>
      <trkpt lat="39.943407" lon="-0.562182">
        <ele>642.08</ele>
        <time>2020-01-17T11:09:21Z</time>
      </trkpt>
      <trkpt lat="39.943321" lon="-0.562155">
        <ele>641.159</ele>
        <time>2020-01-17T11:09:23Z</time>
      </trkpt>
      <trkpt lat="39.943234" lon="-0.562129">
        <ele>640.512</ele>
        <time>2020-01-17T11:09:25Z</time>
      </trkpt>
      <trkpt lat="39.943189" lon="-0.56212">
        <ele>639.838</ele>
        <time>2020-01-17T11:09:26Z</time>
      </trkpt>
      <trkpt lat="39.943095" lon="-0.562103">
        <ele>639.997</ele>
        <time>2020-01-17T11:09:28Z</time>
      </trkpt>
      <trkpt lat="39.943021" lon="-0.562088">
        <ele>640.333</ele>
        <time>2020-01-17T11:09:30Z</time>
      </trkpt>
      <trkpt lat="39.942972" lon="-0.562074">
        <ele>641.217</ele>
        <time>2020-01-17T11:09:31Z</time>
      </trkpt>
      <trkpt lat="39.942874" lon="-0.562041">
        <ele>641.015</ele>
        <time>2020-01-17T11:09:33Z</time>
      </trkpt>
      <trkpt lat="39.942814" lon="-0.562025">
        <ele>641.366</ele>
        <time>2020-01-17T11:09:34Z</time>
      </trkpt>
      <trkpt lat="39.942767" lon="-0.562003">
        <ele>640.86</ele>
        <time>2020-01-17T11:09:35Z</time>
      </trkpt>
      <trkpt lat="39.942727" lon="-0.561967">
        <ele>643.057</ele>
        <time>2020-01-17T11:09:36Z</time>
      </trkpt>
      <trkpt lat="39.942643" lon="-0.561924">
        <ele>643.501</ele>
        <time>2020-01-17T11:09:38Z</time>
      </trkpt>
      <trkpt lat="39.94256" lon="-0.561881">
        <ele>643.736</ele>
        <time>2020-01-17T11:09:40Z</time>
      </trkpt>
      <trkpt lat="39.942513" lon="-0.561861">
        <ele>639.243</ele>
        <time>2020-01-17T11:09:41Z</time>
      </trkpt>
      <trkpt lat="39.942435" lon="-0.561808">
        <ele>639.082</ele>
        <time>2020-01-17T11:09:43Z</time>
      </trkpt>
      <trkpt lat="39.942347" lon="-0.561757">
        <ele>640.562</ele>
        <time>2020-01-17T11:09:45Z</time>
      </trkpt>
      <trkpt lat="39.942289" lon="-0.561671">
        <ele>639.41</ele>
        <time>2020-01-17T11:09:47Z</time>
      </trkpt>
      <trkpt lat="39.942167" lon="-0.561584">
        <ele>637.536</ele>
        <time>2020-01-17T11:09:49Z</time>
      </trkpt>
      <trkpt lat="39.94213" lon="-0.561542">
        <ele>635.174</ele>
        <time>2020-01-17T11:09:50Z</time>
      </trkpt>
      <trkpt lat="39.942091" lon="-0.56146">
        <ele>636.817</ele>
        <time>2020-01-17T11:09:52Z</time>
      </trkpt>
      <trkpt lat="39.942066" lon="-0.561416">
        <ele>636.167</ele>
        <time>2020-01-17T11:09:53Z</time>
      </trkpt>
      <trkpt lat="39.94203" lon="-0.561372">
        <ele>636.551</ele>
        <time>2020-01-17T11:09:54Z</time>
      </trkpt>
      <trkpt lat="39.941997" lon="-0.561331">
        <ele>636.985</ele>
        <time>2020-01-17T11:09:55Z</time>
      </trkpt>
      <trkpt lat="39.941965" lon="-0.561286">
        <ele>637.091</ele>
        <time>2020-01-17T11:09:56Z</time>
      </trkpt>
      <trkpt lat="39.94193" lon="-0.56124">
        <ele>636.608</ele>
        <time>2020-01-17T11:09:57Z</time>
      </trkpt>
      <trkpt lat="39.941914" lon="-0.561163">
        <ele>637.003</ele>
        <time>2020-01-17T11:09:58Z</time>
      </trkpt>
      <trkpt lat="39.941842" lon="-0.561084">
        <ele>636.703</ele>
        <time>2020-01-17T11:10:00Z</time>
      </trkpt>
      <trkpt lat="39.941809" lon="-0.561041">
        <ele>637.319</ele>
        <time>2020-01-17T11:10:01Z</time>
      </trkpt>
      <trkpt lat="39.941775" lon="-0.560997">
        <ele>636.448</ele>
        <time>2020-01-17T11:10:02Z</time>
      </trkpt>
      <trkpt lat="39.941743" lon="-0.560959">
        <ele>636.615</ele>
        <time>2020-01-17T11:10:03Z</time>
      </trkpt>
      <trkpt lat="39.941704" lon="-0.560915">
        <ele>636.162</ele>
        <time>2020-01-17T11:10:04Z</time>
      </trkpt>
      <trkpt lat="39.94166" lon="-0.560863">
        <ele>635.439</ele>
        <time>2020-01-17T11:10:05Z</time>
      </trkpt>
      <trkpt lat="39.941626" lon="-0.560813">
        <ele>635.991</ele>
        <time>2020-01-17T11:10:06Z</time>
      </trkpt>
      <trkpt lat="39.941592" lon="-0.56077">
        <ele>635.513</ele>
        <time>2020-01-17T11:10:07Z</time>
      </trkpt>
      <trkpt lat="39.941558" lon="-0.560728">
        <ele>635.243</ele>
        <time>2020-01-17T11:10:08Z</time>
      </trkpt>
      <trkpt lat="39.94153" lon="-0.56068">
        <ele>633.649</ele>
        <time>2020-01-17T11:10:09Z</time>
      </trkpt>
      <trkpt lat="39.941467" lon="-0.560586">
        <ele>634.344</ele>
        <time>2020-01-17T11:10:11Z</time>
      </trkpt>
      <trkpt lat="39.941411" lon="-0.560485">
        <ele>634.298</ele>
        <time>2020-01-17T11:10:13Z</time>
      </trkpt>
      <trkpt lat="39.941382" lon="-0.560433">
        <ele>634.941</ele>
        <time>2020-01-17T11:10:14Z</time>
      </trkpt>
      <trkpt lat="39.941348" lon="-0.560392">
        <ele>633.499</ele>
        <time>2020-01-17T11:10:15Z</time>
      </trkpt>
      <trkpt lat="39.941276" lon="-0.560311">
        <ele>635.235</ele>
        <time>2020-01-17T11:10:17Z</time>
      </trkpt>
      <trkpt lat="39.941205" lon="-0.560217">
        <ele>632.908</ele>
        <time>2020-01-17T11:10:19Z</time>
      </trkpt>
      <trkpt lat="39.941145" lon="-0.560113">
        <ele>631.923</ele>
        <time>2020-01-17T11:10:21Z</time>
      </trkpt>
      <trkpt lat="39.941113" lon="-0.560058">
        <ele>632.84</ele>
        <time>2020-01-17T11:10:22Z</time>
      </trkpt>
      <trkpt lat="39.941051" lon="-0.55996">
        <ele>631.283</ele>
        <time>2020-01-17T11:10:24Z</time>
      </trkpt>
      <trkpt lat="39.94098" lon="-0.559877">
        <ele>632.115</ele>
        <time>2020-01-17T11:10:26Z</time>
      </trkpt>
      <trkpt lat="39.940945" lon="-0.559843">
        <ele>632.154</ele>
        <time>2020-01-17T11:10:27Z</time>
      </trkpt>
      <trkpt lat="39.940915" lon="-0.559812">
        <ele>632.154</ele>
        <time>2020-01-17T11:10:28Z</time>
      </trkpt>
      <trkpt lat="39.940873" lon="-0.559765">
        <ele>633.246</ele>
        <time>2020-01-17T11:10:29Z</time>
      </trkpt>
      <trkpt lat="39.94079" lon="-0.559625">
        <ele>634.161</ele>
        <time>2020-01-17T11:10:32Z</time>
      </trkpt>
      <trkpt lat="39.940761" lon="-0.559573">
        <ele>633.868</ele>
        <time>2020-01-17T11:10:33Z</time>
      </trkpt>
      <trkpt lat="39.940648" lon="-0.559499">
        <ele>634.141</ele>
        <time>2020-01-17T11:10:36Z</time>
      </trkpt>
      <trkpt lat="39.940605" lon="-0.559465">
        <ele>634.791</ele>
        <time>2020-01-17T11:10:37Z</time>
      </trkpt>
      <trkpt lat="39.940571" lon="-0.559427">
        <ele>633.69</ele>
        <time>2020-01-17T11:10:38Z</time>
      </trkpt>
      <trkpt lat="39.940419" lon="-0.559284">
        <ele>633.735</ele>
        <time>2020-01-17T11:10:41Z</time>
      </trkpt>
      <trkpt lat="39.94035" lon="-0.559196">
        <ele>634.439</ele>
        <time>2020-01-17T11:10:43Z</time>
      </trkpt>
      <trkpt lat="39.940303" lon="-0.559185">
        <ele>634.278</ele>
        <time>2020-01-17T11:10:44Z</time>
      </trkpt>
      <trkpt lat="39.940256" lon="-0.559136">
        <ele>632.703</ele>
        <time>2020-01-17T11:10:45Z</time>
      </trkpt>
      <trkpt lat="39.940228" lon="-0.559066">
        <ele>634.462</ele>
        <time>2020-01-17T11:10:46Z</time>
      </trkpt>
      <trkpt lat="39.940164" lon="-0.558965">
        <ele>635.631</ele>
        <time>2020-01-17T11:10:48Z</time>
      </trkpt>
      <trkpt lat="39.940059" lon="-0.55885">
        <ele>634.573</ele>
        <time>2020-01-17T11:10:51Z</time>
      </trkpt>
      <trkpt lat="39.940016" lon="-0.558809">
        <ele>633.712</ele>
        <time>2020-01-17T11:10:52Z</time>
      </trkpt>
      <trkpt lat="39.939981" lon="-0.558769">
        <ele>635.151</ele>
        <time>2020-01-17T11:10:53Z</time>
      </trkpt>
      <trkpt lat="39.939933" lon="-0.558734">
        <ele>633.478</ele>
        <time>2020-01-17T11:10:54Z</time>
      </trkpt>
      <trkpt lat="39.939899" lon="-0.558695">
        <ele>632.221</ele>
        <time>2020-01-17T11:10:56Z</time>
      </trkpt>
      <trkpt lat="39.939808" lon="-0.558622">
        <ele>632.427</ele>
        <time>2020-01-17T11:10:57Z</time>
      </trkpt>
      <trkpt lat="39.939765" lon="-0.558592">
        <ele>632.71</ele>
        <time>2020-01-17T11:10:58Z</time>
      </trkpt>
      <trkpt lat="39.939724" lon="-0.558552">
        <ele>631.88</ele>
        <time>2020-01-17T11:10:59Z</time>
      </trkpt>
      <trkpt lat="39.93968" lon="-0.558533">
        <ele>630.929</ele>
        <time>2020-01-17T11:11:00Z</time>
      </trkpt>
      <trkpt lat="39.939635" lon="-0.558491">
        <ele>630.93</ele>
        <time>2020-01-17T11:11:01Z</time>
      </trkpt>
      <trkpt lat="39.939592" lon="-0.558456">
        <ele>630.459</ele>
        <time>2020-01-17T11:11:02Z</time>
      </trkpt>
      <trkpt lat="39.939464" lon="-0.558338">
        <ele>630.25</ele>
        <time>2020-01-17T11:11:05Z</time>
      </trkpt>
      <trkpt lat="39.939414" lon="-0.558302">
        <ele>629.906</ele>
        <time>2020-01-17T11:11:06Z</time>
      </trkpt>
      <trkpt lat="39.939378" lon="-0.558262">
        <ele>627.318</ele>
        <time>2020-01-17T11:11:07Z</time>
      </trkpt>
      <trkpt lat="39.939262" lon="-0.558178">
        <ele>625.671</ele>
        <time>2020-01-17T11:11:10Z</time>
      </trkpt>
      <trkpt lat="39.939196" lon="-0.55813">
        <ele>625.448</ele>
        <time>2020-01-17T11:11:12Z</time>
      </trkpt>
      <trkpt lat="39.939141" lon="-0.558098">
        <ele>625.343</ele>
        <time>2020-01-17T11:11:13Z</time>
      </trkpt>
      <trkpt lat="39.939103" lon="-0.558078">
        <ele>626.367</ele>
        <time>2020-01-17T11:11:14Z</time>
      </trkpt>
      <trkpt lat="39.939062" lon="-0.558041">
        <ele>626.238</ele>
        <time>2020-01-17T11:11:15Z</time>
      </trkpt>
      <trkpt lat="39.939025" lon="-0.558011">
        <ele>626.631</ele>
        <time>2020-01-17T11:11:16Z</time>
      </trkpt>
      <trkpt lat="39.93899" lon="-0.557976">
        <ele>626.078</ele>
        <time>2020-01-17T11:11:17Z</time>
      </trkpt>
      <trkpt lat="39.938891" lon="-0.557912">
        <ele>627.723</ele>
        <time>2020-01-17T11:11:20Z</time>
      </trkpt>
      <trkpt lat="39.938852" lon="-0.557868">
        <ele>627.681</ele>
        <time>2020-01-17T11:11:21Z</time>
      </trkpt>
      <trkpt lat="39.938722" lon="-0.557835">
        <ele>627.305</ele>
        <time>2020-01-17T11:11:24Z</time>
      </trkpt>
      <trkpt lat="39.938673" lon="-0.557821">
        <ele>628.458</ele>
        <time>2020-01-17T11:11:26Z</time>
      </trkpt>
      <trkpt lat="39.93863" lon="-0.557803">
        <ele>627.763</ele>
        <time>2020-01-17T11:11:29Z</time>
      </trkpt>
      <trkpt lat="39.93859" lon="-0.557748">
        <ele>628.585</ele>
        <time>2020-01-17T11:11:33Z</time>
      </trkpt>
      <trkpt lat="39.93857" lon="-0.557717">
        <ele>630.569</ele>
        <time>2020-01-17T11:11:41Z</time>
      </trkpt>
      <trkpt lat="39.93857" lon="-0.557717">
        <ele>627.293</ele>
        <time>2020-01-17T11:14:00Z</time>
      </trkpt>
      <trkpt lat="39.938544" lon="-0.557666">
        <ele>625.673</ele>
        <time>2020-01-17T11:16:13Z</time>
      </trkpt>
      <trkpt lat="39.938523" lon="-0.557623">
        <ele>625.221</ele>
        <time>2020-01-17T11:16:20Z</time>
      </trkpt>
      <trkpt lat="39.938511" lon="-0.557556">
        <ele>626.9</ele>
        <time>2020-01-17T11:16:29Z</time>
      </trkpt>
      <trkpt lat="39.938474" lon="-0.557521">
        <ele>627.649</ele>
        <time>2020-01-17T11:16:32Z</time>
      </trkpt>
      <trkpt lat="39.938424" lon="-0.557521">
        <ele>627.247</ele>
        <time>2020-01-17T11:16:40Z</time>
      </trkpt>
      <trkpt lat="39.938363" lon="-0.55749">
        <ele>624.074</ele>
        <time>2020-01-17T11:16:43Z</time>
      </trkpt>
      <trkpt lat="39.938322" lon="-0.557459">
        <ele>623.186</ele>
        <time>2020-01-17T11:16:44Z</time>
      </trkpt>
      <trkpt lat="39.938283" lon="-0.557428">
        <ele>622.745</ele>
        <time>2020-01-17T11:16:45Z</time>
      </trkpt>
      <trkpt lat="39.938241" lon="-0.5574">
        <ele>622.511</ele>
        <time>2020-01-17T11:16:46Z</time>
      </trkpt>
      <trkpt lat="39.938003" lon="-0.557253">
        <ele>621.699</ele>
        <time>2020-01-17T11:16:49Z</time>
      </trkpt>
      <trkpt lat="39.937926" lon="-0.557181">
        <ele>620.425</ele>
        <time>2020-01-17T11:16:52Z</time>
      </trkpt>
      <trkpt lat="39.937859" lon="-0.557139">
        <ele>620.43</ele>
        <time>2020-01-17T11:16:54Z</time>
      </trkpt>
      <trkpt lat="39.937814" lon="-0.5571">
        <ele>620.795</ele>
        <time>2020-01-17T11:16:55Z</time>
      </trkpt>
      <trkpt lat="39.937724" lon="-0.556998">
        <ele>621.139</ele>
        <time>2020-01-17T11:16:58Z</time>
      </trkpt>
      <trkpt lat="39.937676" lon="-0.556982">
        <ele>618.558</ele>
        <time>2020-01-17T11:16:59Z</time>
      </trkpt>
      <trkpt lat="39.937597" lon="-0.556938">
        <ele>618.012</ele>
        <time>2020-01-17T11:17:01Z</time>
      </trkpt>
      <trkpt lat="39.937496" lon="-0.556855">
        <ele>618.298</ele>
        <time>2020-01-17T11:17:04Z</time>
      </trkpt>
      <trkpt lat="39.937465" lon="-0.556827">
        <ele>619.302</ele>
        <time>2020-01-17T11:17:05Z</time>
      </trkpt>
      <trkpt lat="39.937435" lon="-0.556798">
        <ele>619.862</ele>
        <time>2020-01-17T11:17:06Z</time>
      </trkpt>
      <trkpt lat="39.937372" lon="-0.55674">
        <ele>618.21</ele>
        <time>2020-01-17T11:17:08Z</time>
      </trkpt>
      <trkpt lat="39.937278" lon="-0.556634">
        <ele>618.953</ele>
        <time>2020-01-17T11:17:11Z</time>
      </trkpt>
      <trkpt lat="39.937246" lon="-0.556599">
        <ele>619.007</ele>
        <time>2020-01-17T11:17:12Z</time>
      </trkpt>
      <trkpt lat="39.937209" lon="-0.556562">
        <ele>619.032</ele>
        <time>2020-01-17T11:17:13Z</time>
      </trkpt>
      <trkpt lat="39.937168" lon="-0.556523">
        <ele>618.635</ele>
        <time>2020-01-17T11:17:14Z</time>
      </trkpt>
      <trkpt lat="39.937131" lon="-0.556483">
        <ele>618.341</ele>
        <time>2020-01-17T11:17:15Z</time>
      </trkpt>
      <trkpt lat="39.9371" lon="-0.556435">
        <ele>618.031</ele>
        <time>2020-01-17T11:17:16Z</time>
      </trkpt>
      <trkpt lat="39.937071" lon="-0.556385">
        <ele>617.181</ele>
        <time>2020-01-17T11:17:17Z</time>
      </trkpt>
      <trkpt lat="39.937016" lon="-0.556292">
        <ele>612.605</ele>
        <time>2020-01-17T11:17:19Z</time>
      </trkpt>
      <trkpt lat="39.936957" lon="-0.556205">
        <ele>611.602</ele>
        <time>2020-01-17T11:17:21Z</time>
      </trkpt>
      <trkpt lat="39.936867" lon="-0.556093">
        <ele>612.551</ele>
        <time>2020-01-17T11:17:24Z</time>
      </trkpt>
      <trkpt lat="39.936838" lon="-0.556055">
        <ele>612.003</ele>
        <time>2020-01-17T11:17:25Z</time>
      </trkpt>
      <trkpt lat="39.936794" lon="-0.555978">
        <ele>611.284</ele>
        <time>2020-01-17T11:17:27Z</time>
      </trkpt>
      <trkpt lat="39.936709" lon="-0.55585">
        <ele>613.922</ele>
        <time>2020-01-17T11:17:30Z</time>
      </trkpt>
      <trkpt lat="39.936588" lon="-0.555706">
        <ele>614.593</ele>
        <time>2020-01-17T11:17:34Z</time>
      </trkpt>
      <trkpt lat="39.936542" lon="-0.555677">
        <ele>616.485</ele>
        <time>2020-01-17T11:17:35Z</time>
      </trkpt>
      <trkpt lat="39.936484" lon="-0.555604">
        <ele>616.755</ele>
        <time>2020-01-17T11:17:37Z</time>
      </trkpt>
      <trkpt lat="39.936445" lon="-0.555521">
        <ele>617.345</ele>
        <time>2020-01-17T11:17:39Z</time>
      </trkpt>
      <trkpt lat="39.936418" lon="-0.555472">
        <ele>615.421</ele>
        <time>2020-01-17T11:17:40Z</time>
      </trkpt>
      <trkpt lat="39.93639" lon="-0.555426">
        <ele>614.703</ele>
        <time>2020-01-17T11:17:41Z</time>
      </trkpt>
      <trkpt lat="39.93635" lon="-0.555369">
        <ele>615.442</ele>
        <time>2020-01-17T11:17:44Z</time>
      </trkpt>
      <trkpt lat="39.936327" lon="-0.555312">
        <ele>614.634</ele>
        <time>2020-01-17T11:17:46Z</time>
      </trkpt>
      <trkpt lat="39.936314" lon="-0.555277">
        <ele>613.838</ele>
        <time>2020-01-17T11:17:47Z</time>
      </trkpt>
      <trkpt lat="39.936296" lon="-0.555217">
        <ele>616.708</ele>
        <time>2020-01-17T11:17:48Z</time>
      </trkpt>
      <trkpt lat="39.936244" lon="-0.555126">
        <ele>617.74</ele>
        <time>2020-01-17T11:17:50Z</time>
      </trkpt>
      <trkpt lat="39.936217" lon="-0.555067">
        <ele>617.837</ele>
        <time>2020-01-17T11:17:52Z</time>
      </trkpt>
      <trkpt lat="39.936201" lon="-0.555033">
        <ele>616.724</ele>
        <time>2020-01-17T11:17:53Z</time>
      </trkpt>
      <trkpt lat="39.935988" lon="-0.554594">
        <ele>616.434</ele>
        <time>2020-01-17T11:17:58Z</time>
      </trkpt>
      <trkpt lat="39.935955" lon="-0.55453">
        <ele>616.113</ele>
        <time>2020-01-17T11:17:59Z</time>
      </trkpt>
      <trkpt lat="39.935935" lon="-0.554484">
        <ele>615.879</ele>
        <time>2020-01-17T11:18:00Z</time>
      </trkpt>
      <trkpt lat="39.935915" lon="-0.554438">
        <ele>613.396</ele>
        <time>2020-01-17T11:18:01Z</time>
      </trkpt>
      <trkpt lat="39.935905" lon="-0.554356">
        <ele>613.155</ele>
        <time>2020-01-17T11:18:02Z</time>
      </trkpt>
      <trkpt lat="39.93588" lon="-0.554294">
        <ele>613.143</ele>
        <time>2020-01-17T11:18:03Z</time>
      </trkpt>
      <trkpt lat="39.935855" lon="-0.554242">
        <ele>614.03</ele>
        <time>2020-01-17T11:18:04Z</time>
      </trkpt>
      <trkpt lat="39.935833" lon="-0.554191">
        <ele>611.467</ele>
        <time>2020-01-17T11:18:05Z</time>
      </trkpt>
      <trkpt lat="39.935793" lon="-0.554127">
        <ele>613.299</ele>
        <time>2020-01-17T11:18:07Z</time>
      </trkpt>
      <trkpt lat="39.935684" lon="-0.553847">
        <ele>612.714</ele>
        <time>2020-01-17T11:18:12Z</time>
      </trkpt>
      <trkpt lat="39.935661" lon="-0.55379">
        <ele>611.991</ele>
        <time>2020-01-17T11:18:13Z</time>
      </trkpt>
      <trkpt lat="39.935644" lon="-0.553731">
        <ele>611.8</ele>
        <time>2020-01-17T11:18:14Z</time>
      </trkpt>
      <trkpt lat="39.935579" lon="-0.553639">
        <ele>611.06</ele>
        <time>2020-01-17T11:18:16Z</time>
      </trkpt>
      <trkpt lat="39.935543" lon="-0.553597">
        <ele>611.347</ele>
        <time>2020-01-17T11:18:17Z</time>
      </trkpt>
      <trkpt lat="39.935515" lon="-0.553548">
        <ele>611.078</ele>
        <time>2020-01-17T11:18:18Z</time>
      </trkpt>
      <trkpt lat="39.935472" lon="-0.553461">
        <ele>610.939</ele>
        <time>2020-01-17T11:18:20Z</time>
      </trkpt>
      <trkpt lat="39.935436" lon="-0.553367">
        <ele>611.259</ele>
        <time>2020-01-17T11:18:22Z</time>
      </trkpt>
      <trkpt lat="39.935401" lon="-0.553275">
        <ele>611.963</ele>
        <time>2020-01-17T11:18:24Z</time>
      </trkpt>
      <trkpt lat="39.93538" lon="-0.553231">
        <ele>612.219</ele>
        <time>2020-01-17T11:18:25Z</time>
      </trkpt>
      <trkpt lat="39.935365" lon="-0.553198">
        <ele>612.069</ele>
        <time>2020-01-17T11:18:26Z</time>
      </trkpt>
      <trkpt lat="39.935318" lon="-0.553118">
        <ele>612.552</ele>
        <time>2020-01-17T11:18:28Z</time>
      </trkpt>
      <trkpt lat="39.935277" lon="-0.553028">
        <ele>611.804</ele>
        <time>2020-01-17T11:18:30Z</time>
      </trkpt>
      <trkpt lat="39.935248" lon="-0.552973">
        <ele>611.093</ele>
        <time>2020-01-17T11:18:32Z</time>
      </trkpt>
      <trkpt lat="39.935216" lon="-0.552898">
        <ele>610.312</ele>
        <time>2020-01-17T11:18:34Z</time>
      </trkpt>
      <trkpt lat="39.935202" lon="-0.552864">
        <ele>609.744</ele>
        <time>2020-01-17T11:18:35Z</time>
      </trkpt>
      <trkpt lat="39.935185" lon="-0.552823">
        <ele>610.486</ele>
        <time>2020-01-17T11:18:36Z</time>
      </trkpt>
      <trkpt lat="39.935168" lon="-0.552777">
        <ele>609.907</ele>
        <time>2020-01-17T11:18:37Z</time>
      </trkpt>
      <trkpt lat="39.935142" lon="-0.552729">
        <ele>608.714</ele>
        <time>2020-01-17T11:18:38Z</time>
      </trkpt>
      <trkpt lat="39.935096" lon="-0.552644">
        <ele>608.819</ele>
        <time>2020-01-17T11:18:40Z</time>
      </trkpt>
      <trkpt lat="39.935068" lon="-0.552599">
        <ele>609.271</ele>
        <time>2020-01-17T11:18:41Z</time>
      </trkpt>
      <trkpt lat="39.935041" lon="-0.55255">
        <ele>608.264</ele>
        <time>2020-01-17T11:18:42Z</time>
      </trkpt>
      <trkpt lat="39.935011" lon="-0.552496">
        <ele>608.143</ele>
        <time>2020-01-17T11:18:43Z</time>
      </trkpt>
      <trkpt lat="39.93498" lon="-0.552426">
        <ele>608.116</ele>
        <time>2020-01-17T11:18:44Z</time>
      </trkpt>
      <trkpt lat="39.93495" lon="-0.552357">
        <ele>608.311</ele>
        <time>2020-01-17T11:18:45Z</time>
      </trkpt>
      <trkpt lat="39.934916" lon="-0.552283">
        <ele>608.952</ele>
        <time>2020-01-17T11:18:46Z</time>
      </trkpt>
      <trkpt lat="39.934856" lon="-0.552125">
        <ele>608.457</ele>
        <time>2020-01-17T11:18:47Z</time>
      </trkpt>
      <trkpt lat="39.934839" lon="-0.552019">
        <ele>608.865</ele>
        <time>2020-01-17T11:18:48Z</time>
      </trkpt>
      <trkpt lat="39.934786" lon="-0.551904">
        <ele>609.676</ele>
        <time>2020-01-17T11:18:51Z</time>
      </trkpt>
      <trkpt lat="39.934765" lon="-0.551855">
        <ele>611.167</ele>
        <time>2020-01-17T11:18:52Z</time>
      </trkpt>
      <trkpt lat="39.93474" lon="-0.551805">
        <ele>609.898</ele>
        <time>2020-01-17T11:18:53Z</time>
      </trkpt>
      <trkpt lat="39.934722" lon="-0.551744">
        <ele>609.229</ele>
        <time>2020-01-17T11:18:54Z</time>
      </trkpt>
      <trkpt lat="39.934689" lon="-0.551628">
        <ele>607.641</ele>
        <time>2020-01-17T11:18:56Z</time>
      </trkpt>
      <trkpt lat="39.934677" lon="-0.551554">
        <ele>606.76</ele>
        <time>2020-01-17T11:18:57Z</time>
      </trkpt>
      <trkpt lat="39.934653" lon="-0.551491">
        <ele>607.035</ele>
        <time>2020-01-17T11:18:58Z</time>
      </trkpt>
      <trkpt lat="39.934655" lon="-0.551416">
        <ele>608.778</ele>
        <time>2020-01-17T11:18:59Z</time>
      </trkpt>
      <trkpt lat="39.934635" lon="-0.55135">
        <ele>608.452</ele>
        <time>2020-01-17T11:19:00Z</time>
      </trkpt>
      <trkpt lat="39.934605" lon="-0.551292">
        <ele>607.856</ele>
        <time>2020-01-17T11:19:01Z</time>
      </trkpt>
      <trkpt lat="39.934573" lon="-0.551171">
        <ele>607.598</ele>
        <time>2020-01-17T11:19:03Z</time>
      </trkpt>
      <trkpt lat="39.934526" lon="-0.550856">
        <ele>607.382</ele>
        <time>2020-01-17T11:19:07Z</time>
      </trkpt>
      <trkpt lat="39.934491" lon="-0.550747">
        <ele>607.952</ele>
        <time>2020-01-17T11:19:09Z</time>
      </trkpt>
      <trkpt lat="39.934439" lon="-0.550551">
        <ele>607.994</ele>
        <time>2020-01-17T11:19:12Z</time>
      </trkpt>
      <trkpt lat="39.934413" lon="-0.550492">
        <ele>608.502</ele>
        <time>2020-01-17T11:19:13Z</time>
      </trkpt>
      <trkpt lat="39.934385" lon="-0.550434">
        <ele>608.245</ele>
        <time>2020-01-17T11:19:14Z</time>
      </trkpt>
      <trkpt lat="39.93436" lon="-0.550369">
        <ele>607.113</ele>
        <time>2020-01-17T11:19:15Z</time>
      </trkpt>
      <trkpt lat="39.934341" lon="-0.55031">
        <ele>607.188</ele>
        <time>2020-01-17T11:19:16Z</time>
      </trkpt>
      <trkpt lat="39.934319" lon="-0.550246">
        <ele>607.467</ele>
        <time>2020-01-17T11:19:17Z</time>
      </trkpt>
      <trkpt lat="39.934308" lon="-0.550177">
        <ele>607.533</ele>
        <time>2020-01-17T11:19:18Z</time>
      </trkpt>
      <trkpt lat="39.934292" lon="-0.550039">
        <ele>606.647</ele>
        <time>2020-01-17T11:19:20Z</time>
      </trkpt>
      <trkpt lat="39.934286" lon="-0.549971">
        <ele>606.843</ele>
        <time>2020-01-17T11:19:21Z</time>
      </trkpt>
      <trkpt lat="39.934261" lon="-0.549913">
        <ele>607.102</ele>
        <time>2020-01-17T11:19:22Z</time>
      </trkpt>
      <trkpt lat="39.934237" lon="-0.549858">
        <ele>608.133</ele>
        <time>2020-01-17T11:19:23Z</time>
      </trkpt>
      <trkpt lat="39.934231" lon="-0.549783">
        <ele>608.619</ele>
        <time>2020-01-17T11:19:24Z</time>
      </trkpt>
      <trkpt lat="39.934197" lon="-0.549643">
        <ele>608.391</ele>
        <time>2020-01-17T11:19:26Z</time>
      </trkpt>
      <trkpt lat="39.93417" lon="-0.549593">
        <ele>608.164</ele>
        <time>2020-01-17T11:19:27Z</time>
      </trkpt>
      <trkpt lat="39.934151" lon="-0.549524">
        <ele>607.482</ele>
        <time>2020-01-17T11:19:28Z</time>
      </trkpt>
      <trkpt lat="39.934139" lon="-0.549462">
        <ele>608.404</ele>
        <time>2020-01-17T11:19:29Z</time>
      </trkpt>
      <trkpt lat="39.934095" lon="-0.549371">
        <ele>608.514</ele>
        <time>2020-01-17T11:19:31Z</time>
      </trkpt>
      <trkpt lat="39.934035" lon="-0.549225">
        <ele>608.805</ele>
        <time>2020-01-17T11:19:34Z</time>
      </trkpt>
      <trkpt lat="39.933992" lon="-0.549134">
        <ele>608.893</ele>
        <time>2020-01-17T11:19:36Z</time>
      </trkpt>
      <trkpt lat="39.933971" lon="-0.549085">
        <ele>609.36</ele>
        <time>2020-01-17T11:19:37Z</time>
      </trkpt>
      <trkpt lat="39.933959" lon="-0.549027">
        <ele>608.954</ele>
        <time>2020-01-17T11:19:38Z</time>
      </trkpt>
      <trkpt lat="39.933923" lon="-0.54898">
        <ele>609.794</ele>
        <time>2020-01-17T11:19:39Z</time>
      </trkpt>
      <trkpt lat="39.933896" lon="-0.548933">
        <ele>610.081</ele>
        <time>2020-01-17T11:19:40Z</time>
      </trkpt>
      <trkpt lat="39.933875" lon="-0.548873">
        <ele>609.97</ele>
        <time>2020-01-17T11:19:41Z</time>
      </trkpt>
      <trkpt lat="39.933842" lon="-0.54883">
        <ele>608.444</ele>
        <time>2020-01-17T11:19:42Z</time>
      </trkpt>
      <trkpt lat="39.933804" lon="-0.548791">
        <ele>609.312</ele>
        <time>2020-01-17T11:19:43Z</time>
      </trkpt>
      <trkpt lat="39.933767" lon="-0.548746">
        <ele>609.484</ele>
        <time>2020-01-17T11:19:44Z</time>
      </trkpt>
      <trkpt lat="39.933711" lon="-0.548663">
        <ele>608.579</ele>
        <time>2020-01-17T11:19:46Z</time>
      </trkpt>
      <trkpt lat="39.933678" lon="-0.548619">
        <ele>609.915</ele>
        <time>2020-01-17T11:19:47Z</time>
      </trkpt>
      <trkpt lat="39.933621" lon="-0.548537">
        <ele>610.246</ele>
        <time>2020-01-17T11:19:49Z</time>
      </trkpt>
      <trkpt lat="39.933585" lon="-0.548484">
        <ele>608.681</ele>
        <time>2020-01-17T11:19:50Z</time>
      </trkpt>
      <trkpt lat="39.933551" lon="-0.54843">
        <ele>608.414</ele>
        <time>2020-01-17T11:19:51Z</time>
      </trkpt>
      <trkpt lat="39.93352" lon="-0.548379">
        <ele>608.335</ele>
        <time>2020-01-17T11:19:52Z</time>
      </trkpt>
      <trkpt lat="39.933484" lon="-0.548329">
        <ele>608.63</ele>
        <time>2020-01-17T11:19:53Z</time>
      </trkpt>
      <trkpt lat="39.933408" lon="-0.548251">
        <ele>609.105</ele>
        <time>2020-01-17T11:19:55Z</time>
      </trkpt>
      <trkpt lat="39.933326" lon="-0.548188">
        <ele>609.258</ele>
        <time>2020-01-17T11:19:57Z</time>
      </trkpt>
      <trkpt lat="39.933277" lon="-0.54815">
        <ele>606.499</ele>
        <time>2020-01-17T11:19:58Z</time>
      </trkpt>
      <trkpt lat="39.93323" lon="-0.548109">
        <ele>602.766</ele>
        <time>2020-01-17T11:19:59Z</time>
      </trkpt>
      <trkpt lat="39.933184" lon="-0.548081">
        <ele>602.812</ele>
        <time>2020-01-17T11:20:00Z</time>
      </trkpt>
      <trkpt lat="39.933139" lon="-0.548048">
        <ele>602.084</ele>
        <time>2020-01-17T11:20:01Z</time>
      </trkpt>
      <trkpt lat="39.933103" lon="-0.548016">
        <ele>602.147</ele>
        <time>2020-01-17T11:20:02Z</time>
      </trkpt>
      <trkpt lat="39.933057" lon="-0.547986">
        <ele>601.204</ele>
        <time>2020-01-17T11:20:03Z</time>
      </trkpt>
      <trkpt lat="39.933007" lon="-0.547956">
        <ele>600.666</ele>
        <time>2020-01-17T11:20:04Z</time>
      </trkpt>
      <trkpt lat="39.93296" lon="-0.547916">
        <ele>600.902</ele>
        <time>2020-01-17T11:20:05Z</time>
      </trkpt>
      <trkpt lat="39.932739" lon="-0.547783">
        <ele>602.073</ele>
        <time>2020-01-17T11:20:09Z</time>
      </trkpt>
      <trkpt lat="39.932695" lon="-0.54775">
        <ele>601.812</ele>
        <time>2020-01-17T11:20:10Z</time>
      </trkpt>
      <trkpt lat="39.932647" lon="-0.547719">
        <ele>602.0</ele>
        <time>2020-01-17T11:20:11Z</time>
      </trkpt>
      <trkpt lat="39.932608" lon="-0.547682">
        <ele>601.721</ele>
        <time>2020-01-17T11:20:12Z</time>
      </trkpt>
      <trkpt lat="39.932558" lon="-0.547647">
        <ele>601.768</ele>
        <time>2020-01-17T11:20:13Z</time>
      </trkpt>
      <trkpt lat="39.932515" lon="-0.547614">
        <ele>602.173</ele>
        <time>2020-01-17T11:20:14Z</time>
      </trkpt>
      <trkpt lat="39.932471" lon="-0.547585">
        <ele>601.362</ele>
        <time>2020-01-17T11:20:15Z</time>
      </trkpt>
      <trkpt lat="39.932336" lon="-0.547488">
        <ele>601.731</ele>
        <time>2020-01-17T11:20:18Z</time>
      </trkpt>
      <trkpt lat="39.932289" lon="-0.547456">
        <ele>601.802</ele>
        <time>2020-01-17T11:20:19Z</time>
      </trkpt>
      <trkpt lat="39.932241" lon="-0.547427">
        <ele>602.068</ele>
        <time>2020-01-17T11:20:20Z</time>
      </trkpt>
      <trkpt lat="39.932193" lon="-0.547412">
        <ele>601.92</ele>
        <time>2020-01-17T11:20:21Z</time>
      </trkpt>
      <trkpt lat="39.932149" lon="-0.547378">
        <ele>602.16</ele>
        <time>2020-01-17T11:20:22Z</time>
      </trkpt>
      <trkpt lat="39.932051" lon="-0.54732">
        <ele>602.005</ele>
        <time>2020-01-17T11:20:24Z</time>
      </trkpt>
      <trkpt lat="39.932002" lon="-0.547302">
        <ele>601.716</ele>
        <time>2020-01-17T11:20:25Z</time>
      </trkpt>
      <trkpt lat="39.931952" lon="-0.547287">
        <ele>602.199</ele>
        <time>2020-01-17T11:20:26Z</time>
      </trkpt>
      <trkpt lat="39.931905" lon="-0.54727">
        <ele>600.206</ele>
        <time>2020-01-17T11:20:27Z</time>
      </trkpt>
      <trkpt lat="39.931854" lon="-0.547262">
        <ele>601.386</ele>
        <time>2020-01-17T11:20:28Z</time>
      </trkpt>
      <trkpt lat="39.931801" lon="-0.547242">
        <ele>600.812</ele>
        <time>2020-01-17T11:20:29Z</time>
      </trkpt>
      <trkpt lat="39.931755" lon="-0.547239">
        <ele>601.401</ele>
        <time>2020-01-17T11:20:30Z</time>
      </trkpt>
      <trkpt lat="39.931708" lon="-0.54721">
        <ele>601.145</ele>
        <time>2020-01-17T11:20:31Z</time>
      </trkpt>
      <trkpt lat="39.931658" lon="-0.5472">
        <ele>600.846</ele>
        <time>2020-01-17T11:20:32Z</time>
      </trkpt>
      <trkpt lat="39.93161" lon="-0.547184">
        <ele>600.093</ele>
        <time>2020-01-17T11:20:33Z</time>
      </trkpt>
      <trkpt lat="39.931554" lon="-0.547188">
        <ele>599.378</ele>
        <time>2020-01-17T11:20:34Z</time>
      </trkpt>
      <trkpt lat="39.931508" lon="-0.547199">
        <ele>599.236</ele>
        <time>2020-01-17T11:20:35Z</time>
      </trkpt>
      <trkpt lat="39.931367" lon="-0.547199">
        <ele>599.485</ele>
        <time>2020-01-17T11:20:37Z</time>
      </trkpt>
      <trkpt lat="39.931217" lon="-0.547206">
        <ele>600.173</ele>
        <time>2020-01-17T11:20:40Z</time>
      </trkpt>
      <trkpt lat="39.931119" lon="-0.547223">
        <ele>600.413</ele>
        <time>2020-01-17T11:20:42Z</time>
      </trkpt>
      <trkpt lat="39.931065" lon="-0.547212">
        <ele>598.944</ele>
        <time>2020-01-17T11:20:43Z</time>
      </trkpt>
      <trkpt lat="39.930936" lon="-0.547223">
        <ele>598.16</ele>
        <time>2020-01-17T11:20:46Z</time>
      </trkpt>
      <trkpt lat="39.93088" lon="-0.547235">
        <ele>598.003</ele>
        <time>2020-01-17T11:20:47Z</time>
      </trkpt>
      <trkpt lat="39.930833" lon="-0.547255">
        <ele>597.634</ele>
        <time>2020-01-17T11:20:48Z</time>
      </trkpt>
      <trkpt lat="39.930781" lon="-0.547275">
        <ele>597.748</ele>
        <time>2020-01-17T11:20:49Z</time>
      </trkpt>
      <trkpt lat="39.930732" lon="-0.547292">
        <ele>597.865</ele>
        <time>2020-01-17T11:20:50Z</time>
      </trkpt>
      <trkpt lat="39.930559" lon="-0.547342">
        <ele>598.756</ele>
        <time>2020-01-17T11:20:53Z</time>
      </trkpt>
      <trkpt lat="39.930491" lon="-0.547383">
        <ele>598.886</ele>
        <time>2020-01-17T11:20:54Z</time>
      </trkpt>
      <trkpt lat="39.930442" lon="-0.547404">
        <ele>599.609</ele>
        <time>2020-01-17T11:20:55Z</time>
      </trkpt>
      <trkpt lat="39.930323" lon="-0.547485">
        <ele>599.609</ele>
        <time>2020-01-17T11:20:58Z</time>
      </trkpt>
      <trkpt lat="39.930277" lon="-0.547509">
        <ele>597.81</ele>
        <time>2020-01-17T11:20:59Z</time>
      </trkpt>
      <trkpt lat="39.930235" lon="-0.547534">
        <ele>596.514</ele>
        <time>2020-01-17T11:21:00Z</time>
      </trkpt>
      <trkpt lat="39.930192" lon="-0.547568">
        <ele>596.323</ele>
        <time>2020-01-17T11:21:01Z</time>
      </trkpt>
      <trkpt lat="39.930146" lon="-0.547604">
        <ele>596.969</ele>
        <time>2020-01-17T11:21:02Z</time>
      </trkpt>
      <trkpt lat="39.930075" lon="-0.547661">
        <ele>596.776</ele>
        <time>2020-01-17T11:21:04Z</time>
      </trkpt>
      <trkpt lat="39.930022" lon="-0.547691">
        <ele>595.982</ele>
        <time>2020-01-17T11:21:05Z</time>
      </trkpt>
      <trkpt lat="39.92996" lon="-0.547755">
        <ele>595.887</ele>
        <time>2020-01-17T11:21:07Z</time>
      </trkpt>
      <trkpt lat="39.929891" lon="-0.547863">
        <ele>595.247</ele>
        <time>2020-01-17T11:21:10Z</time>
      </trkpt>
      <trkpt lat="39.929827" lon="-0.547939">
        <ele>594.82</ele>
        <time>2020-01-17T11:21:12Z</time>
      </trkpt>
      <trkpt lat="39.929769" lon="-0.548013">
        <ele>594.977</ele>
        <time>2020-01-17T11:21:14Z</time>
      </trkpt>
      <trkpt lat="39.929693" lon="-0.548128">
        <ele>594.179</ele>
        <time>2020-01-17T11:21:17Z</time>
      </trkpt>
      <trkpt lat="39.929647" lon="-0.548215">
        <ele>593.767</ele>
        <time>2020-01-17T11:21:19Z</time>
      </trkpt>
      <trkpt lat="39.929623" lon="-0.548256">
        <ele>593.934</ele>
        <time>2020-01-17T11:21:20Z</time>
      </trkpt>
      <trkpt lat="39.929599" lon="-0.548297">
        <ele>593.522</ele>
        <time>2020-01-17T11:21:21Z</time>
      </trkpt>
      <trkpt lat="39.929571" lon="-0.548337">
        <ele>592.761</ele>
        <time>2020-01-17T11:21:22Z</time>
      </trkpt>
      <trkpt lat="39.929544" lon="-0.548376">
        <ele>592.718</ele>
        <time>2020-01-17T11:21:23Z</time>
      </trkpt>
      <trkpt lat="39.929502" lon="-0.548455">
        <ele>592.63</ele>
        <time>2020-01-17T11:21:25Z</time>
      </trkpt>
      <trkpt lat="39.929455" lon="-0.548532">
        <ele>592.295</ele>
        <time>2020-01-17T11:21:27Z</time>
      </trkpt>
      <trkpt lat="39.92943" lon="-0.548569">
        <ele>591.789</ele>
        <time>2020-01-17T11:21:28Z</time>
      </trkpt>
      <trkpt lat="39.929404" lon="-0.548608">
        <ele>591.766</ele>
        <time>2020-01-17T11:21:29Z</time>
      </trkpt>
      <trkpt lat="39.929381" lon="-0.548648">
        <ele>591.511</ele>
        <time>2020-01-17T11:21:30Z</time>
      </trkpt>
      <trkpt lat="39.929357" lon="-0.548689">
        <ele>591.175</ele>
        <time>2020-01-17T11:21:31Z</time>
      </trkpt>
      <trkpt lat="39.929335" lon="-0.548731">
        <ele>591.379</ele>
        <time>2020-01-17T11:21:32Z</time>
      </trkpt>
      <trkpt lat="39.929313" lon="-0.548775">
        <ele>590.712</ele>
        <time>2020-01-17T11:21:33Z</time>
      </trkpt>
      <trkpt lat="39.92929" lon="-0.548819">
        <ele>590.615</ele>
        <time>2020-01-17T11:21:34Z</time>
      </trkpt>
      <trkpt lat="39.929264" lon="-0.548866">
        <ele>589.534</ele>
        <time>2020-01-17T11:21:35Z</time>
      </trkpt>
      <trkpt lat="39.929236" lon="-0.548913">
        <ele>592.194</ele>
        <time>2020-01-17T11:21:36Z</time>
      </trkpt>
      <trkpt lat="39.929208" lon="-0.548958">
        <ele>593.517</ele>
        <time>2020-01-17T11:21:37Z</time>
      </trkpt>
      <trkpt lat="39.929103" lon="-0.549143">
        <ele>592.764</ele>
        <time>2020-01-17T11:21:41Z</time>
      </trkpt>
      <trkpt lat="39.929079" lon="-0.549191">
        <ele>593.205</ele>
        <time>2020-01-17T11:21:42Z</time>
      </trkpt>
      <trkpt lat="39.929034" lon="-0.549291">
        <ele>591.558</ele>
        <time>2020-01-17T11:21:44Z</time>
      </trkpt>
      <trkpt lat="39.929013" lon="-0.54934">
        <ele>590.808</ele>
        <time>2020-01-17T11:21:45Z</time>
      </trkpt>
      <trkpt lat="39.928972" lon="-0.549435">
        <ele>590.573</ele>
        <time>2020-01-17T11:21:47Z</time>
      </trkpt>
      <trkpt lat="39.928954" lon="-0.549482">
        <ele>589.43</ele>
        <time>2020-01-17T11:21:48Z</time>
      </trkpt>
      <trkpt lat="39.928912" lon="-0.549577">
        <ele>589.107</ele>
        <time>2020-01-17T11:21:50Z</time>
      </trkpt>
      <trkpt lat="39.928887" lon="-0.549623">
        <ele>587.229</ele>
        <time>2020-01-17T11:21:51Z</time>
      </trkpt>
      <trkpt lat="39.928863" lon="-0.54966">
        <ele>587.139</ele>
        <time>2020-01-17T11:21:52Z</time>
      </trkpt>
      <trkpt lat="39.92881" lon="-0.549773">
        <ele>587.878</ele>
        <time>2020-01-17T11:21:55Z</time>
      </trkpt>
      <trkpt lat="39.928781" lon="-0.549862">
        <ele>587.306</ele>
        <time>2020-01-17T11:21:57Z</time>
      </trkpt>
      <trkpt lat="39.928769" lon="-0.549901">
        <ele>586.636</ele>
        <time>2020-01-17T11:21:58Z</time>
      </trkpt>
      <trkpt lat="39.928757" lon="-0.549942">
        <ele>587.907</ele>
        <time>2020-01-17T11:21:59Z</time>
      </trkpt>
      <trkpt lat="39.928726" lon="-0.5501">
        <ele>588.746</ele>
        <time>2020-01-17T11:22:02Z</time>
      </trkpt>
      <trkpt lat="39.928696" lon="-0.550258">
        <ele>592.529</ele>
        <time>2020-01-17T11:22:05Z</time>
      </trkpt>
      <trkpt lat="39.928686" lon="-0.550311">
        <ele>591.58</ele>
        <time>2020-01-17T11:22:06Z</time>
      </trkpt>
      <trkpt lat="39.928677" lon="-0.550365">
        <ele>591.127</ele>
        <time>2020-01-17T11:22:07Z</time>
      </trkpt>
      <trkpt lat="39.928669" lon="-0.550417">
        <ele>591.067</ele>
        <time>2020-01-17T11:22:08Z</time>
      </trkpt>
      <trkpt lat="39.928655" lon="-0.550518">
        <ele>590.816</ele>
        <time>2020-01-17T11:22:10Z</time>
      </trkpt>
      <trkpt lat="39.92865" lon="-0.550683">
        <ele>591.988</ele>
        <time>2020-01-17T11:22:13Z</time>
      </trkpt>
      <trkpt lat="39.928648" lon="-0.550737">
        <ele>591.176</ele>
        <time>2020-01-17T11:22:14Z</time>
      </trkpt>
      <trkpt lat="39.928635" lon="-0.550841">
        <ele>590.667</ele>
        <time>2020-01-17T11:22:16Z</time>
      </trkpt>
      <trkpt lat="39.928631" lon="-0.550894">
        <ele>590.43</ele>
        <time>2020-01-17T11:22:17Z</time>
      </trkpt>
      <trkpt lat="39.928625" lon="-0.550999">
        <ele>589.677</ele>
        <time>2020-01-17T11:22:19Z</time>
      </trkpt>
      <trkpt lat="39.928612" lon="-0.55114">
        <ele>589.647</ele>
        <time>2020-01-17T11:22:22Z</time>
      </trkpt>
      <trkpt lat="39.928608" lon="-0.551185">
        <ele>588.045</ele>
        <time>2020-01-17T11:22:23Z</time>
      </trkpt>
      <trkpt lat="39.928601" lon="-0.551278">
        <ele>584.833</ele>
        <time>2020-01-17T11:22:25Z</time>
      </trkpt>
      <trkpt lat="39.928601" lon="-0.551379">
        <ele>585.088</ele>
        <time>2020-01-17T11:22:27Z</time>
      </trkpt>
      <trkpt lat="39.928605" lon="-0.551484">
        <ele>585.052</ele>
        <time>2020-01-17T11:22:29Z</time>
      </trkpt>
      <trkpt lat="39.928609" lon="-0.551534">
        <ele>585.376</ele>
        <time>2020-01-17T11:22:30Z</time>
      </trkpt>
      <trkpt lat="39.928612" lon="-0.55158">
        <ele>585.521</ele>
        <time>2020-01-17T11:22:31Z</time>
      </trkpt>
      <trkpt lat="39.928613" lon="-0.551623">
        <ele>585.732</ele>
        <time>2020-01-17T11:22:32Z</time>
      </trkpt>
      <trkpt lat="39.928614" lon="-0.551666">
        <ele>585.828</ele>
        <time>2020-01-17T11:22:33Z</time>
      </trkpt>
      <trkpt lat="39.928617" lon="-0.551711">
        <ele>585.413</ele>
        <time>2020-01-17T11:22:34Z</time>
      </trkpt>
      <trkpt lat="39.928621" lon="-0.551757">
        <ele>585.15</ele>
        <time>2020-01-17T11:22:35Z</time>
      </trkpt>
      <trkpt lat="39.928627" lon="-0.551856">
        <ele>586.329</ele>
        <time>2020-01-17T11:22:37Z</time>
      </trkpt>
      <trkpt lat="39.928629" lon="-0.551906">
        <ele>586.412</ele>
        <time>2020-01-17T11:22:38Z</time>
      </trkpt>
      <trkpt lat="39.92863" lon="-0.551956">
        <ele>585.577</ele>
        <time>2020-01-17T11:22:39Z</time>
      </trkpt>
      <trkpt lat="39.928629" lon="-0.551989">
        <ele>585.43</ele>
        <time>2020-01-17T11:22:40Z</time>
      </trkpt>
      <trkpt lat="39.92863" lon="-0.55204">
        <ele>585.438</ele>
        <time>2020-01-17T11:22:42Z</time>
      </trkpt>
      <trkpt lat="39.928644" lon="-0.552153">
        <ele>585.534</ele>
        <time>2020-01-17T11:22:46Z</time>
      </trkpt>
      <trkpt lat="39.928636" lon="-0.552217">
        <ele>584.887</ele>
        <time>2020-01-17T11:22:48Z</time>
      </trkpt>
      <trkpt lat="39.928631" lon="-0.552255">
        <ele>585.876</ele>
        <time>2020-01-17T11:22:49Z</time>
      </trkpt>
      <trkpt lat="39.928629" lon="-0.552314">
        <ele>586.29</ele>
        <time>2020-01-17T11:22:50Z</time>
      </trkpt>
      <trkpt lat="39.928626" lon="-0.552389">
        <ele>586.738</ele>
        <time>2020-01-17T11:22:51Z</time>
      </trkpt>
      <trkpt lat="39.92862" lon="-0.552605">
        <ele>588.255</ele>
        <time>2020-01-17T11:22:52Z</time>
      </trkpt>
      <trkpt lat="39.928633" lon="-0.552694">
        <ele>588.238</ele>
        <time>2020-01-17T11:22:54Z</time>
      </trkpt>
      <trkpt lat="39.928643" lon="-0.552839">
        <ele>587.619</ele>
        <time>2020-01-17T11:22:57Z</time>
      </trkpt>
      <trkpt lat="39.928643" lon="-0.552894">
        <ele>587.392</ele>
        <time>2020-01-17T11:22:58Z</time>
      </trkpt>
      <trkpt lat="39.928668" lon="-0.552983">
        <ele>588.146</ele>
        <time>2020-01-17T11:23:00Z</time>
      </trkpt>
      <trkpt lat="39.928665" lon="-0.553069">
        <ele>587.361</ele>
        <time>2020-01-17T11:23:02Z</time>
      </trkpt>
      <trkpt lat="39.928665" lon="-0.553168">
        <ele>585.818</ele>
        <time>2020-01-17T11:23:04Z</time>
      </trkpt>
      <trkpt lat="39.928662" lon="-0.55322">
        <ele>585.606</ele>
        <time>2020-01-17T11:23:05Z</time>
      </trkpt>
      <trkpt lat="39.92866" lon="-0.553304">
        <ele>586.531</ele>
        <time>2020-01-17T11:23:07Z</time>
      </trkpt>
      <trkpt lat="39.928651" lon="-0.553374">
        <ele>586.07</ele>
        <time>2020-01-17T11:23:10Z</time>
      </trkpt>
      <trkpt lat="39.928637" lon="-0.553498">
        <ele>586.557</ele>
        <time>2020-01-17T11:23:14Z</time>
      </trkpt>
      <trkpt lat="39.928633" lon="-0.553541">
        <ele>586.789</ele>
        <time>2020-01-17T11:23:15Z</time>
      </trkpt>
      <trkpt lat="39.92863" lon="-0.553589">
        <ele>585.754</ele>
        <time>2020-01-17T11:23:16Z</time>
      </trkpt>
      <trkpt lat="39.928629" lon="-0.553639">
        <ele>585.414</ele>
        <time>2020-01-17T11:23:17Z</time>
      </trkpt>
      <trkpt lat="39.928624" lon="-0.553849">
        <ele>583.765</ele>
        <time>2020-01-17T11:23:19Z</time>
      </trkpt>
      <trkpt lat="39.928627" lon="-0.553933">
        <ele>585.285</ele>
        <time>2020-01-17T11:23:20Z</time>
      </trkpt>
      <trkpt lat="39.928621" lon="-0.55402">
        <ele>585.28</ele>
        <time>2020-01-17T11:23:22Z</time>
      </trkpt>
      <trkpt lat="39.928627" lon="-0.554106">
        <ele>585.765</ele>
        <time>2020-01-17T11:23:24Z</time>
      </trkpt>
      <trkpt lat="39.928639" lon="-0.554229">
        <ele>585.562</ele>
        <time>2020-01-17T11:23:27Z</time>
      </trkpt>
      <trkpt lat="39.928646" lon="-0.554299">
        <ele>585.679</ele>
        <time>2020-01-17T11:23:29Z</time>
      </trkpt>
      <trkpt lat="39.928648" lon="-0.554377">
        <ele>586.274</ele>
        <time>2020-01-17T11:23:31Z</time>
      </trkpt>
      <trkpt lat="39.928649" lon="-0.55443">
        <ele>584.386</ele>
        <time>2020-01-17T11:23:33Z</time>
      </trkpt>
      <trkpt lat="39.928658" lon="-0.554499">
        <ele>584.279</ele>
        <time>2020-01-17T11:23:36Z</time>
      </trkpt>
      <trkpt lat="39.928661" lon="-0.554529">
        <ele>587.299</ele>
        <time>2020-01-17T11:23:37Z</time>
      </trkpt>
      <trkpt lat="39.928663" lon="-0.554593">
        <ele>587.494</ele>
        <time>2020-01-17T11:23:39Z</time>
      </trkpt>
      <trkpt lat="39.928665" lon="-0.554629">
        <ele>589.76</ele>
        <time>2020-01-17T11:23:40Z</time>
      </trkpt>
      <trkpt lat="39.928669" lon="-0.554705">
        <ele>588.229</ele>
        <time>2020-01-17T11:23:42Z</time>
      </trkpt>
      <trkpt lat="39.928671" lon="-0.554786">
        <ele>587.525</ele>
        <time>2020-01-17T11:23:44Z</time>
      </trkpt>
      <trkpt lat="39.928673" lon="-0.55483">
        <ele>585.164</ele>
        <time>2020-01-17T11:23:45Z</time>
      </trkpt>
      <trkpt lat="39.928668" lon="-0.554926">
        <ele>585.621</ele>
        <time>2020-01-17T11:23:47Z</time>
      </trkpt>
      <trkpt lat="39.928667" lon="-0.554976">
        <ele>586.013</ele>
        <time>2020-01-17T11:23:48Z</time>
      </trkpt>
      <trkpt lat="39.928638" lon="-0.555163">
        <ele>584.293</ele>
        <time>2020-01-17T11:23:50Z</time>
      </trkpt>
      <trkpt lat="39.928641" lon="-0.555253">
        <ele>581.611</ele>
        <time>2020-01-17T11:23:52Z</time>
      </trkpt>
      <trkpt lat="39.928676" lon="-0.555338">
        <ele>582.252</ele>
        <time>2020-01-17T11:23:54Z</time>
      </trkpt>
      <trkpt lat="39.928682" lon="-0.555426">
        <ele>581.263</ele>
        <time>2020-01-17T11:23:56Z</time>
      </trkpt>
      <trkpt lat="39.92867" lon="-0.55552">
        <ele>581.783</ele>
        <time>2020-01-17T11:23:58Z</time>
      </trkpt>
      <trkpt lat="39.928675" lon="-0.555616">
        <ele>581.804</ele>
        <time>2020-01-17T11:24:00Z</time>
      </trkpt>
      <trkpt lat="39.928676" lon="-0.555752">
        <ele>580.014</ele>
        <time>2020-01-17T11:24:03Z</time>
      </trkpt>
      <trkpt lat="39.928685" lon="-0.55582">
        <ele>581.285</ele>
        <time>2020-01-17T11:24:06Z</time>
      </trkpt>
      <trkpt lat="39.928688" lon="-0.555863">
        <ele>581.288</ele>
        <time>2020-01-17T11:24:08Z</time>
      </trkpt>
      <trkpt lat="39.92869" lon="-0.555917">
        <ele>579.352</ele>
        <time>2020-01-17T11:24:10Z</time>
      </trkpt>
      <trkpt lat="39.928693" lon="-0.555975">
        <ele>579.259</ele>
        <time>2020-01-17T11:24:12Z</time>
      </trkpt>
      <trkpt lat="39.928699" lon="-0.556042">
        <ele>580.205</ele>
        <time>2020-01-17T11:24:14Z</time>
      </trkpt>
      <trkpt lat="39.928699" lon="-0.556082">
        <ele>580.389</ele>
        <time>2020-01-17T11:24:15Z</time>
      </trkpt>
      <trkpt lat="39.928696" lon="-0.556163">
        <ele>581.524</ele>
        <time>2020-01-17T11:24:17Z</time>
      </trkpt>
      <trkpt lat="39.928693" lon="-0.556208">
        <ele>583.64</ele>
        <time>2020-01-17T11:24:18Z</time>
      </trkpt>
      <trkpt lat="39.928689" lon="-0.55629">
        <ele>586.616</ele>
        <time>2020-01-17T11:24:20Z</time>
      </trkpt>
      <trkpt lat="39.92868" lon="-0.556399">
        <ele>585.485</ele>
        <time>2020-01-17T11:24:23Z</time>
      </trkpt>
      <trkpt lat="39.928676" lon="-0.556444">
        <ele>586.689</ele>
        <time>2020-01-17T11:24:24Z</time>
      </trkpt>
      <trkpt lat="39.928674" lon="-0.55649">
        <ele>586.416</ele>
        <time>2020-01-17T11:24:25Z</time>
      </trkpt>
      <trkpt lat="39.92867" lon="-0.55654">
        <ele>585.615</ele>
        <time>2020-01-17T11:24:26Z</time>
      </trkpt>
      <trkpt lat="39.928668" lon="-0.556625">
        <ele>585.593</ele>
        <time>2020-01-17T11:24:28Z</time>
      </trkpt>
      <trkpt lat="39.928667" lon="-0.556663">
        <ele>585.757</ele>
        <time>2020-01-17T11:24:29Z</time>
      </trkpt>
      <trkpt lat="39.928662" lon="-0.556702">
        <ele>584.028</ele>
        <time>2020-01-17T11:24:30Z</time>
      </trkpt>
      <trkpt lat="39.928653" lon="-0.556785">
        <ele>584.072</ele>
        <time>2020-01-17T11:24:32Z</time>
      </trkpt>
      <trkpt lat="39.928645" lon="-0.556927">
        <ele>583.874</ele>
        <time>2020-01-17T11:24:36Z</time>
      </trkpt>
      <trkpt lat="39.928639" lon="-0.55701">
        <ele>584.355</ele>
        <time>2020-01-17T11:24:38Z</time>
      </trkpt>
      <trkpt lat="39.928636" lon="-0.557123">
        <ele>583.736</ele>
        <time>2020-01-17T11:24:40Z</time>
      </trkpt>
      <trkpt lat="39.928642" lon="-0.557277">
        <ele>584.391</ele>
        <time>2020-01-17T11:24:43Z</time>
      </trkpt>
      <trkpt lat="39.928647" lon="-0.557335">
        <ele>584.682</ele>
        <time>2020-01-17T11:24:44Z</time>
      </trkpt>
      <trkpt lat="39.928651" lon="-0.557388">
        <ele>584.112</ele>
        <time>2020-01-17T11:24:45Z</time>
      </trkpt>
      <trkpt lat="39.928656" lon="-0.557431">
        <ele>583.567</ele>
        <time>2020-01-17T11:24:46Z</time>
      </trkpt>
      <trkpt lat="39.928649" lon="-0.557589">
        <ele>584.433</ele>
        <time>2020-01-17T11:24:50Z</time>
      </trkpt>
      <trkpt lat="39.92865" lon="-0.557682">
        <ele>584.442</ele>
        <time>2020-01-17T11:24:52Z</time>
      </trkpt>
      <trkpt lat="39.92867" lon="-0.557959">
        <ele>584.376</ele>
        <time>2020-01-17T11:24:56Z</time>
      </trkpt>
      <trkpt lat="39.928643" lon="-0.558053">
        <ele>584.742</ele>
        <time>2020-01-17T11:24:58Z</time>
      </trkpt>
      <trkpt lat="39.928663" lon="-0.558206">
        <ele>584.503</ele>
        <time>2020-01-17T11:25:01Z</time>
      </trkpt>
      <trkpt lat="39.928648" lon="-0.558333">
        <ele>584.487</ele>
        <time>2020-01-17T11:25:04Z</time>
      </trkpt>
      <trkpt lat="39.928661" lon="-0.558405">
        <ele>584.149</ele>
        <time>2020-01-17T11:25:07Z</time>
      </trkpt>
      <trkpt lat="39.928683" lon="-0.558564">
        <ele>584.682</ele>
        <time>2020-01-17T11:25:10Z</time>
      </trkpt>
      <trkpt lat="39.928653" lon="-0.558702">
        <ele>585.49</ele>
        <time>2020-01-17T11:25:11Z</time>
      </trkpt>
      <trkpt lat="39.928664" lon="-0.558817">
        <ele>583.302</ele>
        <time>2020-01-17T11:25:13Z</time>
      </trkpt>
      <trkpt lat="39.92865" lon="-0.558992">
        <ele>582.102</ele>
        <time>2020-01-17T11:25:16Z</time>
      </trkpt>
      <trkpt lat="39.928719" lon="-0.559059">
        <ele>582.082</ele>
        <time>2020-01-17T11:25:18Z</time>
      </trkpt>
      <trkpt lat="39.928733" lon="-0.559229">
        <ele>583.262</ele>
        <time>2020-01-17T11:25:21Z</time>
      </trkpt>
      <trkpt lat="39.928748" lon="-0.559287">
        <ele>583.218</ele>
        <time>2020-01-17T11:25:22Z</time>
      </trkpt>
      <trkpt lat="39.928781" lon="-0.559351">
        <ele>583.322</ele>
        <time>2020-01-17T11:25:23Z</time>
      </trkpt>
      <trkpt lat="39.928758" lon="-0.559412">
        <ele>583.125</ele>
        <time>2020-01-17T11:25:24Z</time>
      </trkpt>
      <trkpt lat="39.928757" lon="-0.559593">
        <ele>582.606</ele>
        <time>2020-01-17T11:25:27Z</time>
      </trkpt>
      <trkpt lat="39.928742" lon="-0.559729">
        <ele>581.544</ele>
        <time>2020-01-17T11:25:30Z</time>
      </trkpt>
      <trkpt lat="39.928734" lon="-0.559778">
        <ele>583.362</ele>
        <time>2020-01-17T11:25:31Z</time>
      </trkpt>
      <trkpt lat="39.928708" lon="-0.559882">
        <ele>584.965</ele>
        <time>2020-01-17T11:25:33Z</time>
      </trkpt>
      <trkpt lat="39.928687" lon="-0.560044">
        <ele>586.061</ele>
        <time>2020-01-17T11:25:36Z</time>
      </trkpt>
      <trkpt lat="39.928699" lon="-0.560201">
        <ele>586.588</ele>
        <time>2020-01-17T11:25:39Z</time>
      </trkpt>
      <trkpt lat="39.928713" lon="-0.560257">
        <ele>586.631</ele>
        <time>2020-01-17T11:25:40Z</time>
      </trkpt>
      <trkpt lat="39.928707" lon="-0.560363">
        <ele>586.795</ele>
        <time>2020-01-17T11:25:42Z</time>
      </trkpt>
      <trkpt lat="39.928706" lon="-0.560411">
        <ele>585.175</ele>
        <time>2020-01-17T11:25:43Z</time>
      </trkpt>
      <trkpt lat="39.928704" lon="-0.560457">
        <ele>585.92</ele>
        <time>2020-01-17T11:25:44Z</time>
      </trkpt>
      <trkpt lat="39.928703" lon="-0.560503">
        <ele>585.076</ele>
        <time>2020-01-17T11:25:45Z</time>
      </trkpt>
      <trkpt lat="39.928704" lon="-0.560548">
        <ele>585.096</ele>
        <time>2020-01-17T11:25:46Z</time>
      </trkpt>
      <trkpt lat="39.928705" lon="-0.560589">
        <ele>584.498</ele>
        <time>2020-01-17T11:25:47Z</time>
      </trkpt>
      <trkpt lat="39.928706" lon="-0.560631">
        <ele>584.721</ele>
        <time>2020-01-17T11:25:48Z</time>
      </trkpt>
      <trkpt lat="39.928708" lon="-0.560675">
        <ele>583.616</ele>
        <time>2020-01-17T11:25:49Z</time>
      </trkpt>
      <trkpt lat="39.928709" lon="-0.560759">
        <ele>583.73</ele>
        <time>2020-01-17T11:25:51Z</time>
      </trkpt>
      <trkpt lat="39.928701" lon="-0.560838">
        <ele>581.926</ele>
        <time>2020-01-17T11:25:53Z</time>
      </trkpt>
      <trkpt lat="39.928699" lon="-0.560915">
        <ele>583.673</ele>
        <time>2020-01-17T11:25:55Z</time>
      </trkpt>
      <trkpt lat="39.928698" lon="-0.560955">
        <ele>583.789</ele>
        <time>2020-01-17T11:25:56Z</time>
      </trkpt>
      <trkpt lat="39.9287" lon="-0.560994">
        <ele>582.97</ele>
        <time>2020-01-17T11:25:57Z</time>
      </trkpt>
      <trkpt lat="39.928697" lon="-0.561083">
        <ele>582.966</ele>
        <time>2020-01-17T11:25:59Z</time>
      </trkpt>
      <trkpt lat="39.92869" lon="-0.561163">
        <ele>583.251</ele>
        <time>2020-01-17T11:26:01Z</time>
      </trkpt>
      <trkpt lat="39.92869" lon="-0.561198">
        <ele>585.73</ele>
        <time>2020-01-17T11:26:02Z</time>
      </trkpt>
      <trkpt lat="39.928691" lon="-0.561239">
        <ele>587.761</ele>
        <time>2020-01-17T11:26:03Z</time>
      </trkpt>
      <trkpt lat="39.928692" lon="-0.56128">
        <ele>588.777</ele>
        <time>2020-01-17T11:26:04Z</time>
      </trkpt>
      <trkpt lat="39.928694" lon="-0.561361">
        <ele>591.098</ele>
        <time>2020-01-17T11:26:06Z</time>
      </trkpt>
      <trkpt lat="39.928697" lon="-0.561398">
        <ele>588.312</ele>
        <time>2020-01-17T11:26:07Z</time>
      </trkpt>
      <trkpt lat="39.928702" lon="-0.561478">
        <ele>586.141</ele>
        <time>2020-01-17T11:26:09Z</time>
      </trkpt>
      <trkpt lat="39.928702" lon="-0.561613">
        <ele>586.163</ele>
        <time>2020-01-17T11:26:12Z</time>
      </trkpt>
      <trkpt lat="39.928701" lon="-0.561652">
        <ele>586.671</ele>
        <time>2020-01-17T11:26:13Z</time>
      </trkpt>
      <trkpt lat="39.928699" lon="-0.56169">
        <ele>586.529</ele>
        <time>2020-01-17T11:26:14Z</time>
      </trkpt>
      <trkpt lat="39.928696" lon="-0.561728">
        <ele>587.916</ele>
        <time>2020-01-17T11:26:15Z</time>
      </trkpt>
      <trkpt lat="39.92869" lon="-0.561807">
        <ele>587.436</ele>
        <time>2020-01-17T11:26:17Z</time>
      </trkpt>
      <trkpt lat="39.928708" lon="-0.561928">
        <ele>582.868</ele>
        <time>2020-01-17T11:26:20Z</time>
      </trkpt>
      <trkpt lat="39.928708" lon="-0.562018">
        <ele>581.083</ele>
        <time>2020-01-17T11:26:22Z</time>
      </trkpt>
      <trkpt lat="39.928692" lon="-0.56211">
        <ele>580.692</ele>
        <time>2020-01-17T11:26:24Z</time>
      </trkpt>
      <trkpt lat="39.928685" lon="-0.562152">
        <ele>580.25</ele>
        <time>2020-01-17T11:26:25Z</time>
      </trkpt>
      <trkpt lat="39.928683" lon="-0.562271">
        <ele>579.315</ele>
        <time>2020-01-17T11:26:28Z</time>
      </trkpt>
      <trkpt lat="39.92868" lon="-0.562344">
        <ele>575.927</ele>
        <time>2020-01-17T11:26:30Z</time>
      </trkpt>
      <trkpt lat="39.928664" lon="-0.562422">
        <ele>575.207</ele>
        <time>2020-01-17T11:26:32Z</time>
      </trkpt>
      <trkpt lat="39.928657" lon="-0.562463">
        <ele>574.184</ele>
        <time>2020-01-17T11:26:33Z</time>
      </trkpt>
      <trkpt lat="39.928648" lon="-0.562504">
        <ele>572.979</ele>
        <time>2020-01-17T11:26:34Z</time>
      </trkpt>
      <trkpt lat="39.928613" lon="-0.562587">
        <ele>571.413</ele>
        <time>2020-01-17T11:26:36Z</time>
      </trkpt>
      <trkpt lat="39.928599" lon="-0.562616">
        <ele>571.617</ele>
        <time>2020-01-17T11:26:37Z</time>
      </trkpt>
      <trkpt lat="39.928586" lon="-0.562649">
        <ele>571.544</ele>
        <time>2020-01-17T11:26:39Z</time>
      </trkpt>
      <trkpt lat="39.928564" lon="-0.562718">
        <ele>564.359</ele>
        <time>2020-01-17T11:26:42Z</time>
      </trkpt>
      <trkpt lat="39.928553" lon="-0.562857">
        <ele>563.725</ele>
        <time>2020-01-17T11:26:47Z</time>
      </trkpt>
      <trkpt lat="39.928521" lon="-0.562915">
        <ele>566.354</ele>
        <time>2020-01-17T11:26:49Z</time>
      </trkpt>
      <trkpt lat="39.928501" lon="-0.562947">
        <ele>567.466</ele>
        <time>2020-01-17T11:26:50Z</time>
      </trkpt>
      <trkpt lat="39.928476" lon="-0.56298">
        <ele>569.636</ele>
        <time>2020-01-17T11:26:51Z</time>
      </trkpt>
      <trkpt lat="39.928455" lon="-0.563013">
        <ele>569.233</ele>
        <time>2020-01-17T11:26:52Z</time>
      </trkpt>
      <trkpt lat="39.92839" lon="-0.563122">
        <ele>571.311</ele>
        <time>2020-01-17T11:26:55Z</time>
      </trkpt>
      <trkpt lat="39.928368" lon="-0.563157">
        <ele>571.454</ele>
        <time>2020-01-17T11:26:56Z</time>
      </trkpt>
      <trkpt lat="39.928344" lon="-0.563192">
        <ele>571.847</ele>
        <time>2020-01-17T11:26:57Z</time>
      </trkpt>
      <trkpt lat="39.928319" lon="-0.563229">
        <ele>573.239</ele>
        <time>2020-01-17T11:26:58Z</time>
      </trkpt>
      <trkpt lat="39.928291" lon="-0.563267">
        <ele>573.068</ele>
        <time>2020-01-17T11:26:59Z</time>
      </trkpt>
      <trkpt lat="39.928263" lon="-0.5633">
        <ele>574.007</ele>
        <time>2020-01-17T11:27:00Z</time>
      </trkpt>
      <trkpt lat="39.928148" lon="-0.563401">
        <ele>573.164</ele>
        <time>2020-01-17T11:27:01Z</time>
      </trkpt>
      <trkpt lat="39.928111" lon="-0.563457">
        <ele>572.729</ele>
        <time>2020-01-17T11:27:03Z</time>
      </trkpt>
      <trkpt lat="39.928029" lon="-0.563535">
        <ele>571.094</ele>
        <time>2020-01-17T11:27:06Z</time>
      </trkpt>
      <trkpt lat="39.928005" lon="-0.563556">
        <ele>571.464</ele>
        <time>2020-01-17T11:27:07Z</time>
      </trkpt>
      <trkpt lat="39.927969" lon="-0.563589">
        <ele>572.314</ele>
        <time>2020-01-17T11:27:09Z</time>
      </trkpt>
      <trkpt lat="39.927943" lon="-0.563617">
        <ele>572.7</ele>
        <time>2020-01-17T11:27:11Z</time>
      </trkpt>
      <trkpt lat="39.927926" lon="-0.563638">
        <ele>571.655</ele>
        <time>2020-01-17T11:27:12Z</time>
      </trkpt>
      <trkpt lat="39.927886" lon="-0.563702">
        <ele>571.434</ele>
        <time>2020-01-17T11:27:15Z</time>
      </trkpt>
      <trkpt lat="39.927864" lon="-0.56374">
        <ele>572.839</ele>
        <time>2020-01-17T11:27:17Z</time>
      </trkpt>
      <trkpt lat="39.927814" lon="-0.563801">
        <ele>572.887</ele>
        <time>2020-01-17T11:27:20Z</time>
      </trkpt>
      <trkpt lat="39.927742" lon="-0.563847">
        <ele>572.648</ele>
        <time>2020-01-17T11:27:22Z</time>
      </trkpt>
      <trkpt lat="39.927691" lon="-0.563877">
        <ele>573.785</ele>
        <time>2020-01-17T11:27:23Z</time>
      </trkpt>
      <trkpt lat="39.927646" lon="-0.563912">
        <ele>575.565</ele>
        <time>2020-01-17T11:27:24Z</time>
      </trkpt>
      <trkpt lat="39.927573" lon="-0.563975">
        <ele>577.008</ele>
        <time>2020-01-17T11:27:26Z</time>
      </trkpt>
      <trkpt lat="39.927542" lon="-0.564001">
        <ele>578.527</ele>
        <time>2020-01-17T11:27:27Z</time>
      </trkpt>
      <trkpt lat="39.927512" lon="-0.564028">
        <ele>580.599</ele>
        <time>2020-01-17T11:27:28Z</time>
      </trkpt>
      <trkpt lat="39.927478" lon="-0.564055">
        <ele>581.294</ele>
        <time>2020-01-17T11:27:29Z</time>
      </trkpt>
      <trkpt lat="39.927323" lon="-0.564162">
        <ele>581.344</ele>
        <time>2020-01-17T11:27:33Z</time>
      </trkpt>
      <trkpt lat="39.927262" lon="-0.564214">
        <ele>581.159</ele>
        <time>2020-01-17T11:27:35Z</time>
      </trkpt>
      <trkpt lat="39.927226" lon="-0.564245">
        <ele>578.828</ele>
        <time>2020-01-17T11:27:36Z</time>
      </trkpt>
      <trkpt lat="39.927188" lon="-0.564273">
        <ele>577.881</ele>
        <time>2020-01-17T11:27:37Z</time>
      </trkpt>
      <trkpt lat="39.92712" lon="-0.564324">
        <ele>576.581</ele>
        <time>2020-01-17T11:27:39Z</time>
      </trkpt>
      <trkpt lat="39.927037" lon="-0.564423">
        <ele>578.079</ele>
        <time>2020-01-17T11:27:42Z</time>
      </trkpt>
      <trkpt lat="39.927003" lon="-0.564463">
        <ele>578.303</ele>
        <time>2020-01-17T11:27:43Z</time>
      </trkpt>
      <trkpt lat="39.926975" lon="-0.56451">
        <ele>578.465</ele>
        <time>2020-01-17T11:27:44Z</time>
      </trkpt>
      <trkpt lat="39.926942" lon="-0.564554">
        <ele>577.623</ele>
        <time>2020-01-17T11:27:45Z</time>
      </trkpt>
      <trkpt lat="39.926912" lon="-0.564591">
        <ele>577.407</ele>
        <time>2020-01-17T11:27:46Z</time>
      </trkpt>
      <trkpt lat="39.926817" lon="-0.564679">
        <ele>578.356</ele>
        <time>2020-01-17T11:27:49Z</time>
      </trkpt>
      <trkpt lat="39.926684" lon="-0.564764">
        <ele>580.108</ele>
        <time>2020-01-17T11:27:53Z</time>
      </trkpt>
      <trkpt lat="39.926529" lon="-0.5649">
        <ele>579.976</ele>
        <time>2020-01-17T11:27:57Z</time>
      </trkpt>
      <trkpt lat="39.926436" lon="-0.564989">
        <ele>579.433</ele>
        <time>2020-01-17T11:28:00Z</time>
      </trkpt>
      <trkpt lat="39.926395" lon="-0.565039">
        <ele>579.474</ele>
        <time>2020-01-17T11:28:02Z</time>
      </trkpt>
      <trkpt lat="39.926373" lon="-0.565066">
        <ele>578.232</ele>
        <time>2020-01-17T11:28:03Z</time>
      </trkpt>
      <trkpt lat="39.92632" lon="-0.56511">
        <ele>577.494</ele>
        <time>2020-01-17T11:28:05Z</time>
      </trkpt>
      <trkpt lat="39.926253" lon="-0.565138">
        <ele>576.945</ele>
        <time>2020-01-17T11:28:07Z</time>
      </trkpt>
      <trkpt lat="39.926165" lon="-0.565163">
        <ele>576.253</ele>
        <time>2020-01-17T11:28:09Z</time>
      </trkpt>
      <trkpt lat="39.926122" lon="-0.565175">
        <ele>576.937</ele>
        <time>2020-01-17T11:28:10Z</time>
      </trkpt>
      <trkpt lat="39.926085" lon="-0.565189">
        <ele>577.189</ele>
        <time>2020-01-17T11:28:11Z</time>
      </trkpt>
      <trkpt lat="39.92602" lon="-0.565221">
        <ele>577.701</ele>
        <time>2020-01-17T11:28:13Z</time>
      </trkpt>
      <trkpt lat="39.925925" lon="-0.565278">
        <ele>577.874</ele>
        <time>2020-01-17T11:28:16Z</time>
      </trkpt>
      <trkpt lat="39.925878" lon="-0.565302">
        <ele>577.941</ele>
        <time>2020-01-17T11:28:17Z</time>
      </trkpt>
      <trkpt lat="39.925799" lon="-0.565343">
        <ele>577.46</ele>
        <time>2020-01-17T11:28:19Z</time>
      </trkpt>
      <trkpt lat="39.925731" lon="-0.565396">
        <ele>577.143</ele>
        <time>2020-01-17T11:28:21Z</time>
      </trkpt>
      <trkpt lat="39.925705" lon="-0.56542">
        <ele>576.616</ele>
        <time>2020-01-17T11:28:22Z</time>
      </trkpt>
      <trkpt lat="39.925684" lon="-0.565441">
        <ele>575.638</ele>
        <time>2020-01-17T11:28:23Z</time>
      </trkpt>
      <trkpt lat="39.925665" lon="-0.565464">
        <ele>574.325</ele>
        <time>2020-01-17T11:28:24Z</time>
      </trkpt>
      <trkpt lat="39.925644" lon="-0.565492">
        <ele>575.647</ele>
        <time>2020-01-17T11:28:25Z</time>
      </trkpt>
      <trkpt lat="39.925584" lon="-0.565556">
        <ele>574.075</ele>
        <time>2020-01-17T11:28:27Z</time>
      </trkpt>
      <trkpt lat="39.925543" lon="-0.565593">
        <ele>574.01</ele>
        <time>2020-01-17T11:28:28Z</time>
      </trkpt>
      <trkpt lat="39.925503" lon="-0.565627">
        <ele>573.812</ele>
        <time>2020-01-17T11:28:29Z</time>
      </trkpt>
      <trkpt lat="39.925417" lon="-0.565685">
        <ele>573.569</ele>
        <time>2020-01-17T11:28:31Z</time>
      </trkpt>
      <trkpt lat="39.92538" lon="-0.565714">
        <ele>572.887</ele>
        <time>2020-01-17T11:28:32Z</time>
      </trkpt>
      <trkpt lat="39.925313" lon="-0.565765">
        <ele>575.175</ele>
        <time>2020-01-17T11:28:34Z</time>
      </trkpt>
      <trkpt lat="39.925212" lon="-0.565867">
        <ele>574.546</ele>
        <time>2020-01-17T11:28:38Z</time>
      </trkpt>
      <trkpt lat="39.925157" lon="-0.565921">
        <ele>574.446</ele>
        <time>2020-01-17T11:28:40Z</time>
      </trkpt>
      <trkpt lat="39.925082" lon="-0.565982">
        <ele>574.409</ele>
        <time>2020-01-17T11:28:42Z</time>
      </trkpt>
      <trkpt lat="39.925008" lon="-0.566037">
        <ele>574.095</ele>
        <time>2020-01-17T11:28:44Z</time>
      </trkpt>
      <trkpt lat="39.924949" lon="-0.566083">
        <ele>575.443</ele>
        <time>2020-01-17T11:28:46Z</time>
      </trkpt>
      <trkpt lat="39.924892" lon="-0.566124">
        <ele>577.096</ele>
        <time>2020-01-17T11:28:48Z</time>
      </trkpt>
      <trkpt lat="39.924855" lon="-0.566148">
        <ele>575.419</ele>
        <time>2020-01-17T11:28:49Z</time>
      </trkpt>
      <trkpt lat="39.924737" lon="-0.56622">
        <ele>572.729</ele>
        <time>2020-01-17T11:28:52Z</time>
      </trkpt>
      <trkpt lat="39.924694" lon="-0.566245">
        <ele>568.271</ele>
        <time>2020-01-17T11:28:53Z</time>
      </trkpt>
      <trkpt lat="39.924654" lon="-0.566268">
        <ele>567.229</ele>
        <time>2020-01-17T11:28:54Z</time>
      </trkpt>
      <trkpt lat="39.924585" lon="-0.566316">
        <ele>567.247</ele>
        <time>2020-01-17T11:28:56Z</time>
      </trkpt>
      <trkpt lat="39.924547" lon="-0.566344">
        <ele>567.599</ele>
        <time>2020-01-17T11:28:57Z</time>
      </trkpt>
      <trkpt lat="39.924448" lon="-0.566412">
        <ele>567.451</ele>
        <time>2020-01-17T11:29:00Z</time>
      </trkpt>
      <trkpt lat="39.924355" lon="-0.566483">
        <ele>567.581</ele>
        <time>2020-01-17T11:29:03Z</time>
      </trkpt>
      <trkpt lat="39.924297" lon="-0.566536">
        <ele>561.081</ele>
        <time>2020-01-17T11:29:05Z</time>
      </trkpt>
      <trkpt lat="39.924225" lon="-0.566588">
        <ele>564.585</ele>
        <time>2020-01-17T11:29:07Z</time>
      </trkpt>
      <trkpt lat="39.924151" lon="-0.566635">
        <ele>559.101</ele>
        <time>2020-01-17T11:29:09Z</time>
      </trkpt>
      <trkpt lat="39.924113" lon="-0.566661">
        <ele>560.382</ele>
        <time>2020-01-17T11:29:10Z</time>
      </trkpt>
      <trkpt lat="39.924071" lon="-0.566689">
        <ele>557.727</ele>
        <time>2020-01-17T11:29:12Z</time>
      </trkpt>
      <trkpt lat="39.923952" lon="-0.56678">
        <ele>558.405</ele>
        <time>2020-01-17T11:29:14Z</time>
      </trkpt>
      <trkpt lat="39.923916" lon="-0.566808">
        <ele>557.369</ele>
        <time>2020-01-17T11:29:15Z</time>
      </trkpt>
      <trkpt lat="39.923849" lon="-0.566859">
        <ele>556.212</ele>
        <time>2020-01-17T11:29:17Z</time>
      </trkpt>
      <trkpt lat="39.923814" lon="-0.566889">
        <ele>556.895</ele>
        <time>2020-01-17T11:29:18Z</time>
      </trkpt>
      <trkpt lat="39.923781" lon="-0.566919">
        <ele>554.547</ele>
        <time>2020-01-17T11:29:19Z</time>
      </trkpt>
      <trkpt lat="39.923748" lon="-0.566959">
        <ele>555.591</ele>
        <time>2020-01-17T11:29:20Z</time>
      </trkpt>
      <trkpt lat="39.923651" lon="-0.567072">
        <ele>555.783</ele>
        <time>2020-01-17T11:29:23Z</time>
      </trkpt>
      <trkpt lat="39.923622" lon="-0.567102">
        <ele>555.084</ele>
        <time>2020-01-17T11:29:24Z</time>
      </trkpt>
      <trkpt lat="39.923596" lon="-0.567127">
        <ele>554.026</ele>
        <time>2020-01-17T11:29:25Z</time>
      </trkpt>
      <trkpt lat="39.923567" lon="-0.567153">
        <ele>552.279</ele>
        <time>2020-01-17T11:29:26Z</time>
      </trkpt>
      <trkpt lat="39.923535" lon="-0.567181">
        <ele>551.694</ele>
        <time>2020-01-17T11:29:27Z</time>
      </trkpt>
      <trkpt lat="39.923502" lon="-0.567213">
        <ele>552.166</ele>
        <time>2020-01-17T11:29:28Z</time>
      </trkpt>
      <trkpt lat="39.923471" lon="-0.567248">
        <ele>552.37</ele>
        <time>2020-01-17T11:29:29Z</time>
      </trkpt>
      <trkpt lat="39.923437" lon="-0.567284">
        <ele>552.878</ele>
        <time>2020-01-17T11:29:30Z</time>
      </trkpt>
      <trkpt lat="39.923389" lon="-0.567332">
        <ele>553.086</ele>
        <time>2020-01-17T11:29:31Z</time>
      </trkpt>
      <trkpt lat="39.923351" lon="-0.567368">
        <ele>553.551</ele>
        <time>2020-01-17T11:29:33Z</time>
      </trkpt>
      <trkpt lat="39.923307" lon="-0.567405">
        <ele>553.202</ele>
        <time>2020-01-17T11:29:34Z</time>
      </trkpt>
      <trkpt lat="39.923229" lon="-0.567521">
        <ele>552.546</ele>
        <time>2020-01-17T11:29:37Z</time>
      </trkpt>
      <trkpt lat="39.923196" lon="-0.567561">
        <ele>552.088</ele>
        <time>2020-01-17T11:29:38Z</time>
      </trkpt>
      <trkpt lat="39.923159" lon="-0.567604">
        <ele>552.329</ele>
        <time>2020-01-17T11:29:39Z</time>
      </trkpt>
      <trkpt lat="39.923129" lon="-0.567646">
        <ele>551.525</ele>
        <time>2020-01-17T11:29:40Z</time>
      </trkpt>
      <trkpt lat="39.923035" lon="-0.567758">
        <ele>551.526</ele>
        <time>2020-01-17T11:29:43Z</time>
      </trkpt>
      <trkpt lat="39.922963" lon="-0.567887">
        <ele>551.926</ele>
        <time>2020-01-17T11:29:46Z</time>
      </trkpt>
      <trkpt lat="39.922918" lon="-0.567964">
        <ele>551.985</ele>
        <time>2020-01-17T11:29:48Z</time>
      </trkpt>
      <trkpt lat="39.922849" lon="-0.56808">
        <ele>551.659</ele>
        <time>2020-01-17T11:29:51Z</time>
      </trkpt>
      <trkpt lat="39.922824" lon="-0.568129">
        <ele>552.702</ele>
        <time>2020-01-17T11:29:52Z</time>
      </trkpt>
      <trkpt lat="39.922836" lon="-0.568469">
        <ele>552.909</ele>
        <time>2020-01-17T11:29:57Z</time>
      </trkpt>
      <trkpt lat="39.922791" lon="-0.56854">
        <ele>553.508</ele>
        <time>2020-01-17T11:29:59Z</time>
      </trkpt>
      <trkpt lat="39.922742" lon="-0.568613">
        <ele>553.914</ele>
        <time>2020-01-17T11:30:01Z</time>
      </trkpt>
      <trkpt lat="39.922628" lon="-0.568646">
        <ele>554.862</ele>
        <time>2020-01-17T11:30:03Z</time>
      </trkpt>
      <trkpt lat="39.922533" lon="-0.568763">
        <ele>555.206</ele>
        <time>2020-01-17T11:30:05Z</time>
      </trkpt>
      <trkpt lat="39.922472" lon="-0.568859">
        <ele>555.104</ele>
        <time>2020-01-17T11:30:07Z</time>
      </trkpt>
      <trkpt lat="39.922409" lon="-0.56892">
        <ele>554.971</ele>
        <time>2020-01-17T11:30:09Z</time>
      </trkpt>
      <trkpt lat="39.922342" lon="-0.568946">
        <ele>554.801</ele>
        <time>2020-01-17T11:30:11Z</time>
      </trkpt>
      <trkpt lat="39.922299" lon="-0.568967">
        <ele>556.677</ele>
        <time>2020-01-17T11:30:12Z</time>
      </trkpt>
      <trkpt lat="39.922249" lon="-0.569015">
        <ele>556.374</ele>
        <time>2020-01-17T11:30:14Z</time>
      </trkpt>
      <trkpt lat="39.919133" lon="-0.574559">
        <ele>554.854</ele>
        <time>2020-01-17T11:32:06Z</time>
      </trkpt>
      <trkpt lat="39.91911" lon="-0.574657">
        <ele>556.43</ele>
        <time>2020-01-17T11:32:08Z</time>
      </trkpt>
      <trkpt lat="39.91907" lon="-0.57474">
        <ele>556.055</ele>
        <time>2020-01-17T11:32:10Z</time>
      </trkpt>
      <trkpt lat="39.919046" lon="-0.574826">
        <ele>555.265</ele>
        <time>2020-01-17T11:32:11Z</time>
      </trkpt>
      <trkpt lat="39.918881" lon="-0.574953">
        <ele>554.095</ele>
        <time>2020-01-17T11:32:14Z</time>
      </trkpt>
      <trkpt lat="39.918836" lon="-0.57499">
        <ele>553.736</ele>
        <time>2020-01-17T11:32:15Z</time>
      </trkpt>
      <trkpt lat="39.918793" lon="-0.575025">
        <ele>555.106</ele>
        <time>2020-01-17T11:32:16Z</time>
      </trkpt>
      <trkpt lat="39.91876" lon="-0.575088">
        <ele>554.153</ele>
        <time>2020-01-17T11:32:17Z</time>
      </trkpt>
      <trkpt lat="39.918706" lon="-0.575111">
        <ele>552.43</ele>
        <time>2020-01-17T11:32:18Z</time>
      </trkpt>
      <trkpt lat="39.918661" lon="-0.575124">
        <ele>552.596</ele>
        <time>2020-01-17T11:32:19Z</time>
      </trkpt>
      <trkpt lat="39.918618" lon="-0.575147">
        <ele>551.82</ele>
        <time>2020-01-17T11:32:20Z</time>
      </trkpt>
      <trkpt lat="39.918578" lon="-0.575172">
        <ele>548.682</ele>
        <time>2020-01-17T11:32:21Z</time>
      </trkpt>
      <trkpt lat="39.918517" lon="-0.575192">
        <ele>547.792</ele>
        <time>2020-01-17T11:32:22Z</time>
      </trkpt>
      <trkpt lat="39.918469" lon="-0.575211">
        <ele>546.044</ele>
        <time>2020-01-17T11:32:23Z</time>
      </trkpt>
      <trkpt lat="39.918386" lon="-0.575228">
        <ele>544.792</ele>
        <time>2020-01-17T11:32:25Z</time>
      </trkpt>
      <trkpt lat="39.918288" lon="-0.575288">
        <ele>544.676</ele>
        <time>2020-01-17T11:32:27Z</time>
      </trkpt>
      <trkpt lat="39.917814" lon="-0.575256">
        <ele>542.231</ele>
        <time>2020-01-17T11:32:36Z</time>
      </trkpt>
      <trkpt lat="39.917759" lon="-0.575238">
        <ele>542.503</ele>
        <time>2020-01-17T11:32:38Z</time>
      </trkpt>
      <trkpt lat="39.917718" lon="-0.575228">
        <ele>542.961</ele>
        <time>2020-01-17T11:32:39Z</time>
      </trkpt>
      <trkpt lat="39.917666" lon="-0.575219">
        <ele>543.078</ele>
        <time>2020-01-17T11:32:40Z</time>
      </trkpt>
      <trkpt lat="39.917589" lon="-0.575204">
        <ele>541.964</ele>
        <time>2020-01-17T11:32:42Z</time>
      </trkpt>
      <trkpt lat="39.917507" lon="-0.575151">
        <ele>542.28</ele>
        <time>2020-01-17T11:32:44Z</time>
      </trkpt>
      <trkpt lat="39.91746" lon="-0.575144">
        <ele>542.779</ele>
        <time>2020-01-17T11:32:45Z</time>
      </trkpt>
      <trkpt lat="39.917418" lon="-0.575115">
        <ele>542.784</ele>
        <time>2020-01-17T11:32:46Z</time>
      </trkpt>
      <trkpt lat="39.91738" lon="-0.575088">
        <ele>542.536</ele>
        <time>2020-01-17T11:32:47Z</time>
      </trkpt>
      <trkpt lat="39.917301" lon="-0.57506">
        <ele>543.177</ele>
        <time>2020-01-17T11:32:49Z</time>
      </trkpt>
      <trkpt lat="39.917246" lon="-0.575034">
        <ele>543.222</ele>
        <time>2020-01-17T11:32:50Z</time>
      </trkpt>
      <trkpt lat="39.917199" lon="-0.575022">
        <ele>542.752</ele>
        <time>2020-01-17T11:32:51Z</time>
      </trkpt>
      <trkpt lat="39.917129" lon="-0.574995">
        <ele>544.006</ele>
        <time>2020-01-17T11:32:52Z</time>
      </trkpt>
      <trkpt lat="39.917089" lon="-0.574982">
        <ele>544.012</ele>
        <time>2020-01-17T11:32:53Z</time>
      </trkpt>
      <trkpt lat="39.917038" lon="-0.574915">
        <ele>544.285</ele>
        <time>2020-01-17T11:32:55Z</time>
      </trkpt>
      <trkpt lat="39.916996" lon="-0.574881">
        <ele>544.555</ele>
        <time>2020-01-17T11:32:56Z</time>
      </trkpt>
      <trkpt lat="39.91694" lon="-0.574843">
        <ele>546.352</ele>
        <time>2020-01-17T11:32:58Z</time>
      </trkpt>
      <trkpt lat="39.916866" lon="-0.574819">
        <ele>546.892</ele>
        <time>2020-01-17T11:33:00Z</time>
      </trkpt>
      <trkpt lat="39.916793" lon="-0.574756">
        <ele>547.256</ele>
        <time>2020-01-17T11:33:02Z</time>
      </trkpt>
      <trkpt lat="39.916754" lon="-0.574726">
        <ele>547.177</ele>
        <time>2020-01-17T11:33:03Z</time>
      </trkpt>
      <trkpt lat="39.916687" lon="-0.574674">
        <ele>546.355</ele>
        <time>2020-01-17T11:33:05Z</time>
      </trkpt>
      <trkpt lat="39.916652" lon="-0.574642">
        <ele>547.236</ele>
        <time>2020-01-17T11:33:06Z</time>
      </trkpt>
      <trkpt lat="39.916616" lon="-0.574603">
        <ele>546.888</ele>
        <time>2020-01-17T11:33:07Z</time>
      </trkpt>
      <trkpt lat="39.916565" lon="-0.57456">
        <ele>547.941</ele>
        <time>2020-01-17T11:33:09Z</time>
      </trkpt>
      <trkpt lat="39.916533" lon="-0.574531">
        <ele>548.162</ele>
        <time>2020-01-17T11:33:10Z</time>
      </trkpt>
      <trkpt lat="39.916404" lon="-0.574442">
        <ele>547.994</ele>
        <time>2020-01-17T11:33:13Z</time>
      </trkpt>
      <trkpt lat="39.916341" lon="-0.574387">
        <ele>547.679</ele>
        <time>2020-01-17T11:33:15Z</time>
      </trkpt>
      <trkpt lat="39.916305" lon="-0.574353">
        <ele>549.338</ele>
        <time>2020-01-17T11:33:16Z</time>
      </trkpt>
      <trkpt lat="39.916268" lon="-0.574316">
        <ele>548.407</ele>
        <time>2020-01-17T11:33:17Z</time>
      </trkpt>
      <trkpt lat="39.916236" lon="-0.574279">
        <ele>547.833</ele>
        <time>2020-01-17T11:33:18Z</time>
      </trkpt>
      <trkpt lat="39.91617" lon="-0.574214">
        <ele>547.889</ele>
        <time>2020-01-17T11:33:20Z</time>
      </trkpt>
      <trkpt lat="39.916095" lon="-0.574159">
        <ele>547.001</ele>
        <time>2020-01-17T11:33:22Z</time>
      </trkpt>
      <trkpt lat="39.916061" lon="-0.574128">
        <ele>546.917</ele>
        <time>2020-01-17T11:33:23Z</time>
      </trkpt>
      <trkpt lat="39.915993" lon="-0.57406">
        <ele>547.13</ele>
        <time>2020-01-17T11:33:25Z</time>
      </trkpt>
      <trkpt lat="39.915919" lon="-0.573998">
        <ele>548.379</ele>
        <time>2020-01-17T11:33:27Z</time>
      </trkpt>
      <trkpt lat="39.91588" lon="-0.573967">
        <ele>548.318</ele>
        <time>2020-01-17T11:33:28Z</time>
      </trkpt>
      <trkpt lat="39.915798" lon="-0.573912">
        <ele>547.583</ele>
        <time>2020-01-17T11:33:30Z</time>
      </trkpt>
      <trkpt lat="39.915743" lon="-0.573883">
        <ele>546.028</ele>
        <time>2020-01-17T11:33:31Z</time>
      </trkpt>
      <trkpt lat="39.915707" lon="-0.573842">
        <ele>545.316</ele>
        <time>2020-01-17T11:33:32Z</time>
      </trkpt>
      <trkpt lat="39.915648" lon="-0.57377">
        <ele>545.006</ele>
        <time>2020-01-17T11:33:34Z</time>
      </trkpt>
      <trkpt lat="39.915609" lon="-0.573735">
        <ele>545.289</ele>
        <time>2020-01-17T11:33:35Z</time>
      </trkpt>
      <trkpt lat="39.915457" lon="-0.573667">
        <ele>543.979</ele>
        <time>2020-01-17T11:33:38Z</time>
      </trkpt>
      <trkpt lat="39.915417" lon="-0.573632">
        <ele>545.154</ele>
        <time>2020-01-17T11:33:39Z</time>
      </trkpt>
      <trkpt lat="39.915361" lon="-0.573553">
        <ele>544.886</ele>
        <time>2020-01-17T11:33:41Z</time>
      </trkpt>
      <trkpt lat="39.915332" lon="-0.573516">
        <ele>544.891</ele>
        <time>2020-01-17T11:33:42Z</time>
      </trkpt>
      <trkpt lat="39.915294" lon="-0.573474">
        <ele>544.609</ele>
        <time>2020-01-17T11:33:43Z</time>
      </trkpt>
      <trkpt lat="39.915249" lon="-0.573448">
        <ele>545.012</ele>
        <time>2020-01-17T11:33:44Z</time>
      </trkpt>
      <trkpt lat="39.91521" lon="-0.57341">
        <ele>545.87</ele>
        <time>2020-01-17T11:33:45Z</time>
      </trkpt>
      <trkpt lat="39.915183" lon="-0.57336">
        <ele>546.086</ele>
        <time>2020-01-17T11:33:46Z</time>
      </trkpt>
      <trkpt lat="39.91516" lon="-0.573305">
        <ele>544.903</ele>
        <time>2020-01-17T11:33:47Z</time>
      </trkpt>
      <trkpt lat="39.915105" lon="-0.573217">
        <ele>542.575</ele>
        <time>2020-01-17T11:33:49Z</time>
      </trkpt>
      <trkpt lat="39.915068" lon="-0.57312">
        <ele>540.289</ele>
        <time>2020-01-17T11:33:51Z</time>
      </trkpt>
      <trkpt lat="39.915056" lon="-0.573058">
        <ele>541.62</ele>
        <time>2020-01-17T11:33:52Z</time>
      </trkpt>
      <trkpt lat="39.914959" lon="-0.572923">
        <ele>539.999</ele>
        <time>2020-01-17T11:33:56Z</time>
      </trkpt>
      <trkpt lat="39.914929" lon="-0.57288">
        <ele>538.462</ele>
        <time>2020-01-17T11:33:57Z</time>
      </trkpt>
      <trkpt lat="39.914905" lon="-0.57285">
        <ele>539.082</ele>
        <time>2020-01-17T11:33:58Z</time>
      </trkpt>
      <trkpt lat="39.914888" lon="-0.57283">
        <ele>539.991</ele>
        <time>2020-01-17T11:33:59Z</time>
      </trkpt>
      <trkpt lat="39.914864" lon="-0.572767">
        <ele>539.996</ele>
        <time>2020-01-17T11:34:02Z</time>
      </trkpt>
      <trkpt lat="39.914827" lon="-0.572697">
        <ele>540.037</ele>
        <time>2020-01-17T11:34:05Z</time>
      </trkpt>
      <trkpt lat="39.914794" lon="-0.572613">
        <ele>540.198</ele>
        <time>2020-01-17T11:34:08Z</time>
      </trkpt>
      <trkpt lat="39.914781" lon="-0.572584">
        <ele>541.513</ele>
        <time>2020-01-17T11:34:09Z</time>
      </trkpt>
      <trkpt lat="39.91477" lon="-0.572558">
        <ele>542.689</ele>
        <time>2020-01-17T11:34:10Z</time>
      </trkpt>
      <trkpt lat="39.914752" lon="-0.572508">
        <ele>546.776</ele>
        <time>2020-01-17T11:34:12Z</time>
      </trkpt>
      <trkpt lat="39.914739" lon="-0.572472">
        <ele>546.743</ele>
        <time>2020-01-17T11:34:14Z</time>
      </trkpt>
      <trkpt lat="39.914725" lon="-0.572403">
        <ele>542.981</ele>
        <time>2020-01-17T11:34:17Z</time>
      </trkpt>
      <trkpt lat="39.914692" lon="-0.572333">
        <ele>542.62</ele>
        <time>2020-01-17T11:34:20Z</time>
      </trkpt>
      <trkpt lat="39.914679" lon="-0.572308">
        <ele>542.306</ele>
        <time>2020-01-17T11:34:21Z</time>
      </trkpt>
      <trkpt lat="39.914653" lon="-0.572262">
        <ele>541.789</ele>
        <time>2020-01-17T11:34:23Z</time>
      </trkpt>
      <trkpt lat="39.914634" lon="-0.572207">
        <ele>542.725</ele>
        <time>2020-01-17T11:34:25Z</time>
      </trkpt>
      <trkpt lat="39.914591" lon="-0.572133">
        <ele>540.575</ele>
        <time>2020-01-17T11:34:28Z</time>
      </trkpt>
      <trkpt lat="39.914574" lon="-0.572108">
        <ele>541.777</ele>
        <time>2020-01-17T11:34:29Z</time>
      </trkpt>
      <trkpt lat="39.914539" lon="-0.572013">
        <ele>542.895</ele>
        <time>2020-01-17T11:34:32Z</time>
      </trkpt>
      <trkpt lat="39.914486" lon="-0.571747">
        <ele>549.473</ele>
        <time>2020-01-17T11:34:35Z</time>
      </trkpt>
      <trkpt lat="39.91449" lon="-0.571664">
        <ele>547.541</ele>
        <time>2020-01-17T11:34:37Z</time>
      </trkpt>
      <trkpt lat="39.914466" lon="-0.571546">
        <ele>545.943</ele>
        <time>2020-01-17T11:34:40Z</time>
      </trkpt>
      <trkpt lat="39.91442" lon="-0.571448">
        <ele>542.463</ele>
        <time>2020-01-17T11:34:43Z</time>
      </trkpt>
      <trkpt lat="39.914385" lon="-0.571376">
        <ele>542.022</ele>
        <time>2020-01-17T11:34:46Z</time>
      </trkpt>
      <trkpt lat="39.914337" lon="-0.571338">
        <ele>541.098</ele>
        <time>2020-01-17T11:34:48Z</time>
      </trkpt>
      <trkpt lat="39.914232" lon="-0.571306">
        <ele>540.415</ele>
        <time>2020-01-17T11:34:52Z</time>
      </trkpt>
      <trkpt lat="39.914108" lon="-0.571312">
        <ele>540.203</ele>
        <time>2020-01-17T11:34:55Z</time>
      </trkpt>
      <trkpt lat="39.913977" lon="-0.571411">
        <ele>536.639</ele>
        <time>2020-01-17T11:34:58Z</time>
      </trkpt>
      <trkpt lat="39.913891" lon="-0.571507">
        <ele>536.081</ele>
        <time>2020-01-17T11:35:00Z</time>
      </trkpt>
      <trkpt lat="39.913841" lon="-0.571512">
        <ele>536.49</ele>
        <time>2020-01-17T11:35:01Z</time>
      </trkpt>
      <trkpt lat="39.913778" lon="-0.571555">
        <ele>531.165</ele>
        <time>2020-01-17T11:35:03Z</time>
      </trkpt>
      <trkpt lat="39.913739" lon="-0.571583">
        <ele>530.108</ele>
        <time>2020-01-17T11:35:04Z</time>
      </trkpt>
      <trkpt lat="39.913718" lon="-0.571596">
        <ele>531.449</ele>
        <time>2020-01-17T11:35:05Z</time>
      </trkpt>
      <trkpt lat="39.913688" lon="-0.571617">
        <ele>532.423</ele>
        <time>2020-01-17T11:35:07Z</time>
      </trkpt>
      <trkpt lat="39.913642" lon="-0.571671">
        <ele>530.925</ele>
        <time>2020-01-17T11:35:09Z</time>
      </trkpt>
      <trkpt lat="39.913515" lon="-0.571774">
        <ele>530.141</ele>
        <time>2020-01-17T11:35:11Z</time>
      </trkpt>
      <trkpt lat="39.913456" lon="-0.571798">
        <ele>530.7</ele>
        <time>2020-01-17T11:35:12Z</time>
      </trkpt>
      <trkpt lat="39.91339" lon="-0.571832">
        <ele>530.429</ele>
        <time>2020-01-17T11:35:13Z</time>
      </trkpt>
      <trkpt lat="39.913315" lon="-0.57188">
        <ele>529.984</ele>
        <time>2020-01-17T11:35:15Z</time>
      </trkpt>
      <trkpt lat="39.913251" lon="-0.57191">
        <ele>529.99</ele>
        <time>2020-01-17T11:35:17Z</time>
      </trkpt>
      <trkpt lat="39.913163" lon="-0.571956">
        <ele>530.287</ele>
        <time>2020-01-17T11:35:19Z</time>
      </trkpt>
      <trkpt lat="39.913131" lon="-0.571999">
        <ele>530.913</ele>
        <time>2020-01-17T11:35:20Z</time>
      </trkpt>
      <trkpt lat="39.913058" lon="-0.57206">
        <ele>531.093</ele>
        <time>2020-01-17T11:35:22Z</time>
      </trkpt>
      <trkpt lat="39.912906" lon="-0.572139">
        <ele>530.546</ele>
        <time>2020-01-17T11:35:26Z</time>
      </trkpt>
      <trkpt lat="39.912853" lon="-0.572178">
        <ele>529.941</ele>
        <time>2020-01-17T11:35:28Z</time>
      </trkpt>
      <trkpt lat="39.912788" lon="-0.572218">
        <ele>527.572</ele>
        <time>2020-01-17T11:35:30Z</time>
      </trkpt>
      <trkpt lat="39.912703" lon="-0.572312">
        <ele>526.927</ele>
        <time>2020-01-17T11:35:33Z</time>
      </trkpt>
      <trkpt lat="39.912701" lon="-0.572389">
        <ele>526.534</ele>
        <time>2020-01-17T11:35:35Z</time>
      </trkpt>
      <trkpt lat="39.912621" lon="-0.572389">
        <ele>525.274</ele>
        <time>2020-01-17T11:35:38Z</time>
      </trkpt>
      <trkpt lat="39.912573" lon="-0.572361">
        <ele>523.105</ele>
        <time>2020-01-17T11:35:40Z</time>
      </trkpt>
      <trkpt lat="39.912543" lon="-0.572278">
        <ele>523.072</ele>
        <time>2020-01-17T11:35:43Z</time>
      </trkpt>
      <trkpt lat="39.912536" lon="-0.572199">
        <ele>524.799</ele>
        <time>2020-01-17T11:35:46Z</time>
      </trkpt>
      <trkpt lat="39.912515" lon="-0.572133">
        <ele>524.878</ele>
        <time>2020-01-17T11:35:48Z</time>
      </trkpt>
      <trkpt lat="39.912504" lon="-0.572098">
        <ele>525.202</ele>
        <time>2020-01-17T11:35:49Z</time>
      </trkpt>
      <trkpt lat="39.912477" lon="-0.57197">
        <ele>524.094</ele>
        <time>2020-01-17T11:35:52Z</time>
      </trkpt>
      <trkpt lat="39.912462" lon="-0.571897">
        <ele>523.919</ele>
        <time>2020-01-17T11:35:53Z</time>
      </trkpt>
      <trkpt lat="39.912441" lon="-0.571806">
        <ele>523.254</ele>
        <time>2020-01-17T11:35:54Z</time>
      </trkpt>
      <trkpt lat="39.912347" lon="-0.571286">
        <ele>523.391</ele>
        <time>2020-01-17T11:35:59Z</time>
      </trkpt>
      <trkpt lat="39.912297" lon="-0.571256">
        <ele>521.593</ele>
        <time>2020-01-17T11:36:00Z</time>
      </trkpt>
      <trkpt lat="39.912225" lon="-0.571251">
        <ele>521.289</ele>
        <time>2020-01-17T11:36:01Z</time>
      </trkpt>
      <trkpt lat="39.912199" lon="-0.571095">
        <ele>521.106</ele>
        <time>2020-01-17T11:36:05Z</time>
      </trkpt>
      <trkpt lat="39.912026" lon="-0.57069">
        <ele>521.173</ele>
        <time>2020-01-17T11:36:10Z</time>
      </trkpt>
      <trkpt lat="39.912054" lon="-0.570537">
        <ele>520.085</ele>
        <time>2020-01-17T11:36:12Z</time>
      </trkpt>
      <trkpt lat="39.912086" lon="-0.570448">
        <ele>519.152</ele>
        <time>2020-01-17T11:36:13Z</time>
      </trkpt>
      <trkpt lat="39.912097" lon="-0.570381">
        <ele>517.996</ele>
        <time>2020-01-17T11:36:14Z</time>
      </trkpt>
      <trkpt lat="39.912084" lon="-0.57032">
        <ele>518.022</ele>
        <time>2020-01-17T11:36:15Z</time>
      </trkpt>
      <trkpt lat="39.912074" lon="-0.570261">
        <ele>518.35</ele>
        <time>2020-01-17T11:36:16Z</time>
      </trkpt>
      <trkpt lat="39.912076" lon="-0.570173">
        <ele>516.581</ele>
        <time>2020-01-17T11:36:18Z</time>
      </trkpt>
      <trkpt lat="39.912021" lon="-0.570105">
        <ele>514.85</ele>
        <time>2020-01-17T11:36:20Z</time>
      </trkpt>
      <trkpt lat="39.911967" lon="-0.570027">
        <ele>513.469</ele>
        <time>2020-01-17T11:36:22Z</time>
      </trkpt>
      <trkpt lat="39.911901" lon="-0.56995">
        <ele>514.248</ele>
        <time>2020-01-17T11:36:24Z</time>
      </trkpt>
      <trkpt lat="39.911675" lon="-0.569784">
        <ele>515.129</ele>
        <time>2020-01-17T11:36:28Z</time>
      </trkpt>
      <trkpt lat="39.91159" lon="-0.569693">
        <ele>514.447</ele>
        <time>2020-01-17T11:36:30Z</time>
      </trkpt>
      <trkpt lat="39.911552" lon="-0.569648">
        <ele>514.409</ele>
        <time>2020-01-17T11:36:31Z</time>
      </trkpt>
      <trkpt lat="39.911416" lon="-0.56951">
        <ele>514.119</ele>
        <time>2020-01-17T11:36:34Z</time>
      </trkpt>
      <trkpt lat="39.911377" lon="-0.569468">
        <ele>513.146</ele>
        <time>2020-01-17T11:36:35Z</time>
      </trkpt>
      <trkpt lat="39.911345" lon="-0.569429">
        <ele>511.409</ele>
        <time>2020-01-17T11:36:36Z</time>
      </trkpt>
      <trkpt lat="39.911311" lon="-0.56939">
        <ele>513.255</ele>
        <time>2020-01-17T11:36:37Z</time>
      </trkpt>
      <trkpt lat="39.911193" lon="-0.569279">
        <ele>512.354</ele>
        <time>2020-01-17T11:36:40Z</time>
      </trkpt>
      <trkpt lat="39.91113" lon="-0.569205">
        <ele>512.815</ele>
        <time>2020-01-17T11:36:42Z</time>
      </trkpt>
      <trkpt lat="39.911074" lon="-0.569145">
        <ele>512.978</ele>
        <time>2020-01-17T11:36:44Z</time>
      </trkpt>
      <trkpt lat="39.911062" lon="-0.569033">
        <ele>511.737</ele>
        <time>2020-01-17T11:36:46Z</time>
      </trkpt>
      <trkpt lat="39.911054" lon="-0.56895">
        <ele>511.769</ele>
        <time>2020-01-17T11:36:47Z</time>
      </trkpt>
      <trkpt lat="39.911026" lon="-0.568816">
        <ele>511.763</ele>
        <time>2020-01-17T11:36:49Z</time>
      </trkpt>
      <trkpt lat="39.910982" lon="-0.568759">
        <ele>511.084</ele>
        <time>2020-01-17T11:36:50Z</time>
      </trkpt>
      <trkpt lat="39.910893" lon="-0.56852">
        <ele>509.156</ele>
        <time>2020-01-17T11:36:53Z</time>
      </trkpt>
      <trkpt lat="39.910857" lon="-0.56845">
        <ele>506.492</ele>
        <time>2020-01-17T11:36:54Z</time>
      </trkpt>
      <trkpt lat="39.910765" lon="-0.568201">
        <ele>506.089</ele>
        <time>2020-01-17T11:36:57Z</time>
      </trkpt>
      <trkpt lat="39.910719" lon="-0.568149">
        <ele>505.852</ele>
        <time>2020-01-17T11:36:58Z</time>
      </trkpt>
      <trkpt lat="39.910684" lon="-0.568094">
        <ele>505.357</ele>
        <time>2020-01-17T11:36:59Z</time>
      </trkpt>
      <trkpt lat="39.910618" lon="-0.567936">
        <ele>505.612</ele>
        <time>2020-01-17T11:37:02Z</time>
      </trkpt>
      <trkpt lat="39.910597" lon="-0.567885">
        <ele>505.266</ele>
        <time>2020-01-17T11:37:03Z</time>
      </trkpt>
      <trkpt lat="39.910514" lon="-0.567749">
        <ele>505.309</ele>
        <time>2020-01-17T11:37:06Z</time>
      </trkpt>
      <trkpt lat="39.910477" lon="-0.56771">
        <ele>505.811</ele>
        <time>2020-01-17T11:37:07Z</time>
      </trkpt>
      <trkpt lat="39.910424" lon="-0.567676">
        <ele>503.853</ele>
        <time>2020-01-17T11:37:08Z</time>
      </trkpt>
      <trkpt lat="39.910374" lon="-0.567635">
        <ele>502.41</ele>
        <time>2020-01-17T11:37:09Z</time>
      </trkpt>
      <trkpt lat="39.910326" lon="-0.567599">
        <ele>503.211</ele>
        <time>2020-01-17T11:37:10Z</time>
      </trkpt>
      <trkpt lat="39.910286" lon="-0.567563">
        <ele>502.313</ele>
        <time>2020-01-17T11:37:11Z</time>
      </trkpt>
      <trkpt lat="39.910235" lon="-0.567534">
        <ele>502.4</ele>
        <time>2020-01-17T11:37:12Z</time>
      </trkpt>
      <trkpt lat="39.91019" lon="-0.567496">
        <ele>502.88</ele>
        <time>2020-01-17T11:37:13Z</time>
      </trkpt>
      <trkpt lat="39.910123" lon="-0.567468">
        <ele>502.797</ele>
        <time>2020-01-17T11:37:14Z</time>
      </trkpt>
      <trkpt lat="39.910059" lon="-0.56741">
        <ele>502.603</ele>
        <time>2020-01-17T11:37:16Z</time>
      </trkpt>
      <trkpt lat="39.910031" lon="-0.567354">
        <ele>503.374</ele>
        <time>2020-01-17T11:37:18Z</time>
      </trkpt>
      <trkpt lat="39.909994" lon="-0.567291">
        <ele>503.281</ele>
        <time>2020-01-17T11:37:20Z</time>
      </trkpt>
      <trkpt lat="39.909976" lon="-0.567205">
        <ele>506.527</ele>
        <time>2020-01-17T11:37:22Z</time>
      </trkpt>
      <trkpt lat="39.909993" lon="-0.567065">
        <ele>505.25</ele>
        <time>2020-01-17T11:37:24Z</time>
      </trkpt>
      <trkpt lat="39.910004" lon="-0.56699">
        <ele>504.553</ele>
        <time>2020-01-17T11:37:25Z</time>
      </trkpt>
      <trkpt lat="39.910001" lon="-0.56679">
        <ele>504.16</ele>
        <time>2020-01-17T11:37:28Z</time>
      </trkpt>
      <trkpt lat="39.910012" lon="-0.566705">
        <ele>502.176</ele>
        <time>2020-01-17T11:37:29Z</time>
      </trkpt>
      <trkpt lat="39.90998" lon="-0.566574">
        <ele>501.942</ele>
        <time>2020-01-17T11:37:31Z</time>
      </trkpt>
      <trkpt lat="39.909958" lon="-0.566511">
        <ele>502.365</ele>
        <time>2020-01-17T11:37:32Z</time>
      </trkpt>
      <trkpt lat="39.909933" lon="-0.566452">
        <ele>504.342</ele>
        <time>2020-01-17T11:37:33Z</time>
      </trkpt>
      <trkpt lat="39.909926" lon="-0.566381">
        <ele>503.361</ele>
        <time>2020-01-17T11:37:34Z</time>
      </trkpt>
      <trkpt lat="39.9099" lon="-0.5663">
        <ele>500.753</ele>
        <time>2020-01-17T11:37:35Z</time>
      </trkpt>
      <trkpt lat="39.909888" lon="-0.56623">
        <ele>499.435</ele>
        <time>2020-01-17T11:37:36Z</time>
      </trkpt>
      <trkpt lat="39.90986" lon="-0.566158">
        <ele>498.761</ele>
        <time>2020-01-17T11:37:37Z</time>
      </trkpt>
      <trkpt lat="39.909837" lon="-0.56608">
        <ele>497.801</ele>
        <time>2020-01-17T11:37:38Z</time>
      </trkpt>
      <trkpt lat="39.909743" lon="-0.565696">
        <ele>498.117</ele>
        <time>2020-01-17T11:37:43Z</time>
      </trkpt>
      <trkpt lat="39.909735" lon="-0.565615">
        <ele>499.694</ele>
        <time>2020-01-17T11:37:44Z</time>
      </trkpt>
      <trkpt lat="39.909712" lon="-0.565545">
        <ele>499.464</ele>
        <time>2020-01-17T11:37:45Z</time>
      </trkpt>
      <trkpt lat="39.909693" lon="-0.565473">
        <ele>498.214</ele>
        <time>2020-01-17T11:37:46Z</time>
      </trkpt>
      <trkpt lat="39.909688" lon="-0.565391">
        <ele>497.179</ele>
        <time>2020-01-17T11:37:47Z</time>
      </trkpt>
      <trkpt lat="39.909663" lon="-0.56531">
        <ele>498.985</ele>
        <time>2020-01-17T11:37:48Z</time>
      </trkpt>
      <trkpt lat="39.909621" lon="-0.565172">
        <ele>500.522</ele>
        <time>2020-01-17T11:37:50Z</time>
      </trkpt>
      <trkpt lat="39.909608" lon="-0.5651">
        <ele>497.074</ele>
        <time>2020-01-17T11:37:51Z</time>
      </trkpt>
      <trkpt lat="39.909581" lon="-0.565033">
        <ele>498.62</ele>
        <time>2020-01-17T11:37:52Z</time>
      </trkpt>
      <trkpt lat="39.909561" lon="-0.564961">
        <ele>496.472</ele>
        <time>2020-01-17T11:37:53Z</time>
      </trkpt>
      <trkpt lat="39.909503" lon="-0.564644">
        <ele>496.837</ele>
        <time>2020-01-17T11:37:57Z</time>
      </trkpt>
      <trkpt lat="39.909484" lon="-0.564569">
        <ele>498.305</ele>
        <time>2020-01-17T11:37:58Z</time>
      </trkpt>
      <trkpt lat="39.909462" lon="-0.5645">
        <ele>499.279</ele>
        <time>2020-01-17T11:37:59Z</time>
      </trkpt>
      <trkpt lat="39.909452" lon="-0.564428">
        <ele>496.915</ele>
        <time>2020-01-17T11:38:00Z</time>
      </trkpt>
      <trkpt lat="39.909431" lon="-0.564356">
        <ele>497.975</ele>
        <time>2020-01-17T11:38:01Z</time>
      </trkpt>
      <trkpt lat="39.90942" lon="-0.564274">
        <ele>499.351</ele>
        <time>2020-01-17T11:38:02Z</time>
      </trkpt>
      <trkpt lat="39.909394" lon="-0.564207">
        <ele>499.507</ele>
        <time>2020-01-17T11:38:03Z</time>
      </trkpt>
      <trkpt lat="39.909368" lon="-0.564148">
        <ele>499.988</ele>
        <time>2020-01-17T11:38:04Z</time>
      </trkpt>
      <trkpt lat="39.909338" lon="-0.564077">
        <ele>498.652</ele>
        <time>2020-01-17T11:38:05Z</time>
      </trkpt>
      <trkpt lat="39.909317" lon="-0.56401">
        <ele>498.824</ele>
        <time>2020-01-17T11:38:07Z</time>
      </trkpt>
      <trkpt lat="39.909303" lon="-0.563941">
        <ele>499.631</ele>
        <time>2020-01-17T11:38:09Z</time>
      </trkpt>
      <trkpt lat="39.909246" lon="-0.563696">
        <ele>500.146</ele>
        <time>2020-01-17T11:38:11Z</time>
      </trkpt>
      <trkpt lat="39.909193" lon="-0.56349">
        <ele>500.53</ele>
        <time>2020-01-17T11:38:13Z</time>
      </trkpt>
      <trkpt lat="39.909172" lon="-0.563429">
        <ele>501.593</ele>
        <time>2020-01-17T11:38:14Z</time>
      </trkpt>
      <trkpt lat="39.909156" lon="-0.563359">
        <ele>503.774</ele>
        <time>2020-01-17T11:38:15Z</time>
      </trkpt>
      <trkpt lat="39.90913" lon="-0.563298">
        <ele>504.002</ele>
        <time>2020-01-17T11:38:16Z</time>
      </trkpt>
      <trkpt lat="39.90911" lon="-0.563234">
        <ele>505.078</ele>
        <time>2020-01-17T11:38:17Z</time>
      </trkpt>
      <trkpt lat="39.909097" lon="-0.563192">
        <ele>504.862</ele>
        <time>2020-01-17T11:38:18Z</time>
      </trkpt>
      <trkpt lat="39.909082" lon="-0.563133">
        <ele>504.174</ele>
        <time>2020-01-17T11:38:20Z</time>
      </trkpt>
      <trkpt lat="39.909072" lon="-0.563063">
        <ele>503.364</ele>
        <time>2020-01-17T11:38:22Z</time>
      </trkpt>
      <trkpt lat="39.90894" lon="-0.562489">
        <ele>503.005</ele>
        <time>2020-01-17T11:38:27Z</time>
      </trkpt>
      <trkpt lat="39.908916" lon="-0.562402">
        <ele>500.319</ele>
        <time>2020-01-17T11:38:29Z</time>
      </trkpt>
      <trkpt lat="39.908881" lon="-0.562356">
        <ele>497.333</ele>
        <time>2020-01-17T11:38:30Z</time>
      </trkpt>
      <trkpt lat="39.908852" lon="-0.562309">
        <ele>498.147</ele>
        <time>2020-01-17T11:38:31Z</time>
      </trkpt>
      <trkpt lat="39.908852" lon="-0.562218">
        <ele>497.903</ele>
        <time>2020-01-17T11:38:33Z</time>
      </trkpt>
      <trkpt lat="39.908836" lon="-0.562135">
        <ele>498.387</ele>
        <time>2020-01-17T11:38:35Z</time>
      </trkpt>
      <trkpt lat="39.908813" lon="-0.562055">
        <ele>500.531</ele>
        <time>2020-01-17T11:38:37Z</time>
      </trkpt>
      <trkpt lat="39.908785" lon="-0.561943">
        <ele>499.628</ele>
        <time>2020-01-17T11:38:40Z</time>
      </trkpt>
      <trkpt lat="39.908769" lon="-0.561894">
        <ele>499.251</ele>
        <time>2020-01-17T11:38:43Z</time>
      </trkpt>
      <trkpt lat="39.908757" lon="-0.56181">
        <ele>499.452</ele>
        <time>2020-01-17T11:38:46Z</time>
      </trkpt>
      <trkpt lat="39.908736" lon="-0.561731">
        <ele>500.55</ele>
        <time>2020-01-17T11:38:48Z</time>
      </trkpt>
      <trkpt lat="39.908715" lon="-0.56167">
        <ele>500.483</ele>
        <time>2020-01-17T11:38:50Z</time>
      </trkpt>
      <trkpt lat="39.908696" lon="-0.561612">
        <ele>500.472</ele>
        <time>2020-01-17T11:38:52Z</time>
      </trkpt>
      <trkpt lat="39.908671" lon="-0.561516">
        <ele>502.5</ele>
        <time>2020-01-17T11:38:56Z</time>
      </trkpt>
      <trkpt lat="39.908649" lon="-0.561459">
        <ele>504.598</ele>
        <time>2020-01-17T11:38:58Z</time>
      </trkpt>
      <trkpt lat="39.908627" lon="-0.561406">
        <ele>504.189</ele>
        <time>2020-01-17T11:38:59Z</time>
      </trkpt>
      <trkpt lat="39.908606" lon="-0.561361">
        <ele>505.535</ele>
        <time>2020-01-17T11:39:00Z</time>
      </trkpt>
      <trkpt lat="39.908568" lon="-0.561279">
        <ele>501.998</ele>
        <time>2020-01-17T11:39:02Z</time>
      </trkpt>
      <trkpt lat="39.908479" lon="-0.561064">
        <ele>503.603</ele>
        <time>2020-01-17T11:39:03Z</time>
      </trkpt>
      <trkpt lat="39.908479" lon="-0.561004">
        <ele>501.102</ele>
        <time>2020-01-17T11:39:05Z</time>
      </trkpt>
      <trkpt lat="39.90846" lon="-0.560933">
        <ele>503.099</ele>
        <time>2020-01-17T11:39:07Z</time>
      </trkpt>
      <trkpt lat="39.908408" lon="-0.560834">
        <ele>505.836</ele>
        <time>2020-01-17T11:39:10Z</time>
      </trkpt>
      <trkpt lat="39.9084" lon="-0.560761">
        <ele>508.014</ele>
        <time>2020-01-17T11:39:12Z</time>
      </trkpt>
      <trkpt lat="39.908367" lon="-0.560698">
        <ele>507.303</ele>
        <time>2020-01-17T11:39:16Z</time>
      </trkpt>
      <trkpt lat="39.90834" lon="-0.560622">
        <ele>507.066</ele>
        <time>2020-01-17T11:39:22Z</time>
      </trkpt>
      <trkpt lat="39.908288" lon="-0.560592">
        <ele>506.914</ele>
        <time>2020-01-17T11:39:24Z</time>
      </trkpt>
      <trkpt lat="39.908267" lon="-0.56058">
        <ele>507.16</ele>
        <time>2020-01-17T11:39:25Z</time>
      </trkpt>
      <trkpt lat="39.908234" lon="-0.560537">
        <ele>507.12</ele>
        <time>2020-01-17T11:39:27Z</time>
      </trkpt>
      <trkpt lat="39.908217" lon="-0.560453">
        <ele>507.56</ele>
        <time>2020-01-17T11:39:29Z</time>
      </trkpt>
      <trkpt lat="39.908207" lon="-0.560406">
        <ele>508.85</ele>
        <time>2020-01-17T11:39:30Z</time>
      </trkpt>
      <trkpt lat="39.908196" lon="-0.56036">
        <ele>509.313</ele>
        <time>2020-01-17T11:39:31Z</time>
      </trkpt>
      <trkpt lat="39.90817" lon="-0.560275">
        <ele>508.825</ele>
        <time>2020-01-17T11:39:33Z</time>
      </trkpt>
      <trkpt lat="39.908154" lon="-0.560234">
        <ele>508.932</ele>
        <time>2020-01-17T11:39:34Z</time>
      </trkpt>
      <trkpt lat="39.908122" lon="-0.560156">
        <ele>509.217</ele>
        <time>2020-01-17T11:39:36Z</time>
      </trkpt>
      <trkpt lat="39.908109" lon="-0.56012">
        <ele>510.355</ele>
        <time>2020-01-17T11:39:37Z</time>
      </trkpt>
      <trkpt lat="39.908096" lon="-0.560083">
        <ele>510.399</ele>
        <time>2020-01-17T11:39:38Z</time>
      </trkpt>
      <trkpt lat="39.90808" lon="-0.560047">
        <ele>510.404</ele>
        <time>2020-01-17T11:39:39Z</time>
      </trkpt>
      <trkpt lat="39.90802" lon="-0.559963">
        <ele>510.025</ele>
        <time>2020-01-17T11:39:41Z</time>
      </trkpt>
      <trkpt lat="39.907983" lon="-0.559913">
        <ele>508.975</ele>
        <time>2020-01-17T11:39:42Z</time>
      </trkpt>
      <trkpt lat="39.907948" lon="-0.559866">
        <ele>510.05</ele>
        <time>2020-01-17T11:39:43Z</time>
      </trkpt>
      <trkpt lat="39.907858" lon="-0.55972">
        <ele>510.628</ele>
        <time>2020-01-17T11:39:46Z</time>
      </trkpt>
      <trkpt lat="39.907829" lon="-0.559674">
        <ele>511.016</ele>
        <time>2020-01-17T11:39:47Z</time>
      </trkpt>
      <trkpt lat="39.907738" lon="-0.55955">
        <ele>511.047</ele>
        <time>2020-01-17T11:39:50Z</time>
      </trkpt>
      <trkpt lat="39.907648" lon="-0.559442">
        <ele>510.995</ele>
        <time>2020-01-17T11:39:53Z</time>
      </trkpt>
      <trkpt lat="39.907613" lon="-0.559407">
        <ele>511.85</ele>
        <time>2020-01-17T11:39:54Z</time>
      </trkpt>
      <trkpt lat="39.907581" lon="-0.559374">
        <ele>512.05</ele>
        <time>2020-01-17T11:39:55Z</time>
      </trkpt>
      <trkpt lat="39.907553" lon="-0.559349">
        <ele>511.568</ele>
        <time>2020-01-17T11:39:56Z</time>
      </trkpt>
      <trkpt lat="39.907453" lon="-0.559268">
        <ele>509.704</ele>
        <time>2020-01-17T11:39:59Z</time>
      </trkpt>
      <trkpt lat="39.907391" lon="-0.559208">
        <ele>509.279</ele>
        <time>2020-01-17T11:40:01Z</time>
      </trkpt>
      <trkpt lat="39.907323" lon="-0.55915">
        <ele>509.854</ele>
        <time>2020-01-17T11:40:03Z</time>
      </trkpt>
      <trkpt lat="39.907267" lon="-0.559096">
        <ele>509.327</ele>
        <time>2020-01-17T11:40:05Z</time>
      </trkpt>
      <trkpt lat="39.907225" lon="-0.559069">
        <ele>508.536</ele>
        <time>2020-01-17T11:40:06Z</time>
      </trkpt>
      <trkpt lat="39.907121" lon="-0.559017">
        <ele>507.705</ele>
        <time>2020-01-17T11:40:08Z</time>
      </trkpt>
      <trkpt lat="39.907069" lon="-0.558989">
        <ele>506.778</ele>
        <time>2020-01-17T11:40:09Z</time>
      </trkpt>
      <trkpt lat="39.90698" lon="-0.558945">
        <ele>506.643</ele>
        <time>2020-01-17T11:40:11Z</time>
      </trkpt>
      <trkpt lat="39.906908" lon="-0.558923">
        <ele>506.877</ele>
        <time>2020-01-17T11:40:13Z</time>
      </trkpt>
      <trkpt lat="39.906833" lon="-0.558884">
        <ele>507.844</ele>
        <time>2020-01-17T11:40:15Z</time>
      </trkpt>
      <trkpt lat="39.906735" lon="-0.558849">
        <ele>507.756</ele>
        <time>2020-01-17T11:40:17Z</time>
      </trkpt>
      <trkpt lat="39.906677" lon="-0.558841">
        <ele>508.299</ele>
        <time>2020-01-17T11:40:18Z</time>
      </trkpt>
      <trkpt lat="39.906577" lon="-0.55884">
        <ele>506.895</ele>
        <time>2020-01-17T11:40:20Z</time>
      </trkpt>
      <trkpt lat="39.906514" lon="-0.558855">
        <ele>505.651</ele>
        <time>2020-01-17T11:40:22Z</time>
      </trkpt>
      <trkpt lat="39.906444" lon="-0.558864">
        <ele>505.77</ele>
        <time>2020-01-17T11:40:24Z</time>
      </trkpt>
      <trkpt lat="39.906353" lon="-0.558854">
        <ele>504.576</ele>
        <time>2020-01-17T11:40:27Z</time>
      </trkpt>
      <trkpt lat="39.906292" lon="-0.558892">
        <ele>502.659</ele>
        <time>2020-01-17T11:40:30Z</time>
      </trkpt>
      <trkpt lat="39.906248" lon="-0.55892">
        <ele>505.083</ele>
        <time>2020-01-17T11:40:32Z</time>
      </trkpt>
      <trkpt lat="39.906185" lon="-0.558967">
        <ele>506.904</ele>
        <time>2020-01-17T11:40:34Z</time>
      </trkpt>
      <trkpt lat="39.906146" lon="-0.558996">
        <ele>506.709</ele>
        <time>2020-01-17T11:40:35Z</time>
      </trkpt>
      <trkpt lat="39.906103" lon="-0.559024">
        <ele>506.294</ele>
        <time>2020-01-17T11:40:36Z</time>
      </trkpt>
      <trkpt lat="39.906064" lon="-0.559051">
        <ele>506.408</ele>
        <time>2020-01-17T11:40:37Z</time>
      </trkpt>
      <trkpt lat="39.906034" lon="-0.559073">
        <ele>506.577</ele>
        <time>2020-01-17T11:40:38Z</time>
      </trkpt>
      <trkpt lat="39.905968" lon="-0.559129">
        <ele>506.628</ele>
        <time>2020-01-17T11:40:41Z</time>
      </trkpt>
      <trkpt lat="39.905917" lon="-0.559173">
        <ele>506.206</ele>
        <time>2020-01-17T11:40:43Z</time>
      </trkpt>
      <trkpt lat="39.905892" lon="-0.559195">
        <ele>505.882</ele>
        <time>2020-01-17T11:40:44Z</time>
      </trkpt>
      <trkpt lat="39.90584" lon="-0.559243">
        <ele>505.107</ele>
        <time>2020-01-17T11:40:46Z</time>
      </trkpt>
      <trkpt lat="39.905748" lon="-0.559299">
        <ele>505.269</ele>
        <time>2020-01-17T11:40:49Z</time>
      </trkpt>
      <trkpt lat="39.905697" lon="-0.559322">
        <ele>505.556</ele>
        <time>2020-01-17T11:40:51Z</time>
      </trkpt>
      <trkpt lat="39.905646" lon="-0.55933">
        <ele>505.363</ele>
        <time>2020-01-17T11:40:53Z</time>
      </trkpt>
      <trkpt lat="39.905615" lon="-0.559335">
        <ele>504.863</ele>
        <time>2020-01-17T11:40:54Z</time>
      </trkpt>
      <trkpt lat="39.905522" lon="-0.559354">
        <ele>503.379</ele>
        <time>2020-01-17T11:40:57Z</time>
      </trkpt>
      <trkpt lat="39.905476" lon="-0.559396">
        <ele>502.657</ele>
        <time>2020-01-17T11:40:59Z</time>
      </trkpt>
      <trkpt lat="39.905441" lon="-0.559452">
        <ele>502.61</ele>
        <time>2020-01-17T11:41:01Z</time>
      </trkpt>
      <trkpt lat="39.905373" lon="-0.559527">
        <ele>502.089</ele>
        <time>2020-01-17T11:41:04Z</time>
      </trkpt>
      <trkpt lat="39.905346" lon="-0.559556">
        <ele>500.919</ele>
        <time>2020-01-17T11:41:05Z</time>
      </trkpt>
      <trkpt lat="39.905321" lon="-0.559582">
        <ele>499.015</ele>
        <time>2020-01-17T11:41:06Z</time>
      </trkpt>
      <trkpt lat="39.905258" lon="-0.559635">
        <ele>499.838</ele>
        <time>2020-01-17T11:41:08Z</time>
      </trkpt>
      <trkpt lat="39.905189" lon="-0.559697">
        <ele>500.466</ele>
        <time>2020-01-17T11:41:10Z</time>
      </trkpt>
      <trkpt lat="39.905156" lon="-0.559732">
        <ele>500.442</ele>
        <time>2020-01-17T11:41:11Z</time>
      </trkpt>
      <trkpt lat="39.905121" lon="-0.559765">
        <ele>500.827</ele>
        <time>2020-01-17T11:41:12Z</time>
      </trkpt>
      <trkpt lat="39.905072" lon="-0.559797">
        <ele>495.171</ele>
        <time>2020-01-17T11:41:13Z</time>
      </trkpt>
      <trkpt lat="39.905026" lon="-0.559827">
        <ele>495.382</ele>
        <time>2020-01-17T11:41:14Z</time>
      </trkpt>
      <trkpt lat="39.904942" lon="-0.559894">
        <ele>496.654</ele>
        <time>2020-01-17T11:41:16Z</time>
      </trkpt>
      <trkpt lat="39.904897" lon="-0.559934">
        <ele>496.71</ele>
        <time>2020-01-17T11:41:17Z</time>
      </trkpt>
      <trkpt lat="39.904853" lon="-0.559972">
        <ele>497.115</ele>
        <time>2020-01-17T11:41:18Z</time>
      </trkpt>
      <trkpt lat="39.904814" lon="-0.560003">
        <ele>497.229</ele>
        <time>2020-01-17T11:41:19Z</time>
      </trkpt>
      <trkpt lat="39.904716" lon="-0.560044">
        <ele>497.935</ele>
        <time>2020-01-17T11:41:20Z</time>
      </trkpt>
      <trkpt lat="39.904668" lon="-0.560081">
        <ele>498.001</ele>
        <time>2020-01-17T11:41:21Z</time>
      </trkpt>
      <trkpt lat="39.904591" lon="-0.56015">
        <ele>498.633</ele>
        <time>2020-01-17T11:41:23Z</time>
      </trkpt>
      <trkpt lat="39.904536" lon="-0.560218">
        <ele>497.347</ele>
        <time>2020-01-17T11:41:25Z</time>
      </trkpt>
      <trkpt lat="39.904509" lon="-0.560248">
        <ele>498.76</ele>
        <time>2020-01-17T11:41:26Z</time>
      </trkpt>
      <trkpt lat="39.904452" lon="-0.560316">
        <ele>498.568</ele>
        <time>2020-01-17T11:41:28Z</time>
      </trkpt>
      <trkpt lat="39.904378" lon="-0.560347">
        <ele>498.095</ele>
        <time>2020-01-17T11:41:29Z</time>
      </trkpt>
      <trkpt lat="39.904324" lon="-0.560379">
        <ele>498.46</ele>
        <time>2020-01-17T11:41:30Z</time>
      </trkpt>
      <trkpt lat="39.90426" lon="-0.560444">
        <ele>498.034</ele>
        <time>2020-01-17T11:41:32Z</time>
      </trkpt>
      <trkpt lat="39.904218" lon="-0.560474">
        <ele>498.223</ele>
        <time>2020-01-17T11:41:34Z</time>
      </trkpt>
      <trkpt lat="39.904195" lon="-0.560528">
        <ele>497.462</ele>
        <time>2020-01-17T11:41:37Z</time>
      </trkpt>
      <trkpt lat="39.904152" lon="-0.560593">
        <ele>497.371</ele>
        <time>2020-01-17T11:41:40Z</time>
      </trkpt>
      <trkpt lat="39.904113" lon="-0.560634">
        <ele>497.525</ele>
        <time>2020-01-17T11:41:42Z</time>
      </trkpt>
      <trkpt lat="39.904067" lon="-0.56067">
        <ele>499.214</ele>
        <time>2020-01-17T11:41:44Z</time>
      </trkpt>
      <trkpt lat="39.90404" lon="-0.56069">
        <ele>498.141</ele>
        <time>2020-01-17T11:41:45Z</time>
      </trkpt>
      <trkpt lat="39.904013" lon="-0.560711">
        <ele>497.784</ele>
        <time>2020-01-17T11:41:46Z</time>
      </trkpt>
      <trkpt lat="39.903983" lon="-0.560733">
        <ele>498.56</ele>
        <time>2020-01-17T11:41:47Z</time>
      </trkpt>
      <trkpt lat="39.903952" lon="-0.560757">
        <ele>499.151</ele>
        <time>2020-01-17T11:41:48Z</time>
      </trkpt>
      <trkpt lat="39.903916" lon="-0.560782">
        <ele>499.482</ele>
        <time>2020-01-17T11:41:49Z</time>
      </trkpt>
      <trkpt lat="39.903876" lon="-0.560808">
        <ele>499.389</ele>
        <time>2020-01-17T11:41:50Z</time>
      </trkpt>
      <trkpt lat="39.903822" lon="-0.560839">
        <ele>497.479</ele>
        <time>2020-01-17T11:41:51Z</time>
      </trkpt>
      <trkpt lat="39.903759" lon="-0.560873">
        <ele>497.244</ele>
        <time>2020-01-17T11:41:52Z</time>
      </trkpt>
      <trkpt lat="39.903695" lon="-0.560905">
        <ele>498.734</ele>
        <time>2020-01-17T11:41:53Z</time>
      </trkpt>
      <trkpt lat="39.903633" lon="-0.560935">
        <ele>498.507</ele>
        <time>2020-01-17T11:41:54Z</time>
      </trkpt>
      <trkpt lat="39.903572" lon="-0.560962">
        <ele>498.949</ele>
        <time>2020-01-17T11:41:55Z</time>
      </trkpt>
      <trkpt lat="39.903298" lon="-0.561074">
        <ele>499.771</ele>
        <time>2020-01-17T11:41:58Z</time>
      </trkpt>
      <trkpt lat="39.90325" lon="-0.561088">
        <ele>499.905</ele>
        <time>2020-01-17T11:41:59Z</time>
      </trkpt>
      <trkpt lat="39.903199" lon="-0.561102">
        <ele>500.95</ele>
        <time>2020-01-17T11:42:00Z</time>
      </trkpt>
      <trkpt lat="39.903054" lon="-0.561116">
        <ele>501.68</ele>
        <time>2020-01-17T11:42:03Z</time>
      </trkpt>
      <trkpt lat="39.90296" lon="-0.561132">
        <ele>502.208</ele>
        <time>2020-01-17T11:42:05Z</time>
      </trkpt>
      <trkpt lat="39.902855" lon="-0.561129">
        <ele>502.673</ele>
        <time>2020-01-17T11:42:07Z</time>
      </trkpt>
      <trkpt lat="39.902803" lon="-0.561127">
        <ele>503.027</ele>
        <time>2020-01-17T11:42:08Z</time>
      </trkpt>
      <trkpt lat="39.902755" lon="-0.561122">
        <time>2020-01-17T11:42:09Z</time>
      </trkpt>
      <trkpt lat="39.902702" lon="-0.561124">
        <time>2020-01-17T11:42:10Z</time>
      </trkpt>
      <trkpt lat="39.902643" lon="-0.561117">
        <time>2020-01-17T11:42:11Z</time>
      </trkpt>
      <trkpt lat="39.90251" lon="-0.561125">
        <time>2020-01-17T11:42:13Z</time>
      </trkpt>
      <trkpt lat="39.902462" lon="-0.561121">
        <time>2020-01-17T11:42:14Z</time>
      </trkpt>
      <trkpt lat="39.902413" lon="-0.561113">
        <time>2020-01-17T11:42:15Z</time>
      </trkpt>
      <trkpt lat="39.902352" lon="-0.561098">
        <time>2020-01-17T11:42:16Z</time>
      </trkpt>
      <trkpt lat="39.902306" lon="-0.561087">
        <time>2020-01-17T11:42:17Z</time>
      </trkpt>
      <trkpt lat="39.902256" lon="-0.561073">
        <time>2020-01-17T11:42:18Z</time>
      </trkpt>
      <trkpt lat="39.902204" lon="-0.561059">
        <time>2020-01-17T11:42:19Z</time>
      </trkpt>
      <trkpt lat="39.902105" lon="-0.561011">
        <time>2020-01-17T11:42:21Z</time>
      </trkpt>
      <trkpt lat="39.901892" lon="-0.560882">
        <time>2020-01-17T11:42:25Z</time>
      </trkpt>
      <trkpt lat="39.901695" lon="-0.560653">
        <time>2020-01-17T11:42:29Z</time>
      </trkpt>
      <trkpt lat="39.90165" lon="-0.560634">
        <time>2020-01-17T11:42:30Z</time>
      </trkpt>
      <trkpt lat="39.90161" lon="-0.560581">
        <time>2020-01-17T11:42:31Z</time>
      </trkpt>
      <trkpt lat="39.901576" lon="-0.560539">
        <time>2020-01-17T11:42:32Z</time>
      </trkpt>
      <trkpt lat="39.901535" lon="-0.560506">
        <time>2020-01-17T11:42:33Z</time>
      </trkpt>
      <trkpt lat="39.901493" lon="-0.560474">
        <time>2020-01-17T11:42:34Z</time>
      </trkpt>
      <trkpt lat="39.901443" lon="-0.560452">
        <time>2020-01-17T11:42:35Z</time>
      </trkpt>
      <trkpt lat="39.901398" lon="-0.560416">
        <time>2020-01-17T11:42:36Z</time>
      </trkpt>
      <trkpt lat="39.90136" lon="-0.560372">
        <time>2020-01-17T11:42:37Z</time>
      </trkpt>
      <trkpt lat="39.901318" lon="-0.560342">
        <time>2020-01-17T11:42:38Z</time>
      </trkpt>
      <trkpt lat="39.901213" lon="-0.560233">
        <time>2020-01-17T11:42:41Z</time>
      </trkpt>
      <trkpt lat="39.90116" lon="-0.560199">
        <time>2020-01-17T11:42:42Z</time>
      </trkpt>
      <trkpt lat="39.901114" lon="-0.560195">
        <time>2020-01-17T11:42:43Z</time>
      </trkpt>
      <trkpt lat="39.901061" lon="-0.560163">
        <time>2020-01-17T11:42:44Z</time>
      </trkpt>
      <trkpt lat="39.900943" lon="-0.560092">
        <time>2020-01-17T11:42:47Z</time>
      </trkpt>
      <trkpt lat="39.900895" lon="-0.560064">
        <time>2020-01-17T11:42:48Z</time>
      </trkpt>
      <trkpt lat="39.900817" lon="-0.560004">
        <time>2020-01-17T11:42:50Z</time>
      </trkpt>
      <trkpt lat="39.900737" lon="-0.559959">
        <time>2020-01-17T11:42:52Z</time>
      </trkpt>
      <trkpt lat="39.900698" lon="-0.559919">
        <time>2020-01-17T11:42:53Z</time>
      </trkpt>
      <trkpt lat="39.900637" lon="-0.559843">
        <time>2020-01-17T11:42:57Z</time>
      </trkpt>
      <trkpt lat="39.900418" lon="-0.559579">
        <time>2020-01-17T11:43:02Z</time>
      </trkpt>
      <trkpt lat="39.900387" lon="-0.559537">
        <time>2020-01-17T11:43:03Z</time>
      </trkpt>
      <trkpt lat="39.900283" lon="-0.55946">
        <time>2020-01-17T11:43:06Z</time>
      </trkpt>
      <trkpt lat="39.900241" lon="-0.559428">
        <time>2020-01-17T11:43:07Z</time>
      </trkpt>
      <trkpt lat="39.900206" lon="-0.5594">
        <time>2020-01-17T11:43:08Z</time>
      </trkpt>
      <trkpt lat="39.90017" lon="-0.55937">
        <time>2020-01-17T11:43:09Z</time>
      </trkpt>
      <trkpt lat="39.900124" lon="-0.559351">
        <time>2020-01-17T11:43:10Z</time>
      </trkpt>
      <trkpt lat="39.900084" lon="-0.559318">
        <time>2020-01-17T11:43:11Z</time>
      </trkpt>
      <trkpt lat="39.900018" lon="-0.559242">
        <time>2020-01-17T11:43:13Z</time>
      </trkpt>
      <trkpt lat="39.900018" lon="-0.559242">
        <time>2020-01-17T11:43:13Z</time>
      </trkpt>
      <trkpt lat="39.89773" lon="-0.556986">
        <ele>503.376</ele>
        <time>2020-01-17T11:44:18Z</time>
      </trkpt>
      <trkpt lat="39.89773" lon="-0.556986">
        <ele>504.51</ele>
        <time>2020-01-17T11:44:21Z</time>
      </trkpt>
      <trkpt lat="39.897711" lon="-0.556929">
        <ele>504.52</ele>
        <time>2020-01-17T11:44:22Z</time>
      </trkpt>
      <trkpt lat="39.8977" lon="-0.556893">
        <ele>503.102</ele>
        <time>2020-01-17T11:44:23Z</time>
      </trkpt>
      <trkpt lat="39.897685" lon="-0.556851">
        <ele>502.612</ele>
        <time>2020-01-17T11:44:25Z</time>
      </trkpt>
      <trkpt lat="39.897641" lon="-0.556761">
        <ele>501.233</ele>
        <time>2020-01-17T11:44:27Z</time>
      </trkpt>
      <trkpt lat="39.89756" lon="-0.556608">
        <ele>501.34</ele>
        <time>2020-01-17T11:44:29Z</time>
      </trkpt>
      <trkpt lat="39.897531" lon="-0.556558">
        <ele>502.091</ele>
        <time>2020-01-17T11:44:30Z</time>
      </trkpt>
      <trkpt lat="39.897509" lon="-0.556504">
        <ele>501.18</ele>
        <time>2020-01-17T11:44:31Z</time>
      </trkpt>
      <trkpt lat="39.89748" lon="-0.55645">
        <ele>499.688</ele>
        <time>2020-01-17T11:44:32Z</time>
      </trkpt>
      <trkpt lat="39.897457" lon="-0.556409">
        <ele>499.648</ele>
        <time>2020-01-17T11:44:33Z</time>
      </trkpt>
      <trkpt lat="39.897431" lon="-0.556365">
        <ele>501.372</ele>
        <time>2020-01-17T11:44:34Z</time>
      </trkpt>
      <trkpt lat="39.897366" lon="-0.556283">
        <ele>502.238</ele>
        <time>2020-01-17T11:44:36Z</time>
      </trkpt>
      <trkpt lat="39.897264" lon="-0.556149">
        <ele>500.651</ele>
        <time>2020-01-17T11:44:39Z</time>
      </trkpt>
      <trkpt lat="39.897189" lon="-0.556027">
        <ele>499.896</ele>
        <time>2020-01-17T11:44:42Z</time>
      </trkpt>
      <trkpt lat="39.897169" lon="-0.555962">
        <ele>501.722</ele>
        <time>2020-01-17T11:44:44Z</time>
      </trkpt>
      <trkpt lat="39.897113" lon="-0.555924">
        <ele>501.715</ele>
        <time>2020-01-17T11:44:46Z</time>
      </trkpt>
      <trkpt lat="39.897103" lon="-0.555831">
        <ele>502.119</ele>
        <time>2020-01-17T11:44:48Z</time>
      </trkpt>
      <trkpt lat="39.897068" lon="-0.555723">
        <ele>499.281</ele>
        <time>2020-01-17T11:44:51Z</time>
      </trkpt>
      <trkpt lat="39.897025" lon="-0.555656">
        <ele>499.796</ele>
        <time>2020-01-17T11:44:54Z</time>
      </trkpt>
      <trkpt lat="39.897008" lon="-0.555631">
        <ele>500.674</ele>
        <time>2020-01-17T11:44:55Z</time>
      </trkpt>
      <trkpt lat="39.896941" lon="-0.555516">
        <ele>499.834</ele>
        <time>2020-01-17T11:44:58Z</time>
      </trkpt>
      <trkpt lat="39.896918" lon="-0.555471">
        <ele>497.533</ele>
        <time>2020-01-17T11:44:59Z</time>
      </trkpt>
      <trkpt lat="39.896875" lon="-0.555408">
        <ele>492.753</ele>
        <time>2020-01-17T11:45:01Z</time>
      </trkpt>
      <trkpt lat="39.896751" lon="-0.555138">
        <ele>492.754</ele>
        <time>2020-01-17T11:45:04Z</time>
      </trkpt>
      <trkpt lat="39.896737" lon="-0.555077">
        <ele>492.857</ele>
        <time>2020-01-17T11:45:05Z</time>
      </trkpt>
      <trkpt lat="39.896715" lon="-0.555023">
        <ele>494.022</ele>
        <time>2020-01-17T11:45:06Z</time>
      </trkpt>
      <trkpt lat="39.89663" lon="-0.554907">
        <ele>494.484</ele>
        <time>2020-01-17T11:45:09Z</time>
      </trkpt>
      <trkpt lat="39.89654" lon="-0.554718">
        <ele>495.158</ele>
        <time>2020-01-17T11:45:13Z</time>
      </trkpt>
      <trkpt lat="39.8965" lon="-0.554681">
        <ele>492.436</ele>
        <time>2020-01-17T11:45:14Z</time>
      </trkpt>
      <trkpt lat="39.896462" lon="-0.554631">
        <ele>490.458</ele>
        <time>2020-01-17T11:45:16Z</time>
      </trkpt>
      <trkpt lat="39.896432" lon="-0.554586">
        <ele>492.34</ele>
        <time>2020-01-17T11:45:19Z</time>
      </trkpt>
      <trkpt lat="39.896112" lon="-0.554008">
        <ele>492.692</ele>
        <time>2020-01-17T11:45:25Z</time>
      </trkpt>
      <trkpt lat="39.896122" lon="-0.553914">
        <ele>493.846</ele>
        <time>2020-01-17T11:45:26Z</time>
      </trkpt>
      <trkpt lat="39.896129" lon="-0.553827">
        <ele>493.36</ele>
        <time>2020-01-17T11:45:27Z</time>
      </trkpt>
      <trkpt lat="39.896045" lon="-0.553698">
        <ele>492.744</ele>
        <time>2020-01-17T11:45:29Z</time>
      </trkpt>
      <trkpt lat="39.895987" lon="-0.553665">
        <ele>491.889</ele>
        <time>2020-01-17T11:45:30Z</time>
      </trkpt>
      <trkpt lat="39.895969" lon="-0.553608">
        <ele>489.479</ele>
        <time>2020-01-17T11:45:31Z</time>
      </trkpt>
      <trkpt lat="39.895938" lon="-0.553552">
        <ele>490.77</ele>
        <time>2020-01-17T11:45:32Z</time>
      </trkpt>
      <trkpt lat="39.895902" lon="-0.553509">
        <ele>490.67</ele>
        <time>2020-01-17T11:45:33Z</time>
      </trkpt>
      <trkpt lat="39.895852" lon="-0.553463">
        <ele>491.072</ele>
        <time>2020-01-17T11:45:34Z</time>
      </trkpt>
      <trkpt lat="39.895812" lon="-0.553419">
        <ele>491.247</ele>
        <time>2020-01-17T11:45:35Z</time>
      </trkpt>
      <trkpt lat="39.895753" lon="-0.553275">
        <ele>492.601</ele>
        <time>2020-01-17T11:45:37Z</time>
      </trkpt>
      <trkpt lat="39.895719" lon="-0.553228">
        <ele>491.573</ele>
        <time>2020-01-17T11:45:38Z</time>
      </trkpt>
      <trkpt lat="39.895689" lon="-0.553168">
        <ele>490.558</ele>
        <time>2020-01-17T11:45:39Z</time>
      </trkpt>
      <trkpt lat="39.895651" lon="-0.553117">
        <ele>488.892</ele>
        <time>2020-01-17T11:45:40Z</time>
      </trkpt>
      <trkpt lat="39.89562" lon="-0.553064">
        <ele>488.592</ele>
        <time>2020-01-17T11:45:41Z</time>
      </trkpt>
      <trkpt lat="39.895589" lon="-0.553007">
        <ele>489.208</ele>
        <time>2020-01-17T11:45:42Z</time>
      </trkpt>
      <trkpt lat="39.895549" lon="-0.55295">
        <ele>489.108</ele>
        <time>2020-01-17T11:45:43Z</time>
      </trkpt>
      <trkpt lat="39.895506" lon="-0.552893">
        <ele>489.895</ele>
        <time>2020-01-17T11:45:44Z</time>
      </trkpt>
      <trkpt lat="39.895445" lon="-0.55278">
        <ele>490.519</ele>
        <time>2020-01-17T11:45:46Z</time>
      </trkpt>
      <trkpt lat="39.895414" lon="-0.55273">
        <ele>491.063</ele>
        <time>2020-01-17T11:45:47Z</time>
      </trkpt>
      <trkpt lat="39.895386" lon="-0.552674">
        <ele>489.54</ele>
        <time>2020-01-17T11:45:48Z</time>
      </trkpt>
      <trkpt lat="39.89529" lon="-0.552477">
        <ele>490.836</ele>
        <time>2020-01-17T11:45:51Z</time>
      </trkpt>
      <trkpt lat="39.895261" lon="-0.5524">
        <ele>490.619</ele>
        <time>2020-01-17T11:45:52Z</time>
      </trkpt>
      <trkpt lat="39.895228" lon="-0.552352">
        <ele>486.563</ele>
        <time>2020-01-17T11:45:53Z</time>
      </trkpt>
      <trkpt lat="39.895169" lon="-0.552224">
        <ele>487.165</ele>
        <time>2020-01-17T11:45:55Z</time>
      </trkpt>
      <trkpt lat="39.895109" lon="-0.552189">
        <ele>487.099</ele>
        <time>2020-01-17T11:45:56Z</time>
      </trkpt>
      <trkpt lat="39.895066" lon="-0.55214">
        <ele>486.503</ele>
        <time>2020-01-17T11:45:57Z</time>
      </trkpt>
      <trkpt lat="39.89503" lon="-0.55208">
        <ele>486.527</ele>
        <time>2020-01-17T11:45:58Z</time>
      </trkpt>
      <trkpt lat="39.89501" lon="-0.552001">
        <ele>486.429</ele>
        <time>2020-01-17T11:45:59Z</time>
      </trkpt>
      <trkpt lat="39.894971" lon="-0.551925">
        <ele>486.958</ele>
        <time>2020-01-17T11:46:00Z</time>
      </trkpt>
      <trkpt lat="39.894923" lon="-0.551878">
        <ele>486.447</ele>
        <time>2020-01-17T11:46:01Z</time>
      </trkpt>
      <trkpt lat="39.894877" lon="-0.551853">
        <ele>487.709</ele>
        <time>2020-01-17T11:46:02Z</time>
      </trkpt>
      <trkpt lat="39.894852" lon="-0.551793">
        <ele>487.386</ele>
        <time>2020-01-17T11:46:03Z</time>
      </trkpt>
      <trkpt lat="39.894801" lon="-0.551754">
        <ele>487.257</ele>
        <time>2020-01-17T11:46:04Z</time>
      </trkpt>
      <trkpt lat="39.894768" lon="-0.551704">
        <ele>483.33</ele>
        <time>2020-01-17T11:46:05Z</time>
      </trkpt>
      <trkpt lat="39.89472" lon="-0.551557">
        <ele>482.896</ele>
        <time>2020-01-17T11:46:08Z</time>
      </trkpt>
      <trkpt lat="39.89471" lon="-0.551526">
        <ele>487.365</ele>
        <time>2020-01-17T11:46:09Z</time>
      </trkpt>
      <trkpt lat="39.894696" lon="-0.551473">
        <ele>486.064</ele>
        <time>2020-01-17T11:46:11Z</time>
      </trkpt>
      <trkpt lat="39.894663" lon="-0.551393">
        <ele>484.373</ele>
        <time>2020-01-17T11:46:14Z</time>
      </trkpt>
      <trkpt lat="39.894648" lon="-0.551361">
        <ele>483.615</ele>
        <time>2020-01-17T11:46:15Z</time>
      </trkpt>
      <trkpt lat="39.89463" lon="-0.551324">
        <ele>482.697</ele>
        <time>2020-01-17T11:46:16Z</time>
      </trkpt>
      <trkpt lat="39.894611" lon="-0.551286">
        <ele>479.324</ele>
        <time>2020-01-17T11:46:17Z</time>
      </trkpt>
      <trkpt lat="39.894537" lon="-0.551152">
        <ele>482.591</ele>
        <time>2020-01-17T11:46:20Z</time>
      </trkpt>
      <trkpt lat="39.894498" lon="-0.551062">
        <ele>485.936</ele>
        <time>2020-01-17T11:46:22Z</time>
      </trkpt>
      <trkpt lat="39.894471" lon="-0.551016">
        <ele>487.608</ele>
        <time>2020-01-17T11:46:23Z</time>
      </trkpt>
      <trkpt lat="39.89439" lon="-0.550925">
        <ele>487.386</ele>
        <time>2020-01-17T11:46:25Z</time>
      </trkpt>
      <trkpt lat="39.894266" lon="-0.550803">
        <ele>488.09</ele>
        <time>2020-01-17T11:46:28Z</time>
      </trkpt>
      <trkpt lat="39.894234" lon="-0.55075">
        <ele>488.282</ele>
        <time>2020-01-17T11:46:29Z</time>
      </trkpt>
      <trkpt lat="39.894201" lon="-0.550697">
        <ele>488.396</ele>
        <time>2020-01-17T11:46:30Z</time>
      </trkpt>
      <trkpt lat="39.89417" lon="-0.550645">
        <ele>489.393</ele>
        <time>2020-01-17T11:46:31Z</time>
      </trkpt>
      <trkpt lat="39.894138" lon="-0.5506">
        <ele>487.592</ele>
        <time>2020-01-17T11:46:32Z</time>
      </trkpt>
      <trkpt lat="39.894109" lon="-0.550541">
        <ele>488.354</ele>
        <time>2020-01-17T11:46:33Z</time>
      </trkpt>
      <trkpt lat="39.894086" lon="-0.550425">
        <ele>488.845</ele>
        <time>2020-01-17T11:46:35Z</time>
      </trkpt>
      <trkpt lat="39.894072" lon="-0.550317">
        <ele>488.612</ele>
        <time>2020-01-17T11:46:37Z</time>
      </trkpt>
      <trkpt lat="39.894054" lon="-0.550221">
        <ele>491.008</ele>
        <time>2020-01-17T11:46:39Z</time>
      </trkpt>
      <trkpt lat="39.893991" lon="-0.55018">
        <ele>491.716</ele>
        <time>2020-01-17T11:46:41Z</time>
      </trkpt>
      <trkpt lat="39.893991" lon="-0.55018">
        <ele>489.778</ele>
        <time>2020-01-17T11:46:46Z</time>
      </trkpt>
      <trkpt lat="39.893991" lon="-0.550204">
        <ele>486.049</ele>
        <time>2020-01-17T11:46:47Z</time>
      </trkpt>
      <trkpt lat="39.893967" lon="-0.550165">
        <ele>485.731</ele>
        <time>2020-01-17T11:46:50Z</time>
      </trkpt>
      <trkpt lat="39.893967" lon="-0.550165">
        <ele>484.726</ele>
        <time>2020-01-17T11:46:50Z</time>
      </trkpt>
      <trkpt lat="39.893915" lon="-0.549995">
        <ele>485.995</ele>
        <time>2020-01-17T11:46:53Z</time>
      </trkpt>
      <trkpt lat="39.893888" lon="-0.549925">
        <ele>485.639</ele>
        <time>2020-01-17T11:46:54Z</time>
      </trkpt>
      <trkpt lat="39.893816" lon="-0.549839">
        <ele>488.512</ele>
        <time>2020-01-17T11:46:56Z</time>
      </trkpt>
      <trkpt lat="39.893746" lon="-0.549718">
        <ele>491.698</ele>
        <time>2020-01-17T11:46:58Z</time>
      </trkpt>
      <trkpt lat="39.893721" lon="-0.549667">
        <ele>493.873</ele>
        <time>2020-01-17T11:46:59Z</time>
      </trkpt>
      <trkpt lat="39.893633" lon="-0.549498">
        <ele>496.482</ele>
        <time>2020-01-17T11:47:02Z</time>
      </trkpt>
      <trkpt lat="39.893627" lon="-0.549397">
        <ele>499.498</ele>
        <time>2020-01-17T11:47:03Z</time>
      </trkpt>
      <trkpt lat="39.893556" lon="-0.549338">
        <ele>500.614</ele>
        <time>2020-01-17T11:47:05Z</time>
      </trkpt>
      <trkpt lat="39.893488" lon="-0.549199">
        <ele>500.614</ele>
        <time>2020-01-17T11:47:08Z</time>
      </trkpt>
      <trkpt lat="39.893435" lon="-0.549144">
        <ele>493.606</ele>
        <time>2020-01-17T11:47:10Z</time>
      </trkpt>
      <trkpt lat="39.893428" lon="-0.549039">
        <ele>493.704</ele>
        <time>2020-01-17T11:47:12Z</time>
      </trkpt>
      <trkpt lat="39.893428" lon="-0.549039">
        <ele>488.822</ele>
        <time>2020-01-17T11:47:17Z</time>
      </trkpt>
      <trkpt lat="39.893428" lon="-0.549039">
        <ele>488.422</ele>
        <time>2020-01-17T11:47:17Z</time>
      </trkpt>
      <trkpt lat="39.893428" lon="-0.549039">
        <ele>488.551</ele>
        <time>2020-01-17T11:47:31Z</time>
      </trkpt>
      <trkpt lat="39.893319" lon="-0.548903">
        <ele>488.014</ele>
        <time>2020-01-17T11:47:31Z</time>
      </trkpt>
      <trkpt lat="39.89328" lon="-0.548828">
        <ele>490.238</ele>
        <time>2020-01-17T11:47:34Z</time>
      </trkpt>
      <trkpt lat="39.893135" lon="-0.548734">
        <ele>491.562</ele>
        <time>2020-01-17T11:47:37Z</time>
      </trkpt>
      <trkpt lat="39.892932" lon="-0.548526">
        <ele>496.169</ele>
        <time>2020-01-17T11:47:42Z</time>
      </trkpt>
      <trkpt lat="39.892875" lon="-0.548482">
        <ele>486.715</ele>
        <time>2020-01-17T11:47:44Z</time>
      </trkpt>
      <trkpt lat="39.892854" lon="-0.548465">
        <ele>486.893</ele>
        <time>2020-01-17T11:47:46Z</time>
      </trkpt>
      <trkpt lat="39.892815" lon="-0.548437">
        <ele>488.357</ele>
        <time>2020-01-17T11:47:49Z</time>
      </trkpt>
      <trkpt lat="39.892794" lon="-0.548425">
        <ele>489.596</ele>
        <time>2020-01-17T11:47:50Z</time>
      </trkpt>
      <trkpt lat="39.892636" lon="-0.548322">
        <ele>489.859</ele>
        <time>2020-01-17T11:47:55Z</time>
      </trkpt>
      <trkpt lat="39.892046" lon="-0.548041">
        <ele>489.566</ele>
        <time>2020-01-17T11:48:01Z</time>
      </trkpt>
      <trkpt lat="39.891994" lon="-0.548032">
        <ele>490.206</ele>
        <time>2020-01-17T11:48:02Z</time>
      </trkpt>
      <trkpt lat="39.891879" lon="-0.548018">
        <ele>488.903</ele>
        <time>2020-01-17T11:48:05Z</time>
      </trkpt>
      <trkpt lat="39.891761" lon="-0.547982">
        <ele>487.346</ele>
        <time>2020-01-17T11:48:09Z</time>
      </trkpt>
      <trkpt lat="39.89153" lon="-0.547949">
        <ele>487.367</ele>
        <time>2020-01-17T11:48:12Z</time>
      </trkpt>
      <trkpt lat="39.891448" lon="-0.547949">
        <ele>485.631</ele>
        <time>2020-01-17T11:48:14Z</time>
      </trkpt>
      <trkpt lat="39.891367" lon="-0.547951">
        <ele>486.189</ele>
        <time>2020-01-17T11:48:15Z</time>
      </trkpt>
      <trkpt lat="39.891332" lon="-0.547955">
        <ele>485.604</ele>
        <time>2020-01-17T11:48:16Z</time>
      </trkpt>
      <trkpt lat="39.891247" lon="-0.547926">
        <ele>486.595</ele>
        <time>2020-01-17T11:48:18Z</time>
      </trkpt>
      <trkpt lat="39.891145" lon="-0.547884">
        <ele>487.438</ele>
        <time>2020-01-17T11:48:20Z</time>
      </trkpt>
      <trkpt lat="39.891084" lon="-0.54785">
        <ele>487.138</ele>
        <time>2020-01-17T11:48:22Z</time>
      </trkpt>
      <trkpt lat="39.891009" lon="-0.547859">
        <ele>487.335</ele>
        <time>2020-01-17T11:48:24Z</time>
      </trkpt>
      <trkpt lat="39.890969" lon="-0.547863">
        <ele>486.037</ele>
        <time>2020-01-17T11:48:25Z</time>
      </trkpt>
      <trkpt lat="39.890924" lon="-0.547863">
        <ele>485.697</ele>
        <time>2020-01-17T11:48:26Z</time>
      </trkpt>
      <trkpt lat="39.890844" lon="-0.547836">
        <ele>487.481</ele>
        <time>2020-01-17T11:48:28Z</time>
      </trkpt>
      <trkpt lat="39.89081" lon="-0.547778">
        <ele>487.853</ele>
        <time>2020-01-17T11:48:29Z</time>
      </trkpt>
      <trkpt lat="39.890764" lon="-0.547758">
        <ele>488.031</ele>
        <time>2020-01-17T11:48:30Z</time>
      </trkpt>
      <trkpt lat="39.890735" lon="-0.547746">
        <ele>488.335</ele>
        <time>2020-01-17T11:48:31Z</time>
      </trkpt>
      <trkpt lat="39.890606" lon="-0.54779">
        <ele>488.712</ele>
        <time>2020-01-17T11:48:37Z</time>
      </trkpt>
      <trkpt lat="39.890498" lon="-0.547776">
        <ele>488.723</ele>
        <time>2020-01-17T11:48:40Z</time>
      </trkpt>
      <trkpt lat="39.890418" lon="-0.547751">
        <ele>488.603</ele>
        <time>2020-01-17T11:48:42Z</time>
      </trkpt>
      <trkpt lat="39.890375" lon="-0.547737">
        <ele>486.571</ele>
        <time>2020-01-17T11:48:43Z</time>
      </trkpt>
      <trkpt lat="39.890325" lon="-0.547721">
        <ele>484.915</ele>
        <time>2020-01-17T11:48:44Z</time>
      </trkpt>
      <trkpt lat="39.890269" lon="-0.547701">
        <ele>482.416</ele>
        <time>2020-01-17T11:48:45Z</time>
      </trkpt>
      <trkpt lat="39.890208" lon="-0.54768">
        <ele>483.295</ele>
        <time>2020-01-17T11:48:46Z</time>
      </trkpt>
      <trkpt lat="39.890143" lon="-0.547655">
        <ele>484.537</ele>
        <time>2020-01-17T11:48:47Z</time>
      </trkpt>
      <trkpt lat="39.889641" lon="-0.547492">
        <ele>485.217</ele>
        <time>2020-01-17T11:48:51Z</time>
      </trkpt>
      <trkpt lat="39.889567" lon="-0.547484">
        <ele>485.171</ele>
        <time>2020-01-17T11:48:52Z</time>
      </trkpt>
      <trkpt lat="39.889426" lon="-0.547532">
        <ele>486.064</ele>
        <time>2020-01-17T11:48:54Z</time>
      </trkpt>
      <trkpt lat="39.889378" lon="-0.54751">
        <ele>486.057</ele>
        <time>2020-01-17T11:48:55Z</time>
      </trkpt>
      <trkpt lat="39.889333" lon="-0.54748">
        <ele>485.845</ele>
        <time>2020-01-17T11:48:56Z</time>
      </trkpt>
      <trkpt lat="39.88929" lon="-0.547459">
        <ele>485.672</ele>
        <time>2020-01-17T11:48:57Z</time>
      </trkpt>
      <trkpt lat="39.88925" lon="-0.547426">
        <ele>486.46</ele>
        <time>2020-01-17T11:48:58Z</time>
      </trkpt>
      <trkpt lat="39.889078" lon="-0.54736">
        <ele>486.93</ele>
        <time>2020-01-17T11:49:01Z</time>
      </trkpt>
      <trkpt lat="39.889031" lon="-0.547344">
        <ele>488.524</ele>
        <time>2020-01-17T11:49:02Z</time>
      </trkpt>
      <trkpt lat="39.888988" lon="-0.547305">
        <ele>488.173</ele>
        <time>2020-01-17T11:49:03Z</time>
      </trkpt>
      <trkpt lat="39.888942" lon="-0.547273">
        <ele>488.426</ele>
        <time>2020-01-17T11:49:04Z</time>
      </trkpt>
      <trkpt lat="39.888899" lon="-0.547248">
        <ele>488.894</ele>
        <time>2020-01-17T11:49:05Z</time>
      </trkpt>
      <trkpt lat="39.888857" lon="-0.547219">
        <ele>488.457</ele>
        <time>2020-01-17T11:49:06Z</time>
      </trkpt>
      <trkpt lat="39.888782" lon="-0.54716">
        <ele>489.394</ele>
        <time>2020-01-17T11:49:08Z</time>
      </trkpt>
      <trkpt lat="39.888741" lon="-0.547114">
        <ele>490.114</ele>
        <time>2020-01-17T11:49:09Z</time>
      </trkpt>
      <trkpt lat="39.888689" lon="-0.547059">
        <ele>488.413</ele>
        <time>2020-01-17T11:49:10Z</time>
      </trkpt>
      <trkpt lat="39.888654" lon="-0.547">
        <ele>488.715</ele>
        <time>2020-01-17T11:49:11Z</time>
      </trkpt>
      <trkpt lat="39.88861" lon="-0.546951">
        <ele>488.239</ele>
        <time>2020-01-17T11:49:12Z</time>
      </trkpt>
      <trkpt lat="39.888579" lon="-0.546922">
        <ele>489.738</ele>
        <time>2020-01-17T11:49:13Z</time>
      </trkpt>
      <trkpt lat="39.888566" lon="-0.546834">
        <ele>491.155</ele>
        <time>2020-01-17T11:49:14Z</time>
      </trkpt>
      <trkpt lat="39.888526" lon="-0.546788">
        <ele>489.711</ele>
        <time>2020-01-17T11:49:15Z</time>
      </trkpt>
      <trkpt lat="39.888392" lon="-0.546605">
        <ele>489.315</ele>
        <time>2020-01-17T11:49:18Z</time>
      </trkpt>
      <trkpt lat="39.888353" lon="-0.546541">
        <ele>490.528</ele>
        <time>2020-01-17T11:49:19Z</time>
      </trkpt>
      <trkpt lat="39.888236" lon="-0.546369">
        <ele>489.977</ele>
        <time>2020-01-17T11:49:22Z</time>
      </trkpt>
      <trkpt lat="39.888201" lon="-0.546303">
        <ele>489.673</ele>
        <time>2020-01-17T11:49:25Z</time>
      </trkpt>
      <trkpt lat="39.888178" lon="-0.54626">
        <ele>488.886</ele>
        <time>2020-01-17T11:49:26Z</time>
      </trkpt>
      <trkpt lat="39.888129" lon="-0.546082">
        <ele>489.698</ele>
        <time>2020-01-17T11:49:28Z</time>
      </trkpt>
      <trkpt lat="39.88807" lon="-0.545946">
        <ele>492.04</ele>
        <time>2020-01-17T11:49:30Z</time>
      </trkpt>
      <trkpt lat="39.888057" lon="-0.545878">
        <ele>492.355</ele>
        <time>2020-01-17T11:49:31Z</time>
      </trkpt>
      <trkpt lat="39.888023" lon="-0.545826">
        <ele>492.364</ele>
        <time>2020-01-17T11:49:32Z</time>
      </trkpt>
      <trkpt lat="39.887953" lon="-0.545759">
        <ele>493.727</ele>
        <time>2020-01-17T11:49:34Z</time>
      </trkpt>
      <trkpt lat="39.887914" lon="-0.545654">
        <ele>492.269</ele>
        <time>2020-01-17T11:49:36Z</time>
      </trkpt>
      <trkpt lat="39.887898" lon="-0.545601">
        <ele>491.286</ele>
        <time>2020-01-17T11:49:37Z</time>
      </trkpt>
      <trkpt lat="39.887866" lon="-0.545483">
        <ele>491.874</ele>
        <time>2020-01-17T11:49:39Z</time>
      </trkpt>
      <trkpt lat="39.887848" lon="-0.545422">
        <ele>490.862</ele>
        <time>2020-01-17T11:49:40Z</time>
      </trkpt>
      <trkpt lat="39.887847" lon="-0.545342">
        <ele>490.101</ele>
        <time>2020-01-17T11:49:41Z</time>
      </trkpt>
      <trkpt lat="39.887848" lon="-0.545275">
        <ele>490.506</ele>
        <time>2020-01-17T11:49:42Z</time>
      </trkpt>
      <trkpt lat="39.88782" lon="-0.545212">
        <ele>491.769</ele>
        <time>2020-01-17T11:49:43Z</time>
      </trkpt>
      <trkpt lat="39.887807" lon="-0.545096">
        <ele>490.678</ele>
        <time>2020-01-17T11:49:45Z</time>
      </trkpt>
      <trkpt lat="39.88776" lon="-0.545005">
        <ele>490.572</ele>
        <time>2020-01-17T11:49:47Z</time>
      </trkpt>
      <trkpt lat="39.887738" lon="-0.544952">
        <ele>493.908</ele>
        <time>2020-01-17T11:49:48Z</time>
      </trkpt>
      <trkpt lat="39.887721" lon="-0.544895">
        <ele>490.989</ele>
        <time>2020-01-17T11:49:49Z</time>
      </trkpt>
      <trkpt lat="39.887699" lon="-0.544806">
        <ele>490.31</ele>
        <time>2020-01-17T11:49:50Z</time>
      </trkpt>
      <trkpt lat="39.887708" lon="-0.544739">
        <ele>490.406</ele>
        <time>2020-01-17T11:49:51Z</time>
      </trkpt>
      <trkpt lat="39.887719" lon="-0.544647">
        <ele>489.635</ele>
        <time>2020-01-17T11:49:52Z</time>
      </trkpt>
      <trkpt lat="39.887861" lon="-0.543926">
        <ele>489.582</ele>
        <time>2020-01-17T11:50:04Z</time>
      </trkpt>
      <trkpt lat="39.887821" lon="-0.543852">
        <ele>490.14</ele>
        <time>2020-01-17T11:50:07Z</time>
      </trkpt>
      <trkpt lat="39.887751" lon="-0.543856">
        <ele>490.231</ele>
        <time>2020-01-17T11:50:09Z</time>
      </trkpt>
      <trkpt lat="39.88766" lon="-0.543832">
        <ele>490.868</ele>
        <time>2020-01-17T11:50:12Z</time>
      </trkpt>
      <trkpt lat="39.887609" lon="-0.543805">
        <ele>491.625</ele>
        <time>2020-01-17T11:50:14Z</time>
      </trkpt>
      <trkpt lat="39.887555" lon="-0.543791">
        <ele>493.993</ele>
        <time>2020-01-17T11:50:16Z</time>
      </trkpt>
      <trkpt lat="39.887475" lon="-0.543761">
        <ele>496.878</ele>
        <time>2020-01-17T11:50:19Z</time>
      </trkpt>
      <trkpt lat="39.887421" lon="-0.543747">
        <ele>497.534</ele>
        <time>2020-01-17T11:50:21Z</time>
      </trkpt>
      <trkpt lat="39.887376" lon="-0.543728">
        <ele>499.38</ele>
        <time>2020-01-17T11:50:25Z</time>
      </trkpt>
      <trkpt lat="39.887313" lon="-0.543689">
        <ele>498.191</ele>
        <time>2020-01-17T11:50:28Z</time>
      </trkpt>
      <trkpt lat="39.887269" lon="-0.543656">
        <ele>500.913</ele>
        <time>2020-01-17T11:50:30Z</time>
      </trkpt>
      <trkpt lat="39.887218" lon="-0.543624">
        <ele>498.577</ele>
        <time>2020-01-17T11:50:32Z</time>
      </trkpt>
      <trkpt lat="39.887187" lon="-0.543603">
        <ele>499.966</ele>
        <time>2020-01-17T11:50:33Z</time>
      </trkpt>
      <trkpt lat="39.887154" lon="-0.543582">
        <ele>501.035</ele>
        <time>2020-01-17T11:50:34Z</time>
      </trkpt>
      <trkpt lat="39.887005" lon="-0.543499">
        <ele>500.281</ele>
        <time>2020-01-17T11:50:38Z</time>
      </trkpt>
      <trkpt lat="39.886921" lon="-0.543451">
        <ele>498.754</ele>
        <time>2020-01-17T11:50:40Z</time>
      </trkpt>
      <trkpt lat="39.886873" lon="-0.543416">
        <ele>499.112</ele>
        <time>2020-01-17T11:50:41Z</time>
      </trkpt>
      <trkpt lat="39.886662" lon="-0.543292">
        <ele>499.883</ele>
        <time>2020-01-17T11:50:42Z</time>
      </trkpt>
      <trkpt lat="39.886548" lon="-0.543225">
        <ele>500.496</ele>
        <time>2020-01-17T11:50:45Z</time>
      </trkpt>
      <trkpt lat="39.886499" lon="-0.543197">
        <ele>500.018</ele>
        <time>2020-01-17T11:50:46Z</time>
      </trkpt>
      <trkpt lat="39.886457" lon="-0.543168">
        <ele>497.199</ele>
        <time>2020-01-17T11:50:47Z</time>
      </trkpt>
      <trkpt lat="39.886355" lon="-0.543066">
        <ele>497.094</ele>
        <time>2020-01-17T11:50:50Z</time>
      </trkpt>
      <trkpt lat="39.88625" lon="-0.542992">
        <ele>494.464</ele>
        <time>2020-01-17T11:50:52Z</time>
      </trkpt>
      <trkpt lat="39.886218" lon="-0.542948">
        <ele>493.115</ele>
        <time>2020-01-17T11:50:53Z</time>
      </trkpt>
      <trkpt lat="39.886166" lon="-0.542864">
        <ele>494.43</ele>
        <time>2020-01-17T11:50:55Z</time>
      </trkpt>
      <trkpt lat="39.88613" lon="-0.542829">
        <ele>493.883</ele>
        <time>2020-01-17T11:50:56Z</time>
      </trkpt>
      <trkpt lat="39.886028" lon="-0.542743">
        <ele>492.844</ele>
        <time>2020-01-17T11:50:58Z</time>
      </trkpt>
      <trkpt lat="39.88592" lon="-0.542646">
        <ele>492.399</ele>
        <time>2020-01-17T11:51:00Z</time>
      </trkpt>
      <trkpt lat="39.885868" lon="-0.542601">
        <ele>492.251</ele>
        <time>2020-01-17T11:51:01Z</time>
      </trkpt>
      <trkpt lat="39.885757" lon="-0.542511">
        <ele>491.677</ele>
        <time>2020-01-17T11:51:03Z</time>
      </trkpt>
      <trkpt lat="39.885663" lon="-0.54244">
        <ele>491.757</ele>
        <time>2020-01-17T11:51:05Z</time>
      </trkpt>
      <trkpt lat="39.885628" lon="-0.54241">
        <ele>493.238</ele>
        <time>2020-01-17T11:51:06Z</time>
      </trkpt>
      <trkpt lat="39.88556" lon="-0.54236">
        <ele>494.015</ele>
        <time>2020-01-17T11:51:08Z</time>
      </trkpt>
      <trkpt lat="39.885517" lon="-0.542329">
        <ele>492.77</ele>
        <time>2020-01-17T11:51:09Z</time>
      </trkpt>
      <trkpt lat="39.885471" lon="-0.542296">
        <ele>492.464</ele>
        <time>2020-01-17T11:51:10Z</time>
      </trkpt>
      <trkpt lat="39.885426" lon="-0.542264">
        <ele>490.74</ele>
        <time>2020-01-17T11:51:11Z</time>
      </trkpt>
      <trkpt lat="39.88537" lon="-0.542233">
        <ele>491.028</ele>
        <time>2020-01-17T11:51:12Z</time>
      </trkpt>
      <trkpt lat="39.88532" lon="-0.5422">
        <ele>490.815</ele>
        <time>2020-01-17T11:51:13Z</time>
      </trkpt>
      <trkpt lat="39.885253" lon="-0.542157">
        <ele>490.779</ele>
        <time>2020-01-17T11:51:14Z</time>
      </trkpt>
      <trkpt lat="39.885145" lon="-0.542058">
        <ele>489.337</ele>
        <time>2020-01-17T11:51:17Z</time>
      </trkpt>
      <trkpt lat="39.885109" lon="-0.541967">
        <ele>488.469</ele>
        <time>2020-01-17T11:51:18Z</time>
      </trkpt>
      <trkpt lat="39.885078" lon="-0.541903">
        <ele>488.944</ele>
        <time>2020-01-17T11:51:19Z</time>
      </trkpt>
      <trkpt lat="39.885029" lon="-0.541874">
        <ele>487.882</ele>
        <time>2020-01-17T11:51:20Z</time>
      </trkpt>
      <trkpt lat="39.884986" lon="-0.541825">
        <ele>488.414</ele>
        <time>2020-01-17T11:51:21Z</time>
      </trkpt>
      <trkpt lat="39.884905" lon="-0.541734">
        <ele>490.087</ele>
        <time>2020-01-17T11:51:23Z</time>
      </trkpt>
      <trkpt lat="39.884858" lon="-0.541688">
        <ele>489.524</ele>
        <time>2020-01-17T11:51:24Z</time>
      </trkpt>
      <trkpt lat="39.8848" lon="-0.541592">
        <ele>489.757</ele>
        <time>2020-01-17T11:51:26Z</time>
      </trkpt>
      <trkpt lat="39.884755" lon="-0.541566">
        <ele>490.56</ele>
        <time>2020-01-17T11:51:27Z</time>
      </trkpt>
      <trkpt lat="39.884712" lon="-0.541532">
        <ele>489.283</ele>
        <time>2020-01-17T11:51:28Z</time>
      </trkpt>
      <trkpt lat="39.884679" lon="-0.541479">
        <ele>487.595</ele>
        <time>2020-01-17T11:51:29Z</time>
      </trkpt>
      <trkpt lat="39.884652" lon="-0.541419">
        <ele>487.422</ele>
        <time>2020-01-17T11:51:30Z</time>
      </trkpt>
      <trkpt lat="39.884613" lon="-0.541367">
        <ele>491.935</ele>
        <time>2020-01-17T11:51:31Z</time>
      </trkpt>
      <trkpt lat="39.88459" lon="-0.541311">
        <ele>493.934</ele>
        <time>2020-01-17T11:51:33Z</time>
      </trkpt>
      <trkpt lat="39.884577" lon="-0.541272">
        <ele>496.566</ele>
        <time>2020-01-17T11:51:35Z</time>
      </trkpt>
      <trkpt lat="39.884564" lon="-0.541225">
        <ele>495.874</ele>
        <time>2020-01-17T11:51:37Z</time>
      </trkpt>
      <trkpt lat="39.884542" lon="-0.541171">
        <ele>494.4</ele>
        <time>2020-01-17T11:51:39Z</time>
      </trkpt>
      <trkpt lat="39.884502" lon="-0.541118">
        <ele>493.17</ele>
        <time>2020-01-17T11:51:41Z</time>
      </trkpt>
      <trkpt lat="39.884395" lon="-0.541042">
        <ele>493.171</ele>
        <time>2020-01-17T11:51:43Z</time>
      </trkpt>
      <trkpt lat="39.884143" lon="-0.540481">
        <ele>493.787</ele>
        <time>2020-01-17T11:51:48Z</time>
      </trkpt>
      <trkpt lat="39.884126" lon="-0.540425">
        <ele>493.343</ele>
        <time>2020-01-17T11:51:49Z</time>
      </trkpt>
      <trkpt lat="39.884114" lon="-0.540349">
        <ele>493.693</ele>
        <time>2020-01-17T11:51:50Z</time>
      </trkpt>
      <trkpt lat="39.884103" lon="-0.540254">
        <ele>494.862</ele>
        <time>2020-01-17T11:51:51Z</time>
      </trkpt>
      <trkpt lat="39.884058" lon="-0.540141">
        <ele>495.899</ele>
        <time>2020-01-17T11:51:53Z</time>
      </trkpt>
      <trkpt lat="39.884035" lon="-0.540094">
        <ele>497.75</ele>
        <time>2020-01-17T11:51:54Z</time>
      </trkpt>
      <trkpt lat="39.884008" lon="-0.540028">
        <ele>494.695</ele>
        <time>2020-01-17T11:51:57Z</time>
      </trkpt>
      <trkpt lat="39.883971" lon="-0.53992">
        <ele>494.968</ele>
        <time>2020-01-17T11:52:00Z</time>
      </trkpt>
      <trkpt lat="39.883949" lon="-0.539476">
        <ele>493.371</ele>
        <time>2020-01-17T11:52:04Z</time>
      </trkpt>
      <trkpt lat="39.883923" lon="-0.539281">
        <ele>489.05</ele>
        <time>2020-01-17T11:52:07Z</time>
      </trkpt>
      <trkpt lat="39.883913" lon="-0.539204">
        <ele>488.822</ele>
        <time>2020-01-17T11:52:09Z</time>
      </trkpt>
      <trkpt lat="39.883898" lon="-0.53914">
        <ele>488.685</ele>
        <time>2020-01-17T11:52:12Z</time>
      </trkpt>
      <trkpt lat="39.88389" lon="-0.539112">
        <ele>488.243</ele>
        <time>2020-01-17T11:52:13Z</time>
      </trkpt>
      <trkpt lat="39.883877" lon="-0.53904">
        <ele>485.152</ele>
        <time>2020-01-17T11:52:15Z</time>
      </trkpt>
      <trkpt lat="39.883883" lon="-0.538926">
        <ele>472.006</ele>
        <time>2020-01-17T11:52:18Z</time>
      </trkpt>
      <trkpt lat="39.883886" lon="-0.538882">
        <ele>470.927</ele>
        <time>2020-01-17T11:52:19Z</time>
      </trkpt>
      <trkpt lat="39.883884" lon="-0.538794">
        <ele>469.674</ele>
        <time>2020-01-17T11:52:21Z</time>
      </trkpt>
      <trkpt lat="39.883882" lon="-0.538649">
        <ele>468.562</ele>
        <time>2020-01-17T11:52:24Z</time>
      </trkpt>
      <trkpt lat="39.883883" lon="-0.5386">
        <ele>475.89</ele>
        <time>2020-01-17T11:52:25Z</time>
      </trkpt>
      <trkpt lat="39.88383" lon="-0.538272">
        <ele>476.663</ele>
        <time>2020-01-17T11:52:29Z</time>
      </trkpt>
      <trkpt lat="39.883829" lon="-0.538203">
        <ele>487.819</ele>
        <time>2020-01-17T11:52:30Z</time>
      </trkpt>
      <trkpt lat="39.883842" lon="-0.537968">
        <ele>485.246</ele>
        <time>2020-01-17T11:52:34Z</time>
      </trkpt>
      <trkpt lat="39.883847" lon="-0.537885">
        <ele>483.702</ele>
        <time>2020-01-17T11:52:35Z</time>
      </trkpt>
      <trkpt lat="39.883628" lon="-0.536879">
        <ele>484.416</ele>
        <time>2020-01-17T11:52:41Z</time>
      </trkpt>
      <trkpt lat="39.883606" lon="-0.536816">
        <ele>486.436</ele>
        <time>2020-01-17T11:52:44Z</time>
      </trkpt>
      <trkpt lat="39.883608" lon="-0.5367">
        <ele>486.986</ele>
        <time>2020-01-17T11:52:47Z</time>
      </trkpt>
      <trkpt lat="39.883584" lon="-0.536504">
        <ele>488.307</ele>
        <time>2020-01-17T11:52:50Z</time>
      </trkpt>
      <trkpt lat="39.883576" lon="-0.536441">
        <ele>487.726</ele>
        <time>2020-01-17T11:52:52Z</time>
      </trkpt>
      <trkpt lat="39.883567" lon="-0.536385">
        <ele>486.597</ele>
        <time>2020-01-17T11:52:54Z</time>
      </trkpt>
      <trkpt lat="39.883548" lon="-0.536329">
        <ele>485.68</ele>
        <time>2020-01-17T11:52:56Z</time>
      </trkpt>
      <trkpt lat="39.883536" lon="-0.536264">
        <ele>485.715</ele>
        <time>2020-01-17T11:52:58Z</time>
      </trkpt>
      <trkpt lat="39.883532" lon="-0.536232">
        <ele>487.14</ele>
        <time>2020-01-17T11:52:59Z</time>
      </trkpt>
      <trkpt lat="39.883519" lon="-0.536172">
        <ele>487.987</ele>
        <time>2020-01-17T11:53:01Z</time>
      </trkpt>
      <trkpt lat="39.883535" lon="-0.536039">
        <ele>490.699</ele>
        <time>2020-01-17T11:53:02Z</time>
      </trkpt>
      <trkpt lat="39.883549" lon="-0.535756">
        <ele>490.559</ele>
        <time>2020-01-17T11:53:04Z</time>
      </trkpt>
      <trkpt lat="39.883531" lon="-0.535681">
        <ele>487.655</ele>
        <time>2020-01-17T11:53:06Z</time>
      </trkpt>
      <trkpt lat="39.883597" lon="-0.535239">
        <ele>487.941</ele>
        <time>2020-01-17T11:53:10Z</time>
      </trkpt>
      <trkpt lat="39.883639" lon="-0.535139">
        <ele>489.275</ele>
        <time>2020-01-17T11:53:11Z</time>
      </trkpt>
      <trkpt lat="39.883632" lon="-0.535051">
        <ele>488.358</ele>
        <time>2020-01-17T11:53:12Z</time>
      </trkpt>
      <trkpt lat="39.883653" lon="-0.534971">
        <ele>486.783</ele>
        <time>2020-01-17T11:53:13Z</time>
      </trkpt>
      <trkpt lat="39.883639" lon="-0.534886">
        <ele>488.93</ele>
        <time>2020-01-17T11:53:14Z</time>
      </trkpt>
      <trkpt lat="39.883637" lon="-0.534801">
        <ele>489.154</ele>
        <time>2020-01-17T11:53:15Z</time>
      </trkpt>
      <trkpt lat="39.883633" lon="-0.534708">
        <ele>488.763</ele>
        <time>2020-01-17T11:53:17Z</time>
      </trkpt>
      <trkpt lat="39.883637" lon="-0.534619">
        <ele>488.975</ele>
        <time>2020-01-17T11:53:18Z</time>
      </trkpt>
      <trkpt lat="39.883642" lon="-0.534571">
        <ele>489.316</ele>
        <time>2020-01-17T11:53:19Z</time>
      </trkpt>
      <trkpt lat="39.883627" lon="-0.534464">
        <ele>488.88</ele>
        <time>2020-01-17T11:53:21Z</time>
      </trkpt>
      <trkpt lat="39.883626" lon="-0.534404">
        <ele>486.644</ele>
        <time>2020-01-17T11:53:22Z</time>
      </trkpt>
      <trkpt lat="39.883626" lon="-0.534351">
        <ele>486.417</ele>
        <time>2020-01-17T11:53:23Z</time>
      </trkpt>
      <trkpt lat="39.883618" lon="-0.534249">
        <ele>486.292</ele>
        <time>2020-01-17T11:53:25Z</time>
      </trkpt>
      <trkpt lat="39.883603" lon="-0.534184">
        <ele>486.768</ele>
        <time>2020-01-17T11:53:26Z</time>
      </trkpt>
      <trkpt lat="39.883599" lon="-0.534121">
        <ele>488.728</ele>
        <time>2020-01-17T11:53:27Z</time>
      </trkpt>
      <trkpt lat="39.883593" lon="-0.533943">
        <ele>492.41</ele>
        <time>2020-01-17T11:53:30Z</time>
      </trkpt>
      <trkpt lat="39.88361" lon="-0.533874">
        <ele>492.508</ele>
        <time>2020-01-17T11:53:31Z</time>
      </trkpt>
      <trkpt lat="39.883615" lon="-0.533797">
        <ele>493.898</ele>
        <time>2020-01-17T11:53:32Z</time>
      </trkpt>
      <trkpt lat="39.883617" lon="-0.533759">
        <ele>492.582</ele>
        <time>2020-01-17T11:53:33Z</time>
      </trkpt>
      <trkpt lat="39.883627" lon="-0.533692">
        <ele>491.968</ele>
        <time>2020-01-17T11:53:36Z</time>
      </trkpt>
      <trkpt lat="39.883632" lon="-0.533577">
        <ele>490.345</ele>
        <time>2020-01-17T11:53:40Z</time>
      </trkpt>
      <trkpt lat="39.883645" lon="-0.533477">
        <ele>491.901</ele>
        <time>2020-01-17T11:53:42Z</time>
      </trkpt>
      <trkpt lat="39.88365" lon="-0.533421">
        <ele>492.369</ele>
        <time>2020-01-17T11:53:43Z</time>
      </trkpt>
      <trkpt lat="39.883656" lon="-0.533358">
        <ele>492.542</ele>
        <time>2020-01-17T11:53:44Z</time>
      </trkpt>
      <trkpt lat="39.883667" lon="-0.533222">
        <ele>493.562</ele>
        <time>2020-01-17T11:53:46Z</time>
      </trkpt>
      <trkpt lat="39.883679" lon="-0.532778">
        <ele>493.69</ele>
        <time>2020-01-17T11:53:49Z</time>
      </trkpt>
      <trkpt lat="39.88374" lon="-0.532407">
        <ele>493.252</ele>
        <time>2020-01-17T11:53:53Z</time>
      </trkpt>
      <trkpt lat="39.88376" lon="-0.532318">
        <ele>493.877</ele>
        <time>2020-01-17T11:53:54Z</time>
      </trkpt>
      <trkpt lat="39.883777" lon="-0.532235">
        <ele>493.331</ele>
        <time>2020-01-17T11:53:55Z</time>
      </trkpt>
      <trkpt lat="39.883791" lon="-0.532144">
        <ele>494.583</ele>
        <time>2020-01-17T11:53:56Z</time>
      </trkpt>
      <trkpt lat="39.883803" lon="-0.532056">
        <ele>493.949</ele>
        <time>2020-01-17T11:53:57Z</time>
      </trkpt>
      <trkpt lat="39.883832" lon="-0.531793">
        <ele>493.494</ele>
        <time>2020-01-17T11:54:00Z</time>
      </trkpt>
      <trkpt lat="39.883856" lon="-0.53162">
        <ele>493.216</ele>
        <time>2020-01-17T11:54:02Z</time>
      </trkpt>
      <trkpt lat="39.883894" lon="-0.53154">
        <ele>493.254</ele>
        <time>2020-01-17T11:54:03Z</time>
      </trkpt>
      <trkpt lat="39.883929" lon="-0.531479">
        <ele>494.064</ele>
        <time>2020-01-17T11:54:04Z</time>
      </trkpt>
      <trkpt lat="39.88396" lon="-0.531425">
        <ele>494.649</ele>
        <time>2020-01-17T11:54:05Z</time>
      </trkpt>
      <trkpt lat="39.884013" lon="-0.531312">
        <ele>495.082</ele>
        <time>2020-01-17T11:54:07Z</time>
      </trkpt>
      <trkpt lat="39.88404" lon="-0.531252">
        <ele>493.983</ele>
        <time>2020-01-17T11:54:08Z</time>
      </trkpt>
      <trkpt lat="39.884064" lon="-0.531198">
        <ele>494.483</ele>
        <time>2020-01-17T11:54:09Z</time>
      </trkpt>
      <trkpt lat="39.884086" lon="-0.531142">
        <ele>494.421</ele>
        <time>2020-01-17T11:54:10Z</time>
      </trkpt>
      <trkpt lat="39.884107" lon="-0.531086">
        <ele>492.541</ele>
        <time>2020-01-17T11:54:11Z</time>
      </trkpt>
      <trkpt lat="39.884149" lon="-0.530983">
        <ele>491.677</ele>
        <time>2020-01-17T11:54:13Z</time>
      </trkpt>
      <trkpt lat="39.884235" lon="-0.530878">
        <ele>488.439</ele>
        <time>2020-01-17T11:54:16Z</time>
      </trkpt>
      <trkpt lat="39.884259" lon="-0.530825">
        <ele>487.607</ele>
        <time>2020-01-17T11:54:17Z</time>
      </trkpt>
      <trkpt lat="39.884261" lon="-0.530762">
        <ele>487.683</ele>
        <time>2020-01-17T11:54:18Z</time>
      </trkpt>
      <trkpt lat="39.88426" lon="-0.530695">
        <ele>487.513</ele>
        <time>2020-01-17T11:54:19Z</time>
      </trkpt>
      <trkpt lat="39.884251" lon="-0.530566">
        <ele>487.227</ele>
        <time>2020-01-17T11:54:21Z</time>
      </trkpt>
      <trkpt lat="39.88427" lon="-0.530504">
        <ele>487.122</ele>
        <time>2020-01-17T11:54:22Z</time>
      </trkpt>
      <trkpt lat="39.884278" lon="-0.530475">
        <ele>488.02</ele>
        <time>2020-01-17T11:54:23Z</time>
      </trkpt>
      <trkpt lat="39.884286" lon="-0.530413">
        <ele>491.664</ele>
        <time>2020-01-17T11:54:24Z</time>
      </trkpt>
      <trkpt lat="39.88429" lon="-0.530354">
        <ele>490.133</ele>
        <time>2020-01-17T11:54:25Z</time>
      </trkpt>
      <trkpt lat="39.884291" lon="-0.530293">
        <ele>487.903</ele>
        <time>2020-01-17T11:54:26Z</time>
      </trkpt>
      <trkpt lat="39.884299" lon="-0.530219">
        <ele>490.605</ele>
        <time>2020-01-17T11:54:27Z</time>
      </trkpt>
      <trkpt lat="39.884354" lon="-0.53013">
        <ele>490.101</ele>
        <time>2020-01-17T11:54:29Z</time>
      </trkpt>
      <trkpt lat="39.884413" lon="-0.530036">
        <ele>488.605</ele>
        <time>2020-01-17T11:54:32Z</time>
      </trkpt>
      <trkpt lat="39.884427" lon="-0.529971">
        <ele>489.41</ele>
        <time>2020-01-17T11:54:33Z</time>
      </trkpt>
      <trkpt lat="39.884462" lon="-0.529888">
        <ele>490.222</ele>
        <time>2020-01-17T11:54:35Z</time>
      </trkpt>
      <trkpt lat="39.884527" lon="-0.529765">
        <ele>489.974</ele>
        <time>2020-01-17T11:54:38Z</time>
      </trkpt>
      <trkpt lat="39.884545" lon="-0.529638">
        <ele>488.96</ele>
        <time>2020-01-17T11:54:40Z</time>
      </trkpt>
      <trkpt lat="39.884617" lon="-0.529537">
        <ele>488.129</ele>
        <time>2020-01-17T11:54:43Z</time>
      </trkpt>
      <trkpt lat="39.884645" lon="-0.529483">
        <ele>488.312</ele>
        <time>2020-01-17T11:54:44Z</time>
      </trkpt>
      <trkpt lat="39.884671" lon="-0.529431">
        <ele>488.1</ele>
        <time>2020-01-17T11:54:45Z</time>
      </trkpt>
      <trkpt lat="39.884692" lon="-0.529363">
        <ele>488.532</ele>
        <time>2020-01-17T11:54:46Z</time>
      </trkpt>
      <trkpt lat="39.884715" lon="-0.5293">
        <ele>488.916</ele>
        <time>2020-01-17T11:54:47Z</time>
      </trkpt>
      <trkpt lat="39.884729" lon="-0.529237">
        <ele>488.494</ele>
        <time>2020-01-17T11:54:48Z</time>
      </trkpt>
      <trkpt lat="39.88477" lon="-0.529152">
        <ele>488.626</ele>
        <time>2020-01-17T11:54:50Z</time>
      </trkpt>
      <trkpt lat="39.884791" lon="-0.529107">
        <ele>488.148</ele>
        <time>2020-01-17T11:54:51Z</time>
      </trkpt>
      <trkpt lat="39.88482" lon="-0.529059">
        <ele>489.191</ele>
        <time>2020-01-17T11:54:52Z</time>
      </trkpt>
      <trkpt lat="39.884845" lon="-0.529012">
        <ele>487.287</ele>
        <time>2020-01-17T11:54:53Z</time>
      </trkpt>
      <trkpt lat="39.884869" lon="-0.528964">
        <ele>485.766</ele>
        <time>2020-01-17T11:54:54Z</time>
      </trkpt>
      <trkpt lat="39.884888" lon="-0.528889">
        <ele>486.662</ele>
        <time>2020-01-17T11:54:56Z</time>
      </trkpt>
      <trkpt lat="39.884922" lon="-0.528783">
        <ele>490.333</ele>
        <time>2020-01-17T11:54:58Z</time>
      </trkpt>
      <trkpt lat="39.884973" lon="-0.528632">
        <ele>485.803</ele>
        <time>2020-01-17T11:55:01Z</time>
      </trkpt>
      <trkpt lat="39.885004" lon="-0.528574">
        <ele>486.146</ele>
        <time>2020-01-17T11:55:02Z</time>
      </trkpt>
      <trkpt lat="39.885053" lon="-0.528456">
        <ele>483.677</ele>
        <time>2020-01-17T11:55:04Z</time>
      </trkpt>
      <trkpt lat="39.885063" lon="-0.528379">
        <ele>484.229</ele>
        <time>2020-01-17T11:55:05Z</time>
      </trkpt>
      <trkpt lat="39.885101" lon="-0.528172">
        <ele>484.494</ele>
        <time>2020-01-17T11:55:08Z</time>
      </trkpt>
      <trkpt lat="39.885128" lon="-0.528111">
        <ele>484.389</ele>
        <time>2020-01-17T11:55:11Z</time>
      </trkpt>
      <trkpt lat="39.885141" lon="-0.528087">
        <ele>482.781</ele>
        <time>2020-01-17T11:55:12Z</time>
      </trkpt>
      <trkpt lat="39.885157" lon="-0.528058">
        <ele>481.438</ele>
        <time>2020-01-17T11:55:13Z</time>
      </trkpt>
      <trkpt lat="39.885175" lon="-0.528029">
        <ele>481.828</ele>
        <time>2020-01-17T11:55:14Z</time>
      </trkpt>
      <trkpt lat="39.885195" lon="-0.527997">
        <ele>480.123</ele>
        <time>2020-01-17T11:55:15Z</time>
      </trkpt>
      <trkpt lat="39.885218" lon="-0.527952">
        <ele>479.581</ele>
        <time>2020-01-17T11:55:16Z</time>
      </trkpt>
      <trkpt lat="39.885243" lon="-0.527897">
        <ele>479.424</ele>
        <time>2020-01-17T11:55:17Z</time>
      </trkpt>
      <trkpt lat="39.885271" lon="-0.527839">
        <ele>480.296</ele>
        <time>2020-01-17T11:55:18Z</time>
      </trkpt>
      <trkpt lat="39.885299" lon="-0.527784">
        <ele>480.031</ele>
        <time>2020-01-17T11:55:19Z</time>
      </trkpt>
      <trkpt lat="39.885353" lon="-0.527658">
        <ele>480.726</ele>
        <time>2020-01-17T11:55:21Z</time>
      </trkpt>
      <trkpt lat="39.885427" lon="-0.527517">
        <ele>480.101</ele>
        <time>2020-01-17T11:55:23Z</time>
      </trkpt>
      <trkpt lat="39.885462" lon="-0.527442">
        <ele>479.008</ele>
        <time>2020-01-17T11:55:24Z</time>
      </trkpt>
      <trkpt lat="39.885561" lon="-0.527182">
        <ele>479.3</ele>
        <time>2020-01-17T11:55:25Z</time>
      </trkpt>
      <trkpt lat="39.885588" lon="-0.52709">
        <ele>479.254</ele>
        <time>2020-01-17T11:55:27Z</time>
      </trkpt>
      <trkpt lat="39.885618" lon="-0.527022">
        <ele>481.826</ele>
        <time>2020-01-17T11:55:28Z</time>
      </trkpt>
      <trkpt lat="39.885642" lon="-0.52696">
        <ele>481.881</ele>
        <time>2020-01-17T11:55:29Z</time>
      </trkpt>
      <trkpt lat="39.885661" lon="-0.526891">
        <ele>480.454</ele>
        <time>2020-01-17T11:55:30Z</time>
      </trkpt>
      <trkpt lat="39.885677" lon="-0.526815">
        <ele>483.869</ele>
        <time>2020-01-17T11:55:31Z</time>
      </trkpt>
      <trkpt lat="39.885715" lon="-0.526713">
        <ele>482.611</ele>
        <time>2020-01-17T11:55:32Z</time>
      </trkpt>
      <trkpt lat="39.885714" lon="-0.526601">
        <ele>482.296</ele>
        <time>2020-01-17T11:55:34Z</time>
      </trkpt>
      <trkpt lat="39.885693" lon="-0.526543">
        <ele>484.624</ele>
        <time>2020-01-17T11:55:35Z</time>
      </trkpt>
      <trkpt lat="39.885763" lon="-0.526471">
        <ele>485.792</ele>
        <time>2020-01-17T11:55:36Z</time>
      </trkpt>
      <trkpt lat="39.885836" lon="-0.526413">
        <ele>485.672</ele>
        <time>2020-01-17T11:55:38Z</time>
      </trkpt>
      <trkpt lat="39.885853" lon="-0.526326">
        <ele>479.512</ele>
        <time>2020-01-17T11:55:39Z</time>
      </trkpt>
      <trkpt lat="39.885947" lon="-0.526197">
        <ele>479.022</ele>
        <time>2020-01-17T11:55:42Z</time>
      </trkpt>
      <trkpt lat="39.885998" lon="-0.526153">
        <ele>485.827</ele>
        <time>2020-01-17T11:55:44Z</time>
      </trkpt>
      <trkpt lat="39.88603" lon="-0.526004">
        <ele>492.185</ele>
        <time>2020-01-17T11:55:47Z</time>
      </trkpt>
      <trkpt lat="39.886049" lon="-0.525936">
        <ele>491.844</ele>
        <time>2020-01-17T11:55:49Z</time>
      </trkpt>
      <trkpt lat="39.886484" lon="-0.524503">
        <ele>492.096</ele>
        <time>2020-01-17T11:56:13Z</time>
      </trkpt>
      <trkpt lat="39.886503" lon="-0.524436">
        <ele>492.908</ele>
        <time>2020-01-17T11:56:14Z</time>
      </trkpt>
      <trkpt lat="39.886533" lon="-0.524348">
        <ele>490.661</ele>
        <time>2020-01-17T11:56:16Z</time>
      </trkpt>
      <trkpt lat="39.886576" lon="-0.524196">
        <ele>489.902</ele>
        <time>2020-01-17T11:56:18Z</time>
      </trkpt>
      <trkpt lat="39.886565" lon="-0.524004">
        <ele>489.761</ele>
        <time>2020-01-17T11:56:21Z</time>
      </trkpt>
      <trkpt lat="39.886581" lon="-0.523881">
        <ele>488.82</ele>
        <time>2020-01-17T11:56:23Z</time>
      </trkpt>
      <trkpt lat="39.886577" lon="-0.523805">
        <ele>488.671</ele>
        <time>2020-01-17T11:56:25Z</time>
      </trkpt>
      <trkpt lat="39.886577" lon="-0.523764">
        <ele>490.06</ele>
        <time>2020-01-17T11:56:26Z</time>
      </trkpt>
      <trkpt lat="39.886565" lon="-0.523537">
        <ele>490.51</ele>
        <time>2020-01-17T11:56:29Z</time>
      </trkpt>
      <trkpt lat="39.886542" lon="-0.523389">
        <ele>489.669</ele>
        <time>2020-01-17T11:56:31Z</time>
      </trkpt>
      <trkpt lat="39.886525" lon="-0.523327">
        <ele>489.501</ele>
        <time>2020-01-17T11:56:32Z</time>
      </trkpt>
      <trkpt lat="39.886514" lon="-0.523285">
        <ele>486.965</ele>
        <time>2020-01-17T11:56:33Z</time>
      </trkpt>
      <trkpt lat="39.886508" lon="-0.523225">
        <ele>486.812</ele>
        <time>2020-01-17T11:56:34Z</time>
      </trkpt>
      <trkpt lat="39.886475" lon="-0.523115">
        <ele>487.341</ele>
        <time>2020-01-17T11:56:36Z</time>
      </trkpt>
      <trkpt lat="39.88646" lon="-0.523055">
        <ele>487.797</ele>
        <time>2020-01-17T11:56:37Z</time>
      </trkpt>
      <trkpt lat="39.88643" lon="-0.522843">
        <ele>488.368</ele>
        <time>2020-01-17T11:56:40Z</time>
      </trkpt>
      <trkpt lat="39.886405" lon="-0.52273">
        <ele>489.078</ele>
        <time>2020-01-17T11:56:42Z</time>
      </trkpt>
      <trkpt lat="39.886391" lon="-0.522669">
        <ele>488.766</ele>
        <time>2020-01-17T11:56:43Z</time>
      </trkpt>
      <trkpt lat="39.886363" lon="-0.522477">
        <ele>488.591</ele>
        <time>2020-01-17T11:56:46Z</time>
      </trkpt>
      <trkpt lat="39.886358" lon="-0.522403">
        <ele>487.641</ele>
        <time>2020-01-17T11:56:47Z</time>
      </trkpt>
      <trkpt lat="39.886336" lon="-0.522328">
        <ele>488.255</ele>
        <time>2020-01-17T11:56:48Z</time>
      </trkpt>
      <trkpt lat="39.886324" lon="-0.522274">
        <ele>488.984</ele>
        <time>2020-01-17T11:56:49Z</time>
      </trkpt>
      <trkpt lat="39.886321" lon="-0.522197">
        <ele>489.389</ele>
        <time>2020-01-17T11:56:50Z</time>
      </trkpt>
      <trkpt lat="39.886313" lon="-0.522122">
        <ele>486.394</ele>
        <time>2020-01-17T11:56:51Z</time>
      </trkpt>
      <trkpt lat="39.886307" lon="-0.522052">
        <ele>488.355</ele>
        <time>2020-01-17T11:56:52Z</time>
      </trkpt>
      <trkpt lat="39.886277" lon="-0.521832">
        <ele>487.102</ele>
        <time>2020-01-17T11:56:55Z</time>
      </trkpt>
      <trkpt lat="39.886278" lon="-0.521761">
        <ele>489.599</ele>
        <time>2020-01-17T11:56:57Z</time>
      </trkpt>
      <trkpt lat="39.886257" lon="-0.521612">
        <ele>495.463</ele>
        <time>2020-01-17T11:57:01Z</time>
      </trkpt>
      <trkpt lat="39.886093" lon="-0.521125">
        <ele>495.158</ele>
        <time>2020-01-17T11:57:06Z</time>
      </trkpt>
      <trkpt lat="39.886056" lon="-0.521035">
        <ele>494.567</ele>
        <time>2020-01-17T11:57:08Z</time>
      </trkpt>
      <trkpt lat="39.886035" lon="-0.520972">
        <ele>494.692</ele>
        <time>2020-01-17T11:57:09Z</time>
      </trkpt>
      <trkpt lat="39.886016" lon="-0.520928">
        <ele>494.384</ele>
        <time>2020-01-17T11:57:10Z</time>
      </trkpt>
      <trkpt lat="39.885823" lon="-0.520603">
        <ele>494.021</ele>
        <time>2020-01-17T11:57:16Z</time>
      </trkpt>
      <trkpt lat="39.885792" lon="-0.520549">
        <ele>493.838</ele>
        <time>2020-01-17T11:57:17Z</time>
      </trkpt>
      <trkpt lat="39.885752" lon="-0.520489">
        <ele>494.3</ele>
        <time>2020-01-17T11:57:18Z</time>
      </trkpt>
      <trkpt lat="39.885712" lon="-0.520437">
        <ele>494.48</ele>
        <time>2020-01-17T11:57:19Z</time>
      </trkpt>
      <trkpt lat="39.885676" lon="-0.520384">
        <ele>495.099</ele>
        <time>2020-01-17T11:57:20Z</time>
      </trkpt>
      <trkpt lat="39.885635" lon="-0.520332">
        <ele>495.071</ele>
        <time>2020-01-17T11:57:21Z</time>
      </trkpt>
      <trkpt lat="39.885597" lon="-0.520279">
        <ele>495.542</ele>
        <time>2020-01-17T11:57:22Z</time>
      </trkpt>
      <trkpt lat="39.885562" lon="-0.520232">
        <ele>496.664</ele>
        <time>2020-01-17T11:57:23Z</time>
      </trkpt>
      <trkpt lat="39.885526" lon="-0.520197">
        <ele>497.228</ele>
        <time>2020-01-17T11:57:24Z</time>
      </trkpt>
      <trkpt lat="39.885492" lon="-0.520164">
        <ele>496.345</ele>
        <time>2020-01-17T11:57:25Z</time>
      </trkpt>
      <trkpt lat="39.88546" lon="-0.520123">
        <ele>494.877</ele>
        <time>2020-01-17T11:57:26Z</time>
      </trkpt>
      <trkpt lat="39.885423" lon="-0.520088">
        <ele>493.519</ele>
        <time>2020-01-17T11:57:27Z</time>
      </trkpt>
      <trkpt lat="39.885365" lon="-0.520008">
        <ele>493.089</ele>
        <time>2020-01-17T11:57:29Z</time>
      </trkpt>
      <trkpt lat="39.885335" lon="-0.519972">
        <ele>490.601</ele>
        <time>2020-01-17T11:57:30Z</time>
      </trkpt>
      <trkpt lat="39.885297" lon="-0.519939">
        <ele>489.899</ele>
        <time>2020-01-17T11:57:31Z</time>
      </trkpt>
      <trkpt lat="39.885244" lon="-0.519852">
        <ele>498.904</ele>
        <time>2020-01-17T11:57:33Z</time>
      </trkpt>
      <trkpt lat="39.88518" lon="-0.519781">
        <ele>503.403</ele>
        <time>2020-01-17T11:57:35Z</time>
      </trkpt>
      <trkpt lat="39.88515" lon="-0.519746">
        <ele>498.165</ele>
        <time>2020-01-17T11:57:36Z</time>
      </trkpt>
      <trkpt lat="39.885066" lon="-0.519571">
        <ele>491.956</ele>
        <time>2020-01-17T11:57:40Z</time>
      </trkpt>
      <trkpt lat="39.88504" lon="-0.51948">
        <ele>492.049</ele>
        <time>2020-01-17T11:57:42Z</time>
      </trkpt>
      <trkpt lat="39.883906" lon="-0.518714">
        <ele>489.906</ele>
        <time>2020-01-17T11:58:08Z</time>
      </trkpt>
      <trkpt lat="39.883854" lon="-0.518664">
        <ele>489.093</ele>
        <time>2020-01-17T11:58:11Z</time>
      </trkpt>
      <trkpt lat="39.883817" lon="-0.518623">
        <ele>489.046</ele>
        <time>2020-01-17T11:58:13Z</time>
      </trkpt>
      <trkpt lat="39.883433" lon="-0.518279">
        <ele>486.751</ele>
        <time>2020-01-17T11:58:17Z</time>
      </trkpt>
      <trkpt lat="39.883386" lon="-0.518278">
        <ele>485.591</ele>
        <time>2020-01-17T11:58:18Z</time>
      </trkpt>
      <trkpt lat="39.883271" lon="-0.518226">
        <ele>487.205</ele>
        <time>2020-01-17T11:58:20Z</time>
      </trkpt>
      <trkpt lat="39.88314" lon="-0.518177">
        <ele>487.026</ele>
        <time>2020-01-17T11:58:23Z</time>
      </trkpt>
      <trkpt lat="39.883043" lon="-0.518135">
        <ele>488.068</ele>
        <time>2020-01-17T11:58:25Z</time>
      </trkpt>
      <trkpt lat="39.882927" lon="-0.518056">
        <ele>487.925</ele>
        <time>2020-01-17T11:58:28Z</time>
      </trkpt>
      <trkpt lat="39.882879" lon="-0.518016">
        <ele>487.258</ele>
        <time>2020-01-17T11:58:29Z</time>
      </trkpt>
      <trkpt lat="39.88279" lon="-0.517985">
        <ele>489.834</ele>
        <time>2020-01-17T11:58:31Z</time>
      </trkpt>
      <trkpt lat="39.882743" lon="-0.517959">
        <ele>490.288</ele>
        <time>2020-01-17T11:58:32Z</time>
      </trkpt>
      <trkpt lat="39.88264" lon="-0.517887">
        <ele>490.994</ele>
        <time>2020-01-17T11:58:34Z</time>
      </trkpt>
      <trkpt lat="39.882481" lon="-0.517834">
        <ele>492.973</ele>
        <time>2020-01-17T11:58:37Z</time>
      </trkpt>
      <trkpt lat="39.882422" lon="-0.517829">
        <ele>493.154</ele>
        <time>2020-01-17T11:58:38Z</time>
      </trkpt>
      <trkpt lat="39.88233" lon="-0.517804">
        <ele>493.832</ele>
        <time>2020-01-17T11:58:40Z</time>
      </trkpt>
      <trkpt lat="39.882228" lon="-0.517756">
        <ele>492.631</ele>
        <time>2020-01-17T11:58:42Z</time>
      </trkpt>
      <trkpt lat="39.882187" lon="-0.517714">
        <ele>491.56</ele>
        <time>2020-01-17T11:58:43Z</time>
      </trkpt>
      <trkpt lat="39.882108" lon="-0.517655">
        <ele>493.209</ele>
        <time>2020-01-17T11:58:45Z</time>
      </trkpt>
      <trkpt lat="39.882029" lon="-0.517652">
        <ele>490.09</ele>
        <time>2020-01-17T11:58:46Z</time>
      </trkpt>
      <trkpt lat="39.881963" lon="-0.517648">
        <ele>488.421</ele>
        <time>2020-01-17T11:58:47Z</time>
      </trkpt>
      <trkpt lat="39.881889" lon="-0.517616">
        <ele>487.862</ele>
        <time>2020-01-17T11:58:48Z</time>
      </trkpt>
      <trkpt lat="39.881837" lon="-0.517624">
        <ele>488.558</ele>
        <time>2020-01-17T11:58:50Z</time>
      </trkpt>
      <trkpt lat="39.881811" lon="-0.517628">
        <ele>486.119</ele>
        <time>2020-01-17T11:58:53Z</time>
      </trkpt>
      <trkpt lat="39.881471" lon="-0.517517">
        <ele>486.678</ele>
        <time>2020-01-17T11:58:58Z</time>
      </trkpt>
      <trkpt lat="39.881439" lon="-0.517462">
        <ele>486.747</ele>
        <time>2020-01-17T11:58:59Z</time>
      </trkpt>
      <trkpt lat="39.88139" lon="-0.517456">
        <ele>483.727</ele>
        <time>2020-01-17T11:59:00Z</time>
      </trkpt>
      <trkpt lat="39.881286" lon="-0.51739">
        <ele>484.171</ele>
        <time>2020-01-17T11:59:02Z</time>
      </trkpt>
      <trkpt lat="39.881139" lon="-0.517315">
        <ele>484.249</ele>
        <time>2020-01-17T11:59:05Z</time>
      </trkpt>
      <trkpt lat="39.881097" lon="-0.517296">
        <ele>484.287</ele>
        <time>2020-01-17T11:59:06Z</time>
      </trkpt>
      <trkpt lat="39.881048" lon="-0.517272">
        <ele>484.485</ele>
        <time>2020-01-17T11:59:07Z</time>
      </trkpt>
      <trkpt lat="39.880992" lon="-0.517245">
        <ele>483.381</ele>
        <time>2020-01-17T11:59:08Z</time>
      </trkpt>
      <trkpt lat="39.880857" lon="-0.51723">
        <ele>482.814</ele>
        <time>2020-01-17T11:59:11Z</time>
      </trkpt>
      <trkpt lat="39.880779" lon="-0.517187">
        <ele>483.363</ele>
        <time>2020-01-17T11:59:13Z</time>
      </trkpt>
      <trkpt lat="39.88073" lon="-0.517176">
        <ele>483.692</ele>
        <time>2020-01-17T11:59:14Z</time>
      </trkpt>
      <trkpt lat="39.880673" lon="-0.517157">
        <ele>484.633</ele>
        <time>2020-01-17T11:59:15Z</time>
      </trkpt>
      <trkpt lat="39.880626" lon="-0.517144">
        <ele>485.628</ele>
        <time>2020-01-17T11:59:16Z</time>
      </trkpt>
      <trkpt lat="39.880573" lon="-0.517136">
        <ele>486.048</ele>
        <time>2020-01-17T11:59:17Z</time>
      </trkpt>
      <trkpt lat="39.880539" lon="-0.517128">
        <ele>486.49</ele>
        <time>2020-01-17T11:59:18Z</time>
      </trkpt>
      <trkpt lat="39.880483" lon="-0.517102">
        <ele>487.113</ele>
        <time>2020-01-17T11:59:22Z</time>
      </trkpt>
      <trkpt lat="39.880438" lon="-0.517085">
        <ele>486.291</ele>
        <time>2020-01-17T11:59:24Z</time>
      </trkpt>
      <trkpt lat="39.880411" lon="-0.517076">
        <ele>485.763</ele>
        <time>2020-01-17T11:59:25Z</time>
      </trkpt>
      <trkpt lat="39.880382" lon="-0.517065">
        <ele>487.7</ele>
        <time>2020-01-17T11:59:26Z</time>
      </trkpt>
      <trkpt lat="39.880318" lon="-0.517033">
        <ele>488.397</ele>
        <time>2020-01-17T11:59:28Z</time>
      </trkpt>
      <trkpt lat="39.88028" lon="-0.517013">
        <ele>489.244</ele>
        <time>2020-01-17T11:59:29Z</time>
      </trkpt>
      <trkpt lat="39.880236" lon="-0.516986">
        <ele>485.712</ele>
        <time>2020-01-17T11:59:30Z</time>
      </trkpt>
      <trkpt lat="39.880122" lon="-0.516924">
        <ele>487.106</ele>
        <time>2020-01-17T11:59:32Z</time>
      </trkpt>
      <trkpt lat="39.880054" lon="-0.516888">
        <ele>487.259</ele>
        <time>2020-01-17T11:59:33Z</time>
      </trkpt>
      <trkpt lat="39.879983" lon="-0.516854">
        <ele>485.171</ele>
        <time>2020-01-17T11:59:34Z</time>
      </trkpt>
      <trkpt lat="39.879914" lon="-0.516823">
        <ele>484.852</ele>
        <time>2020-01-17T11:59:35Z</time>
      </trkpt>
      <trkpt lat="39.879641" lon="-0.516725">
        <ele>484.631</ele>
        <time>2020-01-17T11:59:39Z</time>
      </trkpt>
      <trkpt lat="39.879596" lon="-0.516669">
        <ele>484.329</ele>
        <time>2020-01-17T11:59:40Z</time>
      </trkpt>
      <trkpt lat="39.879555" lon="-0.516499">
        <ele>483.539</ele>
        <time>2020-01-17T11:59:41Z</time>
      </trkpt>
      <trkpt lat="39.879467" lon="-0.516552">
        <ele>482.083</ele>
        <time>2020-01-17T11:59:42Z</time>
      </trkpt>
      <trkpt lat="39.879418" lon="-0.516533">
        <ele>484.954</ele>
        <time>2020-01-17T11:59:43Z</time>
      </trkpt>
      <trkpt lat="39.879355" lon="-0.516527">
        <ele>488.484</ele>
        <time>2020-01-17T11:59:44Z</time>
      </trkpt>
      <trkpt lat="39.879318" lon="-0.516481">
        <ele>488.506</ele>
        <time>2020-01-17T11:59:45Z</time>
      </trkpt>
      <trkpt lat="39.879213" lon="-0.516438">
        <ele>488.853</ele>
        <time>2020-01-17T11:59:48Z</time>
      </trkpt>
      <trkpt lat="39.879155" lon="-0.51644">
        <ele>490.057</ele>
        <time>2020-01-17T11:59:51Z</time>
      </trkpt>
      <trkpt lat="39.879069" lon="-0.516418">
        <ele>490.386</ele>
        <time>2020-01-17T11:59:54Z</time>
      </trkpt>
      <trkpt lat="39.879041" lon="-0.516407">
        <ele>491.514</ele>
        <time>2020-01-17T11:59:55Z</time>
      </trkpt>
      <trkpt lat="39.879003" lon="-0.516394">
        <ele>489.777</ele>
        <time>2020-01-17T11:59:56Z</time>
      </trkpt>
      <trkpt lat="39.878963" lon="-0.516377">
        <ele>485.797</ele>
        <time>2020-01-17T11:59:57Z</time>
      </trkpt>
      <trkpt lat="39.878919" lon="-0.516357">
        <ele>484.642</ele>
        <time>2020-01-17T11:59:58Z</time>
      </trkpt>
      <trkpt lat="39.878873" lon="-0.516332">
        <ele>483.464</ele>
        <time>2020-01-17T11:59:59Z</time>
      </trkpt>
      <trkpt lat="39.878825" lon="-0.516303">
        <ele>483.748</ele>
        <time>2020-01-17T12:00:00Z</time>
      </trkpt>
      <trkpt lat="39.878722" lon="-0.516216">
        <ele>480.704</ele>
        <time>2020-01-17T12:00:02Z</time>
      </trkpt>
      <trkpt lat="39.878558" lon="-0.516046">
        <ele>481.279</ele>
        <time>2020-01-17T12:00:05Z</time>
      </trkpt>
      <trkpt lat="39.878514" lon="-0.51599">
        <ele>482.326</ele>
        <time>2020-01-17T12:00:06Z</time>
      </trkpt>
      <trkpt lat="39.878428" lon="-0.515878">
        <ele>481.645</ele>
        <time>2020-01-17T12:00:08Z</time>
      </trkpt>
      <trkpt lat="39.878387" lon="-0.515832">
        <ele>481.151</ele>
        <time>2020-01-17T12:00:09Z</time>
      </trkpt>
      <trkpt lat="39.878329" lon="-0.515783">
        <ele>481.33</ele>
        <time>2020-01-17T12:00:10Z</time>
      </trkpt>
      <trkpt lat="39.878177" lon="-0.515598">
        <ele>480.319</ele>
        <time>2020-01-17T12:00:13Z</time>
      </trkpt>
      <trkpt lat="39.878133" lon="-0.515545">
        <ele>480.953</ele>
        <time>2020-01-17T12:00:14Z</time>
      </trkpt>
      <trkpt lat="39.878081" lon="-0.515496">
        <ele>481.375</ele>
        <time>2020-01-17T12:00:15Z</time>
      </trkpt>
      <trkpt lat="39.878037" lon="-0.51545">
        <ele>482.17</ele>
        <time>2020-01-17T12:00:16Z</time>
      </trkpt>
      <trkpt lat="39.877995" lon="-0.515397">
        <ele>483.083</ele>
        <time>2020-01-17T12:00:17Z</time>
      </trkpt>
      <trkpt lat="39.877958" lon="-0.51535">
        <ele>484.821</ele>
        <time>2020-01-17T12:00:18Z</time>
      </trkpt>
      <trkpt lat="39.877865" lon="-0.515208">
        <ele>487.805</ele>
        <time>2020-01-17T12:00:21Z</time>
      </trkpt>
      <trkpt lat="39.877833" lon="-0.515156">
        <ele>489.927</ele>
        <time>2020-01-17T12:00:22Z</time>
      </trkpt>
      <trkpt lat="39.877803" lon="-0.515109">
        <ele>489.087</ele>
        <time>2020-01-17T12:00:23Z</time>
      </trkpt>
      <trkpt lat="39.877774" lon="-0.515066">
        <ele>488.838</ele>
        <time>2020-01-17T12:00:24Z</time>
      </trkpt>
      <trkpt lat="39.87772" lon="-0.514979">
        <ele>489.212</ele>
        <time>2020-01-17T12:00:26Z</time>
      </trkpt>
      <trkpt lat="39.877685" lon="-0.514931">
        <ele>489.746</ele>
        <time>2020-01-17T12:00:27Z</time>
      </trkpt>
      <trkpt lat="39.877652" lon="-0.514879">
        <ele>489.326</ele>
        <time>2020-01-17T12:00:28Z</time>
      </trkpt>
      <trkpt lat="39.877586" lon="-0.514779">
        <ele>489.039</ele>
        <time>2020-01-17T12:00:30Z</time>
      </trkpt>
      <trkpt lat="39.877559" lon="-0.514727">
        <ele>488.445</ele>
        <time>2020-01-17T12:00:31Z</time>
      </trkpt>
      <trkpt lat="39.877521" lon="-0.514672">
        <ele>488.215</ele>
        <time>2020-01-17T12:00:32Z</time>
      </trkpt>
      <trkpt lat="39.877477" lon="-0.514626">
        <ele>487.512</ele>
        <time>2020-01-17T12:00:33Z</time>
      </trkpt>
      <trkpt lat="39.87738" lon="-0.514558">
        <ele>489.362</ele>
        <time>2020-01-17T12:00:35Z</time>
      </trkpt>
      <trkpt lat="39.877338" lon="-0.51452">
        <ele>489.463</ele>
        <time>2020-01-17T12:00:36Z</time>
      </trkpt>
      <trkpt lat="39.877298" lon="-0.514482">
        <ele>489.402</ele>
        <time>2020-01-17T12:00:37Z</time>
      </trkpt>
      <trkpt lat="39.87726" lon="-0.514445">
        <ele>488.059</ele>
        <time>2020-01-17T12:00:38Z</time>
      </trkpt>
      <trkpt lat="39.877224" lon="-0.51441">
        <ele>488.327</ele>
        <time>2020-01-17T12:00:39Z</time>
      </trkpt>
      <trkpt lat="39.877182" lon="-0.514379">
        <ele>487.994</ele>
        <time>2020-01-17T12:00:40Z</time>
      </trkpt>
      <trkpt lat="39.877132" lon="-0.514361">
        <ele>484.183</ele>
        <time>2020-01-17T12:00:41Z</time>
      </trkpt>
      <trkpt lat="39.876993" lon="-0.51426">
        <ele>486.532</ele>
        <time>2020-01-17T12:00:44Z</time>
      </trkpt>
      <trkpt lat="39.876946" lon="-0.514246">
        <ele>488.415</ele>
        <time>2020-01-17T12:00:45Z</time>
      </trkpt>
      <trkpt lat="39.876897" lon="-0.514239">
        <ele>488.95</ele>
        <time>2020-01-17T12:00:46Z</time>
      </trkpt>
      <trkpt lat="39.876799" lon="-0.514215">
        <ele>488.316</ele>
        <time>2020-01-17T12:00:48Z</time>
      </trkpt>
      <trkpt lat="39.876752" lon="-0.514213">
        <ele>487.58</ele>
        <time>2020-01-17T12:00:49Z</time>
      </trkpt>
      <trkpt lat="39.876625" lon="-0.514154">
        <ele>487.598</ele>
        <time>2020-01-17T12:00:52Z</time>
      </trkpt>
      <trkpt lat="39.87658" lon="-0.514149">
        <ele>487.654</ele>
        <time>2020-01-17T12:00:54Z</time>
      </trkpt>
      <trkpt lat="39.876542" lon="-0.514141">
        <ele>487.364</ele>
        <time>2020-01-17T12:00:56Z</time>
      </trkpt>
      <trkpt lat="39.876085" lon="-0.513937">
        <ele>487.497</ele>
        <time>2020-01-17T12:01:03Z</time>
      </trkpt>
      <trkpt lat="39.876014" lon="-0.513874">
        <ele>488.53</ele>
        <time>2020-01-17T12:01:05Z</time>
      </trkpt>
      <trkpt lat="39.875932" lon="-0.513812">
        <ele>488.002</ele>
        <time>2020-01-17T12:01:07Z</time>
      </trkpt>
      <trkpt lat="39.875878" lon="-0.513805">
        <ele>487.991</ele>
        <time>2020-01-17T12:01:08Z</time>
      </trkpt>
      <trkpt lat="39.875825" lon="-0.5138">
        <ele>488.34</ele>
        <time>2020-01-17T12:01:09Z</time>
      </trkpt>
      <trkpt lat="39.875733" lon="-0.513735">
        <ele>487.954</ele>
        <time>2020-01-17T12:01:11Z</time>
      </trkpt>
      <trkpt lat="39.875665" lon="-0.513746">
        <ele>487.128</ele>
        <time>2020-01-17T12:01:12Z</time>
      </trkpt>
      <trkpt lat="39.875622" lon="-0.513714">
        <ele>486.738</ele>
        <time>2020-01-17T12:01:13Z</time>
      </trkpt>
      <trkpt lat="39.875585" lon="-0.513687">
        <ele>487.87</ele>
        <time>2020-01-17T12:01:14Z</time>
      </trkpt>
      <trkpt lat="39.875541" lon="-0.51365">
        <ele>489.461</ele>
        <time>2020-01-17T12:01:15Z</time>
      </trkpt>
      <trkpt lat="39.875455" lon="-0.513604">
        <ele>488.69</ele>
        <time>2020-01-17T12:01:17Z</time>
      </trkpt>
      <trkpt lat="39.875404" lon="-0.513583">
        <ele>488.648</ele>
        <time>2020-01-17T12:01:18Z</time>
      </trkpt>
      <trkpt lat="39.875333" lon="-0.513519">
        <ele>485.45</ele>
        <time>2020-01-17T12:01:20Z</time>
      </trkpt>
      <trkpt lat="39.875299" lon="-0.513473">
        <ele>483.557</ele>
        <time>2020-01-17T12:01:21Z</time>
      </trkpt>
      <trkpt lat="39.87527" lon="-0.513417">
        <ele>482.989</ele>
        <time>2020-01-17T12:01:22Z</time>
      </trkpt>
      <trkpt lat="39.875202" lon="-0.513347">
        <ele>483.64</ele>
        <time>2020-01-17T12:01:24Z</time>
      </trkpt>
      <trkpt lat="39.875126" lon="-0.513295">
        <ele>484.041</ele>
        <time>2020-01-17T12:01:26Z</time>
      </trkpt>
      <trkpt lat="39.875078" lon="-0.513245">
        <ele>484.158</ele>
        <time>2020-01-17T12:01:27Z</time>
      </trkpt>
      <trkpt lat="39.875038" lon="-0.513191">
        <ele>484.063</ele>
        <time>2020-01-17T12:01:30Z</time>
      </trkpt>
      <trkpt lat="39.874988" lon="-0.513143">
        <ele>484.057</ele>
        <time>2020-01-17T12:01:33Z</time>
      </trkpt>
      <trkpt lat="39.874958" lon="-0.513115">
        <ele>484.525</ele>
        <time>2020-01-17T12:01:34Z</time>
      </trkpt>
      <trkpt lat="39.87487" lon="-0.512973">
        <ele>483.921</ele>
        <time>2020-01-17T12:01:37Z</time>
      </trkpt>
      <trkpt lat="39.874842" lon="-0.512912">
        <ele>486.823</ele>
        <time>2020-01-17T12:01:38Z</time>
      </trkpt>
      <trkpt lat="39.874777" lon="-0.512781">
        <ele>486.032</ele>
        <time>2020-01-17T12:01:40Z</time>
      </trkpt>
      <trkpt lat="39.874742" lon="-0.512707">
        <ele>484.803</ele>
        <time>2020-01-17T12:01:41Z</time>
      </trkpt>
      <trkpt lat="39.874666" lon="-0.512571">
        <ele>484.682</ele>
        <time>2020-01-17T12:01:43Z</time>
      </trkpt>
      <trkpt lat="39.874622" lon="-0.512505">
        <ele>485.543</ele>
        <time>2020-01-17T12:01:44Z</time>
      </trkpt>
      <trkpt lat="39.874491" lon="-0.512306">
        <ele>485.899</ele>
        <time>2020-01-17T12:01:47Z</time>
      </trkpt>
      <trkpt lat="39.87443" lon="-0.512185">
        <ele>487.344</ele>
        <time>2020-01-17T12:01:49Z</time>
      </trkpt>
      <trkpt lat="39.8744" lon="-0.512126">
        <ele>488.283</ele>
        <time>2020-01-17T12:01:50Z</time>
      </trkpt>
      <trkpt lat="39.874367" lon="-0.512075">
        <ele>488.531</ele>
        <time>2020-01-17T12:01:51Z</time>
      </trkpt>
      <trkpt lat="39.874337" lon="-0.512031">
        <ele>488.126</ele>
        <time>2020-01-17T12:01:52Z</time>
      </trkpt>
      <trkpt lat="39.874311" lon="-0.51199">
        <ele>486.789</ele>
        <time>2020-01-17T12:01:53Z</time>
      </trkpt>
      <trkpt lat="39.874296" lon="-0.511935">
        <ele>486.035</ele>
        <time>2020-01-17T12:01:59Z</time>
      </trkpt>
      <trkpt lat="39.874232" lon="-0.511873">
        <ele>486.881</ele>
        <time>2020-01-17T12:02:06Z</time>
      </trkpt>
      <trkpt lat="39.874175" lon="-0.511822">
        <ele>487.025</ele>
        <time>2020-01-17T12:02:08Z</time>
      </trkpt>
      <trkpt lat="39.874153" lon="-0.511769">
        <ele>486.786</ele>
        <time>2020-01-17T12:02:10Z</time>
      </trkpt>
      <trkpt lat="39.874096" lon="-0.511721">
        <ele>487.44</ele>
        <time>2020-01-17T12:02:14Z</time>
      </trkpt>
      <trkpt lat="39.874087" lon="-0.511595">
        <ele>486.374</ele>
        <time>2020-01-17T12:02:16Z</time>
      </trkpt>
      <trkpt lat="39.874087" lon="-0.511553">
        <ele>485.421</ele>
        <time>2020-01-17T12:02:17Z</time>
      </trkpt>
      <trkpt lat="39.874059" lon="-0.511482">
        <ele>485.968</ele>
        <time>2020-01-17T12:02:19Z</time>
      </trkpt>
      <trkpt lat="39.87401" lon="-0.511437">
        <ele>487.063</ele>
        <time>2020-01-17T12:02:21Z</time>
      </trkpt>
      <trkpt lat="39.873985" lon="-0.511414">
        <ele>487.013</ele>
        <time>2020-01-17T12:02:22Z</time>
      </trkpt>
      <trkpt lat="39.873905" lon="-0.511316">
        <ele>486.375</ele>
        <time>2020-01-17T12:02:25Z</time>
      </trkpt>
      <trkpt lat="39.873832" lon="-0.511278">
        <ele>486.211</ele>
        <time>2020-01-17T12:02:26Z</time>
      </trkpt>
      <trkpt lat="39.87379" lon="-0.51125">
        <ele>486.932</ele>
        <time>2020-01-17T12:02:27Z</time>
      </trkpt>
      <trkpt lat="39.873739" lon="-0.511235">
        <ele>486.895</ele>
        <time>2020-01-17T12:02:28Z</time>
      </trkpt>
      <trkpt lat="39.873702" lon="-0.511226">
        <ele>486.766</ele>
        <time>2020-01-17T12:02:29Z</time>
      </trkpt>
      <trkpt lat="39.873596" lon="-0.511143">
        <ele>487.692</ele>
        <time>2020-01-17T12:02:32Z</time>
      </trkpt>
      <trkpt lat="39.873571" lon="-0.511076">
        <ele>487.806</ele>
        <time>2020-01-17T12:02:34Z</time>
      </trkpt>
      <trkpt lat="39.873511" lon="-0.511017">
        <ele>489.841</ele>
        <time>2020-01-17T12:02:37Z</time>
      </trkpt>
      <trkpt lat="39.873491" lon="-0.510995">
        <ele>485.768</ele>
        <time>2020-01-17T12:02:38Z</time>
      </trkpt>
      <trkpt lat="39.87346" lon="-0.510942">
        <ele>485.896</ele>
        <time>2020-01-17T12:02:40Z</time>
      </trkpt>
      <trkpt lat="39.873437" lon="-0.510877">
        <ele>486.823</ele>
        <time>2020-01-17T12:02:42Z</time>
      </trkpt>
      <trkpt lat="39.873409" lon="-0.510798">
        <ele>487.243</ele>
        <time>2020-01-17T12:02:44Z</time>
      </trkpt>
      <trkpt lat="39.873357" lon="-0.510737">
        <ele>487.992</ele>
        <time>2020-01-17T12:02:46Z</time>
      </trkpt>
      <trkpt lat="39.87328" lon="-0.510669">
        <ele>488.701</ele>
        <time>2020-01-17T12:02:48Z</time>
      </trkpt>
      <trkpt lat="39.873236" lon="-0.510634">
        <ele>488.682</ele>
        <time>2020-01-17T12:02:49Z</time>
      </trkpt>
      <trkpt lat="39.873145" lon="-0.510565">
        <ele>488.18</ele>
        <time>2020-01-17T12:02:51Z</time>
      </trkpt>
      <trkpt lat="39.873089" lon="-0.510534">
        <ele>487.275</ele>
        <time>2020-01-17T12:02:52Z</time>
      </trkpt>
      <trkpt lat="39.873034" lon="-0.510501">
        <ele>488.527</ele>
        <time>2020-01-17T12:02:53Z</time>
      </trkpt>
      <trkpt lat="39.872979" lon="-0.510468">
        <ele>488.486</ele>
        <time>2020-01-17T12:02:54Z</time>
      </trkpt>
      <trkpt lat="39.872914" lon="-0.51043">
        <ele>486.697</ele>
        <time>2020-01-17T12:02:55Z</time>
      </trkpt>
      <trkpt lat="39.8727" lon="-0.510333">
        <ele>486.946</ele>
        <time>2020-01-17T12:02:58Z</time>
      </trkpt>
      <trkpt lat="39.872636" lon="-0.510317">
        <ele>487.063</ele>
        <time>2020-01-17T12:02:59Z</time>
      </trkpt>
      <trkpt lat="39.872588" lon="-0.510309">
        <ele>486.868</ele>
        <time>2020-01-17T12:03:00Z</time>
      </trkpt>
      <trkpt lat="39.872538" lon="-0.510304">
        <ele>485.258</ele>
        <time>2020-01-17T12:03:01Z</time>
      </trkpt>
      <trkpt lat="39.872488" lon="-0.510303">
        <ele>484.492</ele>
        <time>2020-01-17T12:03:02Z</time>
      </trkpt>
      <trkpt lat="39.872425" lon="-0.510295">
        <ele>484.598</ele>
        <time>2020-01-17T12:03:03Z</time>
      </trkpt>
      <trkpt lat="39.87237" lon="-0.510295">
        <ele>485.899</ele>
        <time>2020-01-17T12:03:04Z</time>
      </trkpt>
      <trkpt lat="39.872318" lon="-0.51029">
        <ele>485.468</ele>
        <time>2020-01-17T12:03:05Z</time>
      </trkpt>
      <trkpt lat="39.872261" lon="-0.51029">
        <ele>486.187</ele>
        <time>2020-01-17T12:03:06Z</time>
      </trkpt>
      <trkpt lat="39.872208" lon="-0.510291">
        <ele>484.634</ele>
        <time>2020-01-17T12:03:07Z</time>
      </trkpt>
      <trkpt lat="39.872092" lon="-0.510274">
        <ele>485.488</ele>
        <time>2020-01-17T12:03:09Z</time>
      </trkpt>
      <trkpt lat="39.872037" lon="-0.510264">
        <ele>484.75</ele>
        <time>2020-01-17T12:03:10Z</time>
      </trkpt>
      <trkpt lat="39.871982" lon="-0.510264">
        <ele>482.375</ele>
        <time>2020-01-17T12:03:11Z</time>
      </trkpt>
      <trkpt lat="39.871935" lon="-0.51028">
        <ele>481.892</ele>
        <time>2020-01-17T12:03:12Z</time>
      </trkpt>
      <trkpt lat="39.871888" lon="-0.510303">
        <ele>478.267</ele>
        <time>2020-01-17T12:03:13Z</time>
      </trkpt>
      <trkpt lat="39.871843" lon="-0.510327">
        <ele>477.56</ele>
        <time>2020-01-17T12:03:14Z</time>
      </trkpt>
      <trkpt lat="39.871789" lon="-0.51035">
        <ele>479.788</ele>
        <time>2020-01-17T12:03:15Z</time>
      </trkpt>
      <trkpt lat="39.871734" lon="-0.510375">
        <ele>480.684</ele>
        <time>2020-01-17T12:03:16Z</time>
      </trkpt>
      <trkpt lat="39.871682" lon="-0.5104">
        <ele>481.092</ele>
        <time>2020-01-17T12:03:17Z</time>
      </trkpt>
      <trkpt lat="39.871568" lon="-0.510448">
        <ele>482.022</ele>
        <time>2020-01-17T12:03:19Z</time>
      </trkpt>
      <trkpt lat="39.871512" lon="-0.510478">
        <ele>481.661</ele>
        <time>2020-01-17T12:03:20Z</time>
      </trkpt>
      <trkpt lat="39.871456" lon="-0.510517">
        <ele>481.516</ele>
        <time>2020-01-17T12:03:21Z</time>
      </trkpt>
      <trkpt lat="39.87141" lon="-0.51056">
        <ele>480.257</ele>
        <time>2020-01-17T12:03:22Z</time>
      </trkpt>
      <trkpt lat="39.871317" lon="-0.510638">
        <ele>480.255</ele>
        <time>2020-01-17T12:03:24Z</time>
      </trkpt>
      <trkpt lat="39.871126" lon="-0.510799">
        <ele>479.497</ele>
        <time>2020-01-17T12:03:27Z</time>
      </trkpt>
      <trkpt lat="39.871085" lon="-0.510839">
        <ele>478.404</ele>
        <time>2020-01-17T12:03:28Z</time>
      </trkpt>
      <trkpt lat="39.871046" lon="-0.510883">
        <ele>479.312</ele>
        <time>2020-01-17T12:03:29Z</time>
      </trkpt>
      <trkpt lat="39.871001" lon="-0.510929">
        <ele>479.666</ele>
        <time>2020-01-17T12:03:30Z</time>
      </trkpt>
      <trkpt lat="39.870947" lon="-0.510971">
        <ele>479.257</ele>
        <time>2020-01-17T12:03:31Z</time>
      </trkpt>
      <trkpt lat="39.870915" lon="-0.510999">
        <ele>479.139</ele>
        <time>2020-01-17T12:03:32Z</time>
      </trkpt>
      <trkpt lat="39.870839" lon="-0.511022">
        <ele>478.716</ele>
        <time>2020-01-17T12:03:34Z</time>
      </trkpt>
      <trkpt lat="39.870796" lon="-0.51106">
        <ele>477.898</ele>
        <time>2020-01-17T12:03:35Z</time>
      </trkpt>
      <trkpt lat="39.870727" lon="-0.511122">
        <ele>478.642</ele>
        <time>2020-01-17T12:03:37Z</time>
      </trkpt>
      <trkpt lat="39.870693" lon="-0.511167">
        <ele>478.222</ele>
        <time>2020-01-17T12:03:38Z</time>
      </trkpt>
      <trkpt lat="39.87059" lon="-0.511233">
        <ele>477.719</ele>
        <time>2020-01-17T12:03:40Z</time>
      </trkpt>
      <trkpt lat="39.870513" lon="-0.511301">
        <ele>478.469</ele>
        <time>2020-01-17T12:03:42Z</time>
      </trkpt>
      <trkpt lat="39.870451" lon="-0.511338">
        <ele>479.339</ele>
        <time>2020-01-17T12:03:43Z</time>
      </trkpt>
      <trkpt lat="39.870352" lon="-0.51141">
        <ele>478.987</ele>
        <time>2020-01-17T12:03:45Z</time>
      </trkpt>
      <trkpt lat="39.870305" lon="-0.511428">
        <ele>475.375</ele>
        <time>2020-01-17T12:03:46Z</time>
      </trkpt>
      <trkpt lat="39.870207" lon="-0.511497">
        <ele>473.34</ele>
        <time>2020-01-17T12:03:48Z</time>
      </trkpt>
      <trkpt lat="39.870167" lon="-0.511565">
        <ele>473.282</ele>
        <time>2020-01-17T12:03:50Z</time>
      </trkpt>
      <trkpt lat="39.870119" lon="-0.511637">
        <ele>477.09</ele>
        <time>2020-01-17T12:03:52Z</time>
      </trkpt>
      <trkpt lat="39.870017" lon="-0.511679">
        <ele>477.117</ele>
        <time>2020-01-17T12:03:54Z</time>
      </trkpt>
      <trkpt lat="39.869981" lon="-0.511696">
        <ele>477.054</ele>
        <time>2020-01-17T12:03:56Z</time>
      </trkpt>
      <trkpt lat="39.869934" lon="-0.511717">
        <ele>478.632</ele>
        <time>2020-01-17T12:03:58Z</time>
      </trkpt>
      <trkpt lat="39.869861" lon="-0.511727">
        <ele>478.651</ele>
        <time>2020-01-17T12:03:59Z</time>
      </trkpt>
      <trkpt lat="39.869549" lon="-0.511932">
        <ele>480.664</ele>
        <time>2020-01-17T12:04:03Z</time>
      </trkpt>
      <trkpt lat="39.86951" lon="-0.511978">
        <ele>481.537</ele>
        <time>2020-01-17T12:04:04Z</time>
      </trkpt>
      <trkpt lat="39.869371" lon="-0.512035">
        <ele>482.918</ele>
        <time>2020-01-17T12:04:07Z</time>
      </trkpt>
      <trkpt lat="39.869324" lon="-0.512074">
        <ele>483.853</ele>
        <time>2020-01-17T12:04:09Z</time>
      </trkpt>
      <trkpt lat="39.869268" lon="-0.512066">
        <ele>483.61</ele>
        <time>2020-01-17T12:04:11Z</time>
      </trkpt>
      <trkpt lat="39.86924" lon="-0.512064">
        <ele>480.753</ele>
        <time>2020-01-17T12:04:12Z</time>
      </trkpt>
      <trkpt lat="39.869208" lon="-0.512063">
        <ele>480.975</ele>
        <time>2020-01-17T12:04:13Z</time>
      </trkpt>
      <trkpt lat="39.869147" lon="-0.512059">
        <ele>480.181</ele>
        <time>2020-01-17T12:04:15Z</time>
      </trkpt>
      <trkpt lat="39.869101" lon="-0.512046">
        <ele>480.246</ele>
        <time>2020-01-17T12:04:17Z</time>
      </trkpt>
      <trkpt lat="39.86901" lon="-0.512066">
        <ele>481.077</ele>
        <time>2020-01-17T12:04:23Z</time>
      </trkpt>
      <trkpt lat="39.868951" lon="-0.512082">
        <ele>480.432</ele>
        <time>2020-01-17T12:04:25Z</time>
      </trkpt>
      <trkpt lat="39.868909" lon="-0.512093">
        <ele>481.325</ele>
        <time>2020-01-17T12:04:26Z</time>
      </trkpt>
      <trkpt lat="39.868749" lon="-0.512161">
        <ele>482.513</ele>
        <time>2020-01-17T12:04:29Z</time>
      </trkpt>
      <trkpt lat="39.868679" lon="-0.512196">
        <ele>482.213</ele>
        <time>2020-01-17T12:04:31Z</time>
      </trkpt>
      <trkpt lat="39.868608" lon="-0.512212">
        <ele>481.887</ele>
        <time>2020-01-17T12:04:33Z</time>
      </trkpt>
      <trkpt lat="39.868569" lon="-0.512222">
        <ele>484.769</ele>
        <time>2020-01-17T12:04:34Z</time>
      </trkpt>
      <trkpt lat="39.868477" lon="-0.512227">
        <ele>485.068</ele>
        <time>2020-01-17T12:04:36Z</time>
      </trkpt>
      <trkpt lat="39.868421" lon="-0.512235">
        <ele>485.877</ele>
        <time>2020-01-17T12:04:37Z</time>
      </trkpt>
      <trkpt lat="39.868366" lon="-0.512242">
        <ele>486.166</ele>
        <time>2020-01-17T12:04:38Z</time>
      </trkpt>
      <trkpt lat="39.868311" lon="-0.512247">
        <ele>485.895</ele>
        <time>2020-01-17T12:04:39Z</time>
      </trkpt>
      <trkpt lat="39.868192" lon="-0.512257">
        <ele>483.134</ele>
        <time>2020-01-17T12:04:41Z</time>
      </trkpt>
      <trkpt lat="39.868128" lon="-0.512264">
        <ele>479.367</ele>
        <time>2020-01-17T12:04:42Z</time>
      </trkpt>
      <trkpt lat="39.867955" lon="-0.512303">
        <ele>480.599</ele>
        <time>2020-01-17T12:04:45Z</time>
      </trkpt>
      <trkpt lat="39.867851" lon="-0.512332">
        <ele>480.356</ele>
        <time>2020-01-17T12:04:47Z</time>
      </trkpt>
      <trkpt lat="39.867804" lon="-0.512344">
        <ele>480.531</ele>
        <time>2020-01-17T12:04:48Z</time>
      </trkpt>
      <trkpt lat="39.867651" lon="-0.512344">
        <ele>479.494</ele>
        <time>2020-01-17T12:04:51Z</time>
      </trkpt>
      <trkpt lat="39.867597" lon="-0.512335">
        <ele>479.938</ele>
        <time>2020-01-17T12:04:52Z</time>
      </trkpt>
      <trkpt lat="39.86749" lon="-0.512313">
        <ele>480.105</ele>
        <time>2020-01-17T12:04:54Z</time>
      </trkpt>
      <trkpt lat="39.867335" lon="-0.512315">
        <ele>477.342</ele>
        <time>2020-01-17T12:04:57Z</time>
      </trkpt>
      <trkpt lat="39.867289" lon="-0.512312">
        <ele>474.444</ele>
        <time>2020-01-17T12:04:58Z</time>
      </trkpt>
      <trkpt lat="39.867246" lon="-0.512309">
        <ele>474.091</ele>
        <time>2020-01-17T12:04:59Z</time>
      </trkpt>
      <trkpt lat="39.867127" lon="-0.512294">
        <ele>476.518</ele>
        <time>2020-01-17T12:05:02Z</time>
      </trkpt>
      <trkpt lat="39.867019" lon="-0.512333">
        <ele>477.605</ele>
        <time>2020-01-17T12:05:04Z</time>
      </trkpt>
      <trkpt lat="39.866957" lon="-0.512352">
        <ele>478.359</ele>
        <time>2020-01-17T12:05:05Z</time>
      </trkpt>
      <trkpt lat="39.866899" lon="-0.512341">
        <ele>479.176</ele>
        <time>2020-01-17T12:05:06Z</time>
      </trkpt>
      <trkpt lat="39.866781" lon="-0.512293">
        <ele>479.388</ele>
        <time>2020-01-17T12:05:08Z</time>
      </trkpt>
      <trkpt lat="39.866706" lon="-0.512273">
        <ele>481.768</ele>
        <time>2020-01-17T12:05:10Z</time>
      </trkpt>
      <trkpt lat="39.866664" lon="-0.5123">
        <ele>485.521</ele>
        <time>2020-01-17T12:05:11Z</time>
      </trkpt>
      <trkpt lat="39.866618" lon="-0.512317">
        <ele>484.451</ele>
        <time>2020-01-17T12:05:12Z</time>
      </trkpt>
      <trkpt lat="39.866569" lon="-0.51233">
        <ele>486.435</ele>
        <time>2020-01-17T12:05:13Z</time>
      </trkpt>
      <trkpt lat="39.866513" lon="-0.512343">
        <ele>483.773</ele>
        <time>2020-01-17T12:05:14Z</time>
      </trkpt>
      <trkpt lat="39.866335" lon="-0.512385">
        <ele>484.005</ele>
        <time>2020-01-17T12:05:19Z</time>
      </trkpt>
      <trkpt lat="39.866151" lon="-0.512423">
        <ele>477.661</ele>
        <time>2020-01-17T12:05:22Z</time>
      </trkpt>
      <trkpt lat="39.866085" lon="-0.512396">
        <ele>478.865</ele>
        <time>2020-01-17T12:05:24Z</time>
      </trkpt>
      <trkpt lat="39.866025" lon="-0.512489">
        <ele>479.001</ele>
        <time>2020-01-17T12:05:26Z</time>
      </trkpt>
      <trkpt lat="39.865914" lon="-0.512379">
        <ele>477.965</ele>
        <time>2020-01-17T12:05:30Z</time>
      </trkpt>
      <trkpt lat="39.865841" lon="-0.512389">
        <ele>476.113</ele>
        <time>2020-01-17T12:05:32Z</time>
      </trkpt>
      <trkpt lat="39.865716" lon="-0.512406">
        <ele>475.332</ele>
        <time>2020-01-17T12:05:35Z</time>
      </trkpt>
      <trkpt lat="39.865651" lon="-0.512407">
        <ele>478.083</ele>
        <time>2020-01-17T12:05:36Z</time>
      </trkpt>
      <trkpt lat="39.865534" lon="-0.512428">
        <ele>478.638</ele>
        <time>2020-01-17T12:05:38Z</time>
      </trkpt>
      <trkpt lat="39.86543" lon="-0.512443">
        <ele>478.068</ele>
        <time>2020-01-17T12:05:40Z</time>
      </trkpt>
      <trkpt lat="39.864889" lon="-0.512405">
        <ele>477.314</ele>
        <time>2020-01-17T12:05:53Z</time>
      </trkpt>
      <trkpt lat="39.864844" lon="-0.512412">
        <ele>476.807</ele>
        <time>2020-01-17T12:05:55Z</time>
      </trkpt>
      <trkpt lat="39.864758" lon="-0.512433">
        <ele>479.551</ele>
        <time>2020-01-17T12:05:58Z</time>
      </trkpt>
      <trkpt lat="39.864725" lon="-0.512441">
        <ele>479.407</ele>
        <time>2020-01-17T12:05:59Z</time>
      </trkpt>
      <trkpt lat="39.864653" lon="-0.512449">
        <ele>480.584</ele>
        <time>2020-01-17T12:06:01Z</time>
      </trkpt>
      <trkpt lat="39.864616" lon="-0.51245">
        <ele>482.734</ele>
        <time>2020-01-17T12:06:02Z</time>
      </trkpt>
      <trkpt lat="39.864538" lon="-0.512445">
        <ele>481.581</ele>
        <time>2020-01-17T12:06:04Z</time>
      </trkpt>
      <trkpt lat="39.864414" lon="-0.512434">
        <ele>481.297</ele>
        <time>2020-01-17T12:06:07Z</time>
      </trkpt>
      <trkpt lat="39.864327" lon="-0.512422">
        <ele>480.786</ele>
        <time>2020-01-17T12:06:09Z</time>
      </trkpt>
      <trkpt lat="39.86417" lon="-0.512408">
        <ele>480.148</ele>
        <time>2020-01-17T12:06:12Z</time>
      </trkpt>
      <trkpt lat="39.863679" lon="-0.512512">
        <ele>485.681</ele>
        <time>2020-01-17T12:06:16Z</time>
      </trkpt>
      <trkpt lat="39.863527" lon="-0.51256">
        <ele>485.477</ele>
        <time>2020-01-17T12:06:18Z</time>
      </trkpt>
      <trkpt lat="39.863464" lon="-0.512575">
        <ele>485.169</ele>
        <time>2020-01-17T12:06:19Z</time>
      </trkpt>
      <trkpt lat="39.863418" lon="-0.51256">
        <ele>484.291</ele>
        <time>2020-01-17T12:06:21Z</time>
      </trkpt>
      <trkpt lat="39.863331" lon="-0.512556">
        <ele>485.73</ele>
        <time>2020-01-17T12:06:23Z</time>
      </trkpt>
      <trkpt lat="39.863155" lon="-0.51256">
        <ele>486.382</ele>
        <time>2020-01-17T12:06:26Z</time>
      </trkpt>
      <trkpt lat="39.863104" lon="-0.512564">
        <ele>485.507</ele>
        <time>2020-01-17T12:06:27Z</time>
      </trkpt>
      <trkpt lat="39.863057" lon="-0.512571">
        <ele>491.72</ele>
        <time>2020-01-17T12:06:28Z</time>
      </trkpt>
      <trkpt lat="39.863011" lon="-0.512576">
        <ele>492.456</ele>
        <time>2020-01-17T12:06:29Z</time>
      </trkpt>
      <trkpt lat="39.862924" lon="-0.512567">
        <ele>494.86</ele>
        <time>2020-01-17T12:06:31Z</time>
      </trkpt>
      <trkpt lat="39.862876" lon="-0.512557">
        <ele>494.342</ele>
        <time>2020-01-17T12:06:32Z</time>
      </trkpt>
      <trkpt lat="39.862852" lon="-0.512494">
        <ele>495.28</ele>
        <time>2020-01-17T12:06:33Z</time>
      </trkpt>
      <trkpt lat="39.862773" lon="-0.51254">
        <ele>495.616</ele>
        <time>2020-01-17T12:06:34Z</time>
      </trkpt>
      <trkpt lat="39.862723" lon="-0.512543">
        <ele>494.218</ele>
        <time>2020-01-17T12:06:35Z</time>
      </trkpt>
      <trkpt lat="39.862668" lon="-0.512543">
        <ele>488.577</ele>
        <time>2020-01-17T12:06:36Z</time>
      </trkpt>
      <trkpt lat="39.862499" lon="-0.512485">
        <ele>487.299</ele>
        <time>2020-01-17T12:06:39Z</time>
      </trkpt>
      <trkpt lat="39.86244" lon="-0.512465">
        <ele>487.066</ele>
        <time>2020-01-17T12:06:40Z</time>
      </trkpt>
      <trkpt lat="39.862297" lon="-0.512419">
        <ele>487.252</ele>
        <time>2020-01-17T12:06:43Z</time>
      </trkpt>
      <trkpt lat="39.862246" lon="-0.512384">
        <ele>485.784</ele>
        <time>2020-01-17T12:06:44Z</time>
      </trkpt>
      <trkpt lat="39.862106" lon="-0.512299">
        <ele>487.404</ele>
        <time>2020-01-17T12:06:48Z</time>
      </trkpt>
      <trkpt lat="39.862063" lon="-0.512261">
        <ele>487.072</ele>
        <time>2020-01-17T12:06:50Z</time>
      </trkpt>
      <trkpt lat="39.861971" lon="-0.512212">
        <ele>480.456</ele>
        <time>2020-01-17T12:06:53Z</time>
      </trkpt>
      <trkpt lat="39.861896" lon="-0.512173">
        <ele>477.624</ele>
        <time>2020-01-17T12:06:55Z</time>
      </trkpt>
      <trkpt lat="39.861392" lon="-0.512781">
        <ele>474.257</ele>
        <time>2020-01-17T12:07:02Z</time>
      </trkpt>
      <trkpt lat="39.86135" lon="-0.512848">
        <ele>471.322</ele>
        <time>2020-01-17T12:07:03Z</time>
      </trkpt>
      <trkpt lat="39.8613" lon="-0.512877">
        <ele>472.982</ele>
        <time>2020-01-17T12:07:04Z</time>
      </trkpt>
      <trkpt lat="39.861251" lon="-0.512978">
        <ele>474.021</ele>
        <time>2020-01-17T12:07:05Z</time>
      </trkpt>
      <trkpt lat="39.861228" lon="-0.513024">
        <ele>475.035</ele>
        <time>2020-01-17T12:07:06Z</time>
      </trkpt>
      <trkpt lat="39.861174" lon="-0.51307">
        <ele>474.847</ele>
        <time>2020-01-17T12:07:08Z</time>
      </trkpt>
      <trkpt lat="39.861108" lon="-0.513132">
        <ele>474.165</ele>
        <time>2020-01-17T12:07:10Z</time>
      </trkpt>
      <trkpt lat="39.861072" lon="-0.5132">
        <ele>474.0</ele>
        <time>2020-01-17T12:07:12Z</time>
      </trkpt>
      <trkpt lat="39.861026" lon="-0.513271">
        <ele>475.134</ele>
        <time>2020-01-17T12:07:15Z</time>
      </trkpt>
      <trkpt lat="39.860954" lon="-0.513344">
        <ele>474.632</ele>
        <time>2020-01-17T12:07:17Z</time>
      </trkpt>
      <trkpt lat="39.860913" lon="-0.513423">
        <ele>475.118</ele>
        <time>2020-01-17T12:07:19Z</time>
      </trkpt>
      <trkpt lat="39.860895" lon="-0.513464">
        <ele>475.699</ele>
        <time>2020-01-17T12:07:20Z</time>
      </trkpt>
      <trkpt lat="39.860877" lon="-0.513499">
        <ele>477.975</ele>
        <time>2020-01-17T12:07:21Z</time>
      </trkpt>
      <trkpt lat="39.860863" lon="-0.513526">
        <ele>477.052</ele>
        <time>2020-01-17T12:07:22Z</time>
      </trkpt>
      <trkpt lat="39.860842" lon="-0.513567">
        <ele>477.973</ele>
        <time>2020-01-17T12:07:24Z</time>
      </trkpt>
      <trkpt lat="39.860826" lon="-0.513659">
        <ele>477.938</ele>
        <time>2020-01-17T12:07:29Z</time>
      </trkpt>
      <trkpt lat="39.860819" lon="-0.513688">
        <ele>476.792</ele>
        <time>2020-01-17T12:07:30Z</time>
      </trkpt>
      <trkpt lat="39.860771" lon="-0.513807">
        <ele>477.469</ele>
        <time>2020-01-17T12:07:33Z</time>
      </trkpt>
      <trkpt lat="39.860751" lon="-0.513855">
        <ele>477.592</ele>
        <time>2020-01-17T12:07:34Z</time>
      </trkpt>
      <trkpt lat="39.86073" lon="-0.5139">
        <ele>477.222</ele>
        <time>2020-01-17T12:07:35Z</time>
      </trkpt>
      <trkpt lat="39.860718" lon="-0.51393">
        <ele>477.639</ele>
        <time>2020-01-17T12:07:36Z</time>
      </trkpt>
      <trkpt lat="39.860705" lon="-0.513966">
        <ele>477.124</ele>
        <time>2020-01-17T12:07:38Z</time>
      </trkpt>
      <trkpt lat="39.860684" lon="-0.514015">
        <ele>474.94</ele>
        <time>2020-01-17T12:07:40Z</time>
      </trkpt>
      <trkpt lat="39.860667" lon="-0.514134">
        <ele>474.459</ele>
        <time>2020-01-17T12:07:43Z</time>
      </trkpt>
      <trkpt lat="39.860639" lon="-0.514229">
        <ele>474.194</ele>
        <time>2020-01-17T12:07:45Z</time>
      </trkpt>
      <trkpt lat="39.860618" lon="-0.514297">
        <ele>473.929</ele>
        <time>2020-01-17T12:07:46Z</time>
      </trkpt>
      <trkpt lat="39.860588" lon="-0.514377">
        <ele>474.02</ele>
        <time>2020-01-17T12:07:47Z</time>
      </trkpt>
      <trkpt lat="39.860433" lon="-0.514649">
        <ele>474.434</ele>
        <time>2020-01-17T12:07:49Z</time>
      </trkpt>
      <trkpt lat="39.860386" lon="-0.514697">
        <ele>474.0</ele>
        <time>2020-01-17T12:07:50Z</time>
      </trkpt>
      <trkpt lat="39.860353" lon="-0.514746">
        <ele>474.135</ele>
        <time>2020-01-17T12:07:51Z</time>
      </trkpt>
      <trkpt lat="39.860303" lon="-0.51484">
        <ele>474.448</ele>
        <time>2020-01-17T12:07:53Z</time>
      </trkpt>
      <trkpt lat="39.860263" lon="-0.514939">
        <ele>474.769</ele>
        <time>2020-01-17T12:07:55Z</time>
      </trkpt>
      <trkpt lat="39.860245" lon="-0.514982">
        <ele>474.538</ele>
        <time>2020-01-17T12:07:56Z</time>
      </trkpt>
      <trkpt lat="39.86014" lon="-0.515126">
        <ele>474.291</ele>
        <time>2020-01-17T12:07:59Z</time>
      </trkpt>
      <trkpt lat="39.860101" lon="-0.515177">
        <ele>475.192</ele>
        <time>2020-01-17T12:08:00Z</time>
      </trkpt>
      <trkpt lat="39.860062" lon="-0.515224">
        <ele>475.522</ele>
        <time>2020-01-17T12:08:01Z</time>
      </trkpt>
      <trkpt lat="39.860033" lon="-0.515271">
        <ele>475.68</ele>
        <time>2020-01-17T12:08:02Z</time>
      </trkpt>
      <trkpt lat="39.860002" lon="-0.515315">
        <ele>475.52</ele>
        <time>2020-01-17T12:08:03Z</time>
      </trkpt>
      <trkpt lat="39.859971" lon="-0.515362">
        <ele>475.362</ele>
        <time>2020-01-17T12:08:04Z</time>
      </trkpt>
      <trkpt lat="39.859931" lon="-0.515415">
        <ele>474.634</ele>
        <time>2020-01-17T12:08:05Z</time>
      </trkpt>
      <trkpt lat="39.859886" lon="-0.515465">
        <ele>474.018</ele>
        <time>2020-01-17T12:08:06Z</time>
      </trkpt>
      <trkpt lat="39.859854" lon="-0.515508">
        <ele>474.107</ele>
        <time>2020-01-17T12:08:07Z</time>
      </trkpt>
      <trkpt lat="39.859814" lon="-0.515552">
        <ele>474.618</ele>
        <time>2020-01-17T12:08:08Z</time>
      </trkpt>
      <trkpt lat="39.859761" lon="-0.515634">
        <ele>474.98</ele>
        <time>2020-01-17T12:08:10Z</time>
      </trkpt>
      <trkpt lat="39.859658" lon="-0.515725">
        <ele>473.036</ele>
        <time>2020-01-17T12:08:12Z</time>
      </trkpt>
      <trkpt lat="39.859595" lon="-0.515763">
        <ele>473.31</ele>
        <time>2020-01-17T12:08:13Z</time>
      </trkpt>
      <trkpt lat="39.85955" lon="-0.515815">
        <ele>473.438</ele>
        <time>2020-01-17T12:08:14Z</time>
      </trkpt>
      <trkpt lat="39.859493" lon="-0.51587">
        <ele>474.106</ele>
        <time>2020-01-17T12:08:15Z</time>
      </trkpt>
      <trkpt lat="39.859435" lon="-0.515914">
        <ele>474.634</ele>
        <time>2020-01-17T12:08:16Z</time>
      </trkpt>
      <trkpt lat="39.859216" lon="-0.516039">
        <ele>475.485</ele>
        <time>2020-01-17T12:08:20Z</time>
      </trkpt>
      <trkpt lat="39.859168" lon="-0.516059">
        <ele>477.012</ele>
        <time>2020-01-17T12:08:21Z</time>
      </trkpt>
      <trkpt lat="39.859135" lon="-0.5161">
        <ele>476.0</ele>
        <time>2020-01-17T12:08:22Z</time>
      </trkpt>
      <trkpt lat="39.859084" lon="-0.516134">
        <ele>476.832</ele>
        <time>2020-01-17T12:08:23Z</time>
      </trkpt>
      <trkpt lat="39.858997" lon="-0.516182">
        <ele>478.232</ele>
        <time>2020-01-17T12:08:25Z</time>
      </trkpt>
      <trkpt lat="39.858937" lon="-0.516187">
        <ele>479.129</ele>
        <time>2020-01-17T12:08:26Z</time>
      </trkpt>
      <trkpt lat="39.85889" lon="-0.516201">
        <ele>478.338</ele>
        <time>2020-01-17T12:08:27Z</time>
      </trkpt>
      <trkpt lat="39.858842" lon="-0.516237">
        <ele>475.951</ele>
        <time>2020-01-17T12:08:28Z</time>
      </trkpt>
      <trkpt lat="39.858735" lon="-0.516273">
        <ele>476.286</ele>
        <time>2020-01-17T12:08:30Z</time>
      </trkpt>
      <trkpt lat="39.858685" lon="-0.516274">
        <ele>475.909</ele>
        <time>2020-01-17T12:08:31Z</time>
      </trkpt>
      <trkpt lat="39.858625" lon="-0.516262">
        <ele>474.686</ele>
        <time>2020-01-17T12:08:32Z</time>
      </trkpt>
      <trkpt lat="39.858573" lon="-0.516277">
        <ele>474.489</ele>
        <time>2020-01-17T12:08:33Z</time>
      </trkpt>
      <trkpt lat="39.858525" lon="-0.51631">
        <ele>474.985</ele>
        <time>2020-01-17T12:08:34Z</time>
      </trkpt>
      <trkpt lat="39.858469" lon="-0.516309">
        <ele>474.506</ele>
        <time>2020-01-17T12:08:38Z</time>
      </trkpt>
      <trkpt lat="39.858412" lon="-0.516288">
        <ele>474.534</ele>
        <time>2020-01-17T12:08:42Z</time>
      </trkpt>
      <trkpt lat="39.858343" lon="-0.516277">
        <ele>470.419</ele>
        <time>2020-01-17T12:08:45Z</time>
      </trkpt>
      <trkpt lat="39.858289" lon="-0.51628">
        <ele>470.687</ele>
        <time>2020-01-17T12:08:47Z</time>
      </trkpt>
      <trkpt lat="39.858225" lon="-0.516298">
        <ele>468.081</ele>
        <time>2020-01-17T12:08:49Z</time>
      </trkpt>
      <trkpt lat="39.858178" lon="-0.516312">
        <ele>467.988</ele>
        <time>2020-01-17T12:08:50Z</time>
      </trkpt>
      <trkpt lat="39.858124" lon="-0.516324">
        <ele>470.169</ele>
        <time>2020-01-17T12:08:51Z</time>
      </trkpt>
      <trkpt lat="39.857499" lon="-0.51644">
        <ele>470.967</ele>
        <time>2020-01-17T12:08:56Z</time>
      </trkpt>
      <trkpt lat="39.857445" lon="-0.51648">
        <ele>472.704</ele>
        <time>2020-01-17T12:08:57Z</time>
      </trkpt>
      <trkpt lat="39.85734" lon="-0.516538">
        <ele>472.901</ele>
        <time>2020-01-17T12:08:59Z</time>
      </trkpt>
      <trkpt lat="39.857247" lon="-0.516525">
        <ele>473.624</ele>
        <time>2020-01-17T12:09:01Z</time>
      </trkpt>
      <trkpt lat="39.857189" lon="-0.516561">
        <ele>473.946</ele>
        <time>2020-01-17T12:09:02Z</time>
      </trkpt>
      <trkpt lat="39.857141" lon="-0.516592">
        <ele>475.743</ele>
        <time>2020-01-17T12:09:03Z</time>
      </trkpt>
      <trkpt lat="39.857101" lon="-0.516617">
        <ele>476.583</ele>
        <time>2020-01-17T12:09:04Z</time>
      </trkpt>
      <trkpt lat="39.857051" lon="-0.516633">
        <ele>475.805</ele>
        <time>2020-01-17T12:09:05Z</time>
      </trkpt>
      <trkpt lat="39.856958" lon="-0.516643">
        <ele>477.332</ele>
        <time>2020-01-17T12:09:07Z</time>
      </trkpt>
      <trkpt lat="39.85682" lon="-0.516657">
        <ele>476.319</ele>
        <time>2020-01-17T12:09:10Z</time>
      </trkpt>
      <trkpt lat="39.856692" lon="-0.516712">
        <ele>477.311</ele>
        <time>2020-01-17T12:09:13Z</time>
      </trkpt>
      <trkpt lat="39.856644" lon="-0.516724">
        <ele>476.803</ele>
        <time>2020-01-17T12:09:14Z</time>
      </trkpt>
      <trkpt lat="39.856594" lon="-0.516728">
        <ele>476.379</ele>
        <time>2020-01-17T12:09:15Z</time>
      </trkpt>
      <trkpt lat="39.856557" lon="-0.516735">
        <ele>475.918</ele>
        <time>2020-01-17T12:09:16Z</time>
      </trkpt>
      <trkpt lat="39.856482" lon="-0.516749">
        <ele>476.202</ele>
        <time>2020-01-17T12:09:18Z</time>
      </trkpt>
      <trkpt lat="39.856418" lon="-0.516771">
        <ele>474.159</ele>
        <time>2020-01-17T12:09:20Z</time>
      </trkpt>
      <trkpt lat="39.856375" lon="-0.516796">
        <ele>474.032</ele>
        <time>2020-01-17T12:09:21Z</time>
      </trkpt>
      <trkpt lat="39.856302" lon="-0.516808">
        <ele>472.763</ele>
        <time>2020-01-17T12:09:23Z</time>
      </trkpt>
      <trkpt lat="39.856249" lon="-0.51683">
        <ele>473.055</ele>
        <time>2020-01-17T12:09:24Z</time>
      </trkpt>
      <trkpt lat="39.856196" lon="-0.516855">
        <ele>473.715</ele>
        <time>2020-01-17T12:09:25Z</time>
      </trkpt>
      <trkpt lat="39.856141" lon="-0.516838">
        <ele>473.889</ele>
        <time>2020-01-17T12:09:26Z</time>
      </trkpt>
      <trkpt lat="39.856094" lon="-0.51684">
        <ele>474.553</ele>
        <time>2020-01-17T12:09:27Z</time>
      </trkpt>
      <trkpt lat="39.855977" lon="-0.516859">
        <ele>473.718</ele>
        <time>2020-01-17T12:09:29Z</time>
      </trkpt>
      <trkpt lat="39.855721" lon="-0.516872">
        <ele>473.311</ele>
        <time>2020-01-17T12:09:34Z</time>
      </trkpt>
      <trkpt lat="39.855677" lon="-0.516885">
        <ele>473.297</ele>
        <time>2020-01-17T12:09:35Z</time>
      </trkpt>
      <trkpt lat="39.855595" lon="-0.516902">
        <ele>471.948</ele>
        <time>2020-01-17T12:09:37Z</time>
      </trkpt>
      <trkpt lat="39.85553" lon="-0.516916">
        <ele>472.005</ele>
        <time>2020-01-17T12:09:38Z</time>
      </trkpt>
      <trkpt lat="39.855489" lon="-0.516927">
        <ele>471.976</ele>
        <time>2020-01-17T12:09:39Z</time>
      </trkpt>
      <trkpt lat="39.855449" lon="-0.516935">
        <ele>471.474</ele>
        <time>2020-01-17T12:09:40Z</time>
      </trkpt>
      <trkpt lat="39.855366" lon="-0.516944">
        <ele>469.567</ele>
        <time>2020-01-17T12:09:42Z</time>
      </trkpt>
      <trkpt lat="39.855318" lon="-0.516935">
        <ele>469.797</ele>
        <time>2020-01-17T12:09:43Z</time>
      </trkpt>
      <trkpt lat="39.855216" lon="-0.516965">
        <ele>469.714</ele>
        <time>2020-01-17T12:09:45Z</time>
      </trkpt>
      <trkpt lat="39.855169" lon="-0.516973">
        <ele>467.449</ele>
        <time>2020-01-17T12:09:46Z</time>
      </trkpt>
      <trkpt lat="39.855124" lon="-0.516993">
        <ele>467.343</ele>
        <time>2020-01-17T12:09:47Z</time>
      </trkpt>
      <trkpt lat="39.854991" lon="-0.517021">
        <ele>468.407</ele>
        <time>2020-01-17T12:09:50Z</time>
      </trkpt>
      <trkpt lat="39.854954" lon="-0.517026">
        <ele>467.068</ele>
        <time>2020-01-17T12:09:51Z</time>
      </trkpt>
      <trkpt lat="39.854903" lon="-0.517035">
        <ele>468.235</ele>
        <time>2020-01-17T12:09:52Z</time>
      </trkpt>
      <trkpt lat="39.854851" lon="-0.517035">
        <ele>466.752</ele>
        <time>2020-01-17T12:09:53Z</time>
      </trkpt>
      <trkpt lat="39.854799" lon="-0.517033">
        <ele>469.47</ele>
        <time>2020-01-17T12:09:55Z</time>
      </trkpt>
      <trkpt lat="39.854753" lon="-0.517006">
        <ele>467.125</ele>
        <time>2020-01-17T12:09:59Z</time>
      </trkpt>
      <trkpt lat="39.85452" lon="-0.517057">
        <ele>467.432</ele>
        <time>2020-01-17T12:10:04Z</time>
      </trkpt>
      <trkpt lat="39.854472" lon="-0.517135">
        <ele>467.473</ele>
        <time>2020-01-17T12:10:07Z</time>
      </trkpt>
      <trkpt lat="39.854472" lon="-0.517135">
        <ele>465.774</ele>
        <time>2020-01-17T12:10:15Z</time>
      </trkpt>
      <trkpt lat="39.854472" lon="-0.517135">
        <ele>464.904</ele>
        <time>2020-01-17T12:11:26Z</time>
      </trkpt>
      <trkpt lat="39.854198" lon="-0.517123">
        <ele>468.732</ele>
        <time>2020-01-17T12:11:26Z</time>
      </trkpt>
      <trkpt lat="39.85361" lon="-0.517208">
        <ele>468.493</ele>
        <time>2020-01-17T12:11:32Z</time>
      </trkpt>
      <trkpt lat="39.853564" lon="-0.517218">
        <ele>471.239</ele>
        <time>2020-01-17T12:11:35Z</time>
      </trkpt>
      <trkpt lat="39.853511" lon="-0.517205">
        <ele>470.323</ele>
        <time>2020-01-17T12:11:38Z</time>
      </trkpt>
      <trkpt lat="39.853487" lon="-0.517201">
        <ele>470.009</ele>
        <time>2020-01-17T12:11:39Z</time>
      </trkpt>
      <trkpt lat="39.853429" lon="-0.517201">
        <ele>469.354</ele>
        <time>2020-01-17T12:11:41Z</time>
      </trkpt>
      <trkpt lat="39.853395" lon="-0.517203">
        <ele>468.274</ele>
        <time>2020-01-17T12:11:42Z</time>
      </trkpt>
      <trkpt lat="39.852776" lon="-0.517391">
        <ele>478.597</ele>
        <time>2020-01-17T12:11:47Z</time>
      </trkpt>
      <trkpt lat="39.852674" lon="-0.517412">
        <ele>478.88</ele>
        <time>2020-01-17T12:11:49Z</time>
      </trkpt>
      <trkpt lat="39.852551" lon="-0.517439">
        <ele>477.64</ele>
        <time>2020-01-17T12:11:52Z</time>
      </trkpt>
      <trkpt lat="39.852497" lon="-0.517441">
        <ele>478.238</ele>
        <time>2020-01-17T12:11:53Z</time>
      </trkpt>
      <trkpt lat="39.852452" lon="-0.517438">
        <ele>475.044</ele>
        <time>2020-01-17T12:11:54Z</time>
      </trkpt>
      <trkpt lat="39.852389" lon="-0.517454">
        <ele>474.74</ele>
        <time>2020-01-17T12:11:56Z</time>
      </trkpt>
      <trkpt lat="39.85234" lon="-0.517449">
        <ele>472.816</ele>
        <time>2020-01-17T12:11:57Z</time>
      </trkpt>
      <trkpt lat="39.852405" lon="-0.51738">
        <ele>473.464</ele>
        <time>2020-01-17T12:12:36Z</time>
      </trkpt>
      <trkpt lat="39.852463" lon="-0.517365">
        <ele>474.36</ele>
        <time>2020-01-17T12:12:38Z</time>
      </trkpt>
      <trkpt lat="39.852505" lon="-0.517344">
        <ele>473.954</ele>
        <time>2020-01-17T12:12:40Z</time>
      </trkpt>
      <trkpt lat="39.852526" lon="-0.517333">
        <ele>473.954</ele>
        <time>2020-01-17T12:12:41Z</time>
      </trkpt>
      <trkpt lat="39.85258" lon="-0.517339">
        <ele>468.581</ele>
        <time>2020-01-17T12:12:43Z</time>
      </trkpt>
      <trkpt lat="39.852605" lon="-0.517339">
        <ele>463.781</ele>
        <time>2020-01-17T12:12:44Z</time>
      </trkpt>
      <trkpt lat="39.852681" lon="-0.517345">
        <ele>462.253</ele>
        <time>2020-01-17T12:12:47Z</time>
      </trkpt>
      <trkpt lat="39.852738" lon="-0.517346">
        <ele>460.252</ele>
        <time>2020-01-17T12:12:49Z</time>
      </trkpt>
      <trkpt lat="39.85277" lon="-0.51735">
        <ele>462.723</ele>
        <time>2020-01-17T12:12:50Z</time>
      </trkpt>
      <trkpt lat="39.853074" lon="-0.517294">
        <ele>461.544</ele>
        <time>2020-01-17T12:12:53Z</time>
      </trkpt>
      <trkpt lat="39.853074" lon="-0.517294">
        <ele>461.47</ele>
        <time>2020-01-17T12:12:59Z</time>
      </trkpt>
      <trkpt lat="39.853074" lon="-0.517294">
        <ele>462.2</ele>
        <time>2020-01-17T12:12:59Z</time>
      </trkpt>
      <trkpt lat="39.853074" lon="-0.517294">
        <ele>467.432</ele>
        <time>2020-01-17T12:13:20Z</time>
      </trkpt>
      <trkpt lat="39.853266" lon="-0.51725">
        <ele>465.42</ele>
        <time>2020-01-17T12:13:20Z</time>
      </trkpt>
      <trkpt lat="39.853459" lon="-0.517193">
        <ele>463.544</ele>
        <time>2020-01-17T12:13:24Z</time>
      </trkpt>
      <trkpt lat="39.853535" lon="-0.517172">
        <ele>463.364</ele>
        <time>2020-01-17T12:13:26Z</time>
      </trkpt>
      <trkpt lat="39.85361" lon="-0.517134">
        <ele>463.759</ele>
        <time>2020-01-17T12:13:28Z</time>
      </trkpt>
      <trkpt lat="39.85368" lon="-0.517098">
        <ele>463.25</ele>
        <time>2020-01-17T12:13:30Z</time>
      </trkpt>
      <trkpt lat="39.853765" lon="-0.517087">
        <ele>462.88</ele>
        <time>2020-01-17T12:13:32Z</time>
      </trkpt>
      <trkpt lat="39.8538" lon="-0.517082">
        <ele>462.677</ele>
        <time>2020-01-17T12:13:33Z</time>
      </trkpt>
      <trkpt lat="39.853882" lon="-0.517081">
        <ele>462.767</ele>
        <time>2020-01-17T12:13:35Z</time>
      </trkpt>
      <trkpt lat="39.853943" lon="-0.517077">
        <ele>466.313</ele>
        <time>2020-01-17T12:13:37Z</time>
      </trkpt>
      <trkpt lat="39.854022" lon="-0.517024">
        <ele>466.223</ele>
        <time>2020-01-17T12:13:39Z</time>
      </trkpt>
      <trkpt lat="39.854096" lon="-0.517001">
        <ele>467.314</ele>
        <time>2020-01-17T12:13:42Z</time>
      </trkpt>
      <trkpt lat="39.854163" lon="-0.516995">
        <ele>470.506</ele>
        <time>2020-01-17T12:13:47Z</time>
      </trkpt>
      <trkpt lat="39.854203" lon="-0.516989">
        <ele>470.401</ele>
        <time>2020-01-17T12:13:49Z</time>
      </trkpt>
      <trkpt lat="39.854246" lon="-0.516978">
        <ele>470.639</ele>
        <time>2020-01-17T12:13:51Z</time>
      </trkpt>
      <trkpt lat="39.854268" lon="-0.51697">
        <ele>471.4</ele>
        <time>2020-01-17T12:13:52Z</time>
      </trkpt>
      <trkpt lat="39.85429" lon="-0.516963">
        <ele>472.693</ele>
        <time>2020-01-17T12:13:53Z</time>
      </trkpt>
      <trkpt lat="39.854342" lon="-0.516962">
        <ele>471.713</ele>
        <time>2020-01-17T12:13:56Z</time>
      </trkpt>
      <trkpt lat="39.85445" lon="-0.516952">
        <ele>473.343</ele>
        <time>2020-01-17T12:14:02Z</time>
      </trkpt>
      <trkpt lat="39.854476" lon="-0.516949">
        <ele>473.51</ele>
        <time>2020-01-17T12:14:03Z</time>
      </trkpt>
      <trkpt lat="39.854506" lon="-0.516946">
        <ele>473.155</ele>
        <time>2020-01-17T12:14:04Z</time>
      </trkpt>
      <trkpt lat="39.854608" lon="-0.516931">
        <ele>475.058</ele>
        <time>2020-01-17T12:14:07Z</time>
      </trkpt>
      <trkpt lat="39.854694" lon="-0.516927">
        <ele>475.474</ele>
        <time>2020-01-17T12:14:09Z</time>
      </trkpt>
      <trkpt lat="39.854743" lon="-0.516927">
        <ele>476.341</ele>
        <time>2020-01-17T12:14:10Z</time>
      </trkpt>
      <trkpt lat="39.854792" lon="-0.516923">
        <ele>476.922</ele>
        <time>2020-01-17T12:14:11Z</time>
      </trkpt>
      <trkpt lat="39.854901" lon="-0.516902">
        <ele>477.111</ele>
        <time>2020-01-17T12:14:13Z</time>
      </trkpt>
      <trkpt lat="39.85509" lon="-0.516865">
        <ele>477.96</ele>
        <time>2020-01-17T12:14:16Z</time>
      </trkpt>
      <trkpt lat="39.855311" lon="-0.516857">
        <ele>480.224</ele>
        <time>2020-01-17T12:14:20Z</time>
      </trkpt>
      <trkpt lat="39.855474" lon="-0.516868">
        <ele>480.726</ele>
        <time>2020-01-17T12:14:23Z</time>
      </trkpt>
      <trkpt lat="39.855562" lon="-0.516853">
        <ele>480.241</ele>
        <time>2020-01-17T12:14:25Z</time>
      </trkpt>
      <trkpt lat="39.855608" lon="-0.516838">
        <ele>479.683</ele>
        <time>2020-01-17T12:14:26Z</time>
      </trkpt>
      <trkpt lat="39.855662" lon="-0.516822">
        <ele>474.679</ele>
        <time>2020-01-17T12:14:27Z</time>
      </trkpt>
      <trkpt lat="39.855715" lon="-0.516811">
        <ele>478.15</ele>
        <time>2020-01-17T12:14:28Z</time>
      </trkpt>
      <trkpt lat="39.85577" lon="-0.516806">
        <ele>475.657</ele>
        <time>2020-01-17T12:14:29Z</time>
      </trkpt>
      <trkpt lat="39.85583" lon="-0.516821">
        <ele>472.782</ele>
        <time>2020-01-17T12:14:30Z</time>
      </trkpt>
      <trkpt lat="39.855889" lon="-0.516833">
        <ele>473.889</ele>
        <time>2020-01-17T12:14:31Z</time>
      </trkpt>
      <trkpt lat="39.856" lon="-0.516851">
        <ele>479.26</ele>
        <time>2020-01-17T12:14:33Z</time>
      </trkpt>
      <trkpt lat="39.856048" lon="-0.516839">
        <ele>478.314</ele>
        <time>2020-01-17T12:14:34Z</time>
      </trkpt>
      <trkpt lat="39.856111" lon="-0.516805">
        <ele>480.182</ele>
        <time>2020-01-17T12:14:36Z</time>
      </trkpt>
      <trkpt lat="39.856141" lon="-0.51679">
        <ele>481.545</ele>
        <time>2020-01-17T12:14:37Z</time>
      </trkpt>
      <trkpt lat="39.85625" lon="-0.516793">
        <ele>481.855</ele>
        <time>2020-01-17T12:14:40Z</time>
      </trkpt>
      <trkpt lat="39.856341" lon="-0.51679">
        <ele>482.567</ele>
        <time>2020-01-17T12:14:42Z</time>
      </trkpt>
      <trkpt lat="39.856388" lon="-0.516782">
        <ele>483.252</ele>
        <time>2020-01-17T12:14:43Z</time>
      </trkpt>
      <trkpt lat="39.856443" lon="-0.51677">
        <ele>482.924</ele>
        <time>2020-01-17T12:14:44Z</time>
      </trkpt>
      <trkpt lat="39.856492" lon="-0.51676">
        <ele>483.686</ele>
        <time>2020-01-17T12:14:45Z</time>
      </trkpt>
      <trkpt lat="39.856622" lon="-0.516714">
        <ele>482.559</ele>
        <time>2020-01-17T12:14:48Z</time>
      </trkpt>
      <trkpt lat="39.856715" lon="-0.516675">
        <ele>481.95</ele>
        <time>2020-01-17T12:14:50Z</time>
      </trkpt>
      <trkpt lat="39.856815" lon="-0.516646">
        <ele>482.142</ele>
        <time>2020-01-17T12:14:52Z</time>
      </trkpt>
      <trkpt lat="39.856872" lon="-0.516629">
        <ele>482.074</ele>
        <time>2020-01-17T12:14:53Z</time>
      </trkpt>
      <trkpt lat="39.856919" lon="-0.516613">
        <ele>483.292</ele>
        <time>2020-01-17T12:14:54Z</time>
      </trkpt>
      <trkpt lat="39.857062" lon="-0.516603">
        <ele>486.016</ele>
        <time>2020-01-17T12:14:57Z</time>
      </trkpt>
      <trkpt lat="39.857142" lon="-0.516572">
        <ele>485.953</ele>
        <time>2020-01-17T12:14:59Z</time>
      </trkpt>
      <trkpt lat="39.857219" lon="-0.516513">
        <ele>486.156</ele>
        <time>2020-01-17T12:15:01Z</time>
      </trkpt>
      <trkpt lat="39.8573" lon="-0.516465">
        <ele>486.654</ele>
        <time>2020-01-17T12:15:03Z</time>
      </trkpt>
      <trkpt lat="39.857334" lon="-0.516423">
        <ele>485.447</ele>
        <time>2020-01-17T12:15:04Z</time>
      </trkpt>
      <trkpt lat="39.857383" lon="-0.516387">
        <ele>486.831</ele>
        <time>2020-01-17T12:15:05Z</time>
      </trkpt>
      <trkpt lat="39.85743" lon="-0.516367">
        <ele>488.904</ele>
        <time>2020-01-17T12:15:06Z</time>
      </trkpt>
      <trkpt lat="39.857475" lon="-0.516366">
        <ele>488.231</ele>
        <time>2020-01-17T12:15:07Z</time>
      </trkpt>
      <trkpt lat="39.857519" lon="-0.516368">
        <ele>486.853</ele>
        <time>2020-01-17T12:15:08Z</time>
      </trkpt>
      <trkpt lat="39.857742" lon="-0.516457">
        <ele>486.888</ele>
        <time>2020-01-17T12:15:12Z</time>
      </trkpt>
      <trkpt lat="39.857839" lon="-0.516413">
        <ele>486.565</ele>
        <time>2020-01-17T12:15:14Z</time>
      </trkpt>
      <trkpt lat="39.857965" lon="-0.516354">
        <ele>486.544</ele>
        <time>2020-01-17T12:15:17Z</time>
      </trkpt>
      <trkpt lat="39.858058" lon="-0.516342">
        <ele>486.293</ele>
        <time>2020-01-17T12:15:19Z</time>
      </trkpt>
      <trkpt lat="39.858105" lon="-0.516344">
        <ele>486.041</ele>
        <time>2020-01-17T12:15:20Z</time>
      </trkpt>
      <trkpt lat="39.858199" lon="-0.516362">
        <ele>485.669</ele>
        <time>2020-01-17T12:15:22Z</time>
      </trkpt>
      <trkpt lat="39.858245" lon="-0.516378">
        <ele>485.855</ele>
        <time>2020-01-17T12:15:23Z</time>
      </trkpt>
      <trkpt lat="39.858324" lon="-0.51638">
        <ele>487.364</ele>
        <time>2020-01-17T12:15:25Z</time>
      </trkpt>
      <trkpt lat="39.858395" lon="-0.516321">
        <ele>486.754</ele>
        <time>2020-01-17T12:15:27Z</time>
      </trkpt>
      <trkpt lat="39.858457" lon="-0.516259">
        <ele>486.259</ele>
        <time>2020-01-17T12:15:29Z</time>
      </trkpt>
      <trkpt lat="39.858565" lon="-0.51619">
        <ele>485.942</ele>
        <time>2020-01-17T12:15:32Z</time>
      </trkpt>
      <trkpt lat="39.858695" lon="-0.516191">
        <ele>485.983</ele>
        <time>2020-01-17T12:15:35Z</time>
      </trkpt>
      <trkpt lat="39.858738" lon="-0.516192">
        <ele>484.988</ele>
        <time>2020-01-17T12:15:36Z</time>
      </trkpt>
      <trkpt lat="39.858783" lon="-0.516194">
        <ele>484.46</ele>
        <time>2020-01-17T12:15:37Z</time>
      </trkpt>
      <trkpt lat="39.858832" lon="-0.516185">
        <ele>484.114</ele>
        <time>2020-01-17T12:15:38Z</time>
      </trkpt>
      <trkpt lat="39.858922" lon="-0.51614">
        <ele>484.022</ele>
        <time>2020-01-17T12:15:40Z</time>
      </trkpt>
      <trkpt lat="39.858963" lon="-0.516113">
        <ele>483.072</ele>
        <time>2020-01-17T12:15:41Z</time>
      </trkpt>
      <trkpt lat="39.859011" lon="-0.516087">
        <ele>479.957</ele>
        <time>2020-01-17T12:15:42Z</time>
      </trkpt>
      <trkpt lat="39.859298" lon="-0.515958">
        <ele>479.634</ele>
        <time>2020-01-17T12:15:47Z</time>
      </trkpt>
      <trkpt lat="39.859331" lon="-0.515913">
        <ele>477.245</ele>
        <time>2020-01-17T12:15:48Z</time>
      </trkpt>
      <trkpt lat="39.859376" lon="-0.515884">
        <ele>477.551</ele>
        <time>2020-01-17T12:15:49Z</time>
      </trkpt>
      <trkpt lat="39.859415" lon="-0.51584">
        <ele>476.92</ele>
        <time>2020-01-17T12:15:50Z</time>
      </trkpt>
      <trkpt lat="39.859441" lon="-0.515807">
        <ele>473.808</ele>
        <time>2020-01-17T12:15:51Z</time>
      </trkpt>
      <trkpt lat="39.859461" lon="-0.515752">
        <ele>473.05</ele>
        <time>2020-01-17T12:15:52Z</time>
      </trkpt>
      <trkpt lat="39.859499" lon="-0.51572">
        <ele>472.331</ele>
        <time>2020-01-17T12:15:53Z</time>
      </trkpt>
      <trkpt lat="39.859539" lon="-0.515688">
        <ele>471.535</ele>
        <time>2020-01-17T12:15:54Z</time>
      </trkpt>
      <trkpt lat="39.859645" lon="-0.515631">
        <ele>472.191</ele>
        <time>2020-01-17T12:15:57Z</time>
      </trkpt>
      <trkpt lat="39.859689" lon="-0.515596">
        <ele>470.335</ele>
        <time>2020-01-17T12:15:58Z</time>
      </trkpt>
      <trkpt lat="39.859771" lon="-0.515556">
        <ele>471.508</ele>
        <time>2020-01-17T12:16:00Z</time>
      </trkpt>
      <trkpt lat="39.859837" lon="-0.515489">
        <ele>471.721</ele>
        <time>2020-01-17T12:16:05Z</time>
      </trkpt>
      <trkpt lat="39.859874" lon="-0.515418">
        <ele>479.273</ele>
        <time>2020-01-17T12:16:08Z</time>
      </trkpt>
      <trkpt lat="39.85989" lon="-0.515393">
        <ele>478.477</ele>
        <time>2020-01-17T12:16:09Z</time>
      </trkpt>
      <trkpt lat="39.859908" lon="-0.515365">
        <ele>479.064</ele>
        <time>2020-01-17T12:16:10Z</time>
      </trkpt>
      <trkpt lat="39.859927" lon="-0.515338">
        <ele>479.646</ele>
        <time>2020-01-17T12:16:11Z</time>
      </trkpt>
      <trkpt lat="39.85995" lon="-0.515308">
        <ele>480.838</ele>
        <time>2020-01-17T12:16:12Z</time>
      </trkpt>
      <trkpt lat="39.859971" lon="-0.515277">
        <ele>482.203</ele>
        <time>2020-01-17T12:16:13Z</time>
      </trkpt>
      <trkpt lat="39.860017" lon="-0.515209">
        <ele>483.721</ele>
        <time>2020-01-17T12:16:15Z</time>
      </trkpt>
      <trkpt lat="39.860159" lon="-0.514975">
        <ele>482.01</ele>
        <time>2020-01-17T12:16:21Z</time>
      </trkpt>
      <trkpt lat="39.860193" lon="-0.514919">
        <ele>479.934</ele>
        <time>2020-01-17T12:16:22Z</time>
      </trkpt>
      <trkpt lat="39.860596" lon="-0.514152">
        <ele>476.63</ele>
        <time>2020-01-17T12:16:29Z</time>
      </trkpt>
      <trkpt lat="39.860619" lon="-0.514038">
        <ele>479.181</ele>
        <time>2020-01-17T12:16:31Z</time>
      </trkpt>
      <trkpt lat="39.860717" lon="-0.513852">
        <ele>479.977</ele>
        <time>2020-01-17T12:16:35Z</time>
      </trkpt>
      <trkpt lat="39.860739" lon="-0.51379">
        <ele>479.611</ele>
        <time>2020-01-17T12:16:36Z</time>
      </trkpt>
      <trkpt lat="39.860769" lon="-0.513746">
        <ele>477.617</ele>
        <time>2020-01-17T12:16:37Z</time>
      </trkpt>
      <trkpt lat="39.860811" lon="-0.513691">
        <ele>477.375</ele>
        <time>2020-01-17T12:16:40Z</time>
      </trkpt>
      <trkpt lat="39.860844" lon="-0.513616">
        <ele>477.134</ele>
        <time>2020-01-17T12:16:42Z</time>
      </trkpt>
      <trkpt lat="39.860862" lon="-0.513552">
        <ele>476.46</ele>
        <time>2020-01-17T12:16:44Z</time>
      </trkpt>
      <trkpt lat="39.860866" lon="-0.513467">
        <ele>476.103</ele>
        <time>2020-01-17T12:16:46Z</time>
      </trkpt>
      <trkpt lat="39.860774" lon="-0.513486">
        <ele>474.134</ele>
        <time>2020-01-17T12:16:50Z</time>
      </trkpt>
      <trkpt lat="39.860629" lon="-0.513696">
        <ele>473.147</ele>
        <time>2020-01-17T12:16:56Z</time>
      </trkpt>
      <trkpt lat="39.860601" lon="-0.513781">
        <ele>472.335</ele>
        <time>2020-01-17T12:16:58Z</time>
      </trkpt>
      <trkpt lat="39.860581" lon="-0.513912">
        <ele>472.702</ele>
        <time>2020-01-17T12:17:01Z</time>
      </trkpt>
      <trkpt lat="39.86054" lon="-0.513982">
        <ele>471.279</ele>
        <time>2020-01-17T12:17:03Z</time>
      </trkpt>
      <trkpt lat="39.860516" lon="-0.514053">
        <ele>470.377</ele>
        <time>2020-01-17T12:17:05Z</time>
      </trkpt>
      <trkpt lat="39.860505" lon="-0.514087">
        <ele>470.379</ele>
        <time>2020-01-17T12:17:06Z</time>
      </trkpt>
      <trkpt lat="39.860477" lon="-0.514142">
        <ele>470.368</ele>
        <time>2020-01-17T12:17:08Z</time>
      </trkpt>
      <trkpt lat="39.860452" lon="-0.514196">
        <ele>469.315</ele>
        <time>2020-01-17T12:17:10Z</time>
      </trkpt>
      <trkpt lat="39.860398" lon="-0.514283">
        <ele>468.967</ele>
        <time>2020-01-17T12:17:13Z</time>
      </trkpt>
      <trkpt lat="39.860377" lon="-0.514314">
        <ele>468.728</ele>
        <time>2020-01-17T12:17:14Z</time>
      </trkpt>
      <trkpt lat="39.860362" lon="-0.514339">
        <ele>467.014</ele>
        <time>2020-01-17T12:17:15Z</time>
      </trkpt>
      <trkpt lat="39.860339" lon="-0.514379">
        <ele>467.074</ele>
        <time>2020-01-17T12:17:17Z</time>
      </trkpt>
      <trkpt lat="39.860325" lon="-0.514404">
        <ele>466.508</ele>
        <time>2020-01-17T12:17:18Z</time>
      </trkpt>
      <trkpt lat="39.860279" lon="-0.514453">
        <ele>465.893</ele>
        <time>2020-01-17T12:17:20Z</time>
      </trkpt>
      <trkpt lat="39.860217" lon="-0.514488">
        <ele>467.898</ele>
        <time>2020-01-17T12:17:22Z</time>
      </trkpt>
      <trkpt lat="39.860157" lon="-0.514493">
        <ele>470.094</ele>
        <time>2020-01-17T12:17:24Z</time>
      </trkpt>
      <trkpt lat="39.860034" lon="-0.514485">
        <ele>467.986</ele>
        <time>2020-01-17T12:17:27Z</time>
      </trkpt>
      <trkpt lat="39.859998" lon="-0.514486">
        <ele>468.395</ele>
        <time>2020-01-17T12:17:28Z</time>
      </trkpt>
      <trkpt lat="39.85993" lon="-0.5145">
        <ele>468.088</ele>
        <time>2020-01-17T12:17:30Z</time>
      </trkpt>
      <trkpt lat="39.859864" lon="-0.514499">
        <ele>467.678</ele>
        <time>2020-01-17T12:17:34Z</time>
      </trkpt>
      <trkpt lat="39.859827" lon="-0.514499">
        <ele>466.874</ele>
        <time>2020-01-17T12:17:36Z</time>
      </trkpt>
      <trkpt lat="39.859801" lon="-0.514496">
        <ele>465.574</ele>
        <time>2020-01-17T12:17:37Z</time>
      </trkpt>
      <trkpt lat="39.859761" lon="-0.514491">
        <ele>464.511</ele>
        <time>2020-01-17T12:17:38Z</time>
      </trkpt>
      <trkpt lat="39.859719" lon="-0.514489">
        <ele>462.332</ele>
        <time>2020-01-17T12:17:39Z</time>
      </trkpt>
      <trkpt lat="39.859677" lon="-0.514488">
        <ele>462.332</ele>
        <time>2020-01-17T12:17:40Z</time>
      </trkpt>
      <trkpt lat="39.859595" lon="-0.514519">
        <ele>463.613</ele>
        <time>2020-01-17T12:17:41Z</time>
      </trkpt>
      <trkpt lat="39.859528" lon="-0.514524">
        <ele>463.868</ele>
        <time>2020-01-17T12:17:43Z</time>
      </trkpt>
      <trkpt lat="39.859458" lon="-0.514531">
        <ele>464.259</ele>
        <time>2020-01-17T12:17:46Z</time>
      </trkpt>
      <trkpt lat="39.859371" lon="-0.514528">
        <ele>464.086</ele>
        <time>2020-01-17T12:17:49Z</time>
      </trkpt>
      <trkpt lat="39.85934" lon="-0.51453">
        <ele>465.43</ele>
        <time>2020-01-17T12:17:50Z</time>
      </trkpt>
      <trkpt lat="39.859287" lon="-0.514544">
        <ele>466.353</ele>
        <time>2020-01-17T12:17:52Z</time>
      </trkpt>
      <trkpt lat="39.859226" lon="-0.514573">
        <ele>465.764</ele>
        <time>2020-01-17T12:17:54Z</time>
      </trkpt>
      <trkpt lat="39.859188" lon="-0.514596">
        <ele>467.231</ele>
        <time>2020-01-17T12:17:56Z</time>
      </trkpt>
      <trkpt lat="39.859188" lon="-0.514596">
        <ele>468.565</ele>
        <time>2020-01-17T12:18:04Z</time>
      </trkpt>
      <trkpt lat="39.859188" lon="-0.514596">
        <ele>468.501</ele>
        <time>2020-01-17T12:18:04Z</time>
      </trkpt>
      <trkpt lat="39.859188" lon="-0.514596">
        <ele>468.556</ele>
        <time>2020-01-17T12:18:25Z</time>
      </trkpt>
      <trkpt lat="39.859003" lon="-0.514711">
        <ele>468.451</ele>
        <time>2020-01-17T12:18:25Z</time>
      </trkpt>
      <trkpt lat="39.858878" lon="-0.514904">
        <ele>469.053</ele>
        <time>2020-01-17T12:18:30Z</time>
      </trkpt>
      <trkpt lat="39.858819" lon="-0.51495">
        <ele>472.171</ele>
        <time>2020-01-17T12:18:33Z</time>
      </trkpt>
      <trkpt lat="39.858828" lon="-0.515024">
        <ele>472.863</ele>
        <time>2020-01-17T12:18:37Z</time>
      </trkpt>
      <trkpt lat="39.858754" lon="-0.515086">
        <ele>474.346</ele>
        <time>2020-01-17T12:18:42Z</time>
      </trkpt>
      <trkpt lat="39.858711" lon="-0.515121">
        <ele>474.019</ele>
        <time>2020-01-17T12:18:46Z</time>
      </trkpt>
      <trkpt lat="39.858682" lon="-0.515144">
        <ele>474.682</ele>
        <time>2020-01-17T12:18:51Z</time>
      </trkpt>
      <trkpt lat="39.858618" lon="-0.515177">
        <ele>474.469</ele>
        <time>2020-01-17T12:18:54Z</time>
      </trkpt>
      <trkpt lat="39.858551" lon="-0.515181">
        <ele>473.397</ele>
        <time>2020-01-17T12:18:57Z</time>
      </trkpt>
      <trkpt lat="39.858526" lon="-0.515184">
        <ele>473.127</ele>
        <time>2020-01-17T12:18:58Z</time>
      </trkpt>
      <trkpt lat="39.858501" lon="-0.515189">
        <ele>471.727</ele>
        <time>2020-01-17T12:18:59Z</time>
      </trkpt>
      <trkpt lat="39.858444" lon="-0.515189">
        <ele>469.302</ele>
        <time>2020-01-17T12:19:02Z</time>
      </trkpt>
      <trkpt lat="39.858398" lon="-0.515199">
        <ele>473.435</ele>
        <time>2020-01-17T12:19:05Z</time>
      </trkpt>
      <trkpt lat="39.858361" lon="-0.515209">
        <ele>473.435</ele>
        <time>2020-01-17T12:19:08Z</time>
      </trkpt>
      <trkpt lat="39.858306" lon="-0.515207">
        <ele>474.558</ele>
        <time>2020-01-17T12:19:13Z</time>
      </trkpt>
      <trkpt lat="39.858273" lon="-0.515203">
        <ele>475.946</ele>
        <time>2020-01-17T12:19:15Z</time>
      </trkpt>
      <trkpt lat="39.858247" lon="-0.515198">
        <ele>460.917</ele>
        <time>2020-01-17T12:19:17Z</time>
      </trkpt>
      <trkpt lat="39.858221" lon="-0.515196">
        <ele>465.367</ele>
        <time>2020-01-17T12:19:19Z</time>
      </trkpt>
      <trkpt lat="39.858151" lon="-0.515213">
        <ele>462.696</ele>
        <time>2020-01-17T12:19:22Z</time>
      </trkpt>
      <trkpt lat="39.858091" lon="-0.515205">
        <ele>464.237</ele>
        <time>2020-01-17T12:19:24Z</time>
      </trkpt>
      <trkpt lat="39.858064" lon="-0.5152">
        <ele>464.159</ele>
        <time>2020-01-17T12:19:25Z</time>
      </trkpt>
      <trkpt lat="39.858035" lon="-0.515193">
        <ele>467.41</ele>
        <time>2020-01-17T12:19:26Z</time>
      </trkpt>
      <trkpt lat="39.85794" lon="-0.515173">
        <ele>467.505</ele>
        <time>2020-01-17T12:19:29Z</time>
      </trkpt>
      <trkpt lat="39.85794" lon="-0.515173">
        <ele>470.374</ele>
        <time>2020-01-17T12:19:35Z</time>
      </trkpt>
      <trkpt lat="39.85794" lon="-0.515173">
        <ele>470.95</ele>
        <time>2020-01-17T12:19:40Z</time>
      </trkpt>
      <trkpt lat="39.857835" lon="-0.515144">
        <ele>469.378</ele>
        <time>2020-01-17T12:19:40Z</time>
      </trkpt>
      <trkpt lat="39.857835" lon="-0.515144">
        <ele>463.293</ele>
        <time>2020-01-17T12:19:47Z</time>
      </trkpt>
      <trkpt lat="39.857835" lon="-0.515144">
        <ele>466.39</ele>
        <time>2020-01-17T12:19:47Z</time>
      </trkpt>
      <trkpt lat="39.857835" lon="-0.515144">
        <ele>465.911</ele>
        <time>2020-01-17T12:21:49Z</time>
      </trkpt>
      <trkpt lat="39.858127" lon="-0.515089">
        <ele>466.078</ele>
        <time>2020-01-17T12:21:49Z</time>
      </trkpt>
      <trkpt lat="39.858182" lon="-0.515102">
        <ele>467.18</ele>
        <time>2020-01-17T12:21:54Z</time>
      </trkpt>
      <trkpt lat="39.858182" lon="-0.515102">
        <ele>464.679</ele>
        <time>2020-01-17T12:22:01Z</time>
      </trkpt>
      <trkpt lat="39.858182" lon="-0.515102">
        <ele>464.585</ele>
        <time>2020-01-17T12:22:25Z</time>
      </trkpt>
      <trkpt lat="39.858262" lon="-0.515136">
        <ele>464.558</ele>
        <time>2020-01-17T12:22:25Z</time>
      </trkpt>
      <trkpt lat="39.858362" lon="-0.51511">
        <ele>465.125</ele>
        <time>2020-01-17T12:22:28Z</time>
      </trkpt>
      <trkpt lat="39.858403" lon="-0.515082">
        <ele>464.578</ele>
        <time>2020-01-17T12:22:30Z</time>
      </trkpt>
      <trkpt lat="39.858493" lon="-0.515072">
        <ele>468.1</ele>
        <time>2020-01-17T12:22:33Z</time>
      </trkpt>
      <trkpt lat="39.858546" lon="-0.515081">
        <ele>463.431</ele>
        <time>2020-01-17T12:22:35Z</time>
      </trkpt>
      <trkpt lat="39.858597" lon="-0.515076">
        <ele>464.48</ele>
        <time>2020-01-17T12:22:38Z</time>
      </trkpt>
      <trkpt lat="39.858628" lon="-0.515075">
        <ele>466.128</ele>
        <time>2020-01-17T12:22:40Z</time>
      </trkpt>
      <trkpt lat="39.858628" lon="-0.515075">
        <ele>465.505</ele>
        <time>2020-01-17T12:22:46Z</time>
      </trkpt>
      <trkpt lat="39.858628" lon="-0.515075">
        <ele>468.427</ele>
        <time>2020-01-17T12:23:10Z</time>
      </trkpt>
      <trkpt lat="39.858759" lon="-0.514966">
        <ele>468.259</ele>
        <time>2020-01-17T12:23:10Z</time>
      </trkpt>
      <trkpt lat="39.858789" lon="-0.514923">
        <ele>468.332</ele>
        <time>2020-01-17T12:23:11Z</time>
      </trkpt>
      <trkpt lat="39.858858" lon="-0.514813">
        <ele>470.42</ele>
        <time>2020-01-17T12:23:14Z</time>
      </trkpt>
      <trkpt lat="39.85891" lon="-0.514766">
        <ele>470.391</ele>
        <time>2020-01-17T12:23:17Z</time>
      </trkpt>
      <trkpt lat="39.85895" lon="-0.514726">
        <ele>469.217</ele>
        <time>2020-01-17T12:23:19Z</time>
      </trkpt>
      <trkpt lat="39.859004" lon="-0.514672">
        <ele>469.531</ele>
        <time>2020-01-17T12:23:20Z</time>
      </trkpt>
      <trkpt lat="39.859025" lon="-0.514612">
        <ele>467.41</ele>
        <time>2020-01-17T12:23:21Z</time>
      </trkpt>
      <trkpt lat="39.85907" lon="-0.514568">
        <ele>467.837</ele>
        <time>2020-01-17T12:23:23Z</time>
      </trkpt>
      <trkpt lat="39.859115" lon="-0.514535">
        <ele>467.703</ele>
        <time>2020-01-17T12:23:25Z</time>
      </trkpt>
      <trkpt lat="39.85916" lon="-0.514492">
        <ele>469.378</ele>
        <time>2020-01-17T12:23:27Z</time>
      </trkpt>
      <trkpt lat="39.859206" lon="-0.514446">
        <ele>470.544</ele>
        <time>2020-01-17T12:23:30Z</time>
      </trkpt>
      <trkpt lat="39.859258" lon="-0.514413">
        <ele>472.019</ele>
        <time>2020-01-17T12:23:33Z</time>
      </trkpt>
      <trkpt lat="39.859283" lon="-0.514395">
        <ele>471.262</ele>
        <time>2020-01-17T12:23:35Z</time>
      </trkpt>
      <trkpt lat="39.859339" lon="-0.514377">
        <ele>467.986</ele>
        <time>2020-01-17T12:23:38Z</time>
      </trkpt>
      <trkpt lat="39.859395" lon="-0.514372">
        <ele>466.484</ele>
        <time>2020-01-17T12:23:41Z</time>
      </trkpt>
      <trkpt lat="39.859461" lon="-0.514378">
        <ele>465.921</ele>
        <time>2020-01-17T12:23:44Z</time>
      </trkpt>
      <trkpt lat="39.859485" lon="-0.514379">
        <ele>468.076</ele>
        <time>2020-01-17T12:23:45Z</time>
      </trkpt>
      <trkpt lat="39.859553" lon="-0.514373">
        <ele>467.269</ele>
        <time>2020-01-17T12:23:48Z</time>
      </trkpt>
      <trkpt lat="39.859602" lon="-0.51437">
        <ele>466.905</ele>
        <time>2020-01-17T12:23:50Z</time>
      </trkpt>
      <trkpt lat="39.859676" lon="-0.514369">
        <ele>468.832</ele>
        <time>2020-01-17T12:23:53Z</time>
      </trkpt>
      <trkpt lat="39.859736" lon="-0.514372">
        <ele>467.976</ele>
        <time>2020-01-17T12:23:55Z</time>
      </trkpt>
      <trkpt lat="39.859766" lon="-0.514372">
        <ele>469.58</ele>
        <time>2020-01-17T12:23:56Z</time>
      </trkpt>
      <trkpt lat="39.859797" lon="-0.514372">
        <ele>468.812</ele>
        <time>2020-01-17T12:23:57Z</time>
      </trkpt>
      <trkpt lat="39.859876" lon="-0.514388">
        <ele>469.431</ele>
        <time>2020-01-17T12:24:00Z</time>
      </trkpt>
      <trkpt lat="39.859925" lon="-0.514413">
        <ele>469.674</ele>
        <time>2020-01-17T12:24:02Z</time>
      </trkpt>
      <trkpt lat="39.859972" lon="-0.514427">
        <ele>469.286</ele>
        <time>2020-01-17T12:24:04Z</time>
      </trkpt>
      <trkpt lat="39.860049" lon="-0.5144">
        <ele>467.734</ele>
        <time>2020-01-17T12:24:08Z</time>
      </trkpt>
      <trkpt lat="39.860107" lon="-0.514395">
        <ele>468.855</ele>
        <time>2020-01-17T12:24:11Z</time>
      </trkpt>
      <trkpt lat="39.860182" lon="-0.514385">
        <ele>468.614</ele>
        <time>2020-01-17T12:24:15Z</time>
      </trkpt>
      <trkpt lat="39.860219" lon="-0.514383">
        <ele>469.812</ele>
        <time>2020-01-17T12:24:17Z</time>
      </trkpt>
      <trkpt lat="39.860282" lon="-0.514384">
        <ele>469.812</ele>
        <time>2020-01-17T12:24:20Z</time>
      </trkpt>
      <trkpt lat="39.86033" lon="-0.514368">
        <ele>470.825</ele>
        <time>2020-01-17T12:24:23Z</time>
      </trkpt>
      <trkpt lat="39.860365" lon="-0.514325">
        <ele>470.238</ele>
        <time>2020-01-17T12:24:26Z</time>
      </trkpt>
      <trkpt lat="39.860404" lon="-0.514266">
        <ele>472.524</ele>
        <time>2020-01-17T12:24:29Z</time>
      </trkpt>
      <trkpt lat="39.860437" lon="-0.51422">
        <ele>472.092</ele>
        <time>2020-01-17T12:24:31Z</time>
      </trkpt>
      <trkpt lat="39.86046" lon="-0.514168">
        <ele>471.585</ele>
        <time>2020-01-17T12:24:33Z</time>
      </trkpt>
      <trkpt lat="39.860479" lon="-0.514108">
        <ele>473.218</ele>
        <time>2020-01-17T12:24:35Z</time>
      </trkpt>
      <trkpt lat="39.860491" lon="-0.514077">
        <ele>474.433</ele>
        <time>2020-01-17T12:24:36Z</time>
      </trkpt>
      <trkpt lat="39.860501" lon="-0.514047">
        <ele>477.515</ele>
        <time>2020-01-17T12:24:37Z</time>
      </trkpt>
      <trkpt lat="39.860509" lon="-0.514018">
        <ele>478.652</ele>
        <time>2020-01-17T12:24:38Z</time>
      </trkpt>
      <trkpt lat="39.860528" lon="-0.513959">
        <ele>478.088</ele>
        <time>2020-01-17T12:24:40Z</time>
      </trkpt>
      <trkpt lat="39.860558" lon="-0.513885">
        <ele>477.008</ele>
        <time>2020-01-17T12:24:43Z</time>
      </trkpt>
      <trkpt lat="39.860583" lon="-0.5138">
        <ele>474.83</ele>
        <time>2020-01-17T12:24:46Z</time>
      </trkpt>
      <trkpt lat="39.860592" lon="-0.513772">
        <ele>474.993</ele>
        <time>2020-01-17T12:24:47Z</time>
      </trkpt>
      <trkpt lat="39.8606" lon="-0.513741">
        <ele>474.655</ele>
        <time>2020-01-17T12:24:48Z</time>
      </trkpt>
      <trkpt lat="39.860628" lon="-0.513694">
        <ele>477.192</ele>
        <time>2020-01-17T12:24:50Z</time>
      </trkpt>
      <trkpt lat="39.86066" lon="-0.513648">
        <ele>475.165</ele>
        <time>2020-01-17T12:24:52Z</time>
      </trkpt>
      <trkpt lat="39.860715" lon="-0.513599">
        <ele>472.487</ele>
        <time>2020-01-17T12:24:55Z</time>
      </trkpt>
      <trkpt lat="39.860759" lon="-0.513645">
        <ele>471.713</ele>
        <time>2020-01-17T12:24:58Z</time>
      </trkpt>
      <trkpt lat="39.860759" lon="-0.513645">
        <ele>470.959</ele>
        <time>2020-01-17T12:25:07Z</time>
      </trkpt>
      <trkpt lat="39.860759" lon="-0.513645">
        <ele>467.233</ele>
        <time>2020-01-17T12:25:07Z</time>
      </trkpt>
      <trkpt lat="39.860759" lon="-0.513645">
        <ele>464.958</ele>
        <time>2020-01-17T12:27:08Z</time>
      </trkpt>
      <trkpt lat="39.860782" lon="-0.513478">
        <ele>464.842</ele>
        <time>2020-01-17T12:27:08Z</time>
      </trkpt>
      <trkpt lat="39.860845" lon="-0.513445">
        <ele>464.88</ele>
        <time>2020-01-17T12:27:11Z</time>
      </trkpt>
      <trkpt lat="39.86089" lon="-0.513368">
        <ele>464.159</ele>
        <time>2020-01-17T12:27:14Z</time>
      </trkpt>
      <trkpt lat="39.860927" lon="-0.513328">
        <ele>466.055</ele>
        <time>2020-01-17T12:27:16Z</time>
      </trkpt>
      <trkpt lat="39.860997" lon="-0.513251">
        <ele>467.031</ele>
        <time>2020-01-17T12:27:19Z</time>
      </trkpt>
      <trkpt lat="39.861027" lon="-0.513188">
        <ele>468.158</ele>
        <time>2020-01-17T12:27:23Z</time>
      </trkpt>
      <trkpt lat="39.861048" lon="-0.513147">
        <ele>469.51</ele>
        <time>2020-01-17T12:27:27Z</time>
      </trkpt>
      <trkpt lat="39.861048" lon="-0.513147">
        <ele>471.245</ele>
        <time>2020-01-17T12:27:35Z</time>
      </trkpt>
      <trkpt lat="39.861048" lon="-0.513147">
        <ele>470.815</ele>
        <time>2020-01-17T12:28:00Z</time>
      </trkpt>
      <trkpt lat="39.861199" lon="-0.512992">
        <ele>471.318</ele>
        <time>2020-01-17T12:28:00Z</time>
      </trkpt>
      <trkpt lat="39.861269" lon="-0.512894">
        <ele>474.508</ele>
        <time>2020-01-17T12:28:03Z</time>
      </trkpt>
      <trkpt lat="39.861323" lon="-0.51287">
        <ele>474.854</ele>
        <time>2020-01-17T12:28:05Z</time>
      </trkpt>
      <trkpt lat="39.861372" lon="-0.512881">
        <ele>475.225</ele>
        <time>2020-01-17T12:28:06Z</time>
      </trkpt>
      <trkpt lat="39.861413" lon="-0.512802">
        <ele>474.491</ele>
        <time>2020-01-17T12:28:08Z</time>
      </trkpt>
      <trkpt lat="39.861468" lon="-0.512711">
        <ele>483.054</ele>
        <time>2020-01-17T12:28:11Z</time>
      </trkpt>
      <trkpt lat="39.861516" lon="-0.512642">
        <ele>484.477</ele>
        <time>2020-01-17T12:28:15Z</time>
      </trkpt>
      <trkpt lat="39.861727" lon="-0.51228">
        <ele>484.115</ele>
        <time>2020-01-17T12:28:26Z</time>
      </trkpt>
      <trkpt lat="39.86192" lon="-0.512366">
        <ele>482.607</ele>
        <time>2020-01-17T12:28:27Z</time>
      </trkpt>
      <trkpt lat="39.862007" lon="-0.512375">
        <ele>483.017</ele>
        <time>2020-01-17T12:28:29Z</time>
      </trkpt>
      <trkpt lat="39.862045" lon="-0.512378">
        <ele>482.803</ele>
        <time>2020-01-17T12:28:30Z</time>
      </trkpt>
      <trkpt lat="39.862084" lon="-0.512383">
        <ele>483.086</ele>
        <time>2020-01-17T12:28:31Z</time>
      </trkpt>
      <trkpt lat="39.862453" lon="-0.512323">
        <ele>482.464</ele>
        <time>2020-01-17T12:28:36Z</time>
      </trkpt>
      <trkpt lat="39.862524" lon="-0.512303">
        <ele>479.93</ele>
        <time>2020-01-17T12:28:38Z</time>
      </trkpt>
      <trkpt lat="39.86256" lon="-0.512294">
        <ele>480.34</ele>
        <time>2020-01-17T12:28:39Z</time>
      </trkpt>
      <trkpt lat="39.862601" lon="-0.512286">
        <ele>479.857</ele>
        <time>2020-01-17T12:28:40Z</time>
      </trkpt>
      <trkpt lat="39.86265" lon="-0.512289">
        <ele>480.8</ele>
        <time>2020-01-17T12:28:41Z</time>
      </trkpt>
      <trkpt lat="39.862705" lon="-0.512294">
        <ele>483.408</ele>
        <time>2020-01-17T12:28:42Z</time>
      </trkpt>
      <trkpt lat="39.862762" lon="-0.5123">
        <ele>483.434</ele>
        <time>2020-01-17T12:28:43Z</time>
      </trkpt>
      <trkpt lat="39.862824" lon="-0.512305">
        <ele>482.598</ele>
        <time>2020-01-17T12:28:44Z</time>
      </trkpt>
      <trkpt lat="39.863054" lon="-0.512357">
        <ele>478.497</ele>
        <time>2020-01-17T12:28:45Z</time>
      </trkpt>
      <trkpt lat="39.863175" lon="-0.512375">
        <ele>477.44</ele>
        <time>2020-01-17T12:28:47Z</time>
      </trkpt>
      <trkpt lat="39.863245" lon="-0.512408">
        <ele>476.146</ele>
        <time>2020-01-17T12:28:48Z</time>
      </trkpt>
      <trkpt lat="39.863317" lon="-0.512444">
        <ele>474.187</ele>
        <time>2020-01-17T12:28:49Z</time>
      </trkpt>
      <trkpt lat="39.863517" lon="-0.512501">
        <ele>475.393</ele>
        <time>2020-01-17T12:28:52Z</time>
      </trkpt>
      <trkpt lat="39.863574" lon="-0.512499">
        <ele>472.388</ele>
        <time>2020-01-17T12:28:53Z</time>
      </trkpt>
      <trkpt lat="39.863627" lon="-0.512499">
        <ele>469.743</ele>
        <time>2020-01-17T12:28:54Z</time>
      </trkpt>
      <trkpt lat="39.863679" lon="-0.512505">
        <ele>470.062</ele>
        <time>2020-01-17T12:28:55Z</time>
      </trkpt>
      <trkpt lat="39.863843" lon="-0.512551">
        <ele>468.969</ele>
        <time>2020-01-17T12:28:57Z</time>
      </trkpt>
      <trkpt lat="39.863911" lon="-0.512548">
        <ele>470.078</ele>
        <time>2020-01-17T12:28:58Z</time>
      </trkpt>
      <trkpt lat="39.86402" lon="-0.512526">
        <ele>469.172</ele>
        <time>2020-01-17T12:29:00Z</time>
      </trkpt>
      <trkpt lat="39.864282" lon="-0.512532">
        <ele>468.535</ele>
        <time>2020-01-17T12:29:04Z</time>
      </trkpt>
      <trkpt lat="39.864347" lon="-0.51252">
        <ele>471.256</ele>
        <time>2020-01-17T12:29:05Z</time>
      </trkpt>
      <trkpt lat="39.864408" lon="-0.512506">
        <ele>470.675</ele>
        <time>2020-01-17T12:29:06Z</time>
      </trkpt>
      <trkpt lat="39.864473" lon="-0.512494">
        <ele>471.575</ele>
        <time>2020-01-17T12:29:07Z</time>
      </trkpt>
      <trkpt lat="39.864549" lon="-0.512497">
        <ele>471.511</ele>
        <time>2020-01-17T12:29:08Z</time>
      </trkpt>
      <trkpt lat="39.864682" lon="-0.512476">
        <ele>470.516</ele>
        <time>2020-01-17T12:29:10Z</time>
      </trkpt>
      <trkpt lat="39.864741" lon="-0.512444">
        <ele>471.501</ele>
        <time>2020-01-17T12:29:11Z</time>
      </trkpt>
      <trkpt lat="39.864799" lon="-0.512428">
        <ele>473.172</ele>
        <time>2020-01-17T12:29:12Z</time>
      </trkpt>
      <trkpt lat="39.864861" lon="-0.512406">
        <ele>478.797</ele>
        <time>2020-01-17T12:29:13Z</time>
      </trkpt>
      <trkpt lat="39.864992" lon="-0.512385">
        <ele>480.092</ele>
        <time>2020-01-17T12:29:15Z</time>
      </trkpt>
      <trkpt lat="39.865164" lon="-0.512365">
        <ele>480.627</ele>
        <time>2020-01-17T12:29:18Z</time>
      </trkpt>
      <trkpt lat="39.865431" lon="-0.512474">
        <ele>482.274</ele>
        <time>2020-01-17T12:29:24Z</time>
      </trkpt>
      <trkpt lat="39.865715" lon="-0.512359">
        <ele>482.9</ele>
        <time>2020-01-17T12:29:28Z</time>
      </trkpt>
      <trkpt lat="39.865781" lon="-0.512291">
        <ele>483.582</ele>
        <time>2020-01-17T12:29:29Z</time>
      </trkpt>
      <trkpt lat="39.865872" lon="-0.512331">
        <ele>485.347</ele>
        <time>2020-01-17T12:29:31Z</time>
      </trkpt>
      <trkpt lat="39.86588" lon="-0.512173">
        <ele>485.166</ele>
        <time>2020-01-17T12:29:34Z</time>
      </trkpt>
      <trkpt lat="39.865906" lon="-0.512115">
        <ele>484.676</ele>
        <time>2020-01-17T12:29:38Z</time>
      </trkpt>
      <trkpt lat="39.86592" lon="-0.512083">
        <ele>483.179</ele>
        <time>2020-01-17T12:29:40Z</time>
      </trkpt>
      <trkpt lat="39.865957" lon="-0.512031">
        <ele>479.736</ele>
        <time>2020-01-17T12:29:43Z</time>
      </trkpt>
      <trkpt lat="39.86601" lon="-0.511973">
        <ele>479.736</ele>
        <time>2020-01-17T12:29:46Z</time>
      </trkpt>
      <trkpt lat="39.866067" lon="-0.511897">
        <ele>466.018</ele>
        <time>2020-01-17T12:29:49Z</time>
      </trkpt>
      <trkpt lat="39.866087" lon="-0.51187">
        <ele>465.135</ele>
        <time>2020-01-17T12:29:50Z</time>
      </trkpt>
      <trkpt lat="39.866125" lon="-0.511815">
        <ele>465.504</ele>
        <time>2020-01-17T12:29:52Z</time>
      </trkpt>
      <trkpt lat="39.866182" lon="-0.51173">
        <ele>465.598</ele>
        <time>2020-01-17T12:29:53Z</time>
      </trkpt>
      <trkpt lat="39.866411" lon="-0.511472">
        <ele>466.899</ele>
        <time>2020-01-17T12:29:56Z</time>
      </trkpt>
      <trkpt lat="39.86647" lon="-0.511453">
        <ele>467.252</ele>
        <time>2020-01-17T12:29:57Z</time>
      </trkpt>
      <trkpt lat="39.866507" lon="-0.511391">
        <ele>467.252</ele>
        <time>2020-01-17T12:29:58Z</time>
      </trkpt>
      <trkpt lat="39.866552" lon="-0.51134">
        <ele>467.999</ele>
        <time>2020-01-17T12:29:59Z</time>
      </trkpt>
      <trkpt lat="39.866665" lon="-0.511285">
        <ele>467.942</ele>
        <time>2020-01-17T12:30:01Z</time>
      </trkpt>
      <trkpt lat="39.866785" lon="-0.511216">
        <ele>469.571</ele>
        <time>2020-01-17T12:30:03Z</time>
      </trkpt>
      <trkpt lat="39.866856" lon="-0.511196">
        <ele>469.621</ele>
        <time>2020-01-17T12:30:04Z</time>
      </trkpt>
      <trkpt lat="39.866906" lon="-0.511118">
        <ele>469.755</ele>
        <time>2020-01-17T12:30:05Z</time>
      </trkpt>
      <trkpt lat="39.866985" lon="-0.511007">
        <ele>469.861</ele>
        <time>2020-01-17T12:30:07Z</time>
      </trkpt>
      <trkpt lat="39.867035" lon="-0.510852">
        <ele>470.133</ele>
        <time>2020-01-17T12:30:09Z</time>
      </trkpt>
      <trkpt lat="39.86709" lon="-0.510813">
        <ele>470.606</ele>
        <time>2020-01-17T12:30:10Z</time>
      </trkpt>
      <trkpt lat="39.867126" lon="-0.510742">
        <ele>470.532</ele>
        <time>2020-01-17T12:30:11Z</time>
      </trkpt>
      <trkpt lat="39.867191" lon="-0.510689">
        <ele>471.08</ele>
        <time>2020-01-17T12:30:12Z</time>
      </trkpt>
      <trkpt lat="39.867268" lon="-0.510667">
        <ele>471.316</ele>
        <time>2020-01-17T12:30:13Z</time>
      </trkpt>
      <trkpt lat="39.867316" lon="-0.510644">
        <ele>471.487</ele>
        <time>2020-01-17T12:30:14Z</time>
      </trkpt>
      <trkpt lat="39.867366" lon="-0.510625">
        <ele>471.073</ele>
        <time>2020-01-17T12:30:15Z</time>
      </trkpt>
      <trkpt lat="39.867451" lon="-0.510593">
        <ele>471.325</ele>
        <time>2020-01-17T12:30:17Z</time>
      </trkpt>
      <trkpt lat="39.867514" lon="-0.510633">
        <ele>472.419</ele>
        <time>2020-01-17T12:30:19Z</time>
      </trkpt>
      <trkpt lat="39.867514" lon="-0.510633">
        <ele>473.536</ele>
        <time>2020-01-17T12:30:24Z</time>
      </trkpt>
      <trkpt lat="39.867514" lon="-0.510633">
        <ele>473.103</ele>
        <time>2020-01-17T12:30:24Z</time>
      </trkpt>
      <trkpt lat="39.867514" lon="-0.510633">
        <ele>473.185</ele>
        <time>2020-01-17T12:30:34Z</time>
      </trkpt>
      <trkpt lat="39.867196" lon="-0.510267">
        <ele>473.489</ele>
        <time>2020-01-17T12:30:34Z</time>
      </trkpt>
      <trkpt lat="39.867367" lon="-0.509848">
        <ele>473.612</ele>
        <time>2020-01-17T12:30:38Z</time>
      </trkpt>
      <trkpt lat="39.867476" lon="-0.509858">
        <ele>472.57</ele>
        <time>2020-01-17T12:30:39Z</time>
      </trkpt>
      <trkpt lat="39.867528" lon="-0.509838">
        <ele>472.959</ele>
        <time>2020-01-17T12:30:40Z</time>
      </trkpt>
      <trkpt lat="39.867596" lon="-0.509819">
        <ele>470.87</ele>
        <time>2020-01-17T12:30:41Z</time>
      </trkpt>
      <trkpt lat="39.867635" lon="-0.50978">
        <ele>472.174</ele>
        <time>2020-01-17T12:30:42Z</time>
      </trkpt>
      <trkpt lat="39.867699" lon="-0.509765">
        <ele>473.248</ele>
        <time>2020-01-17T12:30:43Z</time>
      </trkpt>
      <trkpt lat="39.867736" lon="-0.509697">
        <ele>474.71</ele>
        <time>2020-01-17T12:30:44Z</time>
      </trkpt>
      <trkpt lat="39.867847" lon="-0.509603">
        <ele>476.673</ele>
        <time>2020-01-17T12:30:46Z</time>
      </trkpt>
      <trkpt lat="39.868127" lon="-0.509516">
        <ele>474.285</ele>
        <time>2020-01-17T12:30:50Z</time>
      </trkpt>
      <trkpt lat="39.868174" lon="-0.509467">
        <ele>472.754</ele>
        <time>2020-01-17T12:30:51Z</time>
      </trkpt>
      <trkpt lat="39.868237" lon="-0.509414">
        <ele>471.83</ele>
        <time>2020-01-17T12:30:52Z</time>
      </trkpt>
      <trkpt lat="39.868295" lon="-0.509384">
        <ele>472.101</ele>
        <time>2020-01-17T12:30:53Z</time>
      </trkpt>
      <trkpt lat="39.868362" lon="-0.509354">
        <ele>470.621</ele>
        <time>2020-01-17T12:30:54Z</time>
      </trkpt>
      <trkpt lat="39.868418" lon="-0.509314">
        <ele>471.455</ele>
        <time>2020-01-17T12:30:55Z</time>
      </trkpt>
      <trkpt lat="39.868529" lon="-0.509246">
        <ele>469.33</ele>
        <time>2020-01-17T12:30:57Z</time>
      </trkpt>
      <trkpt lat="39.868587" lon="-0.50923">
        <ele>469.407</ele>
        <time>2020-01-17T12:30:58Z</time>
      </trkpt>
      <trkpt lat="39.868649" lon="-0.509205">
        <ele>468.837</ele>
        <time>2020-01-17T12:30:59Z</time>
      </trkpt>
      <trkpt lat="39.868696" lon="-0.509171">
        <ele>469.556</ele>
        <time>2020-01-17T12:31:00Z</time>
      </trkpt>
      <trkpt lat="39.868746" lon="-0.509136">
        <ele>466.445</ele>
        <time>2020-01-17T12:31:01Z</time>
      </trkpt>
      <trkpt lat="39.868861" lon="-0.509096">
        <ele>466.579</ele>
        <time>2020-01-17T12:31:03Z</time>
      </trkpt>
      <trkpt lat="39.868911" lon="-0.509059">
        <ele>463.506</ele>
        <time>2020-01-17T12:31:04Z</time>
      </trkpt>
      <trkpt lat="39.868963" lon="-0.509024">
        <ele>463.488</ele>
        <time>2020-01-17T12:31:05Z</time>
      </trkpt>
      <trkpt lat="39.869013" lon="-0.508998">
        <ele>463.019</ele>
        <time>2020-01-17T12:31:06Z</time>
      </trkpt>
      <trkpt lat="39.869068" lon="-0.508976">
        <ele>462.603</ele>
        <time>2020-01-17T12:31:07Z</time>
      </trkpt>
      <trkpt lat="39.86911" lon="-0.508951">
        <ele>462.611</ele>
        <time>2020-01-17T12:31:08Z</time>
      </trkpt>
      <trkpt lat="39.869155" lon="-0.508925">
        <ele>462.775</ele>
        <time>2020-01-17T12:31:09Z</time>
      </trkpt>
      <trkpt lat="39.869179" lon="-0.508912">
        <ele>462.981</ele>
        <time>2020-01-17T12:31:10Z</time>
      </trkpt>
      <trkpt lat="39.869212" lon="-0.508895">
        <ele>463.249</ele>
        <time>2020-01-17T12:31:13Z</time>
      </trkpt>
      <trkpt lat="39.869252" lon="-0.508866">
        <ele>462.778</ele>
        <time>2020-01-17T12:31:16Z</time>
      </trkpt>
      <trkpt lat="39.869302" lon="-0.508823">
        <ele>463.55</ele>
        <time>2020-01-17T12:31:19Z</time>
      </trkpt>
      <trkpt lat="39.869358" lon="-0.508792">
        <ele>463.549</ele>
        <time>2020-01-17T12:31:21Z</time>
      </trkpt>
      <trkpt lat="39.869394" lon="-0.508776">
        <ele>462.752</ele>
        <time>2020-01-17T12:31:22Z</time>
      </trkpt>
      <trkpt lat="39.869434" lon="-0.508758">
        <ele>462.312</ele>
        <time>2020-01-17T12:31:23Z</time>
      </trkpt>
      <trkpt lat="39.869525" lon="-0.508719">
        <ele>460.052</ele>
        <time>2020-01-17T12:31:25Z</time>
      </trkpt>
      <trkpt lat="39.869965" lon="-0.508537">
        <ele>459.933</ele>
        <time>2020-01-17T12:31:30Z</time>
      </trkpt>
      <trkpt lat="39.870036" lon="-0.508504">
        <ele>460.548</ele>
        <time>2020-01-17T12:31:31Z</time>
      </trkpt>
      <trkpt lat="39.870184" lon="-0.508422">
        <ele>459.727</ele>
        <time>2020-01-17T12:31:33Z</time>
      </trkpt>
      <trkpt lat="39.870247" lon="-0.508388">
        <ele>459.038</ele>
        <time>2020-01-17T12:31:34Z</time>
      </trkpt>
      <trkpt lat="39.870304" lon="-0.50835">
        <ele>459.717</ele>
        <time>2020-01-17T12:31:35Z</time>
      </trkpt>
      <trkpt lat="39.870494" lon="-0.508226">
        <ele>458.975</ele>
        <time>2020-01-17T12:31:39Z</time>
      </trkpt>
      <trkpt lat="39.870545" lon="-0.508201">
        <ele>458.656</ele>
        <time>2020-01-17T12:31:40Z</time>
      </trkpt>
      <trkpt lat="39.870595" lon="-0.508175">
        <ele>458.674</ele>
        <time>2020-01-17T12:31:41Z</time>
      </trkpt>
      <trkpt lat="39.87064" lon="-0.508146">
        <ele>458.266</ele>
        <time>2020-01-17T12:31:42Z</time>
      </trkpt>
      <trkpt lat="39.870688" lon="-0.508133">
        <ele>458.284</ele>
        <time>2020-01-17T12:31:43Z</time>
      </trkpt>
      <trkpt lat="39.870733" lon="-0.508118">
        <ele>458.379</ele>
        <time>2020-01-17T12:31:44Z</time>
      </trkpt>
      <trkpt lat="39.870787" lon="-0.508104">
        <ele>461.022</ele>
        <time>2020-01-17T12:31:45Z</time>
      </trkpt>
      <trkpt lat="39.87086" lon="-0.508078">
        <ele>463.488</ele>
        <time>2020-01-17T12:31:46Z</time>
      </trkpt>
      <trkpt lat="39.870999" lon="-0.508027">
        <ele>464.763</ele>
        <time>2020-01-17T12:31:48Z</time>
      </trkpt>
      <trkpt lat="39.871048" lon="-0.508014">
        <ele>465.346</ele>
        <time>2020-01-17T12:31:49Z</time>
      </trkpt>
      <trkpt lat="39.871141" lon="-0.507983">
        <ele>465.11</ele>
        <time>2020-01-17T12:31:51Z</time>
      </trkpt>
      <trkpt lat="39.871185" lon="-0.507962">
        <ele>464.944</ele>
        <time>2020-01-17T12:31:52Z</time>
      </trkpt>
      <trkpt lat="39.871229" lon="-0.507939">
        <ele>465.125</ele>
        <time>2020-01-17T12:31:53Z</time>
      </trkpt>
      <trkpt lat="39.87127" lon="-0.507922">
        <ele>463.705</ele>
        <time>2020-01-17T12:31:54Z</time>
      </trkpt>
      <trkpt lat="39.871353" lon="-0.507884">
        <ele>464.579</ele>
        <time>2020-01-17T12:31:56Z</time>
      </trkpt>
      <trkpt lat="39.871398" lon="-0.507863">
        <ele>463.78</ele>
        <time>2020-01-17T12:31:57Z</time>
      </trkpt>
      <trkpt lat="39.871442" lon="-0.507846">
        <ele>463.58</ele>
        <time>2020-01-17T12:31:58Z</time>
      </trkpt>
      <trkpt lat="39.871484" lon="-0.507831">
        <ele>463.635</ele>
        <time>2020-01-17T12:31:59Z</time>
      </trkpt>
      <trkpt lat="39.871532" lon="-0.507819">
        <ele>464.883</ele>
        <time>2020-01-17T12:32:00Z</time>
      </trkpt>
      <trkpt lat="39.87158" lon="-0.507813">
        <ele>466.327</ele>
        <time>2020-01-17T12:32:01Z</time>
      </trkpt>
      <trkpt lat="39.871629" lon="-0.507804">
        <ele>466.353</ele>
        <time>2020-01-17T12:32:02Z</time>
      </trkpt>
      <trkpt lat="39.871669" lon="-0.507801">
        <ele>468.051</ele>
        <time>2020-01-17T12:32:03Z</time>
      </trkpt>
      <trkpt lat="39.87184" lon="-0.507774">
        <ele>461.135</ele>
        <time>2020-01-17T12:32:06Z</time>
      </trkpt>
      <trkpt lat="39.8719" lon="-0.50778">
        <ele>462.136</ele>
        <time>2020-01-17T12:32:07Z</time>
      </trkpt>
      <trkpt lat="39.871952" lon="-0.50776">
        <ele>462.244</ele>
        <time>2020-01-17T12:32:08Z</time>
      </trkpt>
      <trkpt lat="39.872008" lon="-0.507746">
        <ele>461.932</ele>
        <time>2020-01-17T12:32:09Z</time>
      </trkpt>
      <trkpt lat="39.872069" lon="-0.507749">
        <ele>463.701</ele>
        <time>2020-01-17T12:32:10Z</time>
      </trkpt>
      <trkpt lat="39.872133" lon="-0.507749">
        <ele>458.18</ele>
        <time>2020-01-17T12:32:11Z</time>
      </trkpt>
      <trkpt lat="39.872177" lon="-0.507735">
        <ele>456.588</ele>
        <time>2020-01-17T12:32:12Z</time>
      </trkpt>
      <trkpt lat="39.872223" lon="-0.507723">
        <ele>455.162</ele>
        <time>2020-01-17T12:32:13Z</time>
      </trkpt>
      <trkpt lat="39.872369" lon="-0.507698">
        <ele>455.449</ele>
        <time>2020-01-17T12:32:17Z</time>
      </trkpt>
      <trkpt lat="39.872431" lon="-0.507699">
        <ele>456.633</ele>
        <time>2020-01-17T12:32:20Z</time>
      </trkpt>
      <trkpt lat="39.872487" lon="-0.507692">
        <ele>459.344</ele>
        <time>2020-01-17T12:32:22Z</time>
      </trkpt>
      <trkpt lat="39.872523" lon="-0.507689">
        <ele>457.552</ele>
        <time>2020-01-17T12:32:23Z</time>
      </trkpt>
      <trkpt lat="39.872561" lon="-0.507686">
        <ele>458.223</ele>
        <time>2020-01-17T12:32:24Z</time>
      </trkpt>
      <trkpt lat="39.872598" lon="-0.507683">
        <ele>458.421</ele>
        <time>2020-01-17T12:32:25Z</time>
      </trkpt>
      <trkpt lat="39.872647" lon="-0.507685">
        <ele>455.592</ele>
        <time>2020-01-17T12:32:26Z</time>
      </trkpt>
      <trkpt lat="39.872837" lon="-0.507688">
        <ele>456.781</ele>
        <time>2020-01-17T12:32:27Z</time>
      </trkpt>
      <trkpt lat="39.87321" lon="-0.50766">
        <ele>455.621</ele>
        <time>2020-01-17T12:32:31Z</time>
      </trkpt>
      <trkpt lat="39.873258" lon="-0.507652">
        <ele>455.796</ele>
        <time>2020-01-17T12:32:32Z</time>
      </trkpt>
      <trkpt lat="39.87336" lon="-0.507649">
        <ele>455.572</ele>
        <time>2020-01-17T12:32:34Z</time>
      </trkpt>
      <trkpt lat="39.873408" lon="-0.507664">
        <ele>456.132</ele>
        <time>2020-01-17T12:32:35Z</time>
      </trkpt>
      <trkpt lat="39.873458" lon="-0.507677">
        <ele>454.103</ele>
        <time>2020-01-17T12:32:36Z</time>
      </trkpt>
      <trkpt lat="39.873497" lon="-0.507689">
        <ele>454.929</ele>
        <time>2020-01-17T12:32:37Z</time>
      </trkpt>
      <trkpt lat="39.873571" lon="-0.507702">
        <ele>455.338</ele>
        <time>2020-01-17T12:32:39Z</time>
      </trkpt>
      <trkpt lat="39.873673" lon="-0.507758">
        <ele>455.228</ele>
        <time>2020-01-17T12:32:41Z</time>
      </trkpt>
      <trkpt lat="39.873718" lon="-0.507802">
        <ele>455.859</ele>
        <time>2020-01-17T12:32:43Z</time>
      </trkpt>
      <trkpt lat="39.873751" lon="-0.507865">
        <ele>457.919</ele>
        <time>2020-01-17T12:32:46Z</time>
      </trkpt>
      <trkpt lat="39.873903" lon="-0.508077">
        <ele>458.866</ele>
        <time>2020-01-17T12:32:50Z</time>
      </trkpt>
      <trkpt lat="39.873924" lon="-0.508105">
        <ele>458.309</ele>
        <time>2020-01-17T12:32:51Z</time>
      </trkpt>
      <trkpt lat="39.873949" lon="-0.508135">
        <ele>458.073</ele>
        <time>2020-01-17T12:32:53Z</time>
      </trkpt>
      <trkpt lat="39.873981" lon="-0.508172">
        <ele>456.752</ele>
        <time>2020-01-17T12:32:56Z</time>
      </trkpt>
      <trkpt lat="39.874041" lon="-0.508106">
        <ele>456.148</ele>
        <time>2020-01-17T12:33:10Z</time>
      </trkpt>
      <trkpt lat="39.874099" lon="-0.508162">
        <ele>455.13</ele>
        <time>2020-01-17T12:33:12Z</time>
      </trkpt>
      <trkpt lat="39.874149" lon="-0.508236">
        <ele>455.646</ele>
        <time>2020-01-17T12:33:14Z</time>
      </trkpt>
      <trkpt lat="39.874169" lon="-0.508269">
        <ele>455.43</ele>
        <time>2020-01-17T12:33:15Z</time>
      </trkpt>
      <trkpt lat="39.874193" lon="-0.50832">
        <ele>457.013</ele>
        <time>2020-01-17T12:33:17Z</time>
      </trkpt>
      <trkpt lat="39.874212" lon="-0.508374">
        <ele>458.762</ele>
        <time>2020-01-17T12:33:21Z</time>
      </trkpt>
      <trkpt lat="39.874212" lon="-0.508374">
        <ele>462.135</ele>
        <time>2020-01-17T12:33:27Z</time>
      </trkpt>
      <trkpt lat="39.874212" lon="-0.508374">
        <time>2020-01-17T12:33:33Z</time>
      </trkpt>
      <trkpt lat="39.874285" lon="-0.508431">
        <time>2020-01-17T12:33:33Z</time>
      </trkpt>
      <trkpt lat="39.874414" lon="-0.508581">
        <time>2020-01-17T12:33:37Z</time>
      </trkpt>
      <trkpt lat="39.874473" lon="-0.508631">
        <time>2020-01-17T12:33:39Z</time>
      </trkpt>
      <trkpt lat="39.874536" lon="-0.508714">
        <time>2020-01-17T12:33:41Z</time>
      </trkpt>
      <trkpt lat="39.874571" lon="-0.5088">
        <time>2020-01-17T12:33:43Z</time>
      </trkpt>
      <trkpt lat="39.874606" lon="-0.508899">
        <time>2020-01-17T12:33:45Z</time>
      </trkpt>
      <trkpt lat="39.874624" lon="-0.508955">
        <time>2020-01-17T12:33:46Z</time>
      </trkpt>
      <trkpt lat="39.874641" lon="-0.509011">
        <time>2020-01-17T12:33:47Z</time>
      </trkpt>
      <trkpt lat="39.874655" lon="-0.509075">
        <time>2020-01-17T12:33:48Z</time>
      </trkpt>
      <trkpt lat="39.874672" lon="-0.509142">
        <time>2020-01-17T12:33:49Z</time>
      </trkpt>
      <trkpt lat="39.874684" lon="-0.509204">
        <time>2020-01-17T12:33:50Z</time>
      </trkpt>
      <trkpt lat="39.874696" lon="-0.509262">
        <time>2020-01-17T12:33:51Z</time>
      </trkpt>
      <trkpt lat="39.874705" lon="-0.509329">
        <time>2020-01-17T12:33:52Z</time>
      </trkpt>
      <trkpt lat="39.874732" lon="-0.509388">
        <time>2020-01-17T12:33:53Z</time>
      </trkpt>
      <trkpt lat="39.87475" lon="-0.509473">
        <time>2020-01-17T12:33:56Z</time>
      </trkpt>
      <trkpt lat="39.874757" lon="-0.509523">
        <time>2020-01-17T12:33:58Z</time>
      </trkpt>
      <trkpt lat="39.874762" lon="-0.509555">
        <time>2020-01-17T12:33:59Z</time>
      </trkpt>
      <trkpt lat="39.87477" lon="-0.509593">
        <time>2020-01-17T12:34:00Z</time>
      </trkpt>
      <trkpt lat="39.87478" lon="-0.509648">
        <time>2020-01-17T12:34:01Z</time>
      </trkpt>
      <trkpt lat="39.874794" lon="-0.50972">
        <time>2020-01-17T12:34:02Z</time>
      </trkpt>
      <trkpt lat="39.874824" lon="-0.509873">
        <time>2020-01-17T12:34:04Z</time>
      </trkpt>
      <trkpt lat="39.874879" lon="-0.510209">
        <time>2020-01-17T12:34:07Z</time>
      </trkpt>
      <trkpt lat="39.874913" lon="-0.510289">
        <time>2020-01-17T12:34:09Z</time>
      </trkpt>
      <trkpt lat="39.874856" lon="-0.510347">
        <time>2020-01-17T12:34:11Z</time>
      </trkpt>
      <trkpt lat="39.874789" lon="-0.510385">
        <time>2020-01-17T12:34:13Z</time>
      </trkpt>
      <trkpt lat="39.874789" lon="-0.510385">
        <time>2020-01-17T12:34:18Z</time>
      </trkpt>
      <trkpt lat="39.874789" lon="-0.510385">
        <time>2020-01-17T12:37:37Z</time>
      </trkpt>
      <trkpt lat="39.874739" lon="-0.510758">
        <time>2020-01-17T12:37:37Z</time>
      </trkpt>
      <trkpt lat="39.874739" lon="-0.510758">
        <time>2020-01-17T12:39:25Z</time>
      </trkpt>
      <trkpt lat="39.874739" lon="-0.510758">
        <time>2020-01-17T12:39:27Z</time>
      </trkpt>
    </trkseg>
  </trk>
</gpx>
